Wetterdaten: Sonntag, 17.12.2017
Datum Zeit Temp. A. Pool Temp. Feuchte A. Luftdruck Regen Wind Richtung Richtung Sonnenschein ET UV Solar Taupunkt Windchill Windben Empfang
17.12.2017 00:00 0,6 C 3,9 C 95 % 1016,7 hPa 0,0 l/m 9,7 km/h (2 Bft) W-SW 247 0 min 0,000 mm 0,0 UV-I 0 W/m -0,1 C -2,5 C 12,9 km/h (3 Bft) 91,30 %
17.12.2017 00:01 0,6 C 3,9 C 95 % 1016,7 hPa 0,0 l/m 8,0 km/h (2 Bft) SW 225 0 min 0,000 mm 0,0 UV-I 0 W/m -0,1 C -1,0 C 12,9 km/h (3 Bft) 95,65 %
17.12.2017 00:02 0,6 C 3,9 C 95 % 1016,7 hPa 0,0 l/m 6,4 km/h (2 Bft) SW 225 0 min 0,000 mm 0,0 UV-I 0 W/m -0,1 C 0,6 C 9,7 km/h (2 Bft) 100,00 %
17.12.2017 00:03 0,6 C 3,9 C 95 % 1016,7 hPa 0,0 l/m 8,0 km/h (2 Bft) SW 225 0 min 0,000 mm 0,0 UV-I 0 W/m -0,1 C -1,0 C 12,9 km/h (3 Bft) 91,30 %
17.12.2017 00:04 0,6 C 3,9 C 95 % 1016,7 hPa 0,0 l/m 9,7 km/h (2 Bft) SW 225 0 min 0,000 mm 0,0 UV-I 0 W/m -0,1 C -2,5 C 14,5 km/h (3 Bft) 100,00 %
17.12.2017 00:05 0,6 C 3,9 C 95 % 1016,7 hPa 0,0 l/m 8,0 km/h (2 Bft) S-SW 202 0 min 0,000 mm 0,0 UV-I 0 W/m -0,1 C -1,0 C 12,9 km/h (3 Bft) 100,00 %
17.12.2017 00:06 0,6 C 3,9 C 95 % 1016,7 hPa 0,0 l/m 8,0 km/h (2 Bft) SW 225 0 min 0,000 mm 0,0 UV-I 0 W/m -0,1 C -1,0 C 9,7 km/h (2 Bft) 100,00 %
17.12.2017 00:07 0,6 C 3,9 C 95 % 1016,8 hPa 0,0 l/m 6,4 km/h (2 Bft) SW 225 0 min 0,000 mm 0,0 UV-I 0 W/m -0,1 C 0,6 C 8,0 km/h (2 Bft) 100,00 %
17.12.2017 00:08 0,6 C 3,9 C 95 % 1016,8 hPa 0,0 l/m 6,4 km/h (2 Bft) W-SW 247 0 min 0,000 mm 0,0 UV-I 0 W/m -0,1 C 0,6 C 9,7 km/h (2 Bft) 100,00 %
17.12.2017 00:09 0,6 C 3,9 C 95 % 1016,7 hPa 0,0 l/m 8,0 km/h (2 Bft) W-SW 247 0 min 0,000 mm 0,0 UV-I 0 W/m -0,1 C -1,0 C 11,3 km/h (2 Bft) 100,00 %
17.12.2017 00:10 0,7 C 3,9 C 95 % 1016,7 hPa 0,0 l/m 6,4 km/h (2 Bft) W-SW 247 0 min 0,000 mm 0,0 UV-I 0 W/m -0,0 C 0,7 C 9,7 km/h (2 Bft) 91,30 %
17.12.2017 00:11 0,6 C 3,9 C 95 % 1016,7 hPa 0,0 l/m 9,7 km/h (2 Bft) W-SW 247 0 min 0,000 mm 0,0 UV-I 0 W/m -0,1 C -2,5 C 11,3 km/h (2 Bft) 100,00 %
17.12.2017 00:12 0,6 C 3,9 C 95 % 1016,7 hPa 0,0 l/m 8,0 km/h (2 Bft) SW 225 0 min 0,000 mm 0,0 UV-I 0 W/m -0,1 C -1,0 C 9,7 km/h (2 Bft) 100,00 %
17.12.2017 00:13 0,7 C 3,9 C 95 % 1016,7 hPa 0,0 l/m 8,0 km/h (2 Bft) SW 225 0 min 0,000 mm 0,0 UV-I 0 W/m -0,0 C -0,9 C 9,7 km/h (2 Bft) 100,00 %
17.12.2017 00:14 0,7 C 3,9 C 95 % 1016,7 hPa 0,0 l/m 8,0 km/h (2 Bft) SW 225 0 min 0,000 mm 0,0 UV-I 0 W/m -0,0 C -0,9 C 12,9 km/h (3 Bft) 100,00 %
17.12.2017 00:15 0,6 C 3,9 C 95 % 1016,7 hPa 0,0 l/m 9,7 km/h (2 Bft) SW 225 0 min 0,000 mm 0,0 UV-I 0 W/m -0,1 C -2,5 C 14,5 km/h (3 Bft) 100,00 %
17.12.2017 00:16 0,6 C 3,9 C 95 % 1016,7 hPa 0,0 l/m 9,7 km/h (2 Bft) SW 225 0 min 0,000 mm 0,0 UV-I 0 W/m -0,1 C -2,5 C 16,1 km/h (3 Bft) 100,00 %
17.12.2017 00:17 0,6 C 3,9 C 95 % 1016,7 hPa 0,0 l/m 9,7 km/h (2 Bft) S-SW 202 0 min 0,000 mm 0,0 UV-I 0 W/m -0,1 C -2,5 C 11,3 km/h (2 Bft) 91,30 %
17.12.2017 00:18 0,6 C 3,9 C 95 % 1016,7 hPa 0,0 l/m 6,4 km/h (2 Bft) W-SW 247 0 min 0,000 mm 0,0 UV-I 0 W/m -0,1 C 0,6 C 16,1 km/h (3 Bft) 100,00 %
17.12.2017 00:19 0,7 C 3,9 C 95 % 1016,7 hPa 0,0 l/m 11,3 km/h (2 Bft) SW 225 0 min 0,000 mm 0,0 UV-I 0 W/m -0,0 C -3,7 C 17,7 km/h (3 Bft) 100,00 %
17.12.2017 00:20 0,6 C 3,9 C 95 % 1016,8 hPa 0,0 l/m 8,0 km/h (2 Bft) SW 225 0 min 0,000 mm 0,0 UV-I 0 W/m -0,1 C -1,0 C 17,7 km/h (3 Bft) 100,00 %
17.12.2017 00:21 0,6 C 3,9 C 95 % 1016,7 hPa 0,0 l/m 9,7 km/h (2 Bft) SW 225 0 min 0,000 mm 0,0 UV-I 0 W/m -0,1 C -2,5 C 14,5 km/h (3 Bft) 100,00 %
17.12.2017 00:22 0,6 C 3,9 C 95 % 1016,7 hPa 0,0 l/m 8,0 km/h (2 Bft) SW 225 0 min 0,000 mm 0,0 UV-I 0 W/m -0,1 C -1,0 C 11,3 km/h (2 Bft) 100,00 %
17.12.2017 00:23 0,6 C 3,9 C 95 % 1016,8 hPa 0,0 l/m 6,4 km/h (2 Bft) SW 225 0 min 0,000 mm 0,0 UV-I 0 W/m -0,1 C 0,6 C 9,7 km/h (2 Bft) 100,00 %
17.12.2017 00:24 0,6 C 3,9 C 95 % 1016,7 hPa 0,0 l/m 8,0 km/h (2 Bft) W-SW 247 0 min 0,000 mm 0,0 UV-I 0 W/m -0,1 C -1,0 C 11,3 km/h (2 Bft) 91,30 %
17.12.2017 00:25 0,6 C 3,9 C 95 % 1016,7 hPa 0,0 l/m 8,0 km/h (2 Bft) SW 225 0 min 0,000 mm 0,0 UV-I 0 W/m -0,1 C -1,0 C 12,9 km/h (3 Bft) 95,65 %
17.12.2017 00:26 0,6 C 3,9 C 95 % 1016,8 hPa 0,0 l/m 8,0 km/h (2 Bft) W-SW 247 0 min 0,000 mm 0,0 UV-I 0 W/m -0,1 C -1,0 C 11,3 km/h (2 Bft) 100,00 %
17.12.2017 00:27 0,6 C 3,9 C 95 % 1016,8 hPa 0,0 l/m 6,4 km/h (2 Bft) W-SW 247 0 min 0,000 mm 0,0 UV-I 0 W/m -0,1 C 0,6 C 9,7 km/h (2 Bft) 100,00 %
17.12.2017 00:28 0,6 C 3,9 C 95 % 1016,8 hPa 0,0 l/m 8,0 km/h (2 Bft) W-SW 247 0 min 0,000 mm 0,0 UV-I 0 W/m -0,1 C -1,0 C 11,3 km/h (2 Bft) 100,00 %
17.12.2017 00:29 0,6 C 3,9 C 95 % 1016,8 hPa 0,0 l/m 8,0 km/h (2 Bft) W-SW 247 0 min 0,000 mm 0,0 UV-I 0 W/m -0,1 C -1,0 C 11,3 km/h (2 Bft) 100,00 %
17.12.2017 00:30 0,6 C 3,9 C 95 % 1016,8 hPa 0,0 l/m 6,4 km/h (2 Bft) W-SW 247 0 min 0,000 mm 0,0 UV-I 0 W/m -0,1 C 0,6 C 11,3 km/h (2 Bft) 100,00 %
17.12.2017 00:31 0,6 C 3,9 C 95 % 1016,7 hPa 0,0 l/m 8,0 km/h (2 Bft) W-SW 247 0 min 0,000 mm 0,0 UV-I 0 W/m -0,1 C -1,0 C 12,9 km/h (3 Bft) 95,65 %
17.12.2017 00:32 0,6 C 3,9 C 95 % 1016,8 hPa 0,0 l/m 6,4 km/h (2 Bft) SW 225 0 min 0,000 mm 0,0 UV-I 0 W/m -0,1 C 0,6 C 12,9 km/h (3 Bft) 100,00 %
17.12.2017 00:33 0,6 C 3,9 C 95 % 1016,8 hPa 0,0 l/m 6,4 km/h (2 Bft) SW 225 0 min 0,000 mm 0,0 UV-I 0 W/m -0,1 C 0,6 C 9,7 km/h (2 Bft) 100,00 %
17.12.2017 00:34 0,6 C 3,9 C 95 % 1016,7 hPa 0,0 l/m 6,4 km/h (2 Bft) W-SW 247 0 min 0,000 mm 0,0 UV-I 0 W/m -0,1 C 0,6 C 9,7 km/h (2 Bft) 100,00 %
17.12.2017 00:35 0,6 C 3,9 C 95 % 1016,8 hPa 0,0 l/m 6,4 km/h (2 Bft) SW 225 0 min 0,000 mm 0,0 UV-I 0 W/m -0,1 C 0,6 C 9,7 km/h (2 Bft) 100,00 %
17.12.2017 00:36 0,6 C 3,9 C 95 % 1016,8 hPa 0,0 l/m 8,0 km/h (2 Bft) SW 225 0 min 0,000 mm 0,0 UV-I 0 W/m -0,1 C -1,0 C 11,3 km/h (2 Bft) 100,00 %
17.12.2017 00:37 0,6 C 3,9 C 95 % 1016,7 hPa 0,0 l/m 8,0 km/h (2 Bft) W-SW 247 0 min 0,000 mm 0,0 UV-I 0 W/m -0,1 C -1,0 C 12,9 km/h (3 Bft) 95,65 %
17.12.2017 00:38 0,6 C 3,9 C 96 % 1016,7 hPa 0,0 l/m 8,0 km/h (2 Bft) W-SW 247 0 min 0,000 mm 0,0 UV-I 0 W/m 0,0 C -1,0 C 12,9 km/h (3 Bft) 95,65 %
17.12.2017 00:39 0,6 C 3,9 C 95 % 1016,7 hPa 0,0 l/m 8,0 km/h (2 Bft) W-SW 247 0 min 0,000 mm 0,0 UV-I 0 W/m -0,1 C -1,0 C 11,3 km/h (2 Bft) 100,00 %
17.12.2017 00:40 0,6 C 3,9 C 95 % 1016,8 hPa 0,0 l/m 6,4 km/h (2 Bft) SW 225 0 min 0,000 mm 0,0 UV-I 0 W/m -0,1 C 0,6 C 11,3 km/h (2 Bft) 95,65 %
17.12.2017 00:41 0,6 C 3,9 C 95 % 1016,7 hPa 0,0 l/m 8,0 km/h (2 Bft) W-SW 247 0 min 0,000 mm 0,0 UV-I 0 W/m -0,1 C -1,0 C 11,3 km/h (2 Bft) 100,00 %
17.12.2017 00:42 0,6 C 3,9 C 95 % 1016,7 hPa 0,0 l/m 8,0 km/h (2 Bft) SW 225 0 min 0,000 mm 0,0 UV-I 0 W/m -0,1 C -1,0 C 11,3 km/h (2 Bft) 100,00 %
17.12.2017 00:43 0,6 C 3,9 C 95 % 1016,7 hPa 0,0 l/m 6,4 km/h (2 Bft) SW 225 0 min 0,000 mm 0,0 UV-I 0 W/m -0,1 C 0,6 C 8,0 km/h (2 Bft) 100,00 %
17.12.2017 00:44 0,6 C 3,9 C 95 % 1016,8 hPa 0,0 l/m 4,8 km/h (1 Bft) W-SW 247 0 min 0,000 mm 0,0 UV-I 0 W/m -0,1 C 0,6 C 6,4 km/h (2 Bft) 95,65 %
17.12.2017 00:45 0,6 C 3,9 C 95 % 1016,8 hPa 0,0 l/m 4,8 km/h (1 Bft) W-SW 247 0 min 0,000 mm 0,0 UV-I 0 W/m -0,1 C 0,6 C 6,4 km/h (2 Bft) 95,65 %
17.12.2017 00:46 0,6 C 3,9 C 96 % 1016,8 hPa 0,0 l/m 6,4 km/h (2 Bft) SW 225 0 min 0,000 mm 0,0 UV-I 0 W/m 0,0 C 0,6 C 11,3 km/h (2 Bft) 95,65 %
17.12.2017 00:47 0,6 C 3,9 C 96 % 1016,8 hPa 0,0 l/m 8,0 km/h (2 Bft) SW 225 0 min 0,000 mm 0,0 UV-I 0 W/m 0,0 C -1,0 C 11,3 km/h (2 Bft) 95,65 %
17.12.2017 00:48 0,6 C 3,9 C 96 % 1016,8 hPa 0,0 l/m 8,0 km/h (2 Bft) W-SW 247 0 min 0,000 mm 0,0 UV-I 0 W/m 0,0 C -1,0 C 11,3 km/h (2 Bft) 100,00 %
17.12.2017 00:49 0,5 C 3,9 C 96 % 1016,8 hPa 0,0 l/m 6,4 km/h (2 Bft) SW 225 0 min 0,000 mm 0,0 UV-I 0 W/m -0,1 C 0,5 C 9,7 km/h (2 Bft) 100,00 %
17.12.2017 00:50 0,5 C 3,9 C 96 % 1016,8 hPa 0,0 l/m 9,7 km/h (2 Bft) SW 225 0 min 0,000 mm 0,0 UV-I 0 W/m -0,1 C -2,6 C 11,3 km/h (2 Bft) 100,00 %
17.12.2017 00:51 0,5 C 3,9 C 96 % 1016,8 hPa 0,0 l/m 6,4 km/h (2 Bft) SW 225 0 min 0,000 mm 0,0 UV-I 0 W/m -0,1 C 0,5 C 8,0 km/h (2 Bft) 100,00 %
17.12.2017 00:52 0,5 C 3,9 C 96 % 1016,8 hPa 0,0 l/m 8,0 km/h (2 Bft) SW 225 0 min 0,000 mm 0,0 UV-I 0 W/m -0,1 C -1,1 C 12,9 km/h (3 Bft) 95,65 %
17.12.2017 00:53 0,5 C 3,9 C 96 % 1016,9 hPa 0,0 l/m 8,0 km/h (2 Bft) W-SW 247 0 min 0,000 mm 0,0 UV-I 0 W/m -0,1 C -1,1 C 11,3 km/h (2 Bft) 100,00 %
17.12.2017 00:54 0,5 C 3,9 C 96 % 1016,9 hPa 0,0 l/m 8,0 km/h (2 Bft) W-SW 247 0 min 0,000 mm 0,0 UV-I 0 W/m -0,1 C -1,1 C 11,3 km/h (2 Bft) 100,00 %
17.12.2017 00:55 0,5 C 3,9 C 96 % 1016,9 hPa 0,0 l/m 6,4 km/h (2 Bft) SW 225 0 min 0,000 mm 0,0 UV-I 0 W/m -0,1 C 0,5 C 9,7 km/h (2 Bft) 95,65 %
17.12.2017 00:56 0,5 C 3,9 C 96 % 1016,9 hPa 0,0 l/m 8,0 km/h (2 Bft) SW 225 0 min 0,000 mm 0,0 UV-I 0 W/m -0,1 C -1,1 C 12,9 km/h (3 Bft) 95,65 %
17.12.2017 00:57 0,5 C 3,9 C 96 % 1016,9 hPa 0,0 l/m 9,7 km/h (2 Bft) SW 225 0 min 0,000 mm 0,0 UV-I 0 W/m -0,1 C -2,6 C 12,9 km/h (3 Bft) 95,65 %
17.12.2017 00:58 0,6 C 3,9 C 96 % 1016,9 hPa 0,0 l/m 9,7 km/h (2 Bft) SW 225 0 min 0,000 mm 0,0 UV-I 0 W/m 0,0 C -2,5 C 14,5 km/h (3 Bft) 100,00 %
17.12.2017 00:59 0,5 C 3,9 C 96 % 1016,9 hPa 0,0 l/m 8,0 km/h (2 Bft) SW 225 0 min 0,000 mm 0,0 UV-I 0 W/m -0,1 C -1,1 C 9,7 km/h (2 Bft) 95,65 %
17.12.2017 01:00 0,5 C 3,9 C 96 % 1016,9 hPa 0,0 l/m 9,7 km/h (2 Bft) SW 225 0 min 0,000 mm 0,0 UV-I 0 W/m -0,1 C -2,6 C 12,9 km/h (3 Bft) 91,30 %
17.12.2017 01:01 0,6 C 3,9 C 96 % 1016,9 hPa 0,0 l/m 6,4 km/h (2 Bft) W-SW 247 0 min 0,000 mm 0,0 UV-I 0 W/m 0,0 C 0,6 C 9,7 km/h (2 Bft) 95,65 %
17.12.2017 01:02 0,5 C 3,9 C 96 % 1016,8 hPa 0,0 l/m 6,4 km/h (2 Bft) W-SW 247 0 min 0,000 mm 0,0 UV-I 0 W/m -0,1 C 0,5 C 11,3 km/h (2 Bft) 100,00 %
17.12.2017 01:03 0,6 C 3,9 C 96 % 1016,8 hPa 0,0 l/m 9,7 km/h (2 Bft) SW 225 0 min 0,000 mm 0,0 UV-I 0 W/m 0,0 C -2,5 C 14,5 km/h (3 Bft) 95,65 %
17.12.2017 01:04 0,6 C 3,9 C 96 % 1016,8 hPa 0,0 l/m 9,7 km/h (2 Bft) SW 225 0 min 0,000 mm 0,0 UV-I 0 W/m 0,0 C -2,5 C 14,5 km/h (3 Bft) 100,00 %
17.12.2017 01:05 0,5 C 3,9 C 96 % 1016,8 hPa 0,0 l/m 9,7 km/h (2 Bft) SW 225 0 min 0,000 mm 0,0 UV-I 0 W/m -0,1 C -2,6 C 14,5 km/h (3 Bft) 95,65 %
17.12.2017 01:06 0,5 C 3,9 C 96 % 1016,8 hPa 0,0 l/m 11,3 km/h (2 Bft) W-SW 247 0 min 0,000 mm 0,0 UV-I 0 W/m -0,1 C -3,9 C 14,5 km/h (3 Bft) 95,65 %
17.12.2017 01:07 0,6 C 3,9 C 96 % 1016,8 hPa 0,0 l/m 9,7 km/h (2 Bft) W-SW 247 0 min 0,000 mm 0,0 UV-I 0 W/m 0,0 C -2,5 C 12,9 km/h (3 Bft) 95,65 %
17.12.2017 01:08 0,5 C 3,9 C 96 % 1016,8 hPa 0,0 l/m 12,9 km/h (3 Bft) SW 225 0 min 0,000 mm 0,0 UV-I 0 W/m -0,1 C -5,0 C 16,1 km/h (3 Bft) 100,00 %
17.12.2017 01:09 0,5 C 3,9 C 96 % 1016,8 hPa 0,0 l/m 8,0 km/h (2 Bft) SW 225 0 min 0,000 mm 0,0 UV-I 0 W/m -0,1 C -1,1 C 14,5 km/h (3 Bft) 91,30 %
17.12.2017 01:10 0,6 C 3,9 C 96 % 1016,8 hPa 0,0 l/m 8,0 km/h (2 Bft) W-SW 247 0 min 0,000 mm 0,0 UV-I 0 W/m 0,0 C -1,0 C 11,3 km/h (2 Bft) 95,65 %
17.12.2017 01:11 0,6 C 3,9 C 96 % 1016,8 hPa 0,0 l/m 9,7 km/h (2 Bft) SW 225 0 min 0,000 mm 0,0 UV-I 0 W/m 0,0 C -2,5 C 12,9 km/h (3 Bft) 91,30 %
17.12.2017 01:12 0,5 C 3,9 C 96 % 1016,8 hPa 0,0 l/m 11,3 km/h (2 Bft) SW 225 0 min 0,000 mm 0,0 UV-I 0 W/m -0,1 C -3,9 C 17,7 km/h (3 Bft) 86,96 %
17.12.2017 01:13 0,5 C 3,9 C 96 % 1016,8 hPa 0,0 l/m 11,3 km/h (2 Bft) SW 225 0 min 0,000 mm 0,0 UV-I 0 W/m -0,1 C -3,9 C 14,5 km/h (3 Bft) 95,65 %
17.12.2017 01:14 0,5 C 3,9 C 96 % 1016,8 hPa 0,0 l/m 11,3 km/h (2 Bft) SW 225 0 min 0,000 mm 0,0 UV-I 0 W/m -0,1 C -3,9 C 12,9 km/h (3 Bft) 91,30 %
17.12.2017 01:15 0,5 C 3,9 C 96 % 1016,8 hPa 0,0 l/m 9,7 km/h (2 Bft) SW 225 0 min 0,000 mm 0,0 UV-I 0 W/m -0,1 C -2,6 C 14,5 km/h (3 Bft) 100,00 %
17.12.2017 01:16 0,5 C 3,9 C 96 % 1016,8 hPa 0,0 l/m 9,7 km/h (2 Bft) SW 225 0 min 0,000 mm 0,0 UV-I 0 W/m -0,1 C -2,6 C 12,9 km/h (3 Bft) 91,30 %
17.12.2017 01:17 0,6 C 3,9 C 96 % 1016,8 hPa 0,0 l/m 11,3 km/h (2 Bft) SW 225 0 min 0,000 mm 0,0 UV-I 0 W/m 0,0 C -3,8 C 14,5 km/h (3 Bft) 100,00 %
17.12.2017 01:18 0,6 C 3,9 C 96 % 1016,8 hPa 0,0 l/m 9,7 km/h (2 Bft) W-SW 247 0 min 0,000 mm 0,0 UV-I 0 W/m 0,0 C -2,5 C 14,5 km/h (3 Bft) 91,30 %
17.12.2017 01:19 0,5 C 3,9 C 96 % 1016,8 hPa 0,0 l/m 9,7 km/h (2 Bft) SW 225 0 min 0,000 mm 0,0 UV-I 0 W/m -0,1 C -2,6 C 14,5 km/h (3 Bft) 95,65 %
17.12.2017 01:20 0,5 C 3,9 C 96 % 1016,8 hPa 0,0 l/m 9,7 km/h (2 Bft) W-SW 247 0 min 0,000 mm 0,0 UV-I 0 W/m -0,1 C -2,6 C 14,5 km/h (3 Bft) 91,30 %
17.12.2017 01:21 0,5 C 3,9 C 96 % 1016,8 hPa 0,0 l/m 12,9 km/h (3 Bft) SW 225 0 min 0,000 mm 0,0 UV-I 0 W/m -0,1 C -5,0 C 16,1 km/h (3 Bft) 95,65 %
17.12.2017 01:22 0,5 C 3,9 C 96 % 1016,8 hPa 0,0 l/m 8,0 km/h (2 Bft) W-SW 247 0 min 0,000 mm 0,0 UV-I 0 W/m -0,1 C -1,1 C 12,9 km/h (3 Bft) 95,65 %
17.12.2017 01:23 0,6 C 3,9 C 96 % 1016,8 hPa 0,0 l/m 9,7 km/h (2 Bft) SW 225 0 min 0,000 mm 0,0 UV-I 0 W/m 0,0 C -2,5 C 12,9 km/h (3 Bft) 91,30 %
17.12.2017 01:24 0,6 C 3,9 C 96 % 1016,8 hPa 0,0 l/m 11,3 km/h (2 Bft) SW 225 0 min 0,000 mm 0,0 UV-I 0 W/m 0,0 C -3,8 C 16,1 km/h (3 Bft) 100,00 %
17.12.2017 01:25 0,6 C 3,9 C 96 % 1016,8 hPa 0,0 l/m 12,9 km/h (3 Bft) SW 225 0 min 0,000 mm 0,0 UV-I 0 W/m 0,0 C -4,9 C 17,7 km/h (3 Bft) 95,65 %
17.12.2017 01:26 0,6 C 3,9 C 96 % 1016,8 hPa 0,0 l/m 11,3 km/h (2 Bft) SW 225 0 min 0,000 mm 0,0 UV-I 0 W/m 0,0 C -3,8 C 14,5 km/h (3 Bft) 95,65 %
17.12.2017 01:27 0,6 C 3,9 C 96 % 1016,8 hPa 0,0 l/m 8,0 km/h (2 Bft) SW 225 0 min 0,000 mm 0,0 UV-I 0 W/m 0,0 C -1,0 C 14,5 km/h (3 Bft) 95,65 %
17.12.2017 01:28 0,6 C 3,9 C 96 % 1016,8 hPa 0,0 l/m 8,0 km/h (2 Bft) SW 225 0 min 0,000 mm 0,0 UV-I 0 W/m 0,0 C -1,0 C 12,9 km/h (3 Bft) 91,30 %
17.12.2017 01:29 0,6 C 3,9 C 96 % 1016,7 hPa 0,0 l/m 9,7 km/h (2 Bft) SW 225 0 min 0,000 mm 0,0 UV-I 0 W/m 0,0 C -2,5 C 16,1 km/h (3 Bft) 95,65 %
17.12.2017 01:30 0,6 C 3,9 C 96 % 1016,7 hPa 0,0 l/m 14,5 km/h (3 Bft) W-SW 247 0 min 0,000 mm 0,0 UV-I 0 W/m 0,0 C -6,0 C 17,7 km/h (3 Bft) 91,30 %
17.12.2017 01:31 0,6 C 3,9 C 96 % 1016,7 hPa 0,0 l/m 11,3 km/h (2 Bft) SW 225 0 min 0,000 mm 0,0 UV-I 0 W/m 0,0 C -3,8 C 14,5 km/h (3 Bft) 100,00 %
17.12.2017 01:32 0,6 C 3,9 C 96 % 1016,8 hPa 0,0 l/m 14,5 km/h (3 Bft) W-SW 247 0 min 0,000 mm 0,0 UV-I 0 W/m 0,0 C -6,0 C 17,7 km/h (3 Bft) 95,65 %
17.12.2017 01:33 0,6 C 3,9 C 96 % 1016,8 hPa 0,0 l/m 12,9 km/h (3 Bft) W-SW 247 0 min 0,000 mm 0,0 UV-I 0 W/m 0,0 C -4,9 C 16,1 km/h (3 Bft) 95,65 %
17.12.2017 01:34 0,6 C 3,9 C 96 % 1016,8 hPa 0,0 l/m 11,3 km/h (2 Bft) SW 225 0 min 0,000 mm 0,0 UV-I 0 W/m 0,0 C -3,8 C 16,1 km/h (3 Bft) 95,65 %
17.12.2017 01:35 0,6 C 3,9 C 96 % 1016,8 hPa 0,0 l/m 9,7 km/h (2 Bft) W-SW 247 0 min 0,000 mm 0,0 UV-I 0 W/m 0,0 C -2,5 C 14,5 km/h (3 Bft) 95,65 %
17.12.2017 01:36 0,6 C 3,9 C 96 % 1016,8 hPa 0,0 l/m 11,3 km/h (2 Bft) W-SW 247 0 min 0,000 mm 0,0 UV-I 0 W/m 0,0 C -3,8 C 16,1 km/h (3 Bft) 95,65 %
17.12.2017 01:37 0,6 C 3,9 C 96 % 1016,8 hPa 0,0 l/m 11,3 km/h (2 Bft) W-SW 247 0 min 0,000 mm 0,0 UV-I 0 W/m 0,0 C -3,8 C 16,1 km/h (3 Bft) 95,65 %
17.12.2017 01:38 0,6 C 3,9 C 96 % 1016,9 hPa 0,0 l/m 12,9 km/h (3 Bft) SW 225 0 min 0,000 mm 0,0 UV-I 0 W/m 0,0 C -4,9 C 17,7 km/h (3 Bft) 95,65 %
17.12.2017 01:39 0,6 C 3,9 C 96 % 1016,9 hPa 0,0 l/m 9,7 km/h (2 Bft) W-SW 247 0 min 0,000 mm 0,0 UV-I 0 W/m 0,0 C -2,5 C 14,5 km/h (3 Bft) 95,65 %
17.12.2017 01:40 0,6 C 3,9 C 96 % 1016,9 hPa 0,0 l/m 11,3 km/h (2 Bft) W-SW 247 0 min 0,000 mm 0,0 UV-I 0 W/m 0,0 C -3,8 C 19,3 km/h (3 Bft) 100,00 %
17.12.2017 01:41 0,6 C 3,9 C 96 % 1016,9 hPa 0,0 l/m 9,7 km/h (2 Bft) W-SW 247 0 min 0,000 mm 0,0 UV-I 0 W/m 0,0 C -2,5 C 19,3 km/h (3 Bft) 95,65 %
17.12.2017 01:42 0,7 C 3,9 C 96 % 1016,9 hPa 0,0 l/m 9,7 km/h (2 Bft) W-SW 247 0 min 0,000 mm 0,0 UV-I 0 W/m 0,1 C -2,4 C 14,5 km/h (3 Bft) 91,30 %
17.12.2017 01:43 0,7 C 3,9 C 96 % 1016,9 hPa 0,0 l/m 6,4 km/h (2 Bft) SW 225 0 min 0,000 mm 0,0 UV-I 0 W/m 0,1 C 0,7 C 11,3 km/h (2 Bft) 95,65 %
17.12.2017 01:44 0,7 C 3,9 C 96 % 1016,9 hPa 0,0 l/m 8,0 km/h (2 Bft) W-SW 247 0 min 0,000 mm 0,0 UV-I 0 W/m 0,1 C -0,9 C 11,3 km/h (2 Bft) 100,00 %
17.12.2017 01:45 0,7 C 3,9 C 96 % 1016,9 hPa 0,0 l/m 8,0 km/h (2 Bft) W-SW 247 0 min 0,000 mm 0,0 UV-I 0 W/m 0,1 C -0,9 C 14,5 km/h (3 Bft) 95,65 %
17.12.2017 01:46 0,6 C 3,9 C 96 % 1016,9 hPa 0,0 l/m 9,7 km/h (2 Bft) SW 225 0 min 0,000 mm 0,0 UV-I 0 W/m 0,0 C -2,5 C 12,9 km/h (3 Bft) 100,00 %
17.12.2017 01:47 0,7 C 3,9 C 96 % 1016,9 hPa 0,0 l/m 9,7 km/h (2 Bft) W-SW 247 0 min 0,000 mm 0,0 UV-I 0 W/m 0,1 C -2,4 C 12,9 km/h (3 Bft) 100,00 %
17.12.2017 01:48 0,7 C 3,9 C 96 % 1017,0 hPa 0,0 l/m 11,3 km/h (2 Bft) W-SW 247 0 min 0,000 mm 0,0 UV-I 0 W/m 0,1 C -3,7 C 12,9 km/h (3 Bft) 100,00 %
17.12.2017 01:49 0,7 C 3,9 C 96 % 1017,0 hPa 0,0 l/m 12,9 km/h (3 Bft) SW 225 0 min 0,000 mm 0,0 UV-I 0 W/m 0,1 C -4,8 C 20,9 km/h (4 Bft) 91,30 %
17.12.2017 01:50 0,7 C 3,9 C 96 % 1016,9 hPa 0,0 l/m 14,5 km/h (3 Bft) SW 225 0 min 0,000 mm 0,0 UV-I 0 W/m 0,1 C -5,8 C 22,5 km/h (4 Bft) 100,00 %
17.12.2017 01:51 0,7 C 3,9 C 96 % 1016,9 hPa 0,0 l/m 12,9 km/h (3 Bft) SW 225 0 min 0,000 mm 0,0 UV-I 0 W/m 0,1 C -4,8 C 17,7 km/h (3 Bft) 100,00 %
17.12.2017 01:52 0,7 C 3,9 C 95 % 1016,9 hPa 0,0 l/m 11,3 km/h (2 Bft) SW 225 0 min 0,000 mm 0,0 UV-I 0 W/m -0,0 C -3,7 C 16,1 km/h (3 Bft) 95,65 %
17.12.2017 01:53 0,7 C 3,9 C 95 % 1016,9 hPa 0,0 l/m 14,5 km/h (3 Bft) SW 225 0 min 0,000 mm 0,0 UV-I 0 W/m -0,0 C -5,8 C 19,3 km/h (3 Bft) 100,00 %
17.12.2017 01:54 0,7 C 3,9 C 95 % 1016,9 hPa 0,0 l/m 14,5 km/h (3 Bft) SW 225 0 min 0,000 mm 0,0 UV-I 0 W/m -0,0 C -5,8 C 22,5 km/h (4 Bft) 100,00 %
17.12.2017 01:55 0,7 C 3,9 C 95 % 1017,0 hPa 0,0 l/m 12,9 km/h (3 Bft) W-SW 247 0 min 0,000 mm 0,0 UV-I 0 W/m -0,0 C -4,8 C 17,7 km/h (3 Bft) 100,00 %
17.12.2017 01:56 0,7 C 3,9 C 95 % 1017,0 hPa 0,0 l/m 14,5 km/h (3 Bft) SW 225 0 min 0,000 mm 0,0 UV-I 0 W/m -0,0 C -5,8 C 17,7 km/h (3 Bft) 95,65 %
17.12.2017 01:57 0,7 C 3,9 C 95 % 1017,0 hPa 0,0 l/m 14,5 km/h (3 Bft) SW 225 0 min 0,000 mm 0,0 UV-I 0 W/m -0,0 C -5,8 C 17,7 km/h (3 Bft) 100,00 %
17.12.2017 01:58 0,7 C 3,9 C 95 % 1017,0 hPa 0,0 l/m 12,9 km/h (3 Bft) SW 225 0 min 0,000 mm 0,0 UV-I 0 W/m -0,0 C -4,8 C 16,1 km/h (3 Bft) 100,00 %
17.12.2017 01:59 0,7 C 3,9 C 95 % 1017,0 hPa 0,0 l/m 12,9 km/h (3 Bft) W-SW 247 0 min 0,000 mm 0,0 UV-I 0 W/m -0,0 C -4,8 C 16,1 km/h (3 Bft) 100,00 %
17.12.2017 02:00 0,7 C 3,9 C 95 % 1017,0 hPa 0,0 l/m 14,5 km/h (3 Bft) SW 225 0 min 0,000 mm 0,0 UV-I 0 W/m -0,0 C -5,8 C 17,7 km/h (3 Bft) 100,00 %
17.12.2017 02:01 0,7 C 3,9 C 95 % 1017,0 hPa 0,0 l/m 11,3 km/h (2 Bft) SW 225 0 min 0,000 mm 0,0 UV-I 0 W/m -0,0 C -3,7 C 16,1 km/h (3 Bft) 91,30 %
17.12.2017 02:02 0,7 C 3,9 C 95 % 1017,0 hPa 0,0 l/m 12,9 km/h (3 Bft) W-SW 247 0 min 0,000 mm 0,0 UV-I 0 W/m -0,0 C -4,8 C 19,3 km/h (3 Bft) 100,00 %
17.12.2017 02:03 0,7 C 3,9 C 95 % 1017,0 hPa 0,0 l/m 12,9 km/h (3 Bft) SW 225 0 min 0,000 mm 0,0 UV-I 0 W/m -0,0 C -4,8 C 16,1 km/h (3 Bft) 95,65 %
17.12.2017 02:04 0,7 C 3,9 C 95 % 1017,0 hPa 0,0 l/m 9,7 km/h (2 Bft) W-SW 247 0 min 0,000 mm 0,0 UV-I 0 W/m -0,0 C -2,4 C 14,5 km/h (3 Bft) 100,00 %
17.12.2017 02:05 0,7 C 3,9 C 95 % 1017,0 hPa 0,0 l/m 11,3 km/h (2 Bft) W-SW 247 0 min 0,000 mm 0,0 UV-I 0 W/m -0,0 C -3,7 C 14,5 km/h (3 Bft) 100,00 %
17.12.2017 02:06 0,7 C 3,9 C 95 % 1017,0 hPa 0,0 l/m 12,9 km/h (3 Bft) W-SW 247 0 min 0,000 mm 0,0 UV-I 0 W/m -0,0 C -4,8 C 17,7 km/h (3 Bft) 100,00 %
17.12.2017 02:07 0,7 C 3,9 C 95 % 1017,0 hPa 0,0 l/m 11,3 km/h (2 Bft) W-SW 247 0 min 0,000 mm 0,0 UV-I 0 W/m -0,0 C -3,7 C 16,1 km/h (3 Bft) 100,00 %
17.12.2017 02:08 0,7 C 3,9 C 95 % 1017,0 hPa 0,0 l/m 11,3 km/h (2 Bft) W-SW 247 0 min 0,000 mm 0,0 UV-I 0 W/m -0,0 C -3,7 C 16,1 km/h (3 Bft) 100,00 %
17.12.2017 02:09 0,7 C 3,9 C 95 % 1017,0 hPa 0,0 l/m 8,0 km/h (2 Bft) W-SW 247 0 min 0,000 mm 0,0 UV-I 0 W/m -0,0 C -0,9 C 11,3 km/h (2 Bft) 100,00 %
17.12.2017 02:10 0,7 C 3,9 C 95 % 1017,0 hPa 0,0 l/m 9,7 km/h (2 Bft) W-SW 247 0 min 0,000 mm 0,0 UV-I 0 W/m -0,0 C -2,4 C 12,9 km/h (3 Bft) 95,65 %
17.12.2017 02:11 0,7 C 3,9 C 95 % 1017,0 hPa 0,0 l/m 9,7 km/h (2 Bft) W-SW 247 0 min 0,000 mm 0,0 UV-I 0 W/m -0,0 C -2,4 C 12,9 km/h (3 Bft) 100,00 %
17.12.2017 02:12 0,7 C 3,9 C 95 % 1017,0 hPa 0,0 l/m 6,4 km/h (2 Bft) W-SW 247 0 min 0,000 mm 0,0 UV-I 0 W/m -0,0 C 0,7 C 8,0 km/h (2 Bft) 100,00 %
17.12.2017 02:13 0,7 C 3,9 C 95 % 1017,0 hPa 0,0 l/m 11,3 km/h (2 Bft) W-SW 247 0 min 0,000 mm 0,0 UV-I 0 W/m -0,0 C -3,7 C 14,5 km/h (3 Bft) 95,65 %
17.12.2017 02:14 0,7 C 3,9 C 95 % 1017,0 hPa 0,0 l/m 9,7 km/h (2 Bft) W-SW 247 0 min 0,000 mm 0,0 UV-I 0 W/m -0,0 C -2,4 C 14,5 km/h (3 Bft) 100,00 %
17.12.2017 02:15 0,7 C 3,9 C 95 % 1017,1 hPa 0,0 l/m 9,7 km/h (2 Bft) W-SW 247 0 min 0,000 mm 0,0 UV-I 0 W/m -0,0 C -2,4 C 14,5 km/h (3 Bft) 95,65 %
17.12.2017 02:16 0,7 C 3,9 C 95 % 1017,1 hPa 0,0 l/m 9,7 km/h (2 Bft) W-SW 247 0 min 0,000 mm 0,0 UV-I 0 W/m -0,0 C -2,4 C 14,5 km/h (3 Bft) 100,00 %
17.12.2017 02:17 0,7 C 3,9 C 95 % 1017,1 hPa 0,0 l/m 8,0 km/h (2 Bft) W-SW 247 0 min 0,000 mm 0,0 UV-I 0 W/m -0,0 C -0,9 C 9,7 km/h (2 Bft) 95,65 %
17.12.2017 02:18 0,7 C 3,9 C 95 % 1017,1 hPa 0,0 l/m 11,3 km/h (2 Bft) SW 225 0 min 0,000 mm 0,0 UV-I 0 W/m -0,0 C -3,7 C 17,7 km/h (3 Bft) 100,00 %
17.12.2017 02:19 0,7 C 3,9 C 95 % 1017,1 hPa 0,0 l/m 9,7 km/h (2 Bft) SW 225 0 min 0,000 mm 0,0 UV-I 0 W/m -0,0 C -2,4 C 12,9 km/h (3 Bft) 100,00 %
17.12.2017 02:20 0,8 C 3,9 C 95 % 1017,1 hPa 0,0 l/m 9,7 km/h (2 Bft) W-SW 247 0 min 0,000 mm 0,0 UV-I 0 W/m 0,1 C -2,3 C 12,9 km/h (3 Bft) 95,65 %
17.12.2017 02:21 0,8 C 3,9 C 95 % 1017,2 hPa 0,0 l/m 9,7 km/h (2 Bft) SW 225 0 min 0,000 mm 0,0 UV-I 0 W/m 0,1 C -2,3 C 12,9 km/h (3 Bft) 95,65 %
17.12.2017 02:22 0,8 C 3,9 C 95 % 1017,1 hPa 0,0 l/m 6,4 km/h (2 Bft) W-SW 247 0 min 0,000 mm 0,0 UV-I 0 W/m 0,1 C 0,8 C 11,3 km/h (2 Bft) 100,00 %
17.12.2017 02:23 0,7 C 3,9 C 95 % 1017,2 hPa 0,0 l/m 6,4 km/h (2 Bft) SW 225 0 min 0,000 mm 0,0 UV-I 0 W/m -0,0 C 0,7 C 8,0 km/h (2 Bft) 100,00 %
17.12.2017 02:24 0,8 C 3,9 C 95 % 1017,2 hPa 0,0 l/m 8,0 km/h (2 Bft) W-SW 247 0 min 0,000 mm 0,0 UV-I 0 W/m 0,1 C -0,8 C 11,3 km/h (2 Bft) 91,30 %
17.12.2017 02:25 0,8 C 3,9 C 95 % 1017,2 hPa 0,0 l/m 6,4 km/h (2 Bft) W-SW 247 0 min 0,000 mm 0,0 UV-I 0 W/m 0,1 C 0,8 C 11,3 km/h (2 Bft) 100,00 %
17.12.2017 02:26 0,8 C 3,9 C 95 % 1017,2 hPa 0,0 l/m 4,8 km/h (1 Bft) SW 225 0 min 0,000 mm 0,0 UV-I 0 W/m 0,1 C 0,8 C 6,4 km/h (2 Bft) 95,65 %
17.12.2017 02:27 0,8 C 3,9 C 95 % 1017,2 hPa 0,0 l/m 6,4 km/h (2 Bft) W-SW 247 0 min 0,000 mm 0,0 UV-I 0 W/m 0,1 C 0,8 C 11,3 km/h (2 Bft) 100,00 %
17.12.2017 02:28 0,8 C 3,9 C 95 % 1017,2 hPa 0,0 l/m 6,4 km/h (2 Bft) SW 225 0 min 0,000 mm 0,0 UV-I 0 W/m 0,1 C 0,8 C 11,3 km/h (2 Bft) 95,65 %
17.12.2017 02:29 0,8 C 3,9 C 95 % 1017,2 hPa 0,0 l/m 8,0 km/h (2 Bft) W-SW 247 0 min 0,000 mm 0,0 UV-I 0 W/m 0,1 C -0,8 C 11,3 km/h (2 Bft) 95,65 %
17.12.2017 02:30 0,8 C 3,9 C 95 % 1017,2 hPa 0,0 l/m 8,0 km/h (2 Bft) SW 225 0 min 0,000 mm 0,0 UV-I 0 W/m 0,1 C -0,8 C 12,9 km/h (3 Bft) 100,00 %
17.12.2017 02:31 0,8 C 3,9 C 95 % 1017,2 hPa 0,0 l/m 9,7 km/h (2 Bft) SW 225 0 min 0,000 mm 0,0 UV-I 0 W/m 0,1 C -2,3 C 12,9 km/h (3 Bft) 91,30 %
17.12.2017 02:32 0,8 C 3,9 C 95 % 1017,2 hPa 0,0 l/m 9,7 km/h (2 Bft) SW 225 0 min 0,000 mm 0,0 UV-I 0 W/m 0,1 C -2,3 C 14,5 km/h (3 Bft) 100,00 %
17.12.2017 02:33 0,8 C 3,9 C 95 % 1017,2 hPa 0,0 l/m 6,4 km/h (2 Bft) SW 225 0 min 0,000 mm 0,0 UV-I 0 W/m 0,1 C 0,8 C 9,7 km/h (2 Bft) 95,65 %
17.12.2017 02:34 0,8 C 3,9 C 95 % 1017,2 hPa 0,0 l/m 8,0 km/h (2 Bft) SW 225 0 min 0,000 mm 0,0 UV-I 0 W/m 0,1 C -0,8 C 11,3 km/h (2 Bft) 100,00 %
17.12.2017 02:35 0,8 C 3,9 C 94 % 1017,3 hPa 0,0 l/m 8,0 km/h (2 Bft) SW 225 0 min 0,000 mm 0,0 UV-I 0 W/m -0,1 C -0,8 C 11,3 km/h (2 Bft) 95,65 %
17.12.2017 02:36 0,8 C 3,9 C 94 % 1017,3 hPa 0,0 l/m 9,7 km/h (2 Bft) SW 225 0 min 0,000 mm 0,0 UV-I 0 W/m -0,1 C -2,3 C 16,1 km/h (3 Bft) 100,00 %
17.12.2017 02:37 0,8 C 3,9 C 94 % 1017,3 hPa 0,0 l/m 8,0 km/h (2 Bft) SW 225 0 min 0,000 mm 0,0 UV-I 0 W/m -0,1 C -0,8 C 14,5 km/h (3 Bft) 95,65 %
17.12.2017 02:38 0,8 C 3,9 C 94 % 1017,3 hPa 0,0 l/m 9,7 km/h (2 Bft) SW 225 0 min 0,000 mm 0,0 UV-I 0 W/m -0,1 C -2,3 C 14,5 km/h (3 Bft) 95,65 %
17.12.2017 02:39 0,8 C 3,9 C 94 % 1017,3 hPa 0,0 l/m 6,4 km/h (2 Bft) S-SW 202 0 min 0,000 mm 0,0 UV-I 0 W/m -0,1 C 0,8 C 8,0 km/h (2 Bft) 95,65 %
17.12.2017 02:40 0,8 C 3,9 C 94 % 1017,3 hPa 0,0 l/m 6,4 km/h (2 Bft) SW 225 0 min 0,000 mm 0,0 UV-I 0 W/m -0,1 C 0,8 C 11,3 km/h (2 Bft) 100,00 %
17.12.2017 02:41 0,8 C 3,9 C 94 % 1017,3 hPa 0,0 l/m 11,3 km/h (2 Bft) SW 225 0 min 0,000 mm 0,0 UV-I 0 W/m -0,1 C -3,6 C 16,1 km/h (3 Bft) 91,30 %
17.12.2017 02:42 0,8 C 3,9 C 94 % 1017,3 hPa 0,0 l/m 6,4 km/h (2 Bft) W-SW 247 0 min 0,000 mm 0,0 UV-I 0 W/m -0,1 C 0,8 C 12,9 km/h (3 Bft) 95,65 %
17.12.2017 02:43 0,8 C 3,9 C 94 % 1017,3 hPa 0,0 l/m 8,0 km/h (2 Bft) SW 225 0 min 0,000 mm 0,0 UV-I 0 W/m -0,1 C -0,8 C 11,3 km/h (2 Bft) 95,65 %
17.12.2017 02:44 0,8 C 3,9 C 94 % 1017,4 hPa 0,0 l/m 9,7 km/h (2 Bft) SW 225 0 min 0,000 mm 0,0 UV-I 0 W/m -0,1 C -2,3 C 14,5 km/h (3 Bft) 95,65 %
17.12.2017 02:45 0,8 C 3,9 C 94 % 1017,3 hPa 0,0 l/m 11,3 km/h (2 Bft) SW 225 0 min 0,000 mm 0,0 UV-I 0 W/m -0,1 C -3,6 C 17,7 km/h (3 Bft) 95,65 %
17.12.2017 02:46 0,8 C 3,9 C 94 % 1017,3 hPa 0,0 l/m 9,7 km/h (2 Bft) SW 225 0 min 0,000 mm 0,0 UV-I 0 W/m -0,1 C -2,3 C 14,5 km/h (3 Bft) 100,00 %
17.12.2017 02:47 0,8 C 3,9 C 94 % 1017,3 hPa 0,0 l/m 9,7 km/h (2 Bft) SW 225 0 min 0,000 mm 0,0 UV-I 0 W/m -0,1 C -2,3 C 12,9 km/h (3 Bft) 100,00 %
17.12.2017 02:48 0,8 C 3,9 C 94 % 1017,4 hPa 0,0 l/m 8,0 km/h (2 Bft) SW 225 0 min 0,000 mm 0,0 UV-I 0 W/m -0,1 C -0,8 C 11,3 km/h (2 Bft) 95,65 %
17.12.2017 02:49 0,8 C 3,9 C 94 % 1017,4 hPa 0,0 l/m 9,7 km/h (2 Bft) W-SW 247 0 min 0,000 mm 0,0 UV-I 0 W/m -0,1 C -2,3 C 14,5 km/h (3 Bft) 100,00 %
17.12.2017 02:50 0,8 C 3,9 C 94 % 1017,4 hPa 0,0 l/m 8,0 km/h (2 Bft) SW 225 0 min 0,000 mm 0,0 UV-I 0 W/m -0,1 C -0,8 C 9,7 km/h (2 Bft) 100,00 %
17.12.2017 02:51 0,8 C 3,9 C 94 % 1017,3 hPa 0,0 l/m 6,4 km/h (2 Bft) SW 225 0 min 0,000 mm 0,0 UV-I 0 W/m -0,1 C 0,8 C 8,0 km/h (2 Bft) 95,65 %
17.12.2017 02:52 0,8 C 3,9 C 94 % 1017,4 hPa 0,0 l/m 9,7 km/h (2 Bft) W-SW 247 0 min 0,000 mm 0,0 UV-I 0 W/m -0,1 C -2,3 C 16,1 km/h (3 Bft) 95,65 %
17.12.2017 02:53 0,8 C 3,9 C 95 % 1017,3 hPa 0,0 l/m 8,0 km/h (2 Bft) SW 225 0 min 0,000 mm 0,0 UV-I 0 W/m 0,1 C -0,8 C 14,5 km/h (3 Bft) 100,00 %
17.12.2017 02:54 0,7 C 3,9 C 95 % 1017,3 hPa 0,0 l/m 9,7 km/h (2 Bft) SW 225 0 min 0,000 mm 0,0 UV-I 0 W/m -0,0 C -2,4 C 14,5 km/h (3 Bft) 100,00 %
17.12.2017 02:55 0,8 C 3,9 C 95 % 1017,4 hPa 0,0 l/m 8,0 km/h (2 Bft) SW 225 0 min 0,000 mm 0,0 UV-I 0 W/m 0,1 C -0,8 C 9,7 km/h (2 Bft) 95,65 %
17.12.2017 02:56 0,7 C 3,9 C 95 % 1017,3 hPa 0,0 l/m 6,4 km/h (2 Bft) W-SW 247 0 min 0,000 mm 0,0 UV-I 0 W/m -0,0 C 0,7 C 9,7 km/h (2 Bft) 91,30 %
17.12.2017 02:57 0,7 C 3,9 C 95 % 1017,3 hPa 0,0 l/m 11,3 km/h (2 Bft) W-SW 247 0 min 0,000 mm 0,0 UV-I 0 W/m -0,0 C -3,7 C 14,5 km/h (3 Bft) 100,00 %
17.12.2017 02:58 0,7 C 3,9 C 95 % 1017,4 hPa 0,0 l/m 8,0 km/h (2 Bft) SW 225 0 min 0,000 mm 0,0 UV-I 0 W/m -0,0 C -0,9 C 11,3 km/h (2 Bft) 100,00 %
17.12.2017 02:59 0,7 C 3,9 C 95 % 1017,4 hPa 0,0 l/m 8,0 km/h (2 Bft) SW 225 0 min 0,000 mm 0,0 UV-I 0 W/m -0,0 C -0,9 C 14,5 km/h (3 Bft) 95,65 %
17.12.2017 03:00 0,8 C 3,9 C 95 % 1017,3 hPa 0,0 l/m 8,0 km/h (2 Bft) W-SW 247 0 min 0,000 mm 0,0 UV-I 0 W/m 0,1 C -0,8 C 11,3 km/h (2 Bft) 95,65 %
17.12.2017 03:01 0,7 C 3,9 C 95 % 1017,4 hPa 0,0 l/m 12,9 km/h (3 Bft) SW 225 0 min 0,000 mm 0,0 UV-I 0 W/m -0,0 C -4,8 C 16,1 km/h (3 Bft) 95,65 %
17.12.2017 03:02 0,8 C 3,9 C 95 % 1017,4 hPa 0,0 l/m 11,3 km/h (2 Bft) SW 225 0 min 0,000 mm 0,0 UV-I 0 W/m 0,1 C -3,6 C 16,1 km/h (3 Bft) 100,00 %
17.12.2017 03:03 0,8 C 3,9 C 94 % 1017,4 hPa 0,0 l/m 6,4 km/h (2 Bft) W-SW 247 0 min 0,000 mm 0,0 UV-I 0 W/m -0,1 C 0,8 C 11,3 km/h (2 Bft) 100,00 %
17.12.2017 03:04 0,8 C 3,9 C 94 % 1017,4 hPa 0,0 l/m 6,4 km/h (2 Bft) SW 225 0 min 0,000 mm 0,0 UV-I 0 W/m -0,1 C 0,8 C 8,0 km/h (2 Bft) 100,00 %
17.12.2017 03:05 0,8 C 3,9 C 94 % 1017,4 hPa 0,0 l/m 6,4 km/h (2 Bft) S-SW 202 0 min 0,000 mm 0,0 UV-I 0 W/m -0,1 C 0,8 C 8,0 km/h (2 Bft) 91,30 %
17.12.2017 03:06 0,8 C 3,9 C 94 % 1017,5 hPa 0,0 l/m 8,0 km/h (2 Bft) W-SW 247 0 min 0,000 mm 0,0 UV-I 0 W/m -0,1 C -0,8 C 11,3 km/h (2 Bft) 86,96 %
17.12.2017 03:07 0,8 C 3,9 C 94 % 1017,4 hPa 0,0 l/m 9,7 km/h (2 Bft) S-SW 202 0 min 0,000 mm 0,0 UV-I 0 W/m -0,1 C -2,3 C 11,3 km/h (2 Bft) 100,00 %
17.12.2017 03:08 0,8 C 3,9 C 94 % 1017,4 hPa 0,0 l/m 9,7 km/h (2 Bft) S-SW 202 0 min 0,000 mm 0,0 UV-I 0 W/m -0,1 C -2,3 C 14,5 km/h (3 Bft) 100,00 %
17.12.2017 03:09 0,8 C 3,9 C 94 % 1017,4 hPa 0,0 l/m 8,0 km/h (2 Bft) SW 225 0 min 0,000 mm 0,0 UV-I 0 W/m -0,1 C -0,8 C 12,9 km/h (3 Bft) 100,00 %
17.12.2017 03:10 0,8 C 3,9 C 94 % 1017,4 hPa 0,0 l/m 6,4 km/h (2 Bft) S-SW 202 0 min 0,000 mm 0,0 UV-I 0 W/m -0,1 C 0,8 C 9,7 km/h (2 Bft) 100,00 %
17.12.2017 03:11 0,8 C 3,9 C 94 % 1017,4 hPa 0,0 l/m 4,8 km/h (1 Bft) SW 225 0 min 0,000 mm 0,0 UV-I 0 W/m -0,1 C 0,8 C 6,4 km/h (2 Bft) 95,65 %
17.12.2017 03:12 0,8 C 3,9 C 94 % 1017,4 hPa 0,0 l/m 8,0 km/h (2 Bft) SW 225 0 min 0,000 mm 0,0 UV-I 0 W/m -0,1 C -0,8 C 11,3 km/h (2 Bft) 95,65 %
17.12.2017 03:13 0,8 C 3,9 C 94 % 1017,4 hPa 0,0 l/m 6,4 km/h (2 Bft) SW 225 0 min 0,000 mm 0,0 UV-I 0 W/m -0,1 C 0,8 C 11,3 km/h (2 Bft) 95,65 %
17.12.2017 03:14 0,8 C 3,9 C 94 % 1017,3 hPa 0,0 l/m 8,0 km/h (2 Bft) S-SW 202 0 min 0,000 mm 0,0 UV-I 0 W/m -0,1 C -0,8 C 12,9 km/h (3 Bft) 95,65 %
17.12.2017 03:15 0,7 C 3,9 C 94 % 1017,3 hPa 0,0 l/m 4,8 km/h (1 Bft) S-SW 202 0 min 0,000 mm 0,0 UV-I 0 W/m -0,2 C 0,7 C 9,7 km/h (2 Bft) 100,00 %
17.12.2017 03:16 0,7 C 3,9 C 94 % 1017,3 hPa 0,0 l/m 4,8 km/h (1 Bft) S 180 0 min 0,000 mm 0,0 UV-I 0 W/m -0,2 C 0,7 C 8,0 km/h (2 Bft) 91,30 %
17.12.2017 03:17 0,7 C 3,9 C 94 % 1017,3 hPa 0,0 l/m 6,4 km/h (2 Bft) S 180 0 min 0,000 mm 0,0 UV-I 0 W/m -0,2 C 0,7 C 9,7 km/h (2 Bft) 100,00 %
17.12.2017 03:18 0,7 C 3,9 C 94 % 1017,3 hPa 0,0 l/m 4,8 km/h (1 Bft) S-SW 202 0 min 0,000 mm 0,0 UV-I 0 W/m -0,2 C 0,7 C 8,0 km/h (2 Bft) 95,65 %
17.12.2017 03:19 0,7 C 3,9 C 94 % 1017,3 hPa 0,0 l/m 6,4 km/h (2 Bft) S-SW 202 0 min 0,000 mm 0,0 UV-I 0 W/m -0,2 C 0,7 C 9,7 km/h (2 Bft) 100,00 %
17.12.2017 03:20 0,7 C 3,9 C 94 % 1017,3 hPa 0,0 l/m 6,4 km/h (2 Bft) S-SW 202 0 min 0,000 mm 0,0 UV-I 0 W/m -0,2 C 0,7 C 9,7 km/h (2 Bft) 91,30 %
17.12.2017 03:21 0,7 C 3,9 C 94 % 1017,3 hPa 0,0 l/m 4,8 km/h (1 Bft) S 180 0 min 0,000 mm 0,0 UV-I 0 W/m -0,2 C 0,7 C 9,7 km/h (2 Bft) 95,65 %
17.12.2017 03:22 0,7 C 3,9 C 94 % 1017,3 hPa 0,0 l/m 6,4 km/h (2 Bft) S-SW 202 0 min 0,000 mm 0,0 UV-I 0 W/m -0,2 C 0,7 C 11,3 km/h (2 Bft) 100,00 %
17.12.2017 03:23 0,7 C 3,9 C 94 % 1017,3 hPa 0,0 l/m 6,4 km/h (2 Bft) S-SW 202 0 min 0,000 mm 0,0 UV-I 0 W/m -0,2 C 0,7 C 8,0 km/h (2 Bft) 95,65 %
17.12.2017 03:24 0,7 C 3,9 C 94 % 1017,3 hPa 0,0 l/m 6,4 km/h (2 Bft) S-SW 202 0 min 0,000 mm 0,0 UV-I 0 W/m -0,2 C 0,7 C 9,7 km/h (2 Bft) 100,00 %
17.12.2017 03:25 0,7 C 3,9 C 94 % 1017,2 hPa 0,0 l/m 6,4 km/h (2 Bft) S-SW 202 0 min 0,000 mm 0,0 UV-I 0 W/m -0,2 C 0,7 C 11,3 km/h (2 Bft) 95,65 %
17.12.2017 03:26 0,7 C 3,9 C 94 % 1017,2 hPa 0,0 l/m 8,0 km/h (2 Bft) S-SW 202 0 min 0,000 mm 0,0 UV-I 0 W/m -0,2 C -0,9 C 12,9 km/h (3 Bft) 100,00 %
17.12.2017 03:27 0,7 C 3,9 C 94 % 1017,2 hPa 0,0 l/m 8,0 km/h (2 Bft) S-SW 202 0 min 0,000 mm 0,0 UV-I 0 W/m -0,2 C -0,9 C 9,7 km/h (2 Bft) 91,30 %
17.12.2017 03:28 0,7 C 3,9 C 94 % 1017,2 hPa 0,0 l/m 8,0 km/h (2 Bft) S-SW 202 0 min 0,000 mm 0,0 UV-I 0 W/m -0,2 C -0,9 C 11,3 km/h (2 Bft) 100,00 %
17.12.2017 03:29 0,7 C 3,9 C 94 % 1017,2 hPa 0,0 l/m 8,0 km/h (2 Bft) S-SW 202 0 min 0,000 mm 0,0 UV-I 0 W/m -0,2 C -0,9 C 12,9 km/h (3 Bft) 95,65 %
17.12.2017 03:30 0,7 C 3,9 C 94 % 1017,2 hPa 0,0 l/m 6,4 km/h (2 Bft) S-SW 202 0 min 0,000 mm 0,0 UV-I 0 W/m -0,2 C 0,7 C 12,9 km/h (3 Bft) 95,65 %
17.12.2017 03:31 0,7 C 3,9 C 94 % 1017,3 hPa 0,0 l/m 8,0 km/h (2 Bft) S-SW 202 0 min 0,000 mm 0,0 UV-I 0 W/m -0,2 C -0,9 C 11,3 km/h (2 Bft) 100,00 %
17.12.2017 03:32 0,7 C 3,9 C 94 % 1017,3 hPa 0,0 l/m 6,4 km/h (2 Bft) S-SW 202 0 min 0,000 mm 0,0 UV-I 0 W/m -0,2 C 0,7 C 8,0 km/h (2 Bft) 95,65 %
17.12.2017 03:33 0,7 C 3,9 C 94 % 1017,3 hPa 0,0 l/m 9,7 km/h (2 Bft) S-SW 202 0 min 0,000 mm 0,0 UV-I 0 W/m -0,2 C -2,4 C 12,9 km/h (3 Bft) 95,65 %
17.12.2017 03:34 0,7 C 3,9 C 94 % 1017,2 hPa 0,0 l/m 8,0 km/h (2 Bft) S-SW 202 0 min 0,000 mm 0,0 UV-I 0 W/m -0,2 C -0,9 C 14,5 km/h (3 Bft) 91,30 %
17.12.2017 03:35 0,7 C 3,9 C 94 % 1017,3 hPa 0,0 l/m 8,0 km/h (2 Bft) S-SW 202 0 min 0,000 mm 0,0 UV-I 0 W/m -0,2 C -0,9 C 9,7 km/h (2 Bft) 95,65 %
17.12.2017 03:36 0,7 C 3,9 C 94 % 1017,3 hPa 0,0 l/m 9,7 km/h (2 Bft) SW 225 0 min 0,000 mm 0,0 UV-I 0 W/m -0,2 C -2,4 C 14,5 km/h (3 Bft) 95,65 %
17.12.2017 03:37 0,7 C 3,9 C 94 % 1017,3 hPa 0,0 l/m 9,7 km/h (2 Bft) SW 225 0 min 0,000 mm 0,0 UV-I 0 W/m -0,2 C -2,4 C 12,9 km/h (3 Bft) 95,65 %
17.12.2017 03:38 0,8 C 3,9 C 94 % 1017,3 hPa 0,0 l/m 9,7 km/h (2 Bft) SW 225 0 min 0,000 mm 0,0 UV-I 0 W/m -0,1 C -2,3 C 14,5 km/h (3 Bft) 95,65 %
17.12.2017 03:39 0,8 C 3,9 C 94 % 1017,3 hPa 0,0 l/m 11,3 km/h (2 Bft) W-SW 247 0 min 0,000 mm 0,0 UV-I 0 W/m -0,1 C -3,6 C 16,1 km/h (3 Bft) 95,65 %
17.12.2017 03:40 0,8 C 3,9 C 94 % 1017,3 hPa 0,0 l/m 9,7 km/h (2 Bft) SW 225 0 min 0,000 mm 0,0 UV-I 0 W/m -0,1 C -2,3 C 14,5 km/h (3 Bft) 100,00 %
17.12.2017 03:41 0,8 C 3,9 C 94 % 1017,4 hPa 0,0 l/m 9,7 km/h (2 Bft) SW 225 0 min 0,000 mm 0,0 UV-I 0 W/m -0,1 C -2,3 C 17,7 km/h (3 Bft) 91,30 %
17.12.2017 03:42 0,8 C 3,9 C 94 % 1017,4 hPa 0,0 l/m 6,4 km/h (2 Bft) W-SW 247 0 min 0,000 mm 0,0 UV-I 0 W/m -0,1 C 0,8 C 9,7 km/h (2 Bft) 100,00 %
17.12.2017 03:43 0,8 C 3,9 C 94 % 1017,4 hPa 0,0 l/m 8,0 km/h (2 Bft) SW 225 0 min 0,000 mm 0,0 UV-I 0 W/m -0,1 C -0,8 C 9,7 km/h (2 Bft) 95,65 %
17.12.2017 03:44 0,8 C 3,9 C 94 % 1017,4 hPa 0,0 l/m 11,3 km/h (2 Bft) SW 225 0 min 0,000 mm 0,0 UV-I 0 W/m -0,1 C -3,6 C 14,5 km/h (3 Bft) 100,00 %
17.12.2017 03:45 0,8 C 3,9 C 93 % 1017,4 hPa 0,0 l/m 6,4 km/h (2 Bft) S-SW 202 0 min 0,000 mm 0,0 UV-I 0 W/m -0,2 C 0,8 C 9,7 km/h (2 Bft) 95,65 %
17.12.2017 03:46 0,8 C 3,9 C 93 % 1017,4 hPa 0,0 l/m 6,4 km/h (2 Bft) SW 225 0 min 0,000 mm 0,0 UV-I 0 W/m -0,2 C 0,8 C 9,7 km/h (2 Bft) 100,00 %
17.12.2017 03:47 0,8 C 3,9 C 93 % 1017,4 hPa 0,0 l/m 6,4 km/h (2 Bft) SW 225 0 min 0,000 mm 0,0 UV-I 0 W/m -0,2 C 0,8 C 9,7 km/h (2 Bft) 91,30 %
17.12.2017 03:48 0,8 C 3,9 C 93 % 1017,5 hPa 0,0 l/m 9,7 km/h (2 Bft) W-SW 247 0 min 0,000 mm 0,0 UV-I 0 W/m -0,2 C -2,3 C 14,5 km/h (3 Bft) 91,30 %
17.12.2017 03:49 0,8 C 3,9 C 94 % 1017,5 hPa 0,0 l/m 11,3 km/h (2 Bft) SW 225 0 min 0,000 mm 0,0 UV-I 0 W/m -0,1 C -3,6 C 14,5 km/h (3 Bft) 95,65 %
17.12.2017 03:50 0,8 C 3,9 C 94 % 1017,5 hPa 0,0 l/m 12,9 km/h (3 Bft) W-SW 247 0 min 0,000 mm 0,0 UV-I 0 W/m -0,1 C -4,7 C 16,1 km/h (3 Bft) 91,30 %
17.12.2017 03:51 0,8 C 3,9 C 94 % 1017,5 hPa 0,0 l/m 11,3 km/h (2 Bft) SW 225 0 min 0,000 mm 0,0 UV-I 0 W/m -0,1 C -3,6 C 14,5 km/h (3 Bft) 100,00 %
17.12.2017 03:52 0,8 C 3,9 C 94 % 1017,5 hPa 0,0 l/m 11,3 km/h (2 Bft) SW 225 0 min 0,000 mm 0,0 UV-I 0 W/m -0,1 C -3,6 C 17,7 km/h (3 Bft) 91,30 %
17.12.2017 03:53 0,8 C 3,9 C 94 % 1017,5 hPa 0,0 l/m 11,3 km/h (2 Bft) W-SW 247 0 min 0,000 mm 0,0 UV-I 0 W/m -0,1 C -3,6 C 16,1 km/h (3 Bft) 100,00 %
17.12.2017 03:54 0,8 C 3,9 C 94 % 1017,6 hPa 0,0 l/m 9,7 km/h (2 Bft) W-SW 247 0 min 0,000 mm 0,0 UV-I 0 W/m -0,1 C -2,3 C 16,1 km/h (3 Bft) 95,65 %
17.12.2017 03:55 0,8 C 3,9 C 94 % 1017,6 hPa 0,0 l/m 11,3 km/h (2 Bft) W-SW 247 0 min 0,000 mm 0,0 UV-I 0 W/m -0,1 C -3,6 C 14,5 km/h (3 Bft) 95,65 %
17.12.2017 03:56 0,8 C 3,9 C 94 % 1017,6 hPa 0,0 l/m 8,0 km/h (2 Bft) W-SW 247 0 min 0,000 mm 0,0 UV-I 0 W/m -0,1 C -0,8 C 12,9 km/h (3 Bft) 91,30 %
17.12.2017 03:57 0,8 C 3,9 C 94 % 1017,6 hPa 0,0 l/m 6,4 km/h (2 Bft) SW 225 0 min 0,000 mm 0,0 UV-I 0 W/m -0,1 C 0,8 C 9,7 km/h (2 Bft) 100,00 %
17.12.2017 03:58 0,8 C 3,9 C 94 % 1017,6 hPa 0,0 l/m 6,4 km/h (2 Bft) W-SW 247 0 min 0,000 mm 0,0 UV-I 0 W/m -0,1 C 0,8 C 9,7 km/h (2 Bft) 95,65 %
17.12.2017 03:59 0,8 C 3,9 C 94 % 1017,6 hPa 0,0 l/m 8,0 km/h (2 Bft) SW 225 0 min 0,000 mm 0,0 UV-I 0 W/m -0,1 C -0,8 C 11,3 km/h (2 Bft) 95,65 %
17.12.2017 04:00 0,8 C 3,9 C 94 % 1017,6 hPa 0,0 l/m 9,7 km/h (2 Bft) W-SW 247 0 min 0,000 mm 0,0 UV-I 0 W/m -0,1 C -2,3 C 11,3 km/h (2 Bft) 95,65 %
17.12.2017 04:01 0,8 C 3,9 C 94 % 1017,6 hPa 0,0 l/m 9,7 km/h (2 Bft) SW 225 0 min 0,000 mm 0,0 UV-I 0 W/m -0,1 C -2,3 C 14,5 km/h (3 Bft) 95,65 %
17.12.2017 04:02 0,8 C 3,9 C 94 % 1017,6 hPa 0,0 l/m 9,7 km/h (2 Bft) SW 225 0 min 0,000 mm 0,0 UV-I 0 W/m -0,1 C -2,3 C 12,9 km/h (3 Bft) 91,30 %
17.12.2017 04:03 0,8 C 3,9 C 94 % 1017,6 hPa 0,0 l/m 9,7 km/h (2 Bft) W-SW 247 0 min 0,000 mm 0,0 UV-I 0 W/m -0,1 C -2,3 C 12,9 km/h (3 Bft) 100,00 %
17.12.2017 04:04 0,8 C 3,9 C 94 % 1017,6 hPa 0,0 l/m 11,3 km/h (2 Bft) SW 225 0 min 0,000 mm 0,0 UV-I 0 W/m -0,1 C -3,6 C 14,5 km/h (3 Bft) 91,30 %
17.12.2017 04:05 0,8 C 3,9 C 94 % 1017,6 hPa 0,0 l/m 8,0 km/h (2 Bft) W-SW 247 0 min 0,000 mm 0,0 UV-I 0 W/m -0,1 C -0,8 C 12,9 km/h (3 Bft) 95,65 %
17.12.2017 04:06 0,8 C 3,9 C 94 % 1017,6 hPa 0,0 l/m 12,9 km/h (3 Bft) SW 225 0 min 0,000 mm 0,0 UV-I 0 W/m -0,1 C -4,7 C 17,7 km/h (3 Bft) 100,00 %
17.12.2017 04:07 0,8 C 3,9 C 94 % 1017,6 hPa 0,0 l/m 12,9 km/h (3 Bft) SW 225 0 min 0,000 mm 0,0 UV-I 0 W/m -0,1 C -4,7 C 19,3 km/h (3 Bft) 95,65 %
17.12.2017 04:08 0,8 C 3,9 C 94 % 1017,7 hPa 0,0 l/m 8,0 km/h (2 Bft) W-SW 247 0 min 0,000 mm 0,0 UV-I 0 W/m -0,1 C -0,8 C 12,9 km/h (3 Bft) 100,00 %
17.12.2017 04:09 0,8 C 3,9 C 94 % 1017,7 hPa 0,0 l/m 9,7 km/h (2 Bft) W-SW 247 0 min 0,000 mm 0,0 UV-I 0 W/m -0,1 C -2,3 C 17,7 km/h (3 Bft) 91,30 %
17.12.2017 04:10 0,8 C 3,9 C 94 % 1017,7 hPa 0,0 l/m 9,7 km/h (2 Bft) SW 225 0 min 0,000 mm 0,0 UV-I 0 W/m -0,1 C -2,3 C 12,9 km/h (3 Bft) 100,00 %
17.12.2017 04:11 0,8 C 3,9 C 94 % 1017,7 hPa 0,0 l/m 8,0 km/h (2 Bft) SW 225 0 min 0,000 mm 0,0 UV-I 0 W/m -0,1 C -0,8 C 12,9 km/h (3 Bft) 95,65 %
17.12.2017 04:12 0,8 C 3,9 C 94 % 1017,7 hPa 0,0 l/m 9,7 km/h (2 Bft) SW 225 0 min 0,000 mm 0,0 UV-I 0 W/m -0,1 C -2,3 C 14,5 km/h (3 Bft) 95,65 %
17.12.2017 04:13 0,8 C 3,9 C 94 % 1017,7 hPa 0,0 l/m 9,7 km/h (2 Bft) SW 225 0 min 0,000 mm 0,0 UV-I 0 W/m -0,1 C -2,3 C 17,7 km/h (3 Bft) 95,65 %
17.12.2017 04:14 0,8 C 3,9 C 94 % 1017,7 hPa 0,0 l/m 11,3 km/h (2 Bft) W-SW 247 0 min 0,000 mm 0,0 UV-I 0 W/m -0,1 C -3,6 C 17,7 km/h (3 Bft) 100,00 %
17.12.2017 04:15 0,8 C 3,9 C 94 % 1017,7 hPa 0,0 l/m 8,0 km/h (2 Bft) W 270 0 min 0,000 mm 0,0 UV-I 0 W/m -0,1 C -0,8 C 14,5 km/h (3 Bft) 95,65 %
17.12.2017 04:16 0,8 C 3,9 C 94 % 1017,7 hPa 0,0 l/m 9,7 km/h (2 Bft) W-SW 247 0 min 0,000 mm 0,0 UV-I 0 W/m -0,1 C -2,3 C 14,5 km/h (3 Bft) 95,65 %
17.12.2017 04:17 0,8 C 3,9 C 94 % 1017,6 hPa 0,0 l/m 9,7 km/h (2 Bft) W-SW 247 0 min 0,000 mm 0,0 UV-I 0 W/m -0,1 C -2,3 C 14,5 km/h (3 Bft) 100,00 %
17.12.2017 04:18 0,8 C 3,9 C 94 % 1017,7 hPa 0,0 l/m 9,7 km/h (2 Bft) W-SW 247 0 min 0,000 mm 0,0 UV-I 0 W/m -0,1 C -2,3 C 16,1 km/h (3 Bft) 100,00 %
17.12.2017 04:19 0,8 C 3,9 C 94 % 1017,6 hPa 0,0 l/m 8,0 km/h (2 Bft) W-SW 247 0 min 0,000 mm 0,0 UV-I 0 W/m -0,1 C -0,8 C 12,9 km/h (3 Bft) 100,00 %
17.12.2017 04:20 0,8 C 3,9 C 94 % 1017,7 hPa 0,0 l/m 11,3 km/h (2 Bft) SW 225 0 min 0,000 mm 0,0 UV-I 0 W/m -0,1 C -3,6 C 17,7 km/h (3 Bft) 100,00 %
17.12.2017 04:21 0,8 C 3,9 C 94 % 1017,7 hPa 0,0 l/m 9,7 km/h (2 Bft) SW 225 0 min 0,000 mm 0,0 UV-I 0 W/m -0,1 C -2,3 C 12,9 km/h (3 Bft) 100,00 %
17.12.2017 04:22 0,8 C 3,9 C 94 % 1017,7 hPa 0,0 l/m 9,7 km/h (2 Bft) SW 225 0 min 0,000 mm 0,0 UV-I 0 W/m -0,1 C -2,3 C 12,9 km/h (3 Bft) 100,00 %
17.12.2017 04:23 0,8 C 3,9 C 94 % 1017,7 hPa 0,0 l/m 11,3 km/h (2 Bft) SW 225 0 min 0,000 mm 0,0 UV-I 0 W/m -0,1 C -3,6 C 17,7 km/h (3 Bft) 95,65 %
17.12.2017 04:24 0,8 C 3,9 C 94 % 1017,7 hPa 0,0 l/m 11,3 km/h (2 Bft) SW 225 0 min 0,000 mm 0,0 UV-I 0 W/m -0,1 C -3,6 C 17,7 km/h (3 Bft) 100,00 %
17.12.2017 04:25 0,8 C 3,9 C 94 % 1017,7 hPa 0,0 l/m 9,7 km/h (2 Bft) SW 225 0 min 0,000 mm 0,0 UV-I 0 W/m -0,1 C -2,3 C 14,5 km/h (3 Bft) 95,65 %
17.12.2017 04:26 0,8 C 3,9 C 94 % 1017,7 hPa 0,0 l/m 14,5 km/h (3 Bft) SW 225 0 min 0,000 mm 0,0 UV-I 0 W/m -0,1 C -5,7 C 20,9 km/h (4 Bft) 100,00 %
17.12.2017 04:27 0,8 C 3,9 C 94 % 1017,7 hPa 0,0 l/m 12,9 km/h (3 Bft) SW 225 0 min 0,000 mm 0,0 UV-I 0 W/m -0,1 C -4,7 C 19,3 km/h (3 Bft) 100,00 %
17.12.2017 04:28 0,8 C 3,9 C 94 % 1017,7 hPa 0,0 l/m 12,9 km/h (3 Bft) SW 225 0 min 0,000 mm 0,0 UV-I 0 W/m -0,1 C -4,7 C 17,7 km/h (3 Bft) 100,00 %
17.12.2017 04:29 0,8 C 3,9 C 94 % 1017,7 hPa 0,0 l/m 11,3 km/h (2 Bft) SW 225 0 min 0,000 mm 0,0 UV-I 0 W/m -0,1 C -3,6 C 16,1 km/h (3 Bft) 100,00 %
17.12.2017 04:30 0,8 C 3,9 C 94 % 1017,8 hPa 0,0 l/m 11,3 km/h (2 Bft) W-SW 247 0 min 0,000 mm 0,0 UV-I 0 W/m -0,1 C -3,6 C 17,7 km/h (3 Bft) 95,65 %
17.12.2017 04:31 0,8 C 3,9 C 94 % 1017,7 hPa 0,0 l/m 11,3 km/h (2 Bft) SW 225 0 min 0,000 mm 0,0 UV-I 0 W/m -0,1 C -3,6 C 14,5 km/h (3 Bft) 100,00 %
17.12.2017 04:32 0,8 C 3,9 C 94 % 1017,7 hPa 0,0 l/m 11,3 km/h (2 Bft) SW 225 0 min 0,000 mm 0,0 UV-I 0 W/m -0,1 C -3,6 C 16,1 km/h (3 Bft) 95,65 %
17.12.2017 04:33 0,8 C 3,9 C 94 % 1017,7 hPa 0,0 l/m 11,3 km/h (2 Bft) W-SW 247 0 min 0,000 mm 0,0 UV-I 0 W/m -0,1 C -3,6 C 17,7 km/h (3 Bft) 100,00 %
17.12.2017 04:34 0,8 C 3,9 C 94 % 1017,8 hPa 0,0 l/m 8,0 km/h (2 Bft) W-SW 247 0 min 0,000 mm 0,0 UV-I 0 W/m -0,1 C -0,8 C 14,5 km/h (3 Bft) 100,00 %
17.12.2017 04:35 0,8 C 3,9 C 94 % 1017,8 hPa 0,0 l/m 8,0 km/h (2 Bft) W-SW 247 0 min 0,000 mm 0,0 UV-I 0 W/m -0,1 C -0,8 C 16,1 km/h (3 Bft) 100,00 %
17.12.2017 04:36 0,8 C 3,9 C 94 % 1017,8 hPa 0,0 l/m 12,9 km/h (3 Bft) SW 225 0 min 0,000 mm 0,0 UV-I 0 W/m -0,1 C -4,7 C 17,7 km/h (3 Bft) 95,65 %
17.12.2017 04:37 0,8 C 3,9 C 94 % 1017,8 hPa 0,0 l/m 14,5 km/h (3 Bft) SW 225 0 min 0,000 mm 0,0 UV-I 0 W/m -0,1 C -5,7 C 17,7 km/h (3 Bft) 95,65 %
17.12.2017 04:38 0,8 C 3,9 C 94 % 1017,9 hPa 0,0 l/m 9,7 km/h (2 Bft) W-SW 247 0 min 0,000 mm 0,0 UV-I 0 W/m -0,1 C -2,3 C 14,5 km/h (3 Bft) 100,00 %
17.12.2017 04:39 0,8 C 3,9 C 94 % 1017,8 hPa 0,0 l/m 9,7 km/h (2 Bft) SW 225 0 min 0,000 mm 0,0 UV-I 0 W/m -0,1 C -2,3 C 14,5 km/h (3 Bft) 100,00 %
17.12.2017 04:40 0,8 C 3,9 C 94 % 1017,8 hPa 0,0 l/m 14,5 km/h (3 Bft) SW 225 0 min 0,000 mm 0,0 UV-I 0 W/m -0,1 C -5,7 C 17,7 km/h (3 Bft) 100,00 %
17.12.2017 04:41 0,8 C 3,9 C 94 % 1017,8 hPa 0,0 l/m 11,3 km/h (2 Bft) W-SW 247 0 min 0,000 mm 0,0 UV-I 0 W/m -0,1 C -3,6 C 14,5 km/h (3 Bft) 100,00 %
17.12.2017 04:42 0,8 C 3,9 C 94 % 1017,8 hPa 0,0 l/m 9,7 km/h (2 Bft) SW 225 0 min 0,000 mm 0,0 UV-I 0 W/m -0,1 C -2,3 C 17,7 km/h (3 Bft) 100,00 %
17.12.2017 04:43 0,8 C 3,9 C 93 % 1017,9 hPa 0,0 l/m 6,4 km/h (2 Bft) SW 225 0 min 0,000 mm 0,0 UV-I 0 W/m -0,2 C 0,8 C 11,3 km/h (2 Bft) 100,00 %
17.12.2017 04:44 0,8 C 3,9 C 93 % 1017,9 hPa 0,0 l/m 8,0 km/h (2 Bft) W-SW 247 0 min 0,000 mm 0,0 UV-I 0 W/m -0,2 C -0,8 C 14,5 km/h (3 Bft) 95,65 %
17.12.2017 04:45 0,8 C 3,9 C 93 % 1017,9 hPa 0,0 l/m 9,7 km/h (2 Bft) S-SW 202 0 min 0,000 mm 0,0 UV-I 0 W/m -0,2 C -2,3 C 11,3 km/h (2 Bft) 100,00 %
17.12.2017 04:46 0,8 C 3,9 C 93 % 1017,8 hPa 0,0 l/m 6,4 km/h (2 Bft) W-SW 247 0 min 0,000 mm 0,0 UV-I 0 W/m -0,2 C 0,8 C 9,7 km/h (2 Bft) 100,00 %
17.12.2017 04:47 0,8 C 3,9 C 93 % 1017,9 hPa 0,0 l/m 11,3 km/h (2 Bft) W-SW 247 0 min 0,000 mm 0,0 UV-I 0 W/m -0,2 C -3,6 C 14,5 km/h (3 Bft) 100,00 %
17.12.2017 04:48 0,8 C 3,9 C 93 % 1017,9 hPa 0,0 l/m 8,0 km/h (2 Bft) W-SW 247 0 min 0,000 mm 0,0 UV-I 0 W/m -0,2 C -0,8 C 14,5 km/h (3 Bft) 100,00 %
17.12.2017 04:49 0,7 C 3,9 C 93 % 1017,9 hPa 0,0 l/m 8,0 km/h (2 Bft) SW 225 0 min 0,000 mm 0,0 UV-I 0 W/m -0,3 C -0,9 C 14,5 km/h (3 Bft) 100,00 %
17.12.2017 04:50 0,7 C 3,9 C 93 % 1017,8 hPa 0,0 l/m 9,7 km/h (2 Bft) SW 225 0 min 0,000 mm 0,0 UV-I 0 W/m -0,3 C -2,4 C 14,5 km/h (3 Bft) 100,00 %
17.12.2017 04:51 0,7 C 3,9 C 93 % 1017,9 hPa 0,0 l/m 9,7 km/h (2 Bft) SW 225 0 min 0,000 mm 0,0 UV-I 0 W/m -0,3 C -2,4 C 12,9 km/h (3 Bft) 95,65 %
17.12.2017 04:52 0,7 C 3,9 C 93 % 1017,8 hPa 0,0 l/m 9,7 km/h (2 Bft) SW 225 0 min 0,000 mm 0,0 UV-I 0 W/m -0,3 C -2,4 C 16,1 km/h (3 Bft) 100,00 %
17.12.2017 04:53 0,7 C 3,9 C 93 % 1017,9 hPa 0,0 l/m 11,3 km/h (2 Bft) SW 225 0 min 0,000 mm 0,0 UV-I 0 W/m -0,3 C -3,7 C 14,5 km/h (3 Bft) 100,00 %
17.12.2017 04:54 0,7 C 3,9 C 94 % 1017,8 hPa 0,0 l/m 9,7 km/h (2 Bft) SW 225 0 min 0,000 mm 0,0 UV-I 0 W/m -0,2 C -2,4 C 11,3 km/h (2 Bft) 100,00 %
17.12.2017 04:55 0,6 C 3,9 C 94 % 1017,8 hPa 0,0 l/m 8,0 km/h (2 Bft) SW 225 0 min 0,000 mm 0,0 UV-I 0 W/m -0,3 C -1,0 C 12,9 km/h (3 Bft) 95,65 %
17.12.2017 04:56 0,6 C 3,9 C 94 % 1017,8 hPa 0,0 l/m 9,7 km/h (2 Bft) SW 225 0 min 0,000 mm 0,0 UV-I 0 W/m -0,3 C -2,5 C 12,9 km/h (3 Bft) 100,00 %
17.12.2017 04:57 0,6 C 3,9 C 94 % 1017,8 hPa 0,0 l/m 8,0 km/h (2 Bft) SW 225 0 min 0,000 mm 0,0 UV-I 0 W/m -0,3 C -1,0 C 12,9 km/h (3 Bft) 100,00 %
17.12.2017 04:58 0,6 C 3,9 C 93 % 1017,8 hPa 0,0 l/m 8,0 km/h (2 Bft) SW 225 0 min 0,000 mm 0,0 UV-I 0 W/m -0,4 C -1,0 C 12,9 km/h (3 Bft) 91,30 %
17.12.2017 04:59 0,6 C 3,9 C 93 % 1017,8 hPa 0,0 l/m 8,0 km/h (2 Bft) SW 225 0 min 0,000 mm 0,0 UV-I 0 W/m -0,4 C -1,0 C 9,7 km/h (2 Bft) 91,30 %
17.12.2017 05:00 0,6 C 3,9 C 94 % 1017,9 hPa 0,0 l/m 8,0 km/h (2 Bft) SW 225 0 min 0,000 mm 0,0 UV-I 0 W/m -0,3 C -1,0 C 11,3 km/h (2 Bft) 95,65 %
17.12.2017 05:01 0,5 C 3,9 C 94 % 1017,9 hPa 0,0 l/m 8,0 km/h (2 Bft) W-SW 247 0 min 0,000 mm 0,0 UV-I 0 W/m -0,4 C -1,1 C 12,9 km/h (3 Bft) 100,00 %
17.12.2017 05:02 0,5 C 3,9 C 94 % 1017,9 hPa 0,0 l/m 8,0 km/h (2 Bft) SW 225 0 min 0,000 mm 0,0 UV-I 0 W/m -0,4 C -1,1 C 11,3 km/h (2 Bft) 100,00 %
17.12.2017 05:03 0,4 C 3,9 C 94 % 1017,9 hPa 0,0 l/m 6,4 km/h (2 Bft) W-SW 247 0 min 0,000 mm 0,0 UV-I 0 W/m -0,5 C 0,4 C 11,3 km/h (2 Bft) 100,00 %
17.12.2017 05:04 0,5 C 3,9 C 94 % 1017,9 hPa 0,0 l/m 6,4 km/h (2 Bft) SW 225 0 min 0,000 mm 0,0 UV-I 0 W/m -0,4 C 0,5 C 8,0 km/h (2 Bft) 100,00 %
17.12.2017 05:05 0,4 C 3,9 C 94 % 1017,9 hPa 0,0 l/m 8,0 km/h (2 Bft) W-SW 247 0 min 0,000 mm 0,0 UV-I 0 W/m -0,5 C -1,2 C 11,3 km/h (2 Bft) 95,65 %
17.12.2017 05:06 0,4 C 3,9 C 93 % 1017,9 hPa 0,0 l/m 6,4 km/h (2 Bft) SW 225 0 min 0,000 mm 0,0 UV-I 0 W/m -0,6 C 0,4 C 9,7 km/h (2 Bft) 100,00 %
17.12.2017 05:07 0,4 C 3,9 C 93 % 1018,0 hPa 0,0 l/m 12,9 km/h (3 Bft) W-SW 247 0 min 0,000 mm 0,0 UV-I 0 W/m -0,6 C -5,2 C 16,1 km/h (3 Bft) 100,00 %
17.12.2017 05:08 0,5 C 3,9 C 93 % 1017,9 hPa 0,0 l/m 9,7 km/h (2 Bft) SW 225 0 min 0,000 mm 0,0 UV-I 0 W/m -0,5 C -2,6 C 12,9 km/h (3 Bft) 95,65 %
17.12.2017 05:09 0,5 C 3,9 C 93 % 1017,9 hPa 0,0 l/m 9,7 km/h (2 Bft) W-SW 247 0 min 0,000 mm 0,0 UV-I 0 W/m -0,5 C -2,6 C 12,9 km/h (3 Bft) 95,65 %
17.12.2017 05:10 0,5 C 3,9 C 93 % 1017,9 hPa 0,0 l/m 8,0 km/h (2 Bft) SW 225 0 min 0,000 mm 0,0 UV-I 0 W/m -0,5 C -1,1 C 11,3 km/h (2 Bft) 100,00 %
17.12.2017 05:11 0,5 C 3,9 C 93 % 1017,9 hPa 0,0 l/m 9,7 km/h (2 Bft) W-SW 247 0 min 0,000 mm 0,0 UV-I 0 W/m -0,5 C -2,6 C 12,9 km/h (3 Bft) 91,30 %
17.12.2017 05:12 0,5 C 3,9 C 93 % 1017,9 hPa 0,0 l/m 11,3 km/h (2 Bft) SW 225 0 min 0,000 mm 0,0 UV-I 0 W/m -0,5 C -3,9 C 17,7 km/h (3 Bft) 91,30 %
17.12.2017 05:13 0,5 C 3,9 C 93 % 1017,8 hPa 0,0 l/m 8,0 km/h (2 Bft) SW 225 0 min 0,000 mm 0,0 UV-I 0 W/m -0,5 C -1,1 C 12,9 km/h (3 Bft) 95,65 %
17.12.2017 05:14 0,6 C 3,9 C 93 % 1017,9 hPa 0,0 l/m 9,7 km/h (2 Bft) SW 225 0 min 0,000 mm 0,0 UV-I 0 W/m -0,4 C -2,5 C 14,5 km/h (3 Bft) 100,00 %
17.12.2017 05:15 0,6 C 3,9 C 93 % 1017,9 hPa 0,0 l/m 8,0 km/h (2 Bft) SW 225 0 min 0,000 mm 0,0 UV-I 0 W/m -0,4 C -1,0 C 12,9 km/h (3 Bft) 95,65 %
17.12.2017 05:16 0,6 C 3,9 C 93 % 1017,9 hPa 0,0 l/m 8,0 km/h (2 Bft) SW 225 0 min 0,000 mm 0,0 UV-I 0 W/m -0,4 C -1,0 C 11,3 km/h (2 Bft) 91,30 %
17.12.2017 05:17 0,6 C 3,9 C 93 % 1017,9 hPa 0,0 l/m 9,7 km/h (2 Bft) SW 225 0 min 0,000 mm 0,0 UV-I 0 W/m -0,4 C -2,5 C 16,1 km/h (3 Bft) 91,30 %
17.12.2017 05:18 0,6 C 3,9 C 93 % 1017,9 hPa 0,0 l/m 6,4 km/h (2 Bft) SW 225 0 min 0,000 mm 0,0 UV-I 0 W/m -0,4 C 0,6 C 11,3 km/h (2 Bft) 100,00 %
17.12.2017 05:19 0,6 C 3,9 C 93 % 1017,9 hPa 0,0 l/m 8,0 km/h (2 Bft) S-SW 202 0 min 0,000 mm 0,0 UV-I 0 W/m -0,4 C -1,0 C 11,3 km/h (2 Bft) 91,30 %
17.12.2017 05:20 0,6 C 3,9 C 94 % 1017,9 hPa 0,0 l/m 6,4 km/h (2 Bft) SW 225 0 min 0,000 mm 0,0 UV-I 0 W/m -0,3 C 0,6 C 8,0 km/h (2 Bft) 95,65 %
17.12.2017 05:21 0,6 C 3,9 C 94 % 1017,9 hPa 0,0 l/m 6,4 km/h (2 Bft) SW 225 0 min 0,000 mm 0,0 UV-I 0 W/m -0,3 C 0,6 C 9,7 km/h (2 Bft) 95,65 %
17.12.2017 05:22 0,6 C 3,9 C 94 % 1017,9 hPa 0,0 l/m 8,0 km/h (2 Bft) SW 225 0 min 0,000 mm 0,0 UV-I 0 W/m -0,3 C -1,0 C 12,9 km/h (3 Bft) 100,00 %
17.12.2017 05:23 0,6 C 3,9 C 94 % 1017,9 hPa 0,0 l/m 9,7 km/h (2 Bft) S-SW 202 0 min 0,000 mm 0,0 UV-I 0 W/m -0,3 C -2,5 C 12,9 km/h (3 Bft) 95,65 %
17.12.2017 05:24 0,6 C 3,9 C 93 % 1017,9 hPa 0,0 l/m 6,4 km/h (2 Bft) S-SW 202 0 min 0,000 mm 0,0 UV-I 0 W/m -0,4 C 0,6 C 9,7 km/h (2 Bft) 95,65 %
17.12.2017 05:25 0,6 C 3,9 C 94 % 1017,9 hPa 0,0 l/m 8,0 km/h (2 Bft) S-SW 202 0 min 0,000 mm 0,0 UV-I 0 W/m -0,3 C -1,0 C 9,7 km/h (2 Bft) 91,30 %
17.12.2017 05:26 0,6 C 3,9 C 94 % 1018,0 hPa 0,0 l/m 8,0 km/h (2 Bft) SW 225 0 min 0,000 mm 0,0 UV-I 0 W/m -0,3 C -1,0 C 9,7 km/h (2 Bft) 91,30 %
17.12.2017 05:27 0,6 C 3,9 C 94 % 1018,0 hPa 0,0 l/m 8,0 km/h (2 Bft) SW 225 0 min 0,000 mm 0,0 UV-I 0 W/m -0,3 C -1,0 C 11,3 km/h (2 Bft) 95,65 %
17.12.2017 05:28 0,6 C 3,9 C 94 % 1017,9 hPa 0,0 l/m 8,0 km/h (2 Bft) SW 225 0 min 0,000 mm 0,0 UV-I 0 W/m -0,3 C -1,0 C 12,9 km/h (3 Bft) 95,65 %
17.12.2017 05:29 0,6 C 3,9 C 94 % 1018,0 hPa 0,0 l/m 6,4 km/h (2 Bft) SW 225 0 min 0,000 mm 0,0 UV-I 0 W/m -0,3 C 0,6 C 9,7 km/h (2 Bft) 95,65 %
17.12.2017 05:30 0,6 C 3,9 C 94 % 1018,0 hPa 0,0 l/m 8,0 km/h (2 Bft) SW 225 0 min 0,000 mm 0,0 UV-I 0 W/m -0,3 C -1,0 C 11,3 km/h (2 Bft) 95,65 %
17.12.2017 05:31 0,6 C 3,9 C 94 % 1018,0 hPa 0,0 l/m 8,0 km/h (2 Bft) SW 225 0 min 0,000 mm 0,0 UV-I 0 W/m -0,3 C -1,0 C 9,7 km/h (2 Bft) 95,65 %
17.12.2017 05:32 0,5 C 3,9 C 94 % 1018,0 hPa 0,0 l/m 6,4 km/h (2 Bft) SW 225 0 min 0,000 mm 0,0 UV-I 0 W/m -0,4 C 0,5 C 12,9 km/h (3 Bft) 91,30 %
17.12.2017 05:33 0,5 C 3,9 C 94 % 1018,0 hPa 0,0 l/m 6,4 km/h (2 Bft) S-SW 202 0 min 0,000 mm 0,0 UV-I 0 W/m -0,4 C 0,5 C 8,0 km/h (2 Bft) 95,65 %
17.12.2017 05:34 0,5 C 3,9 C 94 % 1018,0 hPa 0,0 l/m 8,0 km/h (2 Bft) SW 225 0 min 0,000 mm 0,0 UV-I 0 W/m -0,4 C -1,1 C 11,3 km/h (2 Bft) 95,65 %
17.12.2017 05:35 0,4 C 3,9 C 94 % 1018,0 hPa 0,0 l/m 6,4 km/h (2 Bft) S-SW 202 0 min 0,000 mm 0,0 UV-I 0 W/m -0,5 C 0,4 C 9,7 km/h (2 Bft) 95,65 %
17.12.2017 05:36 0,4 C 3,9 C 94 % 1018,0 hPa 0,0 l/m 8,0 km/h (2 Bft) W-SW 247 0 min 0,000 mm 0,0 UV-I 0 W/m -0,5 C -1,2 C 14,5 km/h (3 Bft) 91,30 %
17.12.2017 05:37 0,5 C 3,9 C 94 % 1018,0 hPa 0,0 l/m 8,0 km/h (2 Bft) W-SW 247 0 min 0,000 mm 0,0 UV-I 0 W/m -0,4 C -1,1 C 12,9 km/h (3 Bft) 95,65 %
17.12.2017 05:38 0,5 C 3,9 C 94 % 1018,0 hPa 0,0 l/m 8,0 km/h (2 Bft) SW 225 0 min 0,000 mm 0,0 UV-I 0 W/m -0,4 C -1,1 C 14,5 km/h (3 Bft) 95,65 %
17.12.2017 05:39 0,5 C 3,9 C 94 % 1018,0 hPa 0,0 l/m 9,7 km/h (2 Bft) SW 225 0 min 0,000 mm 0,0 UV-I 0 W/m -0,4 C -2,6 C 14,5 km/h (3 Bft) 95,65 %
17.12.2017 05:40 0,4 C 3,9 C 94 % 1018,0 hPa 0,0 l/m 8,0 km/h (2 Bft) W-SW 247 0 min 0,000 mm 0,0 UV-I 0 W/m -0,5 C -1,2 C 11,3 km/h (2 Bft) 95,65 %
17.12.2017 05:41 0,4 C 3,9 C 94 % 1018,0 hPa 0,0 l/m 8,0 km/h (2 Bft) SW 225 0 min 0,000 mm 0,0 UV-I 0 W/m -0,5 C -1,2 C 11,3 km/h (2 Bft) 95,65 %
17.12.2017 05:42 0,4 C 3,9 C 94 % 1018,0 hPa 0,0 l/m 11,3 km/h (2 Bft) SW 225 0 min 0,000 mm 0,0 UV-I 0 W/m -0,5 C -4,0 C 14,5 km/h (3 Bft) 100,00 %
17.12.2017 05:43 0,4 C 3,9 C 94 % 1018,0 hPa 0,0 l/m 9,7 km/h (2 Bft) SW 225 0 min 0,000 mm 0,0 UV-I 0 W/m -0,5 C -2,8 C 14,5 km/h (3 Bft) 95,65 %
17.12.2017 05:44 0,4 C 3,9 C 94 % 1018,0 hPa 0,0 l/m 11,3 km/h (2 Bft) SW 225 0 min 0,000 mm 0,0 UV-I 0 W/m -0,5 C -4,0 C 14,5 km/h (3 Bft) 100,00 %
17.12.2017 05:45 0,4 C 3,9 C 94 % 1018,0 hPa 0,0 l/m 11,3 km/h (2 Bft) SW 225 0 min 0,000 mm 0,0 UV-I 0 W/m -0,5 C -4,0 C 12,9 km/h (3 Bft) 95,65 %
17.12.2017 05:46 0,4 C 3,9 C 94 % 1018,0 hPa 0,0 l/m 11,3 km/h (2 Bft) SW 225 0 min 0,000 mm 0,0 UV-I 0 W/m -0,5 C -4,0 C 14,5 km/h (3 Bft) 100,00 %
17.12.2017 05:47 0,3 C 3,9 C 94 % 1018,0 hPa 0,0 l/m 11,3 km/h (2 Bft) W-SW 247 0 min 0,000 mm 0,0 UV-I 0 W/m -0,5 C -4,1 C 16,1 km/h (3 Bft) 91,30 %
17.12.2017 05:48 0,3 C 3,9 C 94 % 1018,0 hPa 0,0 l/m 9,7 km/h (2 Bft) W-SW 247 0 min 0,000 mm 0,0 UV-I 0 W/m -0,5 C -2,9 C 14,5 km/h (3 Bft) 95,65 %
17.12.2017 05:49 0,3 C 3,9 C 94 % 1018,0 hPa 0,0 l/m 11,3 km/h (2 Bft) SW 225 0 min 0,000 mm 0,0 UV-I 0 W/m -0,5 C -4,1 C 14,5 km/h (3 Bft) 100,00 %
17.12.2017 05:50 0,3 C 3,9 C 94 % 1018,0 hPa 0,0 l/m 9,7 km/h (2 Bft) SW 225 0 min 0,000 mm 0,0 UV-I 0 W/m -0,5 C -2,9 C 16,1 km/h (3 Bft) 95,65 %
17.12.2017 05:51 0,3 C 3,9 C 94 % 1018,0 hPa 0,0 l/m 9,7 km/h (2 Bft) W-SW 247 0 min 0,000 mm 0,0 UV-I 0 W/m -0,5 C -2,9 C 12,9 km/h (3 Bft) 100,00 %
17.12.2017 05:52 0,3 C 3,9 C 94 % 1018,0 hPa 0,0 l/m 11,3 km/h (2 Bft) SW 225 0 min 0,000 mm 0,0 UV-I 0 W/m -0,5 C -4,1 C 14,5 km/h (3 Bft) 95,65 %
17.12.2017 05:53 0,3 C 3,9 C 94 % 1017,9 hPa 0,0 l/m 11,3 km/h (2 Bft) SW 225 0 min 0,000 mm 0,0 UV-I 0 W/m -0,5 C -4,1 C 14,5 km/h (3 Bft) 100,00 %
17.12.2017 05:54 0,3 C 3,9 C 94 % 1018,0 hPa 0,0 l/m 12,9 km/h (3 Bft) SW 225 0 min 0,000 mm 0,0 UV-I 0 W/m -0,5 C -5,3 C 17,7 km/h (3 Bft) 86,96 %
17.12.2017 05:55 0,3 C 3,9 C 94 % 1018,0 hPa 0,0 l/m 14,5 km/h (3 Bft) SW 225 0 min 0,000 mm 0,0 UV-I 0 W/m -0,5 C -6,3 C 20,9 km/h (4 Bft) 100,00 %
17.12.2017 05:56 0,3 C 3,9 C 94 % 1018,0 hPa 0,0 l/m 12,9 km/h (3 Bft) SW 225 0 min 0,000 mm 0,0 UV-I 0 W/m -0,5 C -5,3 C 17,7 km/h (3 Bft) 95,65 %
17.12.2017 05:57 0,3 C 3,9 C 94 % 1018,0 hPa 0,0 l/m 12,9 km/h (3 Bft) SW 225 0 min 0,000 mm 0,0 UV-I 0 W/m -0,5 C -5,3 C 17,7 km/h (3 Bft) 91,30 %
17.12.2017 05:58 0,3 C 3,9 C 94 % 1018,0 hPa 0,0 l/m 11,3 km/h (2 Bft) SW 225 0 min 0,000 mm 0,0 UV-I 0 W/m -0,5 C -4,1 C 14,5 km/h (3 Bft) 100,00 %
17.12.2017 05:59 0,3 C 3,9 C 94 % 1018,0 hPa 0,0 l/m 11,3 km/h (2 Bft) W-SW 247 0 min 0,000 mm 0,0 UV-I 0 W/m -0,5 C -4,1 C 16,1 km/h (3 Bft) 95,65 %
17.12.2017 06:00 0,3 C 3,9 C 94 % 1018,0 hPa 0,0 l/m 12,9 km/h (3 Bft) SW 225 0 min 0,000 mm 0,0 UV-I 0 W/m -0,5 C -5,3 C 17,7 km/h (3 Bft) 100,00 %
17.12.2017 06:01 0,3 C 3,9 C 94 % 1018,0 hPa 0,0 l/m 12,9 km/h (3 Bft) SW 225 0 min 0,000 mm 0,0 UV-I 0 W/m -0,5 C -5,3 C 16,1 km/h (3 Bft) 95,65 %
17.12.2017 06:02 0,4 C 3,9 C 94 % 1018,0 hPa 0,0 l/m 9,7 km/h (2 Bft) W-SW 247 0 min 0,000 mm 0,0 UV-I 0 W/m -0,5 C -2,8 C 14,5 km/h (3 Bft) 91,30 %
17.12.2017 06:03 0,4 C 3,9 C 94 % 1018,0 hPa 0,0 l/m 9,7 km/h (2 Bft) W-SW 247 0 min 0,000 mm 0,0 UV-I 0 W/m -0,5 C -2,8 C 14,5 km/h (3 Bft) 100,00 %
17.12.2017 06:04 0,4 C 3,9 C 94 % 1018,0 hPa 0,0 l/m 9,7 km/h (2 Bft) SW 225 0 min 0,000 mm 0,0 UV-I 0 W/m -0,5 C -2,8 C 12,9 km/h (3 Bft) 95,65 %
17.12.2017 06:05 0,4 C 3,9 C 94 % 1018,0 hPa 0,0 l/m 9,7 km/h (2 Bft) S-SW 202 0 min 0,000 mm 0,0 UV-I 0 W/m -0,5 C -2,8 C 14,5 km/h (3 Bft) 100,00 %
17.12.2017 06:06 0,4 C 3,9 C 94 % 1018,0 hPa 0,0 l/m 8,0 km/h (2 Bft) SW 225 0 min 0,000 mm 0,0 UV-I 0 W/m -0,5 C -1,2 C 12,9 km/h (3 Bft) 100,00 %
17.12.2017 06:07 0,4 C 3,9 C 94 % 1018,0 hPa 0,0 l/m 9,7 km/h (2 Bft) SW 225 0 min 0,000 mm 0,0 UV-I 0 W/m -0,5 C -2,8 C 14,5 km/h (3 Bft) 100,00 %
17.12.2017 06:08 0,4 C 3,9 C 94 % 1018,0 hPa 0,0 l/m 12,9 km/h (3 Bft) SW 225 0 min 0,000 mm 0,0 UV-I 0 W/m -0,5 C -5,2 C 17,7 km/h (3 Bft) 95,65 %
17.12.2017 06:09 0,4 C 3,9 C 94 % 1018,1 hPa 0,0 l/m 11,3 km/h (2 Bft) SW 225 0 min 0,000 mm 0,0 UV-I 0 W/m -0,5 C -4,0 C 14,5 km/h (3 Bft) 100,00 %
17.12.2017 06:10 0,4 C 3,9 C 94 % 1018,1 hPa 0,0 l/m 11,3 km/h (2 Bft) SW 225 0 min 0,000 mm 0,0 UV-I 0 W/m -0,5 C -4,0 C 14,5 km/h (3 Bft) 100,00 %
17.12.2017 06:11 0,4 C 3,9 C 93 % 1018,1 hPa 0,0 l/m 9,7 km/h (2 Bft) SW 225 0 min 0,000 mm 0,0 UV-I 0 W/m -0,6 C -2,8 C 14,5 km/h (3 Bft) 100,00 %
17.12.2017 06:12 0,4 C 3,9 C 93 % 1018,2 hPa 0,0 l/m 9,7 km/h (2 Bft) SW 225 0 min 0,000 mm 0,0 UV-I 0 W/m -0,6 C -2,8 C 12,9 km/h (3 Bft) 100,00 %
17.12.2017 06:13 0,4 C 3,9 C 93 % 1018,2 hPa 0,0 l/m 11,3 km/h (2 Bft) SW 225 0 min 0,000 mm 0,0 UV-I 0 W/m -0,6 C -4,0 C 12,9 km/h (3 Bft) 100,00 %
17.12.2017 06:14 0,4 C 3,9 C 93 % 1018,2 hPa 0,0 l/m 12,9 km/h (3 Bft) SW 225 0 min 0,000 mm 0,0 UV-I 0 W/m -0,6 C -5,2 C 16,1 km/h (3 Bft) 100,00 %
17.12.2017 06:15 0,4 C 3,9 C 93 % 1018,2 hPa 0,0 l/m 12,9 km/h (3 Bft) SW 225 0 min 0,000 mm 0,0 UV-I 0 W/m -0,6 C -5,2 C 16,1 km/h (3 Bft) 95,65 %
17.12.2017 06:16 0,4 C 3,9 C 94 % 1018,3 hPa 0,0 l/m 9,7 km/h (2 Bft) SW 225 0 min 0,000 mm 0,0 UV-I 0 W/m -0,5 C -2,8 C 14,5 km/h (3 Bft) 100,00 %
17.12.2017 06:17 0,4 C 3,9 C 94 % 1018,3 hPa 0,0 l/m 8,0 km/h (2 Bft) W-SW 247 0 min 0,000 mm 0,0 UV-I 0 W/m -0,5 C -1,2 C 11,3 km/h (2 Bft) 100,00 %
17.12.2017 06:18 0,4 C 3,9 C 94 % 1018,2 hPa 0,0 l/m 9,7 km/h (2 Bft) W-SW 247 0 min 0,000 mm 0,0 UV-I 0 W/m -0,5 C -2,8 C 12,9 km/h (3 Bft) 100,00 %
17.12.2017 06:19 0,4 C 3,9 C 94 % 1018,3 hPa 0,0 l/m 12,9 km/h (3 Bft) SW 225 0 min 0,000 mm 0,0 UV-I 0 W/m -0,5 C -5,2 C 16,1 km/h (3 Bft) 100,00 %
17.12.2017 06:20 0,4 C 3,9 C 94 % 1018,2 hPa 0,0 l/m 11,3 km/h (2 Bft) W-SW 247 0 min 0,000 mm 0,0 UV-I 0 W/m -0,5 C -4,0 C 16,1 km/h (3 Bft) 100,00 %
17.12.2017 06:21 0,4 C 3,9 C 94 % 1018,3 hPa 0,0 l/m 9,7 km/h (2 Bft) SW 225 0 min 0,000 mm 0,0 UV-I 0 W/m -0,5 C -2,8 C 12,9 km/h (3 Bft) 100,00 %
17.12.2017 06:22 0,4 C 3,9 C 94 % 1018,3 hPa 0,0 l/m 11,3 km/h (2 Bft) SW 225 0 min 0,000 mm 0,0 UV-I 0 W/m -0,5 C -4,0 C 14,5 km/h (3 Bft) 95,65 %
17.12.2017 06:23 0,4 C 3,9 C 94 % 1018,3 hPa 0,0 l/m 8,0 km/h (2 Bft) W-SW 247 0 min 0,000 mm 0,0 UV-I 0 W/m -0,5 C -1,2 C 12,9 km/h (3 Bft) 100,00 %
17.12.2017 06:24 0,4 C 3,9 C 94 % 1018,3 hPa 0,0 l/m 6,4 km/h (2 Bft) SW 225 0 min 0,000 mm 0,0 UV-I 0 W/m -0,5 C 0,4 C 11,3 km/h (2 Bft) 100,00 %
17.12.2017 06:25 0,4 C 3,9 C 94 % 1018,3 hPa 0,0 l/m 8,0 km/h (2 Bft) W-SW 247 0 min 0,000 mm 0,0 UV-I 0 W/m -0,5 C -1,2 C 11,3 km/h (2 Bft) 95,65 %
17.12.2017 06:26 0,4 C 3,9 C 94 % 1018,3 hPa 0,0 l/m 8,0 km/h (2 Bft) SW 225 0 min 0,000 mm 0,0 UV-I 0 W/m -0,5 C -1,2 C 11,3 km/h (2 Bft) 91,30 %
17.12.2017 06:27 0,4 C 3,9 C 94 % 1018,3 hPa 0,0 l/m 6,4 km/h (2 Bft) SW 225 0 min 0,000 mm 0,0 UV-I 0 W/m -0,5 C 0,4 C 9,7 km/h (2 Bft) 100,00 %
17.12.2017 06:28 0,4 C 3,9 C 94 % 1018,3 hPa 0,0 l/m 8,0 km/h (2 Bft) SW 225 0 min 0,000 mm 0,0 UV-I 0 W/m -0,5 C -1,2 C 11,3 km/h (2 Bft) 100,00 %
17.12.2017 06:29 0,4 C 3,9 C 94 % 1018,3 hPa 0,0 l/m 6,4 km/h (2 Bft) SW 225 0 min 0,000 mm 0,0 UV-I 0 W/m -0,5 C 0,4 C 9,7 km/h (2 Bft) 95,65 %
17.12.2017 06:30 0,4 C 3,9 C 94 % 1018,3 hPa 0,0 l/m 6,4 km/h (2 Bft) SW 225 0 min 0,000 mm 0,0 UV-I 0 W/m -0,5 C 0,4 C 8,0 km/h (2 Bft) 100,00 %
17.12.2017 06:31 0,4 C 3,9 C 94 % 1018,3 hPa 0,0 l/m 8,0 km/h (2 Bft) SW 225 0 min 0,000 mm 0,0 UV-I 0 W/m -0,5 C -1,2 C 9,7 km/h (2 Bft) 100,00 %
17.12.2017 06:32 0,4 C 3,9 C 94 % 1018,3 hPa 0,0 l/m 9,7 km/h (2 Bft) SW 225 0 min 0,000 mm 0,0 UV-I 0 W/m -0,5 C -2,8 C 12,9 km/h (3 Bft) 100,00 %
17.12.2017 06:33 0,4 C 3,9 C 94 % 1018,4 hPa 0,0 l/m 8,0 km/h (2 Bft) SW 225 0 min 0,000 mm 0,0 UV-I 0 W/m -0,5 C -1,2 C 12,9 km/h (3 Bft) 100,00 %
17.12.2017 06:34 0,4 C 3,9 C 94 % 1018,3 hPa 0,0 l/m 8,0 km/h (2 Bft) SW 225 0 min 0,000 mm 0,0 UV-I 0 W/m -0,5 C -1,2 C 11,3 km/h (2 Bft) 95,65 %
17.12.2017 06:35 0,4 C 3,9 C 94 % 1018,4 hPa 0,0 l/m 9,7 km/h (2 Bft) W-SW 247 0 min 0,000 mm 0,0 UV-I 0 W/m -0,5 C -2,8 C 12,9 km/h (3 Bft) 100,00 %
17.12.2017 06:36 0,4 C 3,9 C 94 % 1018,4 hPa 0,0 l/m 8,0 km/h (2 Bft) W-SW 247 0 min 0,000 mm 0,0 UV-I 0 W/m -0,5 C -1,2 C 12,9 km/h (3 Bft) 91,30 %
17.12.2017 06:37 0,4 C 3,9 C 94 % 1018,4 hPa 0,0 l/m 8,0 km/h (2 Bft) W-SW 247 0 min 0,000 mm 0,0 UV-I 0 W/m -0,5 C -1,2 C 11,3 km/h (2 Bft) 100,00 %
17.12.2017 06:38 0,4 C 3,9 C 94 % 1018,4 hPa 0,0 l/m 9,7 km/h (2 Bft) W-SW 247 0 min 0,000 mm 0,0 UV-I 0 W/m -0,5 C -2,8 C 16,1 km/h (3 Bft) 91,30 %
17.12.2017 06:39 0,4 C 3,9 C 94 % 1018,4 hPa 0,0 l/m 8,0 km/h (2 Bft) W-SW 247 0 min 0,000 mm 0,0 UV-I 0 W/m -0,5 C -1,2 C 12,9 km/h (3 Bft) 100,00 %
17.12.2017 06:40 0,4 C 3,9 C 94 % 1018,4 hPa 0,0 l/m 8,0 km/h (2 Bft) W-SW 247 0 min 0,000 mm 0,0 UV-I 0 W/m -0,5 C -1,2 C 11,3 km/h (2 Bft) 95,65 %
17.12.2017 06:41 0,4 C 3,9 C 94 % 1018,4 hPa 0,0 l/m 8,0 km/h (2 Bft) SW 225 0 min 0,000 mm 0,0 UV-I 0 W/m -0,5 C -1,2 C 11,3 km/h (2 Bft) 100,00 %
17.12.2017 06:42 0,4 C 3,9 C 94 % 1018,4 hPa 0,0 l/m 11,3 km/h (2 Bft) SW 225 0 min 0,000 mm 0,0 UV-I 0 W/m -0,5 C -4,0 C 16,1 km/h (3 Bft) 95,65 %
17.12.2017 06:43 0,4 C 3,9 C 94 % 1018,4 hPa 0,0 l/m 8,0 km/h (2 Bft) SW 225 0 min 0,000 mm 0,0 UV-I 0 W/m -0,5 C -1,2 C 11,3 km/h (2 Bft) 95,65 %
17.12.2017 06:44 0,4 C 3,9 C 94 % 1018,4 hPa 0,0 l/m 8,0 km/h (2 Bft) SW 225 0 min 0,000 mm 0,0 UV-I 0 W/m -0,5 C -1,2 C 11,3 km/h (2 Bft) 95,65 %
17.12.2017 06:45 0,5 C 3,9 C 94 % 1018,4 hPa 0,0 l/m 8,0 km/h (2 Bft) W-SW 247 0 min 0,000 mm 0,0 UV-I 0 W/m -0,4 C -1,1 C 11,3 km/h (2 Bft) 95,65 %
17.12.2017 06:46 0,5 C 3,9 C 94 % 1018,4 hPa 0,0 l/m 9,7 km/h (2 Bft) SW 225 0 min 0,000 mm 0,0 UV-I 0 W/m -0,4 C -2,6 C 12,9 km/h (3 Bft) 100,00 %
17.12.2017 06:47 0,5 C 3,9 C 94 % 1018,4 hPa 0,0 l/m 9,7 km/h (2 Bft) SW 225 0 min 0,000 mm 0,0 UV-I 0 W/m -0,4 C -2,6 C 12,9 km/h (3 Bft) 91,30 %
17.12.2017 06:48 0,5 C 3,9 C 94 % 1018,4 hPa 0,0 l/m 12,9 km/h (3 Bft) SW 225 0 min 0,000 mm 0,0 UV-I 0 W/m -0,4 C -5,0 C 17,7 km/h (3 Bft) 100,00 %
17.12.2017 06:49 0,5 C 3,9 C 94 % 1018,3 hPa 0,0 l/m 8,0 km/h (2 Bft) SW 225 0 min 0,000 mm 0,0 UV-I 0 W/m -0,4 C -1,1 C 14,5 km/h (3 Bft) 95,65 %
17.12.2017 06:50 0,6 C 3,9 C 93 % 1018,3 hPa 0,0 l/m 8,0 km/h (2 Bft) SW 225 0 min 0,000 mm 0,0 UV-I 0 W/m -0,4 C -1,0 C 11,3 km/h (2 Bft) 95,65 %
17.12.2017 06:51 0,6 C 3,9 C 94 % 1018,4 hPa 0,0 l/m 8,0 km/h (2 Bft) SW 225 0 min 0,000 mm 0,0 UV-I 0 W/m -0,3 C -1,0 C 9,7 km/h (2 Bft) 95,65 %
17.12.2017 06:52 0,6 C 3,9 C 94 % 1018,4 hPa 0,0 l/m 8,0 km/h (2 Bft) SW 225 0 min 0,000 mm 0,0 UV-I 0 W/m -0,3 C -1,0 C 12,9 km/h (3 Bft) 100,00 %
17.12.2017 06:53 0,6 C 3,9 C 94 % 1018,4 hPa 0,0 l/m 8,0 km/h (2 Bft) SW 225 0 min 0,000 mm 0,0 UV-I 0 W/m -0,3 C -1,0 C 9,7 km/h (2 Bft) 91,30 %
17.12.2017 06:54 0,5 C 3,9 C 94 % 1018,4 hPa 0,0 l/m 9,7 km/h (2 Bft) SW 225 0 min 0,000 mm 0,0 UV-I 0 W/m -0,4 C -2,6 C 11,3 km/h (2 Bft) 100,00 %
17.12.2017 06:55 0,5 C 3,9 C 94 % 1018,4 hPa 0,0 l/m 9,7 km/h (2 Bft) SW 225 0 min 0,000 mm 0,0 UV-I 0 W/m -0,4 C -2,6 C 11,3 km/h (2 Bft) 95,65 %
17.12.2017 06:56 0,5 C 3,9 C 94 % 1018,4 hPa 0,0 l/m 9,7 km/h (2 Bft) SW 225 0 min 0,000 mm 0,0 UV-I 0 W/m -0,4 C -2,6 C 11,3 km/h (2 Bft) 100,00 %
17.12.2017 06:57 0,5 C 3,9 C 94 % 1018,5 hPa 0,0 l/m 9,7 km/h (2 Bft) SW 225 0 min 0,000 mm 0,0 UV-I 0 W/m -0,4 C -2,6 C 16,1 km/h (3 Bft) 86,96 %
17.12.2017 06:58 0,5 C 3,9 C 94 % 1018,5 hPa 0,0 l/m 9,7 km/h (2 Bft) SW 225 0 min 0,000 mm 0,0 UV-I 0 W/m -0,4 C -2,6 C 14,5 km/h (3 Bft) 100,00 %
17.12.2017 06:59 0,6 C 3,9 C 94 % 1018,5 hPa 0,0 l/m 8,0 km/h (2 Bft) W-SW 247 0 min 0,000 mm 0,0 UV-I 0 W/m -0,3 C -1,0 C 11,3 km/h (2 Bft) 100,00 %
17.12.2017 07:00 0,6 C 3,9 C 94 % 1018,5 hPa 0,0 l/m 9,7 km/h (2 Bft) W-SW 247 0 min 0,000 mm 0,0 UV-I 0 W/m -0,3 C -2,5 C 16,1 km/h (3 Bft) 100,00 %
17.12.2017 07:01 0,6 C 3,9 C 94 % 1018,5 hPa 0,0 l/m 9,7 km/h (2 Bft) W-SW 247 0 min 0,000 mm 0,0 UV-I 0 W/m -0,3 C -2,5 C 12,9 km/h (3 Bft) 100,00 %
17.12.2017 07:02 0,6 C 3,9 C 94 % 1018,6 hPa 0,0 l/m 9,7 km/h (2 Bft) W-SW 247 0 min 0,000 mm 0,0 UV-I 0 W/m -0,3 C -2,5 C 14,5 km/h (3 Bft) 95,65 %
17.12.2017 07:03 0,6 C 3,9 C 93 % 1018,5 hPa 0,0 l/m 9,7 km/h (2 Bft) W-SW 247 0 min 0,000 mm 0,0 UV-I 0 W/m -0,4 C -2,5 C 12,9 km/h (3 Bft) 100,00 %
17.12.2017 07:04 0,6 C 3,9 C 93 % 1018,5 hPa 0,0 l/m 8,0 km/h (2 Bft) SW 225 0 min 0,000 mm 0,0 UV-I 0 W/m -0,4 C -1,0 C 14,5 km/h (3 Bft) 95,65 %
17.12.2017 07:05 0,6 C 3,9 C 93 % 1018,6 hPa 0,0 l/m 9,7 km/h (2 Bft) W-SW 247 0 min 0,000 mm 0,0 UV-I 0 W/m -0,4 C -2,5 C 12,9 km/h (3 Bft) 91,30 %
17.12.2017 07:06 0,6 C 3,9 C 93 % 1018,6 hPa 0,0 l/m 11,3 km/h (2 Bft) W-SW 247 0 min 0,000 mm 0,0 UV-I 0 W/m -0,4 C -3,8 C 14,5 km/h (3 Bft) 100,00 %
17.12.2017 07:07 0,7 C 3,9 C 93 % 1018,6 hPa 0,0 l/m 9,7 km/h (2 Bft) W-SW 247 0 min 0,000 mm 0,0 UV-I 0 W/m -0,3 C -2,4 C 12,9 km/h (3 Bft) 100,00 %
17.12.2017 07:08 0,7 C 3,9 C 93 % 1018,6 hPa 0,0 l/m 8,0 km/h (2 Bft) W-SW 247 0 min 0,000 mm 0,0 UV-I 0 W/m -0,3 C -0,9 C 11,3 km/h (2 Bft) 100,00 %
17.12.2017 07:09 0,7 C 3,9 C 93 % 1018,7 hPa 0,0 l/m 8,0 km/h (2 Bft) W-SW 247 0 min 0,000 mm 0,0 UV-I 0 W/m -0,3 C -0,9 C 12,9 km/h (3 Bft) 95,65 %
17.12.2017 07:10 0,7 C 3,9 C 93 % 1018,7 hPa 0,0 l/m 9,7 km/h (2 Bft) SW 225 0 min 0,000 mm 0,0 UV-I 0 W/m -0,3 C -2,4 C 14,5 km/h (3 Bft) 95,65 %
17.12.2017 07:11 0,7 C 3,9 C 93 % 1018,7 hPa 0,0 l/m 11,3 km/h (2 Bft) SW 225 0 min 0,000 mm 0,0 UV-I 0 W/m -0,3 C -3,7 C 14,5 km/h (3 Bft) 95,65 %
17.12.2017 07:12 0,7 C 3,9 C 93 % 1018,7 hPa 0,0 l/m 9,7 km/h (2 Bft) SW 225 0 min 0,000 mm 0,0 UV-I 0 W/m -0,3 C -2,4 C 12,9 km/h (3 Bft) 100,00 %
17.12.2017 07:13 0,7 C 3,9 C 93 % 1018,7 hPa 0,0 l/m 8,0 km/h (2 Bft) W-SW 247 0 min 0,000 mm 0,0 UV-I 0 W/m -0,3 C -0,9 C 11,3 km/h (2 Bft) 100,00 %
17.12.2017 07:14 0,7 C 3,9 C 93 % 1018,8 hPa 0,0 l/m 9,7 km/h (2 Bft) W-SW 247 0 min 0,000 mm 0,0 UV-I 0 W/m -0,3 C -2,4 C 16,1 km/h (3 Bft) 100,00 %
17.12.2017 07:15 0,7 C 3,9 C 93 % 1018,7 hPa 0,0 l/m 8,0 km/h (2 Bft) SW 225 0 min 0,000 mm 0,0 UV-I 0 W/m -0,3 C -0,9 C 11,3 km/h (2 Bft) 100,00 %
17.12.2017 07:16 0,7 C 3,9 C 93 % 1018,7 hPa 0,0 l/m 9,7 km/h (2 Bft) SW 225 0 min 0,000 mm 0,0 UV-I 0 W/m -0,3 C -2,4 C 14,5 km/h (3 Bft) 100,00 %
17.12.2017 07:17 0,7 C 3,9 C 93 % 1018,7 hPa 0,0 l/m 9,7 km/h (2 Bft) SW 225 0 min 0,000 mm 0,0 UV-I 0 W/m -0,3 C -2,4 C 16,1 km/h (3 Bft) 100,00 %
17.12.2017 07:18 0,7 C 3,9 C 93 % 1018,7 hPa 0,0 l/m 9,7 km/h (2 Bft) SW 225 0 min 0,000 mm 0,0 UV-I 0 W/m -0,3 C -2,4 C 12,9 km/h (3 Bft) 95,65 %
17.12.2017 07:19 0,7 C 3,9 C 93 % 1018,7 hPa 0,0 l/m 12,9 km/h (3 Bft) SW 225 0 min 0,000 mm 0,0 UV-I 0 W/m -0,3 C -4,8 C 16,1 km/h (3 Bft) 95,65 %
17.12.2017 07:20 0,7 C 3,9 C 93 % 1018,7 hPa 0,0 l/m 14,5 km/h (3 Bft) SW 225 0 min 0,000 mm 0,0 UV-I 0 W/m -0,3 C -5,8 C 17,7 km/h (3 Bft) 100,00 %
17.12.2017 07:21 0,7 C 3,9 C 93 % 1018,7 hPa 0,0 l/m 11,3 km/h (2 Bft) W-SW 247 0 min 0,000 mm 0,0 UV-I 0 W/m -0,3 C -3,7 C 16,1 km/h (3 Bft) 100,00 %
17.12.2017 07:22 0,7 C 3,9 C 93 % 1018,7 hPa 0,0 l/m 9,7 km/h (2 Bft) SW 225 0 min 0,000 mm 0,0 UV-I 0 W/m -0,3 C -2,4 C 12,9 km/h (3 Bft) 95,65 %
17.12.2017 07:23 0,7 C 3,9 C 93 % 1018,7 hPa 0,0 l/m 9,7 km/h (2 Bft) W-SW 247 0 min 0,000 mm 0,0 UV-I 0 W/m -0,3 C -2,4 C 14,5 km/h (3 Bft) 100,00 %
17.12.2017 07:24 0,7 C 3,9 C 93 % 1018,7 hPa 0,0 l/m 9,7 km/h (2 Bft) W-SW 247 0 min 0,000 mm 0,0 UV-I 0 W/m -0,3 C -2,4 C 14,5 km/h (3 Bft) 95,65 %
17.12.2017 07:25 0,7 C 3,9 C 93 % 1018,8 hPa 0,0 l/m 8,0 km/h (2 Bft) SW 225 0 min 0,000 mm 0,0 UV-I 0 W/m -0,3 C -0,9 C 11,3 km/h (2 Bft) 91,30 %
17.12.2017 07:26 0,7 C 3,9 C 93 % 1018,8 hPa 0,0 l/m 11,3 km/h (2 Bft) W-SW 247 0 min 0,000 mm 0,0 UV-I 0 W/m -0,3 C -3,7 C 16,1 km/h (3 Bft) 100,00 %
17.12.2017 07:27 0,7 C 3,9 C 93 % 1018,8 hPa 0,0 l/m 6,4 km/h (2 Bft) W-SW 247 0 min 0,000 mm 0,0 UV-I 0 W/m -0,3 C 0,7 C 8,0 km/h (2 Bft) 95,65 %
17.12.2017 07:28 0,7 C 3,9 C 93 % 1018,8 hPa 0,0 l/m 6,4 km/h (2 Bft) W-SW 247 0 min 0,000 mm 0,0 UV-I 0 W/m -0,3 C 0,7 C 9,7 km/h (2 Bft) 100,00 %
17.12.2017 07:29 0,7 C 3,9 C 93 % 1018,8 hPa 0,0 l/m 8,0 km/h (2 Bft) W-SW 247 0 min 0,000 mm 0,0 UV-I 0 W/m -0,3 C -0,9 C 11,3 km/h (2 Bft) 100,00 %
17.12.2017 07:30 0,7 C 3,9 C 93 % 1018,8 hPa 0,0 l/m 8,0 km/h (2 Bft) W-SW 247 0 min 0,000 mm 0,0 UV-I 0 W/m -0,3 C -0,9 C 11,3 km/h (2 Bft) 100,00 %
17.12.2017 07:31 0,7 C 3,9 C 93 % 1018,8 hPa 0,0 l/m 8,0 km/h (2 Bft) W-SW 247 0 min 0,000 mm 0,0 UV-I 0 W/m -0,3 C -0,9 C 14,5 km/h (3 Bft) 100,00 %
17.12.2017 07:32 0,7 C 3,9 C 93 % 1018,8 hPa 0,0 l/m 9,7 km/h (2 Bft) W-SW 247 0 min 0,000 mm 0,0 UV-I 0 W/m -0,3 C -2,4 C 12,9 km/h (3 Bft) 95,65 %
17.12.2017 07:33 0,7 C 3,9 C 93 % 1018,8 hPa 0,0 l/m 11,3 km/h (2 Bft) W-SW 247 0 min 0,000 mm 0,0 UV-I 0 W/m -0,3 C -3,7 C 17,7 km/h (3 Bft) 100,00 %
17.12.2017 07:34 0,7 C 3,9 C 93 % 1018,8 hPa 0,0 l/m 9,7 km/h (2 Bft) W-SW 247 0 min 0,000 mm 0,0 UV-I 0 W/m -0,3 C -2,4 C 14,5 km/h (3 Bft) 95,65 %
17.12.2017 07:35 0,7 C 3,9 C 93 % 1018,9 hPa 0,0 l/m 11,3 km/h (2 Bft) W-SW 247 0 min 0,000 mm 0,0 UV-I 0 W/m -0,3 C -3,7 C 16,1 km/h (3 Bft) 100,00 %
17.12.2017 07:36 0,7 C 3,9 C 93 % 1018,8 hPa 0,0 l/m 11,3 km/h (2 Bft) W 270 0 min 0,000 mm 0,0 UV-I 0 W/m -0,3 C -3,7 C 14,5 km/h (3 Bft) 95,65 %
17.12.2017 07:37 0,7 C 3,9 C 93 % 1018,9 hPa 0,0 l/m 8,0 km/h (2 Bft) W-SW 247 0 min 0,000 mm 0,0 UV-I 0 W/m -0,3 C -0,9 C 12,9 km/h (3 Bft) 100,00 %
17.12.2017 07:38 0,7 C 3,9 C 93 % 1018,9 hPa 0,0 l/m 9,7 km/h (2 Bft) W 270 0 min 0,000 mm 0,0 UV-I 0 W/m -0,3 C -2,4 C 14,5 km/h (3 Bft) 95,65 %
17.12.2017 07:39 0,7 C 3,9 C 93 % 1018,9 hPa 0,0 l/m 8,0 km/h (2 Bft) W-SW 247 0 min 0,000 mm 0,0 UV-I 0 W/m -0,3 C -0,9 C 12,9 km/h (3 Bft) 91,30 %
17.12.2017 07:40 0,7 C 3,9 C 93 % 1018,8 hPa 0,0 l/m 6,4 km/h (2 Bft) W-SW 247 0 min 0,000 mm 0,0 UV-I 0 W/m -0,3 C 0,7 C 11,3 km/h (2 Bft) 100,00 %
17.12.2017 07:41 0,7 C 3,9 C 93 % 1018,8 hPa 0,0 l/m 8,0 km/h (2 Bft) W-SW 247 0 min 0,000 mm 0,0 UV-I 0 W/m -0,3 C -0,9 C 11,3 km/h (2 Bft) 95,65 %
17.12.2017 07:42 0,7 C 3,9 C 93 % 1018,9 hPa 0,0 l/m 8,0 km/h (2 Bft) W-SW 247 0 min 0,000 mm 0,0 UV-I 0 W/m -0,3 C -0,9 C 12,9 km/h (3 Bft) 100,00 %
17.12.2017 07:43 0,7 C 3,9 C 93 % 1018,9 hPa 0,0 l/m 6,4 km/h (2 Bft) W-SW 247 0 min 0,000 mm 0,0 UV-I 0 W/m -0,3 C 0,7 C 9,7 km/h (2 Bft) 91,30 %
17.12.2017 07:44 0,7 C 3,9 C 93 % 1018,9 hPa 0,0 l/m 8,0 km/h (2 Bft) SW 225 0 min 0,000 mm 0,0 UV-I 5 W/m -0,3 C -0,9 C 11,3 km/h (2 Bft) 100,00 %
17.12.2017 07:45 0,7 C 3,9 C 93 % 1018,9 hPa 0,0 l/m 9,7 km/h (2 Bft) W-SW 247 0 min 0,000 mm 0,0 UV-I 5 W/m -0,3 C -2,4 C 12,9 km/h (3 Bft) 95,65 %
17.12.2017 07:46 0,7 C 3,9 C 93 % 1018,9 hPa 0,0 l/m 9,7 km/h (2 Bft) SW 225 0 min 0,000 mm 0,0 UV-I 5 W/m -0,3 C -2,4 C 17,7 km/h (3 Bft) 95,65 %
17.12.2017 07:47 0,8 C 3,9 C 93 % 1018,9 hPa 0,0 l/m 6,4 km/h (2 Bft) W-SW 247 0 min 0,000 mm 0,0 UV-I 5 W/m -0,2 C 0,8 C 8,0 km/h (2 Bft) 95,65 %
17.12.2017 07:48 0,8 C 3,9 C 93 % 1018,9 hPa 0,0 l/m 6,4 km/h (2 Bft) W-SW 247 0 min 0,000 mm 0,0 UV-I 5 W/m -0,2 C 0,8 C 8,0 km/h (2 Bft) 100,00 %
17.12.2017 07:49 0,8 C 3,9 C 93 % 1018,9 hPa 0,0 l/m 6,4 km/h (2 Bft) W-SW 247 0 min 0,000 mm 0,0 UV-I 5 W/m -0,2 C 0,8 C 9,7 km/h (2 Bft) 95,65 %
17.12.2017 07:50 0,8 C 3,9 C 93 % 1018,9 hPa 0,0 l/m 11,3 km/h (2 Bft) W-SW 247 0 min 0,000 mm 0,0 UV-I 7 W/m -0,2 C -3,6 C 14,5 km/h (3 Bft) 95,65 %
17.12.2017 07:51 0,8 C 3,9 C 93 % 1018,9 hPa 0,0 l/m 6,4 km/h (2 Bft) W-SW 247 0 min 0,000 mm 0,0 UV-I 7 W/m -0,2 C 0,8 C 11,3 km/h (2 Bft) 100,00 %
17.12.2017 07:52 0,7 C 3,9 C 93 % 1018,9 hPa 0,0 l/m 8,0 km/h (2 Bft) SW 225 0 min 0,000 mm 0,0 UV-I 7 W/m -0,3 C -0,9 C 9,7 km/h (2 Bft) 95,65 %
17.12.2017 07:53 0,8 C 3,9 C 93 % 1018,9 hPa 0,0 l/m 6,4 km/h (2 Bft) W-SW 247 0 min 0,000 mm 0,0 UV-I 7 W/m -0,2 C 0,8 C 9,7 km/h (2 Bft) 95,65 %
17.12.2017 07:54 0,7 C 3,9 C 93 % 1018,9 hPa 0,0 l/m 8,0 km/h (2 Bft) W-SW 247 0 min 0,000 mm 0,0 UV-I 5 W/m -0,3 C -0,9 C 11,3 km/h (2 Bft) 95,65 %
17.12.2017 07:55 0,7 C 3,9 C 93 % 1019,0 hPa 0,0 l/m 8,0 km/h (2 Bft) SW 225 0 min 0,000 mm 0,0 UV-I 5 W/m -0,3 C -0,9 C 11,3 km/h (2 Bft) 100,00 %
17.12.2017 07:56 0,8 C 3,9 C 93 % 1018,9 hPa 0,0 l/m 6,4 km/h (2 Bft) SW 225 0 min 0,000 mm 0,0 UV-I 5 W/m -0,2 C 0,8 C 9,7 km/h (2 Bft) 95,65 %
17.12.2017 07:57 0,7 C 3,9 C 93 % 1019,0 hPa 0,0 l/m 11,3 km/h (2 Bft) SW 225 0 min 0,000 mm 0,0 UV-I 5 W/m -0,3 C -3,7 C 16,1 km/h (3 Bft) 100,00 %
17.12.2017 07:58 0,7 C 3,9 C 93 % 1019,0 hPa 0,0 l/m 9,7 km/h (2 Bft) SW 225 0 min 0,000 mm 0,0 UV-I 5 W/m -0,3 C -2,4 C 14,5 km/h (3 Bft) 91,30 %
17.12.2017 07:59 0,7 C 3,9 C 93 % 1019,0 hPa 0,0 l/m 8,0 km/h (2 Bft) SW 225 0 min 0,000 mm 0,0 UV-I 5 W/m -0,3 C -0,9 C 11,3 km/h (2 Bft) 91,30 %
17.12.2017 08:00 0,7 C 3,9 C 93 % 1019,1 hPa 0,0 l/m 11,3 km/h (2 Bft) W-SW 247 0 min 0,000 mm 0,0 UV-I 7 W/m -0,3 C -3,7 C 14,5 km/h (3 Bft) 95,65 %
17.12.2017 08:01 0,7 C 3,9 C 93 % 1019,1 hPa 0,0 l/m 9,7 km/h (2 Bft) W-SW 247 0 min 0,000 mm 0,0 UV-I 7 W/m -0,3 C -2,4 C 12,9 km/h (3 Bft) 91,30 %
17.12.2017 08:02 0,7 C 3,9 C 93 % 1019,1 hPa 0,0 l/m 11,3 km/h (2 Bft) SW 225 0 min 0,000 mm 0,0 UV-I 7 W/m -0,3 C -3,7 C 16,1 km/h (3 Bft) 100,00 %
17.12.2017 08:03 0,7 C 3,9 C 94 % 1019,1 hPa 0,0 l/m 12,9 km/h (3 Bft) SW 225 0 min 0,000 mm 0,0 UV-I 7 W/m -0,2 C -4,8 C 17,7 km/h (3 Bft) 86,96 %
17.12.2017 08:04 0,7 C 3,9 C 94 % 1019,1 hPa 0,0 l/m 14,5 km/h (3 Bft) W-SW 247 0 min 0,000 mm 0,0 UV-I 7 W/m -0,2 C -5,8 C 19,3 km/h (3 Bft) 95,65 %
17.12.2017 08:05 0,6 C 3,9 C 94 % 1019,1 hPa 0,0 l/m 11,3 km/h (2 Bft) W-SW 247 0 min 0,000 mm 0,0 UV-I 9 W/m -0,3 C -3,8 C 17,7 km/h (3 Bft) 95,65 %
17.12.2017 08:06 0,6 C 3,9 C 94 % 1019,1 hPa 0,0 l/m 14,5 km/h (3 Bft) W 270 0 min 0,000 mm 0,0 UV-I 9 W/m -0,3 C -6,0 C 20,9 km/h (4 Bft) 95,65 %
17.12.2017 08:07 0,6 C 3,9 C 94 % 1019,1 hPa 0,0 l/m 11,3 km/h (2 Bft) W-SW 247 0 min 0,000 mm 0,0 UV-I 9 W/m -0,3 C -3,8 C 16,1 km/h (3 Bft) 86,96 %
17.12.2017 08:08 0,6 C 3,9 C 94 % 1019,1 hPa 0,0 l/m 12,9 km/h (3 Bft) W 270 0 min 0,000 mm 0,0 UV-I 9 W/m -0,3 C -4,9 C 16,1 km/h (3 Bft) 91,30 %
17.12.2017 08:09 0,5 C 3,9 C 94 % 1019,1 hPa 0,0 l/m 11,3 km/h (2 Bft) W-SW 247 0 min 0,000 mm 0,0 UV-I 10 W/m -0,4 C -3,9 C 17,7 km/h (3 Bft) 100,00 %
17.12.2017 08:10 0,5 C 3,9 C 94 % 1019,2 hPa 0,0 l/m 11,3 km/h (2 Bft) W-SW 247 0 min 0,000 mm 0,0 UV-I 11 W/m -0,4 C -3,9 C 14,5 km/h (3 Bft) 95,65 %
17.12.2017 08:11 0,4 C 3,9 C 95 % 1019,1 hPa 0,0 l/m 11,3 km/h (2 Bft) W-SW 247 0 min 0,000 mm 0,0 UV-I 11 W/m -0,3 C -4,0 C 17,7 km/h (3 Bft) 95,65 %
17.12.2017 08:12 0,4 C 3,9 C 95 % 1019,1 hPa 0,0 l/m 11,3 km/h (2 Bft) W-SW 247 0 min 0,000 mm 0,0 UV-I 12 W/m -0,3 C -4,0 C 16,1 km/h (3 Bft) 95,65 %
17.12.2017 08:13 0,4 C 3,9 C 95 % 1019,2 hPa 0,0 l/m 12,9 km/h (3 Bft) W-SW 247 0 min 0,000 mm 0,0 UV-I 14 W/m -0,3 C -5,2 C 16,1 km/h (3 Bft) 95,65 %
17.12.2017 08:14 0,4 C 3,9 C 95 % 1019,2 hPa 0,0 l/m 12,9 km/h (3 Bft) W-SW 247 0 min 0,000 mm 0,0 UV-I 14 W/m -0,3 C -5,2 C 17,7 km/h (3 Bft) 91,30 %
17.12.2017 08:15 0,4 C 3,9 C 95 % 1019,2 hPa 0,0 l/m 9,7 km/h (2 Bft) W-SW 247 0 min 0,000 mm 0,0 UV-I 15 W/m -0,3 C -2,8 C 16,1 km/h (3 Bft) 95,65 %
17.12.2017 08:16 0,4 C 3,9 C 95 % 1019,2 hPa 0,0 l/m 9,7 km/h (2 Bft) W-SW 247 0 min 0,000 mm 0,0 UV-I 16 W/m -0,3 C -2,8 C 12,9 km/h (3 Bft) 95,65 %
17.12.2017 08:17 0,4 C 3,9 C 95 % 1019,2 hPa 0,0 l/m 9,7 km/h (2 Bft) W-SW 247 0 min 0,000 mm 0,0 UV-I 16 W/m -0,3 C -2,8 C 12,9 km/h (3 Bft) 100,00 %
17.12.2017 08:18 0,4 C 3,9 C 95 % 1019,2 hPa 0,0 l/m 9,7 km/h (2 Bft) W-SW 247 0 min 0,000 mm 0,0 UV-I 18 W/m -0,3 C -2,8 C 16,1 km/h (3 Bft) 95,65 %
17.12.2017 08:19 0,4 C 3,9 C 95 % 1019,3 hPa 0,0 l/m 8,0 km/h (2 Bft) W-SW 247 0 min 0,000 mm 0,0 UV-I 16 W/m -0,3 C -1,2 C 12,9 km/h (3 Bft) 95,65 %
17.12.2017 08:20 0,4 C 3,9 C 95 % 1019,3 hPa 0,0 l/m 8,0 km/h (2 Bft) W-SW 247 0 min 0,000 mm 0,0 UV-I 16 W/m -0,3 C -1,2 C 12,9 km/h (3 Bft) 95,65 %
17.12.2017 08:21 0,4 C 3,9 C 95 % 1019,3 hPa 0,0 l/m 8,0 km/h (2 Bft) W-SW 247 0 min 0,000 mm 0,0 UV-I 17 W/m -0,3 C -1,2 C 11,3 km/h (2 Bft) 95,65 %
17.12.2017 08:22 0,4 C 3,9 C 95 % 1019,3 hPa 0,0 l/m 8,0 km/h (2 Bft) W-SW 247 0 min 0,000 mm 0,0 UV-I 19 W/m -0,3 C -1,2 C 11,3 km/h (2 Bft) 100,00 %
17.12.2017 08:23 0,4 C 3,9 C 96 % 1019,3 hPa 0,0 l/m 8,0 km/h (2 Bft) W-SW 247 0 min 0,000 mm 0,0 UV-I 19 W/m -0,2 C -1,2 C 11,3 km/h (2 Bft) 95,65 %
17.12.2017 08:24 0,4 C 3,9 C 96 % 1019,3 hPa 0,0 l/m 11,3 km/h (2 Bft) W-SW 247 0 min 0,000 mm 0,0 UV-I 19 W/m -0,2 C -4,0 C 16,1 km/h (3 Bft) 95,65 %
17.12.2017 08:25 0,4 C 3,9 C 96 % 1019,4 hPa 0,0 l/m 8,0 km/h (2 Bft) W-SW 247 0 min 0,000 mm 0,0 UV-I 21 W/m -0,2 C -1,2 C 12,9 km/h (3 Bft) 100,00 %
17.12.2017 08:26 0,4 C 3,9 C 96 % 1019,3 hPa 0,0 l/m 8,0 km/h (2 Bft) W-SW 247 0 min 0,000 mm 0,0 UV-I 21 W/m -0,2 C -1,2 C 11,3 km/h (2 Bft) 100,00 %
17.12.2017 08:27 0,4 C 3,9 C 96 % 1019,3 hPa 0,0 l/m 8,0 km/h (2 Bft) SW 225 0 min 0,000 mm 0,0 UV-I 26 W/m -0,2 C -1,2 C 11,3 km/h (2 Bft) 100,00 %
17.12.2017 08:28 0,4 C 3,9 C 96 % 1019,3 hPa 0,0 l/m 6,4 km/h (2 Bft) SW 225 0 min 0,000 mm 0,0 UV-I 28 W/m -0,2 C 0,4 C 9,7 km/h (2 Bft) 95,65 %
17.12.2017 08:29 0,4 C 3,9 C 96 % 1019,3 hPa 0,0 l/m 8,0 km/h (2 Bft) W-SW 247 0 min 0,000 mm 0,0 UV-I 26 W/m -0,2 C -1,2 C 12,9 km/h (3 Bft) 100,00 %
17.12.2017 08:30 0,4 C 3,9 C 96 % 1019,4 hPa 0,0 l/m 9,7 km/h (2 Bft) SW 225 0 min 0,000 mm 0,0 UV-I 26 W/m -0,2 C -2,8 C 14,5 km/h (3 Bft) 100,00 %
17.12.2017 08:31 0,4 C 3,9 C 96 % 1019,4 hPa 0,0 l/m 8,0 km/h (2 Bft) W-SW 247 0 min 0,000 mm 0,0 UV-I 28 W/m -0,2 C -1,2 C 11,3 km/h (2 Bft) 100,00 %
17.12.2017 08:32 0,4 C 3,9 C 96 % 1019,4 hPa 0,0 l/m 8,0 km/h (2 Bft) SW 225 0 min 0,000 mm 0,0 UV-I 26 W/m -0,2 C -1,2 C 12,9 km/h (3 Bft) 100,00 %
17.12.2017 08:33 0,4 C 3,9 C 96 % 1019,4 hPa 0,0 l/m 6,4 km/h (2 Bft) SW 225 0 min 0,000 mm 0,0 UV-I 26 W/m -0,2 C 0,4 C 8,0 km/h (2 Bft) 100,00 %
17.12.2017 08:34 0,4 C 3,9 C 96 % 1019,4 hPa 0,0 l/m 8,0 km/h (2 Bft) SW 225 0 min 0,000 mm 0,0 UV-I 26 W/m -0,2 C -1,2 C 11,3 km/h (2 Bft) 95,65 %
17.12.2017 08:35 0,4 C 3,9 C 96 % 1019,4 hPa 0,0 l/m 9,7 km/h (2 Bft) W-SW 247 0 min 0,000 mm 0,0 UV-I 28 W/m -0,2 C -2,8 C 12,9 km/h (3 Bft) 95,65 %
17.12.2017 08:36 0,4 C 3,9 C 96 % 1019,4 hPa 0,0 l/m 8,0 km/h (2 Bft) W-SW 247 0 min 0,000 mm 0,0 UV-I 30 W/m -0,2 C -1,2 C 12,9 km/h (3 Bft) 100,00 %
17.12.2017 08:37 0,4 C 3,9 C 96 % 1019,4 hPa 0,0 l/m 6,4 km/h (2 Bft) W 270 0 min 0,000 mm 0,0 UV-I 33 W/m -0,2 C 0,4 C 11,3 km/h (2 Bft) 100,00 %
17.12.2017 08:38 0,4 C 3,9 C 96 % 1019,4 hPa 0,0 l/m 6,4 km/h (2 Bft) W-SW 247 0 min 0,000 mm 0,0 UV-I 33 W/m -0,2 C 0,4 C 8,0 km/h (2 Bft) 95,65 %
17.12.2017 08:39 0,4 C 3,9 C 96 % 1019,4 hPa 0,0 l/m 8,0 km/h (2 Bft) SW 225 0 min 0,000 mm 0,0 UV-I 34 W/m -0,2 C -1,2 C 11,3 km/h (2 Bft) 95,65 %
17.12.2017 08:40 0,4 C 3,9 C 96 % 1019,4 hPa 0,0 l/m 8,0 km/h (2 Bft) SW 225 0 min 0,000 mm 0,0 UV-I 30 W/m -0,2 C -1,2 C 9,7 km/h (2 Bft) 100,00 %
17.12.2017 08:41 0,4 C 3,9 C 96 % 1019,4 hPa 0,0 l/m 8,0 km/h (2 Bft) SW 225 0 min 0,000 mm 0,0 UV-I 33 W/m -0,2 C -1,2 C 11,3 km/h (2 Bft) 100,00 %
17.12.2017 08:42 0,4 C 3,9 C 96 % 1019,4 hPa 0,0 l/m 8,0 km/h (2 Bft) SW 225 0 min 0,000 mm 0,0 UV-I 33 W/m -0,2 C -1,2 C 11,3 km/h (2 Bft) 95,65 %
17.12.2017 08:43 0,4 C 3,9 C 96 % 1019,4 hPa 0,0 l/m 8,0 km/h (2 Bft) W-SW 247 0 min 0,000 mm 0,0 UV-I 35 W/m -0,2 C -1,2 C 11,3 km/h (2 Bft) 100,00 %
17.12.2017 08:44 0,4 C 3,9 C 96 % 1019,4 hPa 0,0 l/m 8,0 km/h (2 Bft) SW 225 0 min 0,000 mm 0,0 UV-I 37 W/m -0,2 C -1,2 C 11,3 km/h (2 Bft) 100,00 %
17.12.2017 08:45 0,4 C 3,9 C 96 % 1019,4 hPa 0,0 l/m 6,4 km/h (2 Bft) SW 225 0 min 0,000 mm 0,0 UV-I 29 W/m -0,2 C 0,4 C 9,7 km/h (2 Bft) 95,65 %
17.12.2017 08:46 0,4 C 3,9 C 96 % 1019,4 hPa 0,0 l/m 8,0 km/h (2 Bft) SW 225 0 min 0,000 mm 0,0 UV-I 21 W/m -0,2 C -1,2 C 11,3 km/h (2 Bft) 100,00 %
17.12.2017 08:47 0,4 C 3,9 C 96 % 1019,5 hPa 0,0 l/m 6,4 km/h (2 Bft) SW 225 0 min 0,000 mm 0,0 UV-I 18 W/m -0,2 C 0,4 C 8,0 km/h (2 Bft) 100,00 %
17.12.2017 08:48 0,4 C 3,9 C 96 % 1019,5 hPa 0,0 l/m 6,4 km/h (2 Bft) SW 225 0 min 0,000 mm 0,0 UV-I 18 W/m -0,2 C 0,4 C 9,7 km/h (2 Bft) 100,00 %
17.12.2017 08:49 0,4 C 3,9 C 96 % 1019,5 hPa 0,0 l/m 6,4 km/h (2 Bft) W-SW 247 0 min 0,000 mm 0,0 UV-I 18 W/m -0,2 C 0,4 C 8,0 km/h (2 Bft) 91,30 %
17.12.2017 08:50 0,4 C 3,9 C 96 % 1019,5 hPa 0,0 l/m 8,0 km/h (2 Bft) SW 225 0 min 0,000 mm 0,0 UV-I 15 W/m -0,2 C -1,2 C 9,7 km/h (2 Bft) 100,00 %
17.12.2017 08:51 0,4 C 3,9 C 96 % 1019,5 hPa 0,0 l/m 8,0 km/h (2 Bft) SW 225 0 min 0,000 mm 0,0 UV-I 14 W/m -0,2 C -1,2 C 9,7 km/h (2 Bft) 100,00 %
17.12.2017 08:52 0,4 C 3,9 C 96 % 1019,5 hPa 0,0 l/m 6,4 km/h (2 Bft) SW 225 0 min 0,000 mm 0,0 UV-I 18 W/m -0,2 C 0,4 C 11,3 km/h (2 Bft) 100,00 %
17.12.2017 08:53 0,4 C 3,9 C 96 % 1019,6 hPa 0,0 l/m 8,0 km/h (2 Bft) SW 225 0 min 0,000 mm 0,0 UV-I 19 W/m -0,2 C -1,2 C 9,7 km/h (2 Bft) 100,00 %
17.12.2017 08:54 0,4 C 3,9 C 96 % 1019,6 hPa 0,0 l/m 8,0 km/h (2 Bft) W-SW 247 0 min 0,000 mm 0,0 UV-I 21 W/m -0,2 C -1,2 C 14,5 km/h (3 Bft) 95,65 %
17.12.2017 08:55 0,4 C 3,9 C 96 % 1019,6 hPa 0,0 l/m 6,4 km/h (2 Bft) SW 225 0 min 0,000 mm 0,0 UV-I 25 W/m -0,2 C 0,4 C 6,4 km/h (2 Bft) 100,00 %
17.12.2017 08:56 0,4 C 3,9 C 96 % 1019,6 hPa 0,0 l/m 6,4 km/h (2 Bft) S-SW 202 0 min 0,000 mm 0,0 UV-I 26 W/m -0,2 C 0,4 C 11,3 km/h (2 Bft) 95,65 %
17.12.2017 08:57 0,4 C 3,9 C 96 % 1019,6 hPa 0,0 l/m 8,0 km/h (2 Bft) S-SW 202 0 min 0,000 mm 0,0 UV-I 26 W/m -0,2 C -1,2 C 9,7 km/h (2 Bft) 100,00 %
17.12.2017 08:58 0,4 C 3,9 C 96 % 1019,6 hPa 0,0 l/m 4,8 km/h (1 Bft) W-SW 247 0 min 0,000 mm 0,0 UV-I 25 W/m -0,2 C 0,4 C 8,0 km/h (2 Bft) 100,00 %
17.12.2017 08:59 0,4 C 3,9 C 96 % 1019,6 hPa 0,0 l/m 6,4 km/h (2 Bft) S-SW 202 0 min 0,000 mm 0,0 UV-I 25 W/m -0,2 C 0,4 C 8,0 km/h (2 Bft) 100,00 %
17.12.2017 09:00 0,4 C 3,9 C 96 % 1019,6 hPa 0,0 l/m 6,4 km/h (2 Bft) W-SW 247 0 min 0,000 mm 0,0 UV-I 23 W/m -0,2 C 0,4 C 11,3 km/h (2 Bft) 100,00 %
17.12.2017 09:01 0,4 C 3,9 C 96 % 1019,6 hPa 0,0 l/m 4,8 km/h (1 Bft) S-SW 202 0 min 0,000 mm 0,0 UV-I 23 W/m -0,2 C 0,4 C 8,0 km/h (2 Bft) 100,00 %
17.12.2017 09:02 0,4 C 3,9 C 96 % 1019,6 hPa 0,0 l/m 6,4 km/h (2 Bft) SW 225 0 min 0,000 mm 0,0 UV-I 23 W/m -0,2 C 0,4 C 11,3 km/h (2 Bft) 100,00 %
17.12.2017 09:03 0,4 C 3,9 C 96 % 1019,6 hPa 0,0 l/m 6,4 km/h (2 Bft) SW 225 0 min 0,000 mm 0,0 UV-I 25 W/m -0,2 C 0,4 C 9,7 km/h (2 Bft) 95,65 %
17.12.2017 09:04 0,4 C 3,9 C 96 % 1019,6 hPa 0,0 l/m 6,4 km/h (2 Bft) S-SW 202 0 min 0,000 mm 0,0 UV-I 25 W/m -0,2 C 0,4 C 8,0 km/h (2 Bft) 100,00 %
17.12.2017 09:05 0,4 C 3,9 C 96 % 1019,6 hPa 0,0 l/m 4,8 km/h (1 Bft) SW 225 0 min 0,000 mm 0,0 UV-I 26 W/m -0,2 C 0,4 C 6,4 km/h (2 Bft) 95,65 %
17.12.2017 09:06 0,4 C 3,9 C 96 % 1019,6 hPa 0,0 l/m 6,4 km/h (2 Bft) W-SW 247 0 min 0,000 mm 0,0 UV-I 25 W/m -0,2 C 0,4 C 9,7 km/h (2 Bft) 100,00 %
17.12.2017 09:07 0,4 C 3,9 C 96 % 1019,6 hPa 0,0 l/m 8,0 km/h (2 Bft) SW 225 0 min 0,000 mm 0,0 UV-I 25 W/m -0,2 C -1,2 C 11,3 km/h (2 Bft) 100,00 %
17.12.2017 09:08 0,4 C 3,9 C 96 % 1019,7 hPa 0,0 l/m 8,0 km/h (2 Bft) SW 225 0 min 0,000 mm 0,0 UV-I 33 W/m -0,2 C -1,2 C 11,3 km/h (2 Bft) 100,00 %
17.12.2017 09:09 0,4 C 3,9 C 96 % 1019,6 hPa 0,0 l/m 4,8 km/h (1 Bft) SW 225 0 min 0,000 mm 0,0 UV-I 35 W/m -0,2 C 0,4 C 8,0 km/h (2 Bft) 95,65 %
17.12.2017 09:10 0,4 C 3,9 C 96 % 1019,7 hPa 0,0 l/m 8,0 km/h (2 Bft) SW 225 0 min 0,000 mm 0,0 UV-I 51 W/m -0,2 C -1,2 C 14,5 km/h (3 Bft) 95,65 %
17.12.2017 09:11 0,4 C 3,9 C 96 % 1019,7 hPa 0,0 l/m 11,3 km/h (2 Bft) SW 225 0 min 0,000 mm 0,0 UV-I 60 W/m -0,2 C -4,0 C 16,1 km/h (3 Bft) 100,00 %
17.12.2017 09:12 0,4 C 3,9 C 96 % 1019,7 hPa 0,0 l/m 8,0 km/h (2 Bft) SW 225 0 min 0,000 mm 0,0 UV-I 67 W/m -0,2 C -1,2 C 11,3 km/h (2 Bft) 100,00 %
17.12.2017 09:13 0,4 C 3,9 C 96 % 1019,7 hPa 0,0 l/m 9,7 km/h (2 Bft) SW 225 0 min 0,000 mm 0,0 UV-I 70 W/m -0,2 C -2,8 C 12,9 km/h (3 Bft) 100,00 %
17.12.2017 09:14 0,4 C 3,9 C 96 % 1019,7 hPa 0,0 l/m 9,7 km/h (2 Bft) SW 225 0 min 0,000 mm 0,0 UV-I 70 W/m -0,2 C -2,8 C 11,3 km/h (2 Bft) 95,65 %
17.12.2017 09:15 0,4 C 3,9 C 96 % 1019,8 hPa 0,0 l/m 8,0 km/h (2 Bft) SW 225 0 min 0,000 mm 0,0 UV-I 72 W/m -0,2 C -1,2 C 12,9 km/h (3 Bft) 100,00 %
17.12.2017 09:16 0,4 C 3,9 C 96 % 1019,8 hPa 0,0 l/m 9,7 km/h (2 Bft) W-SW 247 0 min 0,000 mm 0,0 UV-I 69 W/m -0,2 C -2,8 C 16,1 km/h (3 Bft) 100,00 %
17.12.2017 09:17 0,4 C 3,9 C 96 % 1019,7 hPa 0,0 l/m 8,0 km/h (2 Bft) SW 225 0 min 0,000 mm 0,0 UV-I 67 W/m -0,2 C -1,2 C 12,9 km/h (3 Bft) 91,30 %
17.12.2017 09:18 0,4 C 3,9 C 96 % 1019,7 hPa 0,0 l/m 6,4 km/h (2 Bft) W-SW 247 0 min 0,000 mm 0,0 UV-I 69 W/m -0,2 C 0,4 C 11,3 km/h (2 Bft) 95,65 %
17.12.2017 09:19 0,4 C 3,9 C 96 % 1019,7 hPa 0,0 l/m 9,7 km/h (2 Bft) SW 225 0 min 0,000 mm 0,0 UV-I 67 W/m -0,2 C -2,8 C 16,1 km/h (3 Bft) 95,65 %
17.12.2017 09:20 0,4 C 3,9 C 96 % 1019,7 hPa 0,0 l/m 11,3 km/h (2 Bft) SW 225 0 min 0,000 mm 0,0 UV-I 64 W/m -0,2 C -4,0 C 14,5 km/h (3 Bft) 100,00 %
17.12.2017 09:21 0,4 C 3,9 C 96 % 1019,8 hPa 0,0 l/m 8,0 km/h (2 Bft) W-SW 247 0 min 0,000 mm 0,0 UV-I 63 W/m -0,2 C -1,2 C 12,9 km/h (3 Bft) 100,00 %
17.12.2017 09:22 0,4 C 3,9 C 96 % 1019,8 hPa 0,0 l/m 9,7 km/h (2 Bft) SW 225 0 min 0,000 mm 0,0 UV-I 62 W/m -0,2 C -2,8 C 14,5 km/h (3 Bft) 95,65 %
17.12.2017 09:23 0,4 C 3,9 C 96 % 1019,8 hPa 0,0 l/m 9,7 km/h (2 Bft) SW 225 0 min 0,000 mm 0,0 UV-I 62 W/m -0,2 C -2,8 C 14,5 km/h (3 Bft) 95,65 %
17.12.2017 09:24 0,4 C 3,9 C 96 % 1019,8 hPa 0,0 l/m 9,7 km/h (2 Bft) SW 225 0 min 0,000 mm 0,0 UV-I 62 W/m -0,2 C -2,8 C 16,1 km/h (3 Bft) 91,30 %
17.12.2017 09:25 0,4 C 3,9 C 96 % 1019,9 hPa 0,0 l/m 14,5 km/h (3 Bft) SW 225 0 min 0,000 mm 0,0 UV-I 60 W/m -0,2 C -6,2 C 17,7 km/h (3 Bft) 95,65 %
17.12.2017 09:26 0,4 C 3,9 C 96 % 1019,8 hPa 0,0 l/m 12,9 km/h (3 Bft) SW 225 0 min 0,000 mm 0,0 UV-I 54 W/m -0,2 C -5,2 C 17,7 km/h (3 Bft) 100,00 %
17.12.2017 09:27 0,4 C 3,9 C 96 % 1019,9 hPa 0,0 l/m 9,7 km/h (2 Bft) SW 225 0 min 0,000 mm 0,0 UV-I 54 W/m -0,2 C -2,8 C 16,1 km/h (3 Bft) 95,65 %
17.12.2017 09:28 0,4 C 3,9 C 96 % 1019,8 hPa 0,0 l/m 9,7 km/h (2 Bft) SW 225 0 min 0,000 mm 0,0 UV-I 54 W/m -0,2 C -2,8 C 14,5 km/h (3 Bft) 100,00 %
17.12.2017 09:29 0,5 C 3,9 C 96 % 1019,9 hPa 0,0 l/m 8,0 km/h (2 Bft) W-SW 247 0 min 0,000 mm 0,0 UV-I 56 W/m -0,1 C -1,1 C 11,3 km/h (2 Bft) 95,65 %
17.12.2017 09:30 0,5 C 3,9 C 96 % 1019,9 hPa 0,0 l/m 9,7 km/h (2 Bft) W-SW 247 0 min 0,000 mm 0,0 UV-I 54 W/m -0,1 C -2,6 C 12,9 km/h (3 Bft) 100,00 %
17.12.2017 09:31 0,5 C 3,9 C 96 % 1019,9 hPa 0,0 l/m 9,7 km/h (2 Bft) W-SW 247 0 min 0,000 mm 0,0 UV-I 58 W/m -0,1 C -2,6 C 12,9 km/h (3 Bft) 86,96 %
17.12.2017 09:32 0,5 C 3,9 C 96 % 1019,9 hPa 0,0 l/m 9,7 km/h (2 Bft) W-SW 247 0 min 0,000 mm 0,0 UV-I 60 W/m -0,1 C -2,6 C 14,5 km/h (3 Bft) 95,65 %
17.12.2017 09:33 0,5 C 3,9 C 96 % 1020,0 hPa 0,0 l/m 9,7 km/h (2 Bft) W-SW 247 0 min 0,000 mm 0,0 UV-I 60 W/m -0,1 C -2,6 C 14,5 km/h (3 Bft) 95,65 %
17.12.2017 09:34 0,5 C 3,9 C 96 % 1020,0 hPa 0,0 l/m 9,7 km/h (2 Bft) SW 225 0 min 0,000 mm 0,0 UV-I 60 W/m -0,1 C -2,6 C 12,9 km/h (3 Bft) 100,00 %
17.12.2017 09:35 0,5 C 3,9 C 96 % 1020,0 hPa 0,0 l/m 8,0 km/h (2 Bft) SW 225 0 min 0,000 mm 0,0 UV-I 62 W/m -0,1 C -1,1 C 11,3 km/h (2 Bft) 95,65 %
17.12.2017 09:36 0,5 C 3,9 C 96 % 1020,0 hPa 0,0 l/m 8,0 km/h (2 Bft) W-SW 247 0 min 0,000 mm 0,0 UV-I 63 W/m -0,1 C -1,1 C 12,9 km/h (3 Bft) 100,00 %
17.12.2017 09:37 0,5 C 3,9 C 96 % 1020,0 hPa 0,0 l/m 11,3 km/h (2 Bft) SW 225 0 min 0,000 mm 0,0 UV-I 65 W/m -0,1 C -3,9 C 17,7 km/h (3 Bft) 95,65 %
17.12.2017 09:38 0,5 C 3,9 C 96 % 1020,0 hPa 0,0 l/m 9,7 km/h (2 Bft) SW 225 0 min 0,000 mm 0,0 UV-I 67 W/m -0,1 C -2,6 C 12,9 km/h (3 Bft) 95,65 %
17.12.2017 09:39 0,6 C 3,9 C 96 % 1020,0 hPa 0,0 l/m 6,4 km/h (2 Bft) W-SW 247 0 min 0,000 mm 0,0 UV-I 67 W/m 0,0 C 0,6 C 8,0 km/h (2 Bft) 95,65 %
17.12.2017 09:40 0,6 C 3,9 C 96 % 1020,0 hPa 0,0 l/m 9,7 km/h (2 Bft) SW 225 0 min 0,000 mm 0,0 UV-I 63 W/m 0,0 C -2,5 C 14,5 km/h (3 Bft) 91,30 %
17.12.2017 09:41 0,6 C 3,9 C 96 % 1020,0 hPa 0,0 l/m 8,0 km/h (2 Bft) W-SW 247 0 min 0,000 mm 0,0 UV-I 62 W/m 0,0 C -1,0 C 12,9 km/h (3 Bft) 100,00 %
17.12.2017 09:42 0,6 C 3,9 C 96 % 1020,0 hPa 0,0 l/m 11,3 km/h (2 Bft) SW 225 0 min 0,000 mm 0,0 UV-I 56 W/m 0,0 C -3,8 C 17,7 km/h (3 Bft) 91,30 %
17.12.2017 09:43 0,6 C 3,9 C 96 % 1020,0 hPa 0,0 l/m 12,9 km/h (3 Bft) SW 225 0 min 0,000 mm 0,0 UV-I 52 W/m 0,0 C -4,9 C 16,1 km/h (3 Bft) 95,65 %
17.12.2017 09:44 0,6 C 3,9 C 96 % 1020,0 hPa 0,0 l/m 11,3 km/h (2 Bft) SW 225 0 min 0,000 mm 0,0 UV-I 54 W/m 0,0 C -3,8 C 16,1 km/h (3 Bft) 91,30 %
17.12.2017 09:45 0,6 C 3,9 C 96 % 1020,0 hPa 0,0 l/m 9,7 km/h (2 Bft) W-SW 247 0 min 0,000 mm 0,0 UV-I 54 W/m 0,0 C -2,5 C 12,9 km/h (3 Bft) 86,96 %
17.12.2017 09:46 0,6 C 3,9 C 96 % 1020,1 hPa 0,0 l/m 11,3 km/h (2 Bft) SW 225 0 min 0,000 mm 0,0 UV-I 54 W/m 0,0 C -3,8 C 14,5 km/h (3 Bft) 100,00 %
17.12.2017 09:47 0,6 C 3,9 C 96 % 1020,1 hPa 0,0 l/m 9,7 km/h (2 Bft) SW 225 0 min 0,000 mm 0,0 UV-I 54 W/m 0,0 C -2,5 C 16,1 km/h (3 Bft) 95,65 %
17.12.2017 09:48 0,6 C 3,9 C 96 % 1020,1 hPa 0,0 l/m 11,3 km/h (2 Bft) SW 225 0 min 0,000 mm 0,0 UV-I 53 W/m 0,0 C -3,8 C 16,1 km/h (3 Bft) 100,00 %
17.12.2017 09:49 0,6 C 3,9 C 96 % 1020,1 hPa 0,0 l/m 8,0 km/h (2 Bft) W-SW 247 0 min 0,000 mm 0,0 UV-I 49 W/m 0,0 C -1,0 C 11,3 km/h (2 Bft) 91,30 %
17.12.2017 09:50 0,6 C 3,9 C 96 % 1020,1 hPa 0,0 l/m 8,0 km/h (2 Bft) SW 225 0 min 0,000 mm 0,0 UV-I 53 W/m 0,0 C -1,0 C 12,9 km/h (3 Bft) 95,65 %
17.12.2017 09:51 0,6 C 3,9 C 96 % 1020,1 hPa 0,0 l/m 9,7 km/h (2 Bft) W-SW 247 0 min 0,000 mm 0,0 UV-I 53 W/m 0,0 C -2,5 C 14,5 km/h (3 Bft) 91,30 %
17.12.2017 09:52 0,6 C 3,9 C 96 % 1020,1 hPa 0,0 l/m 9,7 km/h (2 Bft) SW 225 0 min 0,000 mm 0,0 UV-I 46 W/m 0,0 C -2,5 C 14,5 km/h (3 Bft) 86,96 %
17.12.2017 09:53 0,6 C 3,9 C 96 % 1020,2 hPa 0,0 l/m 8,0 km/h (2 Bft) W-SW 247 0 min 0,000 mm 0,0 UV-I 44 W/m 0,0 C -1,0 C 11,3 km/h (2 Bft) 100,00 %
17.12.2017 09:54 0,6 C 3,9 C 96 % 1020,1 hPa 0,0 l/m 6,4 km/h (2 Bft) W-SW 247 0 min 0,000 mm 0,0 UV-I 47 W/m 0,0 C 0,6 C 9,7 km/h (2 Bft) 95,65 %
17.12.2017 09:55 0,6 C 3,9 C 96 % 1020,1 hPa 0,0 l/m 8,0 km/h (2 Bft) W-SW 247 0 min 0,000 mm 0,0 UV-I 48 W/m 0,0 C -1,0 C 11,3 km/h (2 Bft) 100,00 %
17.12.2017 09:56 0,6 C 3,9 C 96 % 1020,1 hPa 0,0 l/m 6,4 km/h (2 Bft) W-SW 247 0 min 0,000 mm 0,0 UV-I 44 W/m 0,0 C 0,6 C 11,3 km/h (2 Bft) 95,65 %
17.12.2017 09:57 0,6 C 3,9 C 96 % 1020,2 hPa 0,0 l/m 9,7 km/h (2 Bft) SW 225 0 min 0,000 mm 0,0 UV-I 39 W/m 0,0 C -2,5 C 12,9 km/h (3 Bft) 100,00 %
17.12.2017 09:58 0,6 C 3,9 C 96 % 1020,2 hPa 0,0 l/m 9,7 km/h (2 Bft) W-SW 247 0 min 0,000 mm 0,0 UV-I 33 W/m 0,0 C -2,5 C 12,9 km/h (3 Bft) 91,30 %
17.12.2017 09:59 0,6 C 3,9 C 96 % 1020,2 hPa 0,0 l/m 8,0 km/h (2 Bft) SW 225 0 min 0,000 mm 0,0 UV-I 32 W/m 0,0 C -1,0 C 9,7 km/h (2 Bft) 95,65 %
17.12.2017 10:00 0,6 C 3,9 C 96 % 1020,1 hPa 0,0 l/m 8,0 km/h (2 Bft) W-SW 247 0 min 0,025 mm 0,0 UV-I 35 W/m 0,0 C -1,0 C 11,3 km/h (2 Bft) 95,65 %
17.12.2017 10:01 0,6 C 3,9 C 96 % 1020,1 hPa 0,0 l/m 8,0 km/h (2 Bft) W-SW 247 0 min 0,000 mm 0,0 UV-I 42 W/m 0,0 C -1,0 C 11,3 km/h (2 Bft) 91,30 %
17.12.2017 10:02 0,6 C 3,9 C 96 % 1020,2 hPa 0,0 l/m 9,7 km/h (2 Bft) SW 225 0 min 0,000 mm 0,0 UV-I 44 W/m 0,0 C -2,5 C 14,5 km/h (3 Bft) 91,30 %
17.12.2017 10:03 0,6 C 3,9 C 96 % 1020,2 hPa 0,0 l/m 8,0 km/h (2 Bft) SW 225 0 min 0,000 mm 0,0 UV-I 49 W/m 0,0 C -1,0 C 12,9 km/h (3 Bft) 95,65 %
17.12.2017 10:04 0,6 C 3,9 C 96 % 1020,2 hPa 0,0 l/m 9,7 km/h (2 Bft) SW 225 0 min 0,000 mm 0,0 UV-I 56 W/m 0,0 C -2,5 C 14,5 km/h (3 Bft) 95,65 %
17.12.2017 10:05 0,6 C 3,9 C 96 % 1020,2 hPa 0,0 l/m 9,7 km/h (2 Bft) W-SW 247 0 min 0,000 mm 0,0 UV-I 63 W/m 0,0 C -2,5 C 14,5 km/h (3 Bft) 95,65 %
17.12.2017 10:06 0,6 C 3,9 C 96 % 1020,2 hPa 0,0 l/m 8,0 km/h (2 Bft) W-SW 247 0 min 0,000 mm 0,0 UV-I 70 W/m 0,0 C -1,0 C 9,7 km/h (2 Bft) 95,65 %
17.12.2017 10:07 0,6 C 3,9 C 96 % 1020,2 hPa 0,0 l/m 8,0 km/h (2 Bft) W-SW 247 0 min 0,000 mm 0,0 UV-I 72 W/m 0,0 C -1,0 C 12,9 km/h (3 Bft) 95,65 %
17.12.2017 10:08 0,6 C 3,9 C 96 % 1020,2 hPa 0,0 l/m 9,7 km/h (2 Bft) SW 225 0 min 0,000 mm 0,0 UV-I 77 W/m 0,0 C -2,5 C 12,9 km/h (3 Bft) 95,65 %
17.12.2017 10:09 0,6 C 3,9 C 96 % 1020,2 hPa 0,0 l/m 8,0 km/h (2 Bft) SW 225 0 min 0,000 mm 0,0 UV-I 79 W/m 0,0 C -1,0 C 12,9 km/h (3 Bft) 100,00 %
17.12.2017 10:10 0,6 C 3,9 C 96 % 1020,2 hPa 0,0 l/m 9,7 km/h (2 Bft) SW 225 0 min 0,000 mm 0,0 UV-I 83 W/m 0,0 C -2,5 C 12,9 km/h (3 Bft) 95,65 %
17.12.2017 10:11 0,6 C 3,9 C 96 % 1020,2 hPa 0,0 l/m 9,7 km/h (2 Bft) SW 225 0 min 0,000 mm 0,0 UV-I 90 W/m 0,0 C -2,5 C 12,9 km/h (3 Bft) 100,00 %
17.12.2017 10:12 0,6 C 3,9 C 96 % 1020,3 hPa 0,0 l/m 11,3 km/h (2 Bft) SW 225 0 min 0,000 mm 0,0 UV-I 95 W/m 0,0 C -3,8 C 14,5 km/h (3 Bft) 95,65 %
17.12.2017 10:13 0,7 C 3,9 C 96 % 1020,2 hPa 0,0 l/m 9,7 km/h (2 Bft) SW 225 0 min 0,000 mm 0,0 UV-I 91 W/m 0,1 C -2,4 C 14,5 km/h (3 Bft) 95,65 %
17.12.2017 10:14 0,7 C 3,9 C 96 % 1020,3 hPa 0,0 l/m 9,7 km/h (2 Bft) SW 225 0 min 0,000 mm 0,0 UV-I 86 W/m 0,1 C -2,4 C 16,1 km/h (3 Bft) 95,65 %
17.12.2017 10:15 0,7 C 3,9 C 96 % 1020,3 hPa 0,0 l/m 8,0 km/h (2 Bft) SW 225 0 min 0,000 mm 0,0 UV-I 90 W/m 0,1 C -0,9 C 11,3 km/h (2 Bft) 100,00 %
17.12.2017 10:16 0,7 C 3,9 C 96 % 1020,3 hPa 0,0 l/m 9,7 km/h (2 Bft) SW 225 0 min 0,000 mm 0,0 UV-I 90 W/m 0,1 C -2,4 C 12,9 km/h (3 Bft) 95,65 %
17.12.2017 10:17 0,7 C 3,9 C 96 % 1020,3 hPa 0,0 l/m 12,9 km/h (3 Bft) SW 225 0 min 0,000 mm 0,0 UV-I 88 W/m 0,1 C -4,8 C 17,7 km/h (3 Bft) 100,00 %
17.12.2017 10:18 0,7 C 3,9 C 96 % 1020,3 hPa 0,0 l/m 9,7 km/h (2 Bft) SW 225 0 min 0,000 mm 0,0 UV-I 80 W/m 0,1 C -2,4 C 16,1 km/h (3 Bft) 100,00 %
17.12.2017 10:19 0,7 C 3,9 C 96 % 1020,3 hPa 0,0 l/m 11,3 km/h (2 Bft) SW 225 0 min 0,000 mm 0,0 UV-I 69 W/m 0,1 C -3,7 C 16,1 km/h (3 Bft) 100,00 %
17.12.2017 10:20 0,7 C 3,9 C 96 % 1020,3 hPa 0,0 l/m 11,3 km/h (2 Bft) W-SW 247 0 min 0,000 mm 0,0 UV-I 65 W/m 0,1 C -3,7 C 14,5 km/h (3 Bft) 95,65 %
17.12.2017 10:21 0,7 C 3,9 C 96 % 1020,3 hPa 0,0 l/m 11,3 km/h (2 Bft) SW 225 0 min 0,000 mm 0,0 UV-I 69 W/m 0,1 C -3,7 C 19,3 km/h (3 Bft) 100,00 %
17.12.2017 10:22 0,7 C 3,9 C 96 % 1020,3 hPa 0,0 l/m 11,3 km/h (2 Bft) W-SW 247 0 min 0,000 mm 0,0 UV-I 70 W/m 0,1 C -3,7 C 16,1 km/h (3 Bft) 100,00 %
17.12.2017 10:23 0,7 C 3,9 C 96 % 1020,3 hPa 0,0 l/m 11,3 km/h (2 Bft) SW 225 0 min 0,000 mm 0,0 UV-I 79 W/m 0,1 C -3,7 C 19,3 km/h (3 Bft) 100,00 %
17.12.2017 10:24 0,7 C 3,9 C 96 % 1020,3 hPa 0,0 l/m 11,3 km/h (2 Bft) SW 225 0 min 0,000 mm 0,0 UV-I 89 W/m 0,1 C -3,7 C 17,7 km/h (3 Bft) 100,00 %
17.12.2017 10:25 0,7 C 3,9 C 95 % 1020,3 hPa 0,0 l/m 11,3 km/h (2 Bft) SW 225 0 min 0,000 mm 0,0 UV-I 104 W/m -0,0 C -3,7 C 14,5 km/h (3 Bft) 100,00 %
17.12.2017 10:26 0,7 C 3,9 C 95 % 1020,3 hPa 0,0 l/m 12,9 km/h (3 Bft) SW 225 0 min 0,000 mm 0,0 UV-I 132 W/m -0,0 C -4,8 C 17,7 km/h (3 Bft) 100,00 %
17.12.2017 10:27 0,7 C 3,9 C 95 % 1020,3 hPa 0,0 l/m 12,9 km/h (3 Bft) SW 225 0 min 0,000 mm 0,0 UV-I 125 W/m -0,0 C -4,8 C 19,3 km/h (3 Bft) 95,65 %
17.12.2017 10:28 0,8 C 3,9 C 95 % 1020,3 hPa 0,0 l/m 11,3 km/h (2 Bft) SW 225 0 min 0,000 mm 0,0 UV-I 111 W/m 0,1 C -3,6 C 14,5 km/h (3 Bft) 100,00 %
17.12.2017 10:29 0,8 C 3,9 C 95 % 1020,3 hPa 0,0 l/m 12,9 km/h (3 Bft) SW 225 0 min 0,000 mm 0,0 UV-I 109 W/m 0,1 C -4,7 C 19,3 km/h (3 Bft) 100,00 %
17.12.2017 10:30 0,8 C 3,9 C 95 % 1020,2 hPa 0,0 l/m 11,3 km/h (2 Bft) SW 225 0 min 0,000 mm 0,0 UV-I 116 W/m 0,1 C -3,6 C 16,1 km/h (3 Bft) 95,65 %
17.12.2017 10:31 0,8 C 3,9 C 95 % 1020,2 hPa 0,0 l/m 14,5 km/h (3 Bft) W-SW 247 0 min 0,000 mm 0,0 UV-I 128 W/m 0,1 C -5,7 C 19,3 km/h (3 Bft) 100,00 %
17.12.2017 10:32 0,8 C 3,9 C 95 % 1020,2 hPa 0,0 l/m 14,5 km/h (3 Bft) SW 225 0 min 0,000 mm 0,0 UV-I 127 W/m 0,1 C -5,7 C 17,7 km/h (3 Bft) 100,00 %
17.12.2017 10:33 0,8 C 3,9 C 95 % 1020,3 hPa 0,0 l/m 12,9 km/h (3 Bft) SW 225 0 min 0,000 mm 0,0 UV-I 121 W/m 0,1 C -4,7 C 17,7 km/h (3 Bft) 100,00 %
17.12.2017 10:34 0,8 C 3,9 C 95 % 1020,2 hPa 0,0 l/m 12,9 km/h (3 Bft) SW 225 0 min 0,000 mm 0,0 UV-I 111 W/m 0,1 C -4,7 C 16,1 km/h (3 Bft) 95,65 %
17.12.2017 10:35 0,8 C 3,9 C 95 % 1020,2 hPa 0,0 l/m 9,7 km/h (2 Bft) SW 225 0 min 0,000 mm 0,0 UV-I 105 W/m 0,1 C -2,3 C 17,7 km/h (3 Bft) 100,00 %
17.12.2017 10:36 0,8 C 3,9 C 95 % 1020,3 hPa 0,0 l/m 8,0 km/h (2 Bft) SW 225 0 min 0,000 mm 0,0 UV-I 103 W/m 0,1 C -0,8 C 14,5 km/h (3 Bft) 100,00 %
17.12.2017 10:37 0,8 C 3,9 C 95 % 1020,4 hPa 0,0 l/m 9,7 km/h (2 Bft) W-SW 247 0 min 0,000 mm 0,0 UV-I 102 W/m 0,1 C -2,3 C 14,5 km/h (3 Bft) 100,00 %
17.12.2017 10:38 0,8 C 3,9 C 95 % 1020,4 hPa 0,0 l/m 11,3 km/h (2 Bft) SW 225 0 min 0,000 mm 0,0 UV-I 100 W/m 0,1 C -3,6 C 16,1 km/h (3 Bft) 100,00 %
17.12.2017 10:39 0,8 C 3,9 C 95 % 1020,4 hPa 0,0 l/m 12,9 km/h (3 Bft) SW 225 0 min 0,000 mm 0,0 UV-I 98 W/m 0,1 C -4,7 C 16,1 km/h (3 Bft) 95,65 %
17.12.2017 10:40 0,8 C 3,9 C 95 % 1020,4 hPa 0,0 l/m 9,7 km/h (2 Bft) SW 225 0 min 0,000 mm 0,0 UV-I 98 W/m 0,1 C -2,3 C 14,5 km/h (3 Bft) 100,00 %
17.12.2017 10:41 0,8 C 3,9 C 95 % 1020,4 hPa 0,0 l/m 11,3 km/h (2 Bft) SW 225 0 min 0,000 mm 0,0 UV-I 93 W/m 0,1 C -3,6 C 12,9 km/h (3 Bft) 95,65 %
17.12.2017 10:42 0,8 C 3,9 C 95 % 1020,4 hPa 0,0 l/m 9,7 km/h (2 Bft) SW 225 0 min 0,000 mm 0,0 UV-I 85 W/m 0,1 C -2,3 C 14,5 km/h (3 Bft) 95,65 %
17.12.2017 10:43 0,8 C 3,9 C 95 % 1020,4 hPa 0,0 l/m 9,7 km/h (2 Bft) W-SW 247 0 min 0,000 mm 0,0 UV-I 77 W/m 0,1 C -2,3 C 12,9 km/h (3 Bft) 100,00 %
17.12.2017 10:44 0,8 C 3,9 C 95 % 1020,5 hPa 0,0 l/m 8,0 km/h (2 Bft) W-SW 247 0 min 0,000 mm 0,0 UV-I 76 W/m 0,1 C -0,8 C 12,9 km/h (3 Bft) 95,65 %
17.12.2017 10:45 0,8 C 3,9 C 95 % 1020,5 hPa 0,0 l/m 11,3 km/h (2 Bft) SW 225 0 min 0,000 mm 0,0 UV-I 74 W/m 0,1 C -3,6 C 16,1 km/h (3 Bft) 100,00 %
17.12.2017 10:46 0,8 C 3,9 C 95 % 1020,5 hPa 0,0 l/m 9,7 km/h (2 Bft) SW 225 0 min 0,000 mm 0,0 UV-I 77 W/m 0,1 C -2,3 C 12,9 km/h (3 Bft) 91,30 %
17.12.2017 10:47 0,8 C 3,9 C 95 % 1020,5 hPa 0,0 l/m 12,9 km/h (3 Bft) SW 225 0 min 0,000 mm 0,0 UV-I 81 W/m 0,1 C -4,7 C 17,7 km/h (3 Bft) 95,65 %
17.12.2017 10:48 0,7 C 3,9 C 95 % 1020,5 hPa 0,0 l/m 9,7 km/h (2 Bft) SW 225 0 min 0,000 mm 0,0 UV-I 75 W/m -0,0 C -2,4 C 14,5 km/h (3 Bft) 91,30 %
17.12.2017 10:49 0,7 C 3,9 C 95 % 1020,4 hPa 0,0 l/m 12,9 km/h (3 Bft) W-SW 247 0 min 0,000 mm 0,0 UV-I 70 W/m -0,0 C -4,8 C 16,1 km/h (3 Bft) 100,00 %
17.12.2017 10:50 0,7 C 3,9 C 95 % 1020,5 hPa 0,0 l/m 12,9 km/h (3 Bft) W-SW 247 0 min 0,000 mm 0,0 UV-I 69 W/m -0,0 C -4,8 C 17,7 km/h (3 Bft) 95,65 %
17.12.2017 10:51 0,7 C 3,9 C 95 % 1020,5 hPa 0,0 l/m 12,9 km/h (3 Bft) W-SW 247 0 min 0,000 mm 0,0 UV-I 74 W/m -0,0 C -4,8 C 17,7 km/h (3 Bft) 95,65 %
17.12.2017 10:52 0,7 C 3,9 C 95 % 1020,5 hPa 0,0 l/m 12,9 km/h (3 Bft) SW 225 0 min 0,000 mm 0,0 UV-I 74 W/m -0,0 C -4,8 C 17,7 km/h (3 Bft) 95,65 %
17.12.2017 10:53 0,7 C 3,9 C 95 % 1020,5 hPa 0,0 l/m 12,9 km/h (3 Bft) SW 225 0 min 0,000 mm 0,0 UV-I 72 W/m -0,0 C -4,8 C 16,1 km/h (3 Bft) 100,00 %
17.12.2017 10:54 0,7 C 3,9 C 95 % 1020,5 hPa 0,0 l/m 14,5 km/h (3 Bft) W-SW 247 0 min 0,000 mm 0,0 UV-I 69 W/m -0,0 C -5,8 C 17,7 km/h (3 Bft) 95,65 %
17.12.2017 10:55 0,7 C 3,9 C 95 % 1020,5 hPa 0,0 l/m 12,9 km/h (3 Bft) SW 225 0 min 0,000 mm 0,0 UV-I 65 W/m -0,0 C -4,8 C 19,3 km/h (3 Bft) 95,65 %
17.12.2017 10:56 0,7 C 3,9 C 95 % 1020,5 hPa 0,0 l/m 12,9 km/h (3 Bft) SW 225 0 min 0,000 mm 0,0 UV-I 63 W/m -0,0 C -4,8 C 17,7 km/h (3 Bft) 95,65 %
17.12.2017 10:57 0,8 C 3,9 C 95 % 1020,5 hPa 0,0 l/m 14,5 km/h (3 Bft) W-SW 247 0 min 0,000 mm 0,0 UV-I 67 W/m 0,1 C -5,7 C 16,1 km/h (3 Bft) 100,00 %
17.12.2017 10:58 0,8 C 3,9 C 95 % 1020,5 hPa 0,0 l/m 11,3 km/h (2 Bft) SW 225 0 min 0,000 mm 0,0 UV-I 81 W/m 0,1 C -3,6 C 14,5 km/h (3 Bft) 95,65 %
17.12.2017 10:59 0,8 C 3,9 C 95 % 1020,5 hPa 0,0 l/m 11,3 km/h (2 Bft) SW 225 0 min 0,000 mm 0,0 UV-I 88 W/m 0,1 C -3,6 C 14,5 km/h (3 Bft) 100,00 %
17.12.2017 11:00 0,8 C 3,9 C 95 % 1020,5 hPa 0,0 l/m 11,3 km/h (2 Bft) SW 225 0 min 0,025 mm 0,0 UV-I 77 W/m 0,1 C -3,6 C 16,1 km/h (3 Bft) 95,65 %
17.12.2017 11:01 0,8 C 3,9 C 94 % 1020,5 hPa 0,0 l/m 9,7 km/h (2 Bft) SW 225 0 min 0,000 mm 0,0 UV-I 69 W/m -0,1 C -2,3 C 14,5 km/h (3 Bft) 91,30 %
17.12.2017 11:02 0,8 C 3,9 C 94 % 1020,5 hPa 0,0 l/m 9,7 km/h (2 Bft) SW 225 0 min 0,000 mm 0,0 UV-I 67 W/m -0,1 C -2,3 C 12,9 km/h (3 Bft) 91,30 %
17.12.2017 11:03 0,8 C 3,9 C 94 % 1020,5 hPa 0,0 l/m 9,7 km/h (2 Bft) W-SW 247 0 min 0,000 mm 0,0 UV-I 69 W/m -0,1 C -2,3 C 14,5 km/h (3 Bft) 91,30 %
17.12.2017 11:04 0,8 C 3,9 C 94 % 1020,6 hPa 0,0 l/m 11,3 km/h (2 Bft) SW 225 0 min 0,000 mm 0,0 UV-I 69 W/m -0,1 C -3,6 C 16,1 km/h (3 Bft) 95,65 %
17.12.2017 11:05 0,8 C 3,9 C 94 % 1020,5 hPa 0,0 l/m 8,0 km/h (2 Bft) SW 225 0 min 0,000 mm 0,0 UV-I 75 W/m -0,1 C -0,8 C 12,9 km/h (3 Bft) 95,65 %
17.12.2017 11:06 0,8 C 3,9 C 94 % 1020,5 hPa 0,0 l/m 8,0 km/h (2 Bft) SW 225 0 min 0,000 mm 0,0 UV-I 88 W/m -0,1 C -0,8 C 11,3 km/h (2 Bft) 100,00 %
17.12.2017 11:07 0,8 C 3,9 C 94 % 1020,5 hPa 0,0 l/m 8,0 km/h (2 Bft) SW 225 0 min 0,000 mm 0,0 UV-I 93 W/m -0,1 C -0,8 C 12,9 km/h (3 Bft) 95,65 %
17.12.2017 11:08 0,8 C 3,9 C 95 % 1020,5 hPa 0,0 l/m 9,7 km/h (2 Bft) SW 225 0 min 0,000 mm 0,0 UV-I 93 W/m 0,1 C -2,3 C 12,9 km/h (3 Bft) 100,00 %
17.12.2017 11:09 0,8 C 3,9 C 95 % 1020,5 hPa 0,0 l/m 9,7 km/h (2 Bft) SW 225 0 min 0,000 mm 0,0 UV-I 93 W/m 0,1 C -2,3 C 12,9 km/h (3 Bft) 95,65 %
17.12.2017 11:10 0,9 C 3,9 C 94 % 1020,5 hPa 0,0 l/m 9,7 km/h (2 Bft) W-SW 247 0 min 0,000 mm 0,0 UV-I 81 W/m 0,0 C -2,2 C 17,7 km/h (3 Bft) 100,00 %
17.12.2017 11:11 0,9 C 3,9 C 94 % 1020,5 hPa 0,0 l/m 9,7 km/h (2 Bft) S-SW 202 0 min 0,000 mm 0,0 UV-I 76 W/m 0,0 C -2,2 C 16,1 km/h (3 Bft) 100,00 %
17.12.2017 11:12 0,9 C 3,9 C 94 % 1020,5 hPa 0,0 l/m 11,3 km/h (2 Bft) S-SW 202 0 min 0,000 mm 0,0 UV-I 72 W/m 0,0 C -3,5 C 16,1 km/h (3 Bft) 100,00 %
17.12.2017 11:13 0,9 C 3,9 C 94 % 1020,5 hPa 0,0 l/m 11,3 km/h (2 Bft) S-SW 202 0 min 0,000 mm 0,0 UV-I 72 W/m 0,0 C -3,5 C 16,1 km/h (3 Bft) 95,65 %
17.12.2017 11:14 0,9 C 3,9 C 94 % 1020,5 hPa 0,0 l/m 9,7 km/h (2 Bft) S-SW 202 0 min 0,000 mm 0,0 UV-I 72 W/m 0,0 C -2,2 C 14,5 km/h (3 Bft) 100,00 %
17.12.2017 11:15 0,9 C 3,9 C 94 % 1020,5 hPa 0,0 l/m 9,7 km/h (2 Bft) S-SW 202 0 min 0,000 mm 0,0 UV-I 81 W/m 0,0 C -2,2 C 14,5 km/h (3 Bft) 100,00 %
17.12.2017 11:16 1,0 C 3,9 C 94 % 1020,5 hPa 0,0 l/m 8,0 km/h (2 Bft) W-SW 247 0 min 0,000 mm 0,0 UV-I 84 W/m 0,1 C -0,6 C 11,3 km/h (2 Bft) 95,65 %
17.12.2017 11:17 1,0 C 3,9 C 94 % 1020,5 hPa 0,0 l/m 6,4 km/h (2 Bft) SW 225 0 min 0,000 mm 0,0 UV-I 91 W/m 0,1 C 1,0 C 9,7 km/h (2 Bft) 95,65 %
17.12.2017 11:18 1,0 C 3,9 C 94 % 1020,5 hPa 0,0 l/m 6,4 km/h (2 Bft) S-SW 202 0 min 0,000 mm 0,0 UV-I 91 W/m 0,1 C 1,0 C 12,9 km/h (3 Bft) 100,00 %
17.12.2017 11:19 1,1 C 3,9 C 94 % 1020,5 hPa 0,0 l/m 9,7 km/h (2 Bft) SW 225 0 min 0,000 mm 0,0 UV-I 93 W/m 0,2 C -2,0 C 12,9 km/h (3 Bft) 100,00 %
17.12.2017 11:20 1,1 C 3,9 C 94 % 1020,5 hPa 0,0 l/m 9,7 km/h (2 Bft) S-SW 202 0 min 0,000 mm 0,0 UV-I 90 W/m 0,2 C -2,0 C 14,5 km/h (3 Bft) 100,00 %
17.12.2017 11:21 1,1 C 3,9 C 94 % 1020,4 hPa 0,0 l/m 11,3 km/h (2 Bft) S-SW 202 0 min 0,000 mm 0,0 UV-I 88 W/m 0,2 C -3,2 C 19,3 km/h (3 Bft) 100,00 %
17.12.2017 11:22 1,1 C 3,9 C 93 % 1020,5 hPa 0,0 l/m 11,3 km/h (2 Bft) SW 225 0 min 0,000 mm 0,0 UV-I 88 W/m 0,1 C -3,2 C 14,5 km/h (3 Bft) 100,00 %
17.12.2017 11:23 1,1 C 3,9 C 93 % 1020,5 hPa 0,0 l/m 8,0 km/h (2 Bft) SW 225 0 min 0,000 mm 0,0 UV-I 102 W/m 0,1 C -0,5 C 12,9 km/h (3 Bft) 95,65 %
17.12.2017 11:24 1,1 C 3,9 C 93 % 1020,5 hPa 0,0 l/m 8,0 km/h (2 Bft) SW 225 0 min 0,000 mm 0,0 UV-I 128 W/m 0,1 C -0,5 C 12,9 km/h (3 Bft) 100,00 %
17.12.2017 11:25 1,1 C 3,9 C 93 % 1020,5 hPa 0,0 l/m 9,7 km/h (2 Bft) SW 225 0 min 0,000 mm 0,0 UV-I 139 W/m 0,1 C -2,0 C 14,5 km/h (3 Bft) 100,00 %
17.12.2017 11:26 1,2 C 3,9 C 93 % 1020,5 hPa 0,2 l/m 8,0 km/h (2 Bft) S-SW 202 0 min 0,000 mm 0,0 UV-I 123 W/m 0,2 C -0,4 C 12,9 km/h (3 Bft) 100,00 %
17.12.2017 11:27 1,2 C 3,9 C 93 % 1020,5 hPa 0,0 l/m 9,7 km/h (2 Bft) SW 225 0 min 0,000 mm 0,0 UV-I 102 W/m 0,2 C -1,9 C 14,5 km/h (3 Bft) 95,65 %
17.12.2017 11:28 1,2 C 3,9 C 93 % 1020,5 hPa 0,0 l/m 11,3 km/h (2 Bft) SW 225 0 min 0,000 mm 0,0 UV-I 83 W/m 0,2 C -3,1 C 17,7 km/h (3 Bft) 100,00 %
17.12.2017 11:29 1,2 C 3,9 C 93 % 1020,5 hPa 0,0 l/m 9,7 km/h (2 Bft) S-SW 202 0 min 0,000 mm 0,0 UV-I 61 W/m 0,2 C -1,9 C 12,9 km/h (3 Bft) 100,00 %
17.12.2017 11:30 1,2 C 3,9 C 93 % 1020,5 hPa 0,0 l/m 8,0 km/h (2 Bft) SW 225 0 min 0,000 mm 0,0 UV-I 47 W/m 0,2 C -0,4 C 12,9 km/h (3 Bft) 100,00 %
17.12.2017 11:31 1,2 C 3,9 C 93 % 1020,5 hPa 0,0 l/m 9,7 km/h (2 Bft) W-SW 247 0 min 0,000 mm 0,0 UV-I 44 W/m 0,2 C -1,9 C 12,9 km/h (3 Bft) 95,65 %
17.12.2017 11:32 1,2 C 3,9 C 93 % 1020,5 hPa 0,0 l/m 6,4 km/h (2 Bft) SW 225 0 min 0,000 mm 0,0 UV-I 44 W/m 0,2 C 1,2 C 11,3 km/h (2 Bft) 95,65 %
17.12.2017 11:33 1,2 C 3,9 C 93 % 1020,5 hPa 0,0 l/m 9,7 km/h (2 Bft) SW 225 0 min 0,000 mm 0,0 UV-I 53 W/m 0,2 C -1,9 C 16,1 km/h (3 Bft) 95,65 %
17.12.2017 11:34 1,1 C 3,9 C 93 % 1020,6 hPa 0,0 l/m 11,3 km/h (2 Bft) SW 225 0 min 0,000 mm 0,0 UV-I 61 W/m 0,1 C -3,2 C 16,1 km/h (3 Bft) 100,00 %
17.12.2017 11:35 1,1 C 3,9 C 93 % 1020,5 hPa 0,0 l/m 9,7 km/h (2 Bft) SW 225 0 min 0,000 mm 0,0 UV-I 67 W/m 0,1 C -2,0 C 12,9 km/h (3 Bft) 100,00 %
17.12.2017 11:36 1,1 C 3,9 C 93 % 1020,6 hPa 0,0 l/m 9,7 km/h (2 Bft) S-SW 202 0 min 0,000 mm 0,0 UV-I 67 W/m 0,1 C -2,0 C 12,9 km/h (3 Bft) 95,65 %
17.12.2017 11:37 1,1 C 3,9 C 93 % 1020,5 hPa 0,0 l/m 9,7 km/h (2 Bft) SW 225 0 min 0,000 mm 0,0 UV-I 67 W/m 0,1 C -2,0 C 12,9 km/h (3 Bft) 100,00 %
17.12.2017 11:38 1,1 C 3,9 C 93 % 1020,5 hPa 0,0 l/m 9,7 km/h (2 Bft) SW 225 0 min 0,000 mm 0,0 UV-I 70 W/m 0,1 C -2,0 C 16,1 km/h (3 Bft) 95,65 %
17.12.2017 11:39 1,1 C 3,9 C 93 % 1020,5 hPa 0,0 l/m 12,9 km/h (3 Bft) SW 225 0 min 0,000 mm 0,0 UV-I 79 W/m 0,1 C -4,3 C 16,1 km/h (3 Bft) 100,00 %
17.12.2017 11:40 1,1 C 3,9 C 93 % 1020,6 hPa 0,0 l/m 9,7 km/h (2 Bft) SW 225 0 min 0,000 mm 0,0 UV-I 91 W/m 0,1 C -2,0 C 12,9 km/h (3 Bft) 100,00 %
17.12.2017 11:41 1,1 C 3,9 C 93 % 1020,6 hPa 0,0 l/m 8,0 km/h (2 Bft) W-SW 247 0 min 0,000 mm 0,0 UV-I 118 W/m 0,1 C -0,5 C 14,5 km/h (3 Bft) 95,65 %
17.12.2017 11:42 1,2 C 3,9 C 93 % 1020,5 hPa 0,0 l/m 9,7 km/h (2 Bft) W-SW 247 0 min 0,000 mm 0,0 UV-I 130 W/m 0,2 C -1,9 C 12,9 km/h (3 Bft) 95,65 %
17.12.2017 11:43 1,2 C 3,9 C 93 % 1020,6 hPa 0,0 l/m 9,7 km/h (2 Bft) SW 225 0 min 0,000 mm 0,0 UV-I 121 W/m 0,2 C -1,9 C 12,9 km/h (3 Bft) 95,65 %
17.12.2017 11:44 1,2 C 3,9 C 93 % 1020,5 hPa 0,0 l/m 11,3 km/h (2 Bft) W-SW 247 0 min 0,000 mm 0,0 UV-I 109 W/m 0,2 C -3,1 C 14,5 km/h (3 Bft) 100,00 %
17.12.2017 11:45 1,2 C 3,9 C 93 % 1020,6 hPa 0,0 l/m 12,9 km/h (3 Bft) W-SW 247 0 min 0,000 mm 0,0 UV-I 113 W/m 0,2 C -4,2 C 17,7 km/h (3 Bft) 91,30 %
17.12.2017 11:46 1,2 C 3,9 C 93 % 1020,6 hPa 0,2 l/m 9,7 km/h (2 Bft) W-SW 247 0 min 0,000 mm 0,0 UV-I 164 W/m 0,2 C -1,9 C 14,5 km/h (3 Bft) 100,00 %
17.12.2017 11:47 1,2 C 3,9 C 94 % 1020,5 hPa 0,0 l/m 9,7 km/h (2 Bft) W-SW 247 1 min 0,000 mm 0,0 UV-I 183 W/m 0,3 C -1,9 C 14,5 km/h (3 Bft) 95,65 %
17.12.2017 11:48 1,3 C 3,9 C 94 % 1020,5 hPa 0,0 l/m 9,7 km/h (2 Bft) W-SW 247 0 min 0,000 mm 0,0 UV-I 146 W/m 0,4 C -1,8 C 16,1 km/h (3 Bft) 100,00 %
17.12.2017 11:49 1,3 C 3,9 C 94 % 1020,5 hPa 0,0 l/m 11,3 km/h (2 Bft) SW 225 0 min 0,000 mm 0,0 UV-I 135 W/m 0,4 C -3,0 C 17,7 km/h (3 Bft) 95,65 %
17.12.2017 11:50 1,3 C 3,9 C 93 % 1020,5 hPa 0,0 l/m 14,5 km/h (3 Bft) W-SW 247 0 min 0,000 mm 0,0 UV-I 167 W/m 0,3 C -5,1 C 17,7 km/h (3 Bft) 100,00 %
17.12.2017 11:51 1,3 C 3,9 C 93 % 1020,5 hPa 0,0 l/m 9,7 km/h (2 Bft) W-SW 247 0 min 0,000 mm 0,0 UV-I 171 W/m 0,3 C -1,8 C 14,5 km/h (3 Bft) 95,65 %
17.12.2017 11:52 1,4 C 3,9 C 93 % 1020,5 hPa 0,0 l/m 11,3 km/h (2 Bft) W-SW 247 0 min 0,000 mm 0,0 UV-I 144 W/m 0,4 C -2,9 C 17,7 km/h (3 Bft) 91,30 %
17.12.2017 11:53 1,4 C 3,9 C 93 % 1020,5 hPa 0,0 l/m 12,9 km/h (3 Bft) W-SW 247 0 min 0,000 mm 0,0 UV-I 132 W/m 0,4 C -4,0 C 17,7 km/h (3 Bft) 100,00 %
17.12.2017 11:54 1,4 C 3,9 C 93 % 1020,5 hPa 0,0 l/m 11,3 km/h (2 Bft) W-SW 247 0 min 0,000 mm 0,0 UV-I 116 W/m 0,4 C -2,9 C 16,1 km/h (3 Bft) 95,65 %
17.12.2017 11:55 1,4 C 3,9 C 93 % 1020,4 hPa 0,0 l/m 8,0 km/h (2 Bft) W-SW 247 0 min 0,000 mm 0,0 UV-I 116 W/m 0,4 C -0,2 C 11,3 km/h (2 Bft) 100,00 %
17.12.2017 11:56 1,4 C 3,9 C 93 % 1020,5 hPa 0,0 l/m 11,3 km/h (2 Bft) W 270 0 min 0,000 mm 0,0 UV-I 123 W/m 0,4 C -2,9 C 12,9 km/h (3 Bft) 91,30 %
17.12.2017 11:57 1,4 C 3,9 C 93 % 1020,4 hPa 0,0 l/m 12,9 km/h (3 Bft) W-SW 247 0 min 0,000 mm 0,0 UV-I 134 W/m 0,4 C -4,0 C 16,1 km/h (3 Bft) 100,00 %
17.12.2017 11:58 1,5 C 3,9 C 93 % 1020,5 hPa 0,2 l/m 12,9 km/h (3 Bft) W 270 0 min 0,000 mm 0,0 UV-I 141 W/m 0,5 C -3,9 C 17,7 km/h (3 Bft) 95,65 %
17.12.2017 11:59 1,5 C 3,9 C 93 % 1020,5 hPa 0,0 l/m 12,9 km/h (3 Bft) W-SW 247 0 min 0,000 mm 0,0 UV-I 142 W/m 0,5 C -3,9 C 16,1 km/h (3 Bft) 95,65 %
17.12.2017 12:00 1,5 C 3,9 C 93 % 1020,4 hPa 0,0 l/m 14,5 km/h (3 Bft) W-SW 247 0 min 0,051 mm 0,0 UV-I 139 W/m 0,5 C -4,9 C 17,7 km/h (3 Bft) 95,65 %
17.12.2017 12:01 1,5 C 3,9 C 92 % 1020,4 hPa 0,0 l/m 12,9 km/h (3 Bft) W 270 0 min 0,000 mm 0,0 UV-I 144 W/m 0,3 C -3,9 C 14,5 km/h (3 Bft) 91,30 %
17.12.2017 12:02 1,5 C 3,9 C 92 % 1020,4 hPa 0,0 l/m 9,7 km/h (2 Bft) W-SW 247 0 min 0,000 mm 0,0 UV-I 160 W/m 0,3 C -1,6 C 12,9 km/h (3 Bft) 100,00 %
17.12.2017 12:03 1,6 C 3,9 C 92 % 1020,4 hPa 0,0 l/m 9,7 km/h (2 Bft) W-SW 247 1 min 0,000 mm 0,0 UV-I 200 W/m 0,4 C -1,4 C 16,1 km/h (3 Bft) 95,65 %
17.12.2017 12:04 1,6 C 3,9 C 92 % 1020,4 hPa 0,0 l/m 11,3 km/h (2 Bft) W-SW 247 0 min 0,000 mm 0,0 UV-I 150 W/m 0,4 C -2,7 C 16,1 km/h (3 Bft) 95,65 %
17.12.2017 12:05 1,6 C 3,9 C 92 % 1020,4 hPa 0,0 l/m 11,3 km/h (2 Bft) W-SW 247 0 min 0,000 mm 0,0 UV-I 162 W/m 0,4 C -2,7 C 14,5 km/h (3 Bft) 91,30 %
17.12.2017 12:06 1,6 C 3,9 C 92 % 1020,4 hPa 0,0 l/m 11,3 km/h (2 Bft) W-SW 247 0 min 0,000 mm 0,0 UV-I 151 W/m 0,4 C -2,7 C 16,1 km/h (3 Bft) 95,65 %
17.12.2017 12:07 1,6 C 3,9 C 92 % 1020,4 hPa 0,0 l/m 16,1 km/h (3 Bft) W-SW 247 0 min 0,000 mm 0,0 UV-I 142 W/m 0,4 C -5,7 C 20,9 km/h (4 Bft) 91,30 %
17.12.2017 12:08 1,6 C 3,9 C 92 % 1020,4 hPa 0,0 l/m 12,9 km/h (3 Bft) W-SW 247 0 min 0,000 mm 0,0 UV-I 148 W/m 0,4 C -3,8 C 17,7 km/h (3 Bft) 100,00 %
17.12.2017 12:09 1,6 C 3,9 C 92 % 1020,4 hPa 0,0 l/m 14,5 km/h (3 Bft) W-SW 247 0 min 0,000 mm 0,0 UV-I 171 W/m 0,4 C -4,8 C 17,7 km/h (3 Bft) 91,30 %
17.12.2017 12:10 1,6 C 3,9 C 92 % 1020,4 hPa 0,0 l/m 11,3 km/h (2 Bft) SW 225 1 min 0,000 mm 0,0 UV-I 186 W/m 0,4 C -2,7 C 14,5 km/h (3 Bft) 95,65 %
17.12.2017 12:11 1,6 C 3,9 C 92 % 1020,4 hPa 0,0 l/m 14,5 km/h (3 Bft) W-SW 247 0 min 0,000 mm 0,0 UV-I 137 W/m 0,4 C -4,8 C 17,7 km/h (3 Bft) 91,30 %
17.12.2017 12:12 1,6 C 3,9 C 91 % 1020,4 hPa 0,0 l/m 11,3 km/h (2 Bft) W 270 0 min 0,000 mm 0,0 UV-I 123 W/m 0,3 C -2,7 C 19,3 km/h (3 Bft) 95,65 %
17.12.2017 12:13 1,7 C 3,9 C 91 % 1020,4 hPa 0,0 l/m 9,7 km/h (2 Bft) W-SW 247 0 min 0,000 mm 0,0 UV-I 144 W/m 0,4 C -1,3 C 12,9 km/h (3 Bft) 91,30 %
17.12.2017 12:14 1,7 C 3,9 C 91 % 1020,4 hPa 0,0 l/m 11,3 km/h (2 Bft) W-SW 247 0 min 0,000 mm 0,0 UV-I 142 W/m 0,4 C -2,6 C 14,5 km/h (3 Bft) 95,65 %
17.12.2017 12:15 1,7 C 3,9 C 92 % 1020,3 hPa 0,0 l/m 14,5 km/h (3 Bft) W 270 1 min 0,000 mm 0,0 UV-I 181 W/m 0,5 C -4,6 C 17,7 km/h (3 Bft) 95,65 %
17.12.2017 12:16 1,7 C 3,9 C 92 % 1020,4 hPa 0,2 l/m 14,5 km/h (3 Bft) W-SW 247 0 min 0,000 mm 0,0 UV-I 174 W/m 0,5 C -4,6 C 17,7 km/h (3 Bft) 100,00 %
17.12.2017 12:17 1,7 C 3,9 C 92 % 1020,3 hPa 0,0 l/m 9,7 km/h (2 Bft) W 270 0 min 0,000 mm 0,0 UV-I 169 W/m 0,5 C -1,3 C 12,9 km/h (3 Bft) 95,65 %
17.12.2017 12:18 1,7 C 3,9 C 92 % 1020,4 hPa 0,0 l/m 11,3 km/h (2 Bft) W-SW 247 0 min 0,000 mm 0,0 UV-I 155 W/m 0,5 C -2,6 C 19,3 km/h (3 Bft) 100,00 %
17.12.2017 12:19 1,7 C 3,9 C 92 % 1020,4 hPa 0,0 l/m 11,3 km/h (2 Bft) W-SW 247 0 min 0,000 mm 0,0 UV-I 137 W/m 0,5 C -2,6 C 14,5 km/h (3 Bft) 95,65 %
17.12.2017 12:20 1,7 C 3,9 C 92 % 1020,3 hPa 0,0 l/m 12,9 km/h (3 Bft) W 270 0 min 0,000 mm 0,0 UV-I 134 W/m 0,5 C -3,6 C 17,7 km/h (3 Bft) 91,30 %
17.12.2017 12:21 1,7 C 3,9 C 91 % 1020,3 hPa 0,0 l/m 12,9 km/h (3 Bft) W-SW 247 0 min 0,000 mm 0,0 UV-I 128 W/m 0,4 C -3,6 C 16,1 km/h (3 Bft) 100,00 %
17.12.2017 12:22 1,7 C 3,9 C 91 % 1020,3 hPa 0,0 l/m 14,5 km/h (3 Bft) W-SW 247 0 min 0,000 mm 0,0 UV-I 134 W/m 0,4 C -4,6 C 19,3 km/h (3 Bft) 95,65 %
17.12.2017 12:23 1,7 C 3,9 C 91 % 1020,3 hPa 0,0 l/m 14,5 km/h (3 Bft) W-SW 247 0 min 0,000 mm 0,0 UV-I 139 W/m 0,4 C -4,6 C 17,7 km/h (3 Bft) 100,00 %
17.12.2017 12:24 1,7 C 3,9 C 91 % 1020,3 hPa 0,0 l/m 12,9 km/h (3 Bft) W-SW 247 0 min 0,000 mm 0,0 UV-I 146 W/m 0,4 C -3,6 C 19,3 km/h (3 Bft) 95,65 %
17.12.2017 12:25 1,7 C 3,9 C 91 % 1020,3 hPa 0,0 l/m 16,1 km/h (3 Bft) W-SW 247 0 min 0,000 mm 0,0 UV-I 146 W/m 0,4 C -5,5 C 22,5 km/h (4 Bft) 100,00 %
17.12.2017 12:26 1,7 C 3,9 C 91 % 1020,3 hPa 0,0 l/m 14,5 km/h (3 Bft) W-SW 247 0 min 0,000 mm 0,0 UV-I 146 W/m 0,4 C -4,6 C 24,1 km/h (4 Bft) 95,65 %
17.12.2017 12:27 1,7 C 3,9 C 91 % 1020,3 hPa 0,0 l/m 14,5 km/h (3 Bft) W-SW 247 0 min 0,000 mm 0,0 UV-I 147 W/m 0,4 C -4,6 C 24,1 km/h (4 Bft) 95,65 %
17.12.2017 12:28 1,7 C 3,9 C 91 % 1020,3 hPa 0,0 l/m 9,7 km/h (2 Bft) W-SW 247 0 min 0,000 mm 0,0 UV-I 169 W/m 0,4 C -1,3 C 14,5 km/h (3 Bft) 100,00 %
17.12.2017 12:29 1,7 C 3,9 C 91 % 1020,3 hPa 0,0 l/m 11,3 km/h (2 Bft) W-SW 247 0 min 0,000 mm 0,0 UV-I 156 W/m 0,4 C -2,6 C 14,5 km/h (3 Bft) 100,00 %
17.12.2017 12:30 1,7 C 3,9 C 91 % 1020,3 hPa 0,0 l/m 14,5 km/h (3 Bft) W 270 0 min 0,000 mm 0,0 UV-I 172 W/m 0,4 C -4,6 C 17,7 km/h (3 Bft) 100,00 %
17.12.2017 12:31 1,7 C 3,9 C 91 % 1020,3 hPa 0,0 l/m 16,1 km/h (3 Bft) W-SW 247 0 min 0,000 mm 0,0 UV-I 172 W/m 0,4 C -5,5 C 19,3 km/h (3 Bft) 100,00 %
17.12.2017 12:32 1,8 C 3,9 C 91 % 1020,3 hPa 0,0 l/m 14,5 km/h (3 Bft) W-SW 247 0 min 0,000 mm 0,0 UV-I 172 W/m 0,5 C -4,5 C 19,3 km/h (3 Bft) 100,00 %
17.12.2017 12:33 1,8 C 3,9 C 91 % 1020,3 hPa 0,0 l/m 12,9 km/h (3 Bft) W-SW 247 0 min 0,000 mm 0,0 UV-I 158 W/m 0,5 C -3,5 C 17,7 km/h (3 Bft) 100,00 %
17.12.2017 12:34 1,8 C 3,9 C 91 % 1020,3 hPa 0,0 l/m 14,5 km/h (3 Bft) W-SW 247 0 min 0,000 mm 0,0 UV-I 142 W/m 0,5 C -4,5 C 19,3 km/h (3 Bft) 95,65 %
17.12.2017 12:35 1,8 C 3,9 C 91 % 1020,3 hPa 0,0 l/m 12,9 km/h (3 Bft) W 270 0 min 0,000 mm 0,0 UV-I 156 W/m 0,5 C -3,5 C 17,7 km/h (3 Bft) 100,00 %
17.12.2017 12:36 1,8 C 3,9 C 91 % 1020,3 hPa 0,0 l/m 8,0 km/h (2 Bft) W-SW 247 0 min 0,000 mm 0,0 UV-I 160 W/m 0,5 C 0,2 C 11,3 km/h (2 Bft) 100,00 %
17.12.2017 12:37 1,8 C 3,9 C 91 % 1020,3 hPa 0,0 l/m 14,5 km/h (3 Bft) W 270 0 min 0,000 mm 0,0 UV-I 167 W/m 0,5 C -4,5 C 19,3 km/h (3 Bft) 95,65 %
17.12.2017 12:38 1,8 C 3,9 C 90 % 1020,3 hPa 0,0 l/m 14,5 km/h (3 Bft) W-SW 247 0 min 0,000 mm 0,0 UV-I 151 W/m 0,3 C -4,5 C 20,9 km/h (4 Bft) 100,00 %
17.12.2017 12:39 1,8 C 3,9 C 90 % 1020,3 hPa 0,0 l/m 12,9 km/h (3 Bft) W-SW 247 0 min 0,000 mm 0,0 UV-I 121 W/m 0,3 C -3,5 C 19,3 km/h (3 Bft) 100,00 %
17.12.2017 12:40 1,8 C 3,9 C 90 % 1020,3 hPa 0,2 l/m 12,9 km/h (3 Bft) W-SW 247 0 min 0,000 mm 0,0 UV-I 120 W/m 0,3 C -3,5 C 19,3 km/h (3 Bft) 100,00 %
17.12.2017 12:41 1,8 C 3,9 C 90 % 1020,3 hPa 0,0 l/m 12,9 km/h (3 Bft) W-SW 247 0 min 0,000 mm 0,0 UV-I 123 W/m 0,3 C -3,5 C 17,7 km/h (3 Bft) 95,65 %
17.12.2017 12:42 1,8 C 3,9 C 90 % 1020,3 hPa 0,0 l/m 8,0 km/h (2 Bft) W 270 0 min 0,000 mm 0,0 UV-I 116 W/m 0,3 C 0,2 C 12,9 km/h (3 Bft) 100,00 %
17.12.2017 12:43 1,8 C 3,9 C 91 % 1020,3 hPa 0,0 l/m 9,7 km/h (2 Bft) W-SW 247 0 min 0,000 mm 0,0 UV-I 107 W/m 0,5 C -1,2 C 12,9 km/h (3 Bft) 100,00 %
17.12.2017 12:44 1,8 C 3,9 C 91 % 1020,3 hPa 0,0 l/m 8,0 km/h (2 Bft) W-SW 247 0 min 0,000 mm 0,0 UV-I 102 W/m 0,5 C 0,2 C 12,9 km/h (3 Bft) 100,00 %
17.12.2017 12:45 1,8 C 3,9 C 91 % 1020,4 hPa 0,0 l/m 11,3 km/h (2 Bft) W-SW 247 0 min 0,000 mm 0,0 UV-I 109 W/m 0,5 C -2,4 C 17,7 km/h (3 Bft) 100,00 %
17.12.2017 12:46 1,8 C 3,9 C 90 % 1020,3 hPa 0,0 l/m 11,3 km/h (2 Bft) W-SW 247 0 min 0,000 mm 0,0 UV-I 116 W/m 0,3 C -2,4 C 16,1 km/h (3 Bft) 100,00 %
17.12.2017 12:47 1,8 C 3,9 C 90 % 1020,3 hPa 0,0 l/m 14,5 km/h (3 Bft) W-SW 247 0 min 0,000 mm 0,0 UV-I 118 W/m 0,3 C -4,5 C 20,9 km/h (4 Bft) 100,00 %
17.12.2017 12:48 1,8 C 3,9 C 91 % 1020,3 hPa 0,0 l/m 12,9 km/h (3 Bft) W 270 0 min 0,000 mm 0,0 UV-I 95 W/m 0,5 C -3,5 C 17,7 km/h (3 Bft) 95,65 %
17.12.2017 12:49 1,8 C 3,9 C 91 % 1020,3 hPa 0,0 l/m 11,3 km/h (2 Bft) W-SW 247 0 min 0,000 mm 0,0 UV-I 91 W/m 0,5 C -2,4 C 16,1 km/h (3 Bft) 100,00 %
17.12.2017 12:50 1,8 C 3,9 C 91 % 1020,3 hPa 0,0 l/m 14,5 km/h (3 Bft) W-SW 247 0 min 0,000 mm 0,0 UV-I 93 W/m 0,5 C -4,5 C 19,3 km/h (3 Bft) 100,00 %
17.12.2017 12:51 1,8 C 3,9 C 91 % 1020,3 hPa 0,0 l/m 17,7 km/h (3 Bft) W-SW 247 0 min 0,000 mm 0,0 UV-I 99 W/m 0,5 C -6,2 C 24,1 km/h (4 Bft) 100,00 %
17.12.2017 12:52 1,8 C 3,9 C 91 % 1020,3 hPa 0,0 l/m 12,9 km/h (3 Bft) W-SW 247 0 min 0,000 mm 0,0 UV-I 104 W/m 0,5 C -3,5 C 19,3 km/h (3 Bft) 100,00 %
17.12.2017 12:53 1,8 C 3,9 C 91 % 1020,3 hPa 0,0 l/m 14,5 km/h (3 Bft) W-SW 247 0 min 0,000 mm 0,0 UV-I 97 W/m 0,5 C -4,5 C 22,5 km/h (4 Bft) 100,00 %
17.12.2017 12:54 1,8 C 3,9 C 90 % 1020,3 hPa 0,0 l/m 14,5 km/h (3 Bft) W-SW 247 0 min 0,000 mm 0,0 UV-I 90 W/m 0,3 C -4,5 C 17,7 km/h (3 Bft) 100,00 %
17.12.2017 12:55 1,7 C 3,9 C 90 % 1020,3 hPa 0,0 l/m 16,1 km/h (3 Bft) W-SW 247 0 min 0,000 mm 0,0 UV-I 81 W/m 0,2 C -5,5 C 19,3 km/h (3 Bft) 95,65 %
17.12.2017 12:56 1,7 C 3,9 C 90 % 1020,3 hPa 0,0 l/m 17,7 km/h (3 Bft) W-SW 247 0 min 0,000 mm 0,0 UV-I 67 W/m 0,2 C -6,4 C 25,7 km/h (4 Bft) 95,65 %
17.12.2017 12:57 1,7 C 3,9 C 90 % 1020,3 hPa 0,0 l/m 16,1 km/h (3 Bft) W-SW 247 0 min 0,000 mm 0,0 UV-I 62 W/m 0,2 C -5,5 C 25,7 km/h (4 Bft) 100,00 %
17.12.2017 12:58 1,7 C 3,9 C 90 % 1020,4 hPa 0,0 l/m 16,1 km/h (3 Bft) W-SW 247 0 min 0,000 mm 0,0 UV-I 56 W/m 0,2 C -5,5 C 25,7 km/h (4 Bft) 100,00 %
17.12.2017 12:59 1,7 C 3,9 C 90 % 1020,3 hPa 0,0 l/m 16,1 km/h (3 Bft) W-SW 247 0 min 0,000 mm 0,0 UV-I 54 W/m 0,2 C -5,5 C 24,1 km/h (4 Bft) 100,00 %
17.12.2017 13:00 1,7 C 3,9 C 90 % 1020,4 hPa 0,0 l/m 17,7 km/h (3 Bft) W 270 0 min 0,051 mm 0,0 UV-I 53 W/m 0,2 C -6,4 C 22,5 km/h (4 Bft) 95,65 %
17.12.2017 13:01 1,6 C 3,9 C 90 % 1020,3 hPa 0,0 l/m 16,1 km/h (3 Bft) W-SW 247 0 min 0,000 mm 0,0 UV-I 53 W/m 0,1 C -5,7 C 19,3 km/h (3 Bft) 100,00 %
17.12.2017 13:02 1,6 C 3,9 C 90 % 1020,3 hPa 0,0 l/m 14,5 km/h (3 Bft) W-SW 247 0 min 0,000 mm 0,0 UV-I 50 W/m 0,1 C -4,8 C 19,3 km/h (3 Bft) 95,65 %
17.12.2017 13:03 1,6 C 3,9 C 90 % 1020,3 hPa 0,0 l/m 17,7 km/h (3 Bft) W 270 0 min 0,000 mm 0,0 UV-I 47 W/m 0,1 C -6,5 C 20,9 km/h (4 Bft) 91,30 %
17.12.2017 13:04 1,6 C 3,9 C 90 % 1020,2 hPa 0,0 l/m 14,5 km/h (3 Bft) W-SW 247 0 min 0,000 mm 0,0 UV-I 47 W/m 0,1 C -4,8 C 22,5 km/h (4 Bft) 100,00 %
17.12.2017 13:05 1,6 C 3,9 C 90 % 1020,2 hPa 0,0 l/m 12,9 km/h (3 Bft) W-SW 247 0 min 0,000 mm 0,0 UV-I 102 W/m 0,1 C -3,8 C 17,7 km/h (3 Bft) 100,00 %
17.12.2017 13:06 1,6 C 3,9 C 90 % 1020,3 hPa 0,0 l/m 12,9 km/h (3 Bft) W-SW 247 0 min 0,000 mm 0,0 UV-I 153 W/m 0,1 C -3,8 C 20,9 km/h (4 Bft) 100,00 %
17.12.2017 13:07 1,6 C 3,9 C 90 % 1020,2 hPa 0,0 l/m 16,1 km/h (3 Bft) W-SW 247 0 min 0,000 mm 0,0 UV-I 153 W/m 0,1 C -5,7 C 20,9 km/h (4 Bft) 100,00 %
17.12.2017 13:08 1,7 C 3,9 C 90 % 1020,2 hPa 0,0 l/m 12,9 km/h (3 Bft) W-SW 247 0 min 0,000 mm 0,0 UV-I 131 W/m 0,2 C -3,6 C 17,7 km/h (3 Bft) 100,00 %
17.12.2017 13:09 1,7 C 3,9 C 90 % 1020,2 hPa 0,0 l/m 14,5 km/h (3 Bft) W 270 0 min 0,000 mm 0,0 UV-I 109 W/m 0,2 C -4,6 C 19,3 km/h (3 Bft) 95,65 %
17.12.2017 13:10 1,7 C 3,9 C 90 % 1020,1 hPa 0,0 l/m 14,5 km/h (3 Bft) W 270 0 min 0,000 mm 0,0 UV-I 107 W/m 0,2 C -4,6 C 17,7 km/h (3 Bft) 95,65 %
17.12.2017 13:11 1,7 C 3,9 C 90 % 1020,2 hPa 0,0 l/m 17,7 km/h (3 Bft) W-SW 247 0 min 0,000 mm 0,0 UV-I 104 W/m 0,2 C -6,4 C 22,5 km/h (4 Bft) 95,65 %
17.12.2017 13:12 1,7 C 3,9 C 90 % 1020,1 hPa 0,0 l/m 11,3 km/h (2 Bft) W-SW 247 0 min 0,000 mm 0,0 UV-I 104 W/m 0,2 C -2,6 C 16,1 km/h (3 Bft) 100,00 %
17.12.2017 13:20 1,6 C 3,9 C 90 % 1020,1 hPa 0,0 l/m 17,7 km/h (3 Bft) W-SW 247 0 min 0,000 mm 0,0 UV-I 63 W/m 0,1 C -6,5 C 24,1 km/h (4 Bft) 69,57 %
17.12.2017 13:21 1,6 C 3,9 C 90 % 1020,1 hPa 0,0 l/m 17,7 km/h (3 Bft) W-SW 247 0 min 0,000 mm 0,0 UV-I 63 W/m 0,1 C -6,5 C 24,1 km/h (4 Bft) 100,00 %
17.12.2017 13:22 1,6 C 3,9 C 90 % 1020,1 hPa 0,0 l/m 17,7 km/h (3 Bft) W-SW 247 0 min 0,000 mm 0,0 UV-I 63 W/m 0,1 C -6,5 C 22,5 km/h (4 Bft) 100,00 %
17.12.2017 13:23 1,6 C 3,9 C 90 % 1020,1 hPa 0,0 l/m 16,1 km/h (3 Bft) W-SW 247 0 min 0,000 mm 0,0 UV-I 53 W/m 0,1 C -5,7 C 20,9 km/h (4 Bft) 95,65 %
17.12.2017 13:24 1,5 C 3,9 C 90 % 1020,1 hPa 0,0 l/m 17,7 km/h (3 Bft) W-SW 247 0 min 0,000 mm 0,0 UV-I 47 W/m 0,0 C -6,6 C 25,7 km/h (4 Bft) 95,65 %
17.12.2017 13:25 1,5 C 3,9 C 90 % 1020,1 hPa 0,0 l/m 14,5 km/h (3 Bft) W 270 0 min 0,000 mm 0,0 UV-I 39 W/m 0,0 C -4,9 C 17,7 km/h (3 Bft) 100,00 %
17.12.2017 13:26 1,5 C 3,9 C 90 % 1020,1 hPa 0,0 l/m 11,3 km/h (2 Bft) W-SW 247 0 min 0,000 mm 0,0 UV-I 31 W/m 0,0 C -2,8 C 17,7 km/h (3 Bft) 95,65 %
17.12.2017 13:27 1,4 C 3,9 C 90 % 1020,1 hPa 0,0 l/m 12,9 km/h (3 Bft) W 270 0 min 0,000 mm 0,0 UV-I 32 W/m -0,1 C -4,0 C 16,1 km/h (3 Bft) 100,00 %
17.12.2017 13:28 1,4 C 3,9 C 90 % 1020,1 hPa 0,0 l/m 11,3 km/h (2 Bft) W-SW 247 0 min 0,000 mm 0,0 UV-I 33 W/m -0,1 C -2,9 C 16,1 km/h (3 Bft) 95,65 %
17.12.2017 13:29 1,4 C 3,9 C 90 % 1020,1 hPa 0,0 l/m 19,3 km/h (3 Bft) W-SW 247 0 min 0,000 mm 0,0 UV-I 32 W/m -0,1 C -7,5 C 29,0 km/h (5 Bft) 100,00 %
17.12.2017 13:30 1,4 C 3,9 C 90 % 1020,2 hPa 0,0 l/m 17,7 km/h (3 Bft) W 270 0 min 0,000 mm 0,0 UV-I 32 W/m -0,1 C -6,7 C 29,0 km/h (5 Bft) 91,30 %
17.12.2017 13:31 1,4 C 3,9 C 90 % 1020,1 hPa 0,0 l/m 20,9 km/h (4 Bft) W-SW 247 0 min 0,000 mm 0,0 UV-I 35 W/m -0,1 C -8,2 C 25,7 km/h (4 Bft) 100,00 %
17.12.2017 13:32 1,3 C 3,9 C 90 % 1020,1 hPa 0,0 l/m 17,7 km/h (3 Bft) W-SW 247 0 min 0,000 mm 0,0 UV-I 49 W/m -0,2 C -6,9 C 24,1 km/h (4 Bft) 95,65 %
17.12.2017 13:33 1,3 C 3,9 C 91 % 1020,2 hPa 0,0 l/m 16,1 km/h (3 Bft) W-SW 247 0 min 0,000 mm 0,0 UV-I 81 W/m -0,0 C -6,0 C 22,5 km/h (4 Bft) 95,65 %
17.12.2017 13:34 1,3 C 3,9 C 91 % 1020,1 hPa 0,0 l/m 19,3 km/h (3 Bft) W-SW 247 0 min 0,000 mm 0,0 UV-I 104 W/m -0,0 C -7,6 C 24,1 km/h (4 Bft) 95,65 %
17.12.2017 13:35 1,2 C 3,9 C 91 % 1020,2 hPa 0,0 l/m 19,3 km/h (3 Bft) W-SW 247 0 min 0,000 mm 0,0 UV-I 97 W/m -0,1 C -7,8 C 25,7 km/h (4 Bft) 100,00 %
17.12.2017 13:36 1,2 C 3,9 C 91 % 1020,2 hPa 0,0 l/m 16,1 km/h (3 Bft) W-SW 247 0 min 0,000 mm 0,0 UV-I 84 W/m -0,1 C -6,1 C 20,9 km/h (4 Bft) 91,30 %
17.12.2017 13:37 1,2 C 3,9 C 91 % 1020,1 hPa 0,0 l/m 16,1 km/h (3 Bft) W-SW 247 0 min 0,000 mm 0,0 UV-I 68 W/m -0,1 C -6,1 C 24,1 km/h (4 Bft) 95,65 %
17.12.2017 13:38 1,2 C 3,9 C 92 % 1020,2 hPa 0,0 l/m 17,7 km/h (3 Bft) W-SW 247 0 min 0,000 mm 0,0 UV-I 62 W/m 0,0 C -7,0 C 27,4 km/h (4 Bft) 86,96 %
17.12.2017 13:39 1,1 C 3,9 C 92 % 1020,1 hPa 0,0 l/m 20,9 km/h (4 Bft) W-SW 247 0 min 0,000 mm 0,0 UV-I 62 W/m -0,1 C -8,6 C 30,6 km/h (5 Bft) 95,65 %
17.12.2017 13:40 1,1 C 3,9 C 92 % 1020,2 hPa 0,0 l/m 14,5 km/h (3 Bft) W-SW 247 0 min 0,000 mm 0,0 UV-I 56 W/m -0,1 C -5,4 C 30,6 km/h (5 Bft) 91,30 %
17.12.2017 13:41 1,1 C 3,9 C 92 % 1020,2 hPa 0,0 l/m 14,5 km/h (3 Bft) W-SW 247 0 min 0,000 mm 0,0 UV-I 54 W/m -0,1 C -5,4 C 19,3 km/h (3 Bft) 95,65 %
17.12.2017 13:42 1,1 C 3,9 C 92 % 1020,1 hPa 0,0 l/m 16,1 km/h (3 Bft) W-SW 247 0 min 0,000 mm 0,0 UV-I 54 W/m -0,1 C -6,3 C 22,5 km/h (4 Bft) 95,65 %
17.12.2017 13:43 1,0 C 3,9 C 92 % 1020,2 hPa 0,0 l/m 17,7 km/h (3 Bft) W-SW 247 0 min 0,000 mm 0,0 UV-I 56 W/m -0,2 C -7,2 C 24,1 km/h (4 Bft) 95,65 %
17.12.2017 13:44 1,0 C 3,9 C 93 % 1020,2 hPa 0,0 l/m 16,1 km/h (3 Bft) SW 225 0 min 0,000 mm 0,0 UV-I 60 W/m -0,0 C -6,4 C 22,5 km/h (4 Bft) 91,30 %
17.12.2017 13:45 1,0 C 3,9 C 93 % 1020,2 hPa 0,0 l/m 14,5 km/h (3 Bft) W-SW 247 0 min 0,000 mm 0,0 UV-I 58 W/m -0,0 C -5,5 C 22,5 km/h (4 Bft) 91,30 %
17.12.2017 13:46 1,0 C 3,9 C 93 % 1020,3 hPa 0,0 l/m 16,1 km/h (3 Bft) W-SW 247 0 min 0,000 mm 0,0 UV-I 56 W/m -0,0 C -6,4 C 22,5 km/h (4 Bft) 100,00 %
17.12.2017 13:47 1,0 C 3,9 C 93 % 1020,3 hPa 0,0 l/m 16,1 km/h (3 Bft) W-SW 247 0 min 0,000 mm 0,0 UV-I 58 W/m -0,0 C -6,4 C 19,3 km/h (3 Bft) 91,30 %
17.12.2017 13:48 1,0 C 3,9 C 93 % 1020,3 hPa 0,0 l/m 17,7 km/h (3 Bft) W-SW 247 0 min 0,000 mm 0,0 UV-I 62 W/m -0,0 C -7,2 C 19,3 km/h (3 Bft) 95,65 %
17.12.2017 13:49 0,9 C 3,9 C 93 % 1020,3 hPa 0,0 l/m 16,1 km/h (3 Bft) W-SW 247 0 min 0,000 mm 0,0 UV-I 70 W/m -0,1 C -6,5 C 19,3 km/h (3 Bft) 95,65 %
17.12.2017 13:50 0,9 C 3,9 C 93 % 1020,3 hPa 0,0 l/m 12,9 km/h (3 Bft) W-SW 247 0 min 0,000 mm 0,0 UV-I 77 W/m -0,1 C -4,6 C 17,7 km/h (3 Bft) 100,00 %
17.12.2017 13:51 0,9 C 3,9 C 93 % 1020,3 hPa 0,0 l/m 14,5 km/h (3 Bft) W-SW 247 0 min 0,000 mm 0,0 UV-I 86 W/m -0,1 C -5,6 C 20,9 km/h (4 Bft) 95,65 %
17.12.2017 13:52 0,9 C 3,9 C 93 % 1020,3 hPa 0,0 l/m 14,5 km/h (3 Bft) SW 225 0 min 0,000 mm 0,0 UV-I 93 W/m -0,1 C -5,6 C 20,9 km/h (4 Bft) 100,00 %
17.12.2017 13:53 0,9 C 3,9 C 93 % 1020,3 hPa 0,0 l/m 12,9 km/h (3 Bft) W-SW 247 0 min 0,000 mm 0,0 UV-I 95 W/m -0,1 C -4,6 C 19,3 km/h (3 Bft) 95,65 %
17.12.2017 13:54 1,0 C 3,9 C 93 % 1020,2 hPa 0,0 l/m 11,3 km/h (2 Bft) W-SW 247 0 min 0,000 mm 0,0 UV-I 105 W/m -0,0 C -3,3 C 16,1 km/h (3 Bft) 95,65 %
17.12.2017 13:55 1,0 C 3,9 C 93 % 1020,2 hPa 0,0 l/m 11,3 km/h (2 Bft) W-SW 247 0 min 0,000 mm 0,0 UV-I 116 W/m -0,0 C -3,3 C 16,1 km/h (3 Bft) 95,65 %
17.12.2017 13:56 1,0 C 3,9 C 93 % 1020,3 hPa 0,0 l/m 14,5 km/h (3 Bft) W-SW 247 0 min 0,000 mm 0,0 UV-I 118 W/m -0,0 C -5,5 C 17,7 km/h (3 Bft) 95,65 %
17.12.2017 13:57 1,0 C 3,9 C 93 % 1020,2 hPa 0,0 l/m 14,5 km/h (3 Bft) W-SW 247 0 min 0,000 mm 0,0 UV-I 113 W/m -0,0 C -5,5 C 17,7 km/h (3 Bft) 100,00 %
17.12.2017 13:58 1,0 C 3,9 C 93 % 1020,2 hPa 0,0 l/m 12,9 km/h (3 Bft) W-SW 247 0 min 0,000 mm 0,0 UV-I 114 W/m -0,0 C -4,5 C 19,3 km/h (3 Bft) 91,30 %
17.12.2017 13:59 1,1 C 3,9 C 93 % 1020,2 hPa 0,0 l/m 11,3 km/h (2 Bft) W-SW 247 0 min 0,000 mm 0,0 UV-I 114 W/m 0,1 C -3,2 C 14,5 km/h (3 Bft) 100,00 %
17.12.2017 14:00 1,1 C 3,9 C 93 % 1020,2 hPa 0,0 l/m 9,7 km/h (2 Bft) W-SW 247 0 min 0,025 mm 0,0 UV-I 113 W/m 0,1 C -2,0 C 14,5 km/h (3 Bft) 95,65 %
17.12.2017 14:03 1,1 C 3,9 C 93 % 1020,1 hPa 0,0 l/m 12,9 km/h (3 Bft) W-SW 247 0 min 0,000 mm 0,0 UV-I 100 W/m 0,1 C -4,3 C 14,5 km/h (3 Bft) 13,04 %
17.12.2017 14:04 1,1 C 3,9 C 93 % 1020,2 hPa 0,0 l/m 10,2 km/h (2 Bft) S-SW 200 0 min 0,001 mm 0,0 UV-I 100 W/m 0,1 C -2,4 C 14,5 km/h (3 Bft) 97,96 %
17.12.2017 14:06 1,1 C 3,9 C 93 % 1020,2 hPa 0,0 l/m 12,9 km/h (3 Bft) W-SW 255 0 min 0,000 mm 0,0 UV-I 109 W/m 0,1 C -4,3 C 17,7 km/h (3 Bft) 97,44 %
17.12.2017 14:08 1,1 C 3,9 C 93 % 1020,2 hPa 0,0 l/m 10,8 km/h (2 Bft) W 271 2 min 0,000 mm 0,0 UV-I 137 W/m 0,1 C -2,9 C 16,1 km/h (3 Bft) 96,00 %
17.12.2017 14:10 1,2 C 3,9 C 93 % 1020,3 hPa 0,0 l/m 14,5 km/h (3 Bft) SW 236 0 min 0,000 mm 0,0 UV-I 111 W/m 0,2 C -5,2 C 19,3 km/h (3 Bft) 100,00 %
17.12.2017 14:11 1,2 C 3,9 C 93 % 1020,3 hPa 0,0 l/m 12,9 km/h (3 Bft) W-SW 247 0 min 0,000 mm 0,0 UV-I 86 W/m 0,2 C -4,2 C 19,3 km/h (3 Bft) 95,65 %
17.12.2017 14:12 1,2 C 3,9 C 93 % 1020,3 hPa 0,0 l/m 9,7 km/h (2 Bft) W-SW 247 0 min 0,000 mm 0,0 UV-I 103 W/m 0,2 C -1,9 C 16,1 km/h (3 Bft) 100,00 %
17.12.2017 14:13 1,2 C 3,9 C 93 % 1020,3 hPa 0,0 l/m 12,9 km/h (3 Bft) SW 217 0 min 0,000 mm 0,0 UV-I 90 W/m 0,2 C -4,2 C 16,1 km/h (3 Bft) 97,26 %
17.12.2017 14:14 1,2 C 3,9 C 93 % 1020,3 hPa 0,0 l/m 14,6 km/h (3 Bft) W-SW 244 0 min 0,000 mm 0,0 UV-I 72 W/m 0,2 C -5,3 C 19,3 km/h (3 Bft) 96,97 %
17.12.2017 14:15 1,2 C 3,9 C 93 % 1020,3 hPa 0,0 l/m 13,6 km/h (3 Bft) W 263 0 min 0,000 mm 0,0 UV-I 73 W/m 0,2 C -4,7 C 17,7 km/h (3 Bft) 100,00 %
17.12.2017 14:16 1,2 C 3,9 C 93 % 1020,3 hPa 0,0 l/m 12,1 km/h (2 Bft) W-SW 238 0 min 0,000 mm 0,0 UV-I 75 W/m 0,2 C -3,7 C 17,7 km/h (3 Bft) 96,15 %
17.12.2017 14:17 1,2 C 3,9 C 93 % 1020,3 hPa 0,0 l/m 9,8 km/h (2 Bft) W-SW 239 0 min 0,000 mm 0,0 UV-I 76 W/m 0,2 C -2,0 C 14,5 km/h (3 Bft) 100,00 %
17.12.2017 14:18 1,2 C 3,9 C 93 % 1020,3 hPa 0,0 l/m 12,3 km/h (3 Bft) S-SW 204 0 min 0,000 mm 0,0 UV-I 99 W/m 0,2 C -3,8 C 17,7 km/h (3 Bft) 100,00 %
17.12.2017 14:19 1,2 C 3,9 C 93 % 1020,3 hPa 0,0 l/m 13,5 km/h (3 Bft) W-SW 252 0 min 0,000 mm 0,0 UV-I 105 W/m 0,2 C -4,6 C 20,9 km/h (4 Bft) 100,00 %
17.12.2017 14:20 1,2 C 3,9 C 93 % 1020,3 hPa 0,0 l/m 11,3 km/h (2 Bft) SW 235 0 min 0,000 mm 0,0 UV-I 100 W/m 0,2 C -3,1 C 14,5 km/h (3 Bft) 100,00 %
17.12.2017 14:22 1,2 C 3,9 C 93 % 1020,3 hPa 0,0 l/m 13,1 km/h (3 Bft) SW 220 2 min 0,000 mm 0,0 UV-I 138 W/m 0,2 C -4,4 C 19,3 km/h (3 Bft) 100,00 %
17.12.2017 14:23 1,2 C 3,9 C 93 % 1020,3 hPa 0,0 l/m 12,9 km/h (3 Bft) W-SW 237 0 min 0,000 mm 0,0 UV-I 99 W/m 0,2 C -4,2 C 17,7 km/h (3 Bft) 100,00 %
17.12.2017 14:24 1,2 C 3,9 C 93 % 1020,3 hPa 0,0 l/m 9,8 km/h (2 Bft) W-SW 257 0 min 0,000 mm 0,0 UV-I 90 W/m 0,2 C -2,0 C 14,5 km/h (3 Bft) 100,00 %
17.12.2017 14:25 1,2 C 3,9 C 93 % 1020,3 hPa 0,0 l/m 11,8 km/h (2 Bft) W-SW 244 0 min 0,000 mm 0,0 UV-I 79 W/m 0,2 C -3,5 C 16,1 km/h (3 Bft) 100,00 %
17.12.2017 14:26 1,2 C 3,9 C 93 % 1020,4 hPa 0,0 l/m 8,9 km/h (2 Bft) W-NW 295 0 min 0,000 mm 0,0 UV-I 75 W/m 0,2 C -1,2 C 12,9 km/h (3 Bft) 100,00 %
17.12.2017 14:27 1,2 C 3,9 C 93 % 1020,4 hPa 0,0 l/m 6,6 km/h (2 Bft) W-SW 240 0 min 0,000 mm 0,0 UV-I 71 W/m 0,2 C 1,0 C 8,0 km/h (2 Bft) 100,00 %
17.12.2017 14:28 1,2 C 3,9 C 93 % 1020,4 hPa 0,0 l/m 13,4 km/h (3 Bft) W-SW 247 0 min 0,000 mm 0,0 UV-I 68 W/m 0,2 C -4,6 C 17,7 km/h (3 Bft) 100,00 %
17.12.2017 14:29 1,2 C 3,9 C 93 % 1020,4 hPa 0,0 l/m 11,6 km/h (2 Bft) W-SW 257 0 min 0,000 mm 0,0 UV-I 61 W/m 0,2 C -3,3 C 14,5 km/h (3 Bft) 100,00 %
17.12.2017 14:30 1,2 C 3,9 C 93 % 1020,4 hPa 0,0 l/m 8,6 km/h (2 Bft) W-SW 250 0 min 0,000 mm 0,0 UV-I 57 W/m 0,2 C -0,9 C 11,3 km/h (2 Bft) 100,00 %
17.12.2017 14:31 1,2 C 3,9 C 93 % 1020,4 hPa 0,0 l/m 10,6 km/h (2 Bft) W-SW 257 0 min 0,000 mm 0,0 UV-I 61 W/m 0,2 C -2,6 C 16,1 km/h (3 Bft) 100,00 %
17.12.2017 14:32 1,3 C 3,9 C 93 % 1020,4 hPa 0,0 l/m 11,4 km/h (2 Bft) W-SW 240 0 min 0,000 mm 0,0 UV-I 46 W/m 0,3 C -3,1 C 16,1 km/h (3 Bft) 100,00 %
17.12.2017 14:33 1,3 C 3,9 C 93 % 1020,4 hPa 0,0 l/m 13,8 km/h (3 Bft) W 273 0 min 0,000 mm 0,0 UV-I 35 W/m 0,3 C -4,7 C 19,3 km/h (3 Bft) 100,00 %
17.12.2017 14:34 1,3 C 3,9 C 93 % 1020,5 hPa 0,0 l/m 14,2 km/h (3 Bft) SW 234 0 min 0,000 mm 0,0 UV-I 28 W/m 0,3 C -4,9 C 19,3 km/h (3 Bft) 100,00 %
17.12.2017 14:35 1,3 C 3,9 C 93 % 1020,5 hPa 0,0 l/m 17,1 km/h (3 Bft) W-SW 250 0 min 0,000 mm 0,0 UV-I 23 W/m 0,3 C -6,6 C 22,5 km/h (4 Bft) 100,00 %
17.12.2017 14:36 1,3 C 3,9 C 92 % 1020,5 hPa 0,0 l/m 16,6 km/h (3 Bft) W 262 0 min 0,000 mm 0,0 UV-I 18 W/m 0,1 C -6,3 C 19,3 km/h (3 Bft) 100,00 %
17.12.2017 14:37 1,2 C 3,9 C 92 % 1020,5 hPa 0,0 l/m 9,4 km/h (2 Bft) SW 234 0 min 0,000 mm 0,0 UV-I 16 W/m 0,0 C -1,6 C 17,7 km/h (3 Bft) 100,00 %
17.12.2017 14:38 1,2 C 3,9 C 92 % 1020,6 hPa 0,0 l/m 13,3 km/h (3 Bft) W-SW 238 0 min 0,000 mm 0,0 UV-I 15 W/m 0,0 C -4,5 C 17,7 km/h (3 Bft) 95,83 %
17.12.2017 14:39 1,1 C 3,9 C 92 % 1020,6 hPa 0,0 l/m 13,9 km/h (3 Bft) W 281 0 min 0,000 mm 0,0 UV-I 14 W/m -0,1 C -5,0 C 19,3 km/h (3 Bft) 95,65 %
17.12.2017 14:40 1,0 C 3,9 C 93 % 1020,5 hPa 0,0 l/m 12,9 km/h (3 Bft) W-SW 254 0 min 0,000 mm 0,0 UV-I 17 W/m -0,0 C -4,5 C 16,1 km/h (3 Bft) 100,00 %
17.12.2017 14:41 0,9 C 3,9 C 93 % 1020,5 hPa 0,0 l/m 13,0 km/h (3 Bft) W-SW 248 0 min 0,000 mm 0,0 UV-I 19 W/m -0,1 C -4,6 C 16,1 km/h (3 Bft) 100,00 %
17.12.2017 14:42 0,9 C 3,9 C 93 % 1020,5 hPa 0,0 l/m 14,2 km/h (3 Bft) W 273 0 min 0,000 mm 0,0 UV-I 18 W/m -0,1 C -5,4 C 19,3 km/h (3 Bft) 100,00 %
17.12.2017 14:43 0,8 C 3,9 C 93 % 1020,5 hPa 0,0 l/m 14,3 km/h (3 Bft) W-SW 251 0 min 0,000 mm 0,0 UV-I 19 W/m -0,2 C -5,6 C 17,7 km/h (3 Bft) 100,00 %
17.12.2017 14:44 0,8 C 3,9 C 93 % 1020,5 hPa 0,0 l/m 12,2 km/h (2 Bft) W-SW 249 0 min 0,000 mm 0,0 UV-I 18 W/m -0,2 C -4,2 C 16,1 km/h (3 Bft) 96,30 %
17.12.2017 14:45 0,7 C 3,9 C 94 % 1020,5 hPa 0,0 l/m 12,7 km/h (3 Bft) W 261 0 min 0,000 mm 0,0 UV-I 17 W/m -0,2 C -4,7 C 16,1 km/h (3 Bft) 100,00 %
17.12.2017 14:46 0,7 C 3,9 C 94 % 1020,5 hPa 0,0 l/m 13,3 km/h (3 Bft) W-SW 248 0 min 0,000 mm 0,0 UV-I 16 W/m -0,2 C -5,1 C 16,1 km/h (3 Bft) 100,00 %
17.12.2017 14:47 0,7 C 3,9 C 94 % 1020,5 hPa 0,0 l/m 12,8 km/h (3 Bft) W-SW 244 0 min 0,000 mm 0,0 UV-I 19 W/m -0,2 C -4,7 C 16,1 km/h (3 Bft) 98,94 %
17.12.2017 14:48 0,7 C 3,9 C 94 % 1020,6 hPa 0,0 l/m 15,8 km/h (3 Bft) W-NW 296 0 min 0,000 mm 0,0 UV-I 21 W/m -0,2 C -6,6 C 19,3 km/h (3 Bft) 100,00 %
17.12.2017 14:49 0,7 C 3,9 C 94 % 1020,6 hPa 0,0 l/m 13,3 km/h (3 Bft) SW 234 0 min 0,000 mm 0,0 UV-I 22 W/m -0,2 C -5,1 C 19,3 km/h (3 Bft) 95,65 %
17.12.2017 14:50 0,6 C 3,9 C 94 % 1020,6 hPa 0,0 l/m 10,9 km/h (2 Bft) W-SW 251 0 min 0,000 mm 0,0 UV-I 24 W/m -0,3 C -3,5 C 14,5 km/h (3 Bft) 100,00 %
17.12.2017 14:51 0,6 C 3,9 C 95 % 1020,7 hPa 0,0 l/m 11,4 km/h (2 Bft) W-SW 249 0 min 0,000 mm 0,0 UV-I 27 W/m -0,1 C -3,9 C 14,5 km/h (3 Bft) 100,00 %
17.12.2017 14:52 0,6 C 3,9 C 95 % 1020,7 hPa 0,0 l/m 11,2 km/h (2 Bft) W-SW 248 0 min 0,000 mm 0,0 UV-I 32 W/m -0,1 C -3,7 C 14,5 km/h (3 Bft) 100,00 %
17.12.2017 14:53 0,6 C 3,9 C 95 % 1020,7 hPa 0,0 l/m 10,0 km/h (2 Bft) W 259 0 min 0,000 mm 0,0 UV-I 32 W/m -0,1 C -2,8 C 12,9 km/h (3 Bft) 100,00 %
17.12.2017 14:54 0,6 C 3,9 C 95 % 1020,7 hPa 0,0 l/m 11,2 km/h (2 Bft) W-SW 241 0 min 0,000 mm 0,0 UV-I 31 W/m -0,1 C -3,7 C 16,1 km/h (3 Bft) 100,00 %
17.12.2017 14:55 0,6 C 3,9 C 95 % 1020,7 hPa 0,0 l/m 14,8 km/h (3 Bft) W-SW 256 0 min 0,000 mm 0,0 UV-I 35 W/m -0,1 C -6,1 C 17,7 km/h (3 Bft) 100,00 %
17.12.2017 14:56 0,6 C 3,9 C 95 % 1020,8 hPa 0,0 l/m 12,3 km/h (3 Bft) W 263 0 min 0,000 mm 0,0 UV-I 41 W/m -0,1 C -4,5 C 17,7 km/h (3 Bft) 100,00 %
17.12.2017 14:57 0,6 C 3,9 C 95 % 1020,8 hPa 0,0 l/m 8,5 km/h (2 Bft) S-SW 204 0 min 0,000 mm 0,0 UV-I 42 W/m -0,1 C -1,5 C 11,3 km/h (2 Bft) 100,00 %
17.12.2017 14:58 0,6 C 3,9 C 95 % 1020,8 hPa 0,0 l/m 11,1 km/h (2 Bft) W 263 0 min 0,000 mm 0,0 UV-I 42 W/m -0,1 C -3,7 C 16,1 km/h (3 Bft) 100,00 %
17.12.2017 14:59 0,6 C 3,9 C 95 % 1020,7 hPa 0,0 l/m 13,4 km/h (3 Bft) W-SW 246 0 min 0,000 mm 0,0 UV-I 54 W/m -0,1 C -5,3 C 19,3 km/h (3 Bft) 100,00 %
17.12.2017 15:00 0,6 C 3,9 C 95 % 1020,7 hPa 0,0 l/m 15,0 km/h (3 Bft) W 279 0 min 0,025 mm 0,0 UV-I 64 W/m -0,1 C -6,3 C 19,3 km/h (3 Bft) 100,00 %
17.12.2017 15:01 0,6 C 3,9 C 95 % 1020,7 hPa 0,0 l/m 16,5 km/h (3 Bft) W-SW 249 0 min 0,000 mm 0,0 UV-I 72 W/m -0,1 C -7,1 C 20,9 km/h (4 Bft) 96,30 %
17.12.2017 15:02 0,6 C 3,9 C 95 % 1020,7 hPa 0,0 l/m 13,9 km/h (3 Bft) W 273 0 min 0,000 mm 0,0 UV-I 73 W/m -0,1 C -5,6 C 20,9 km/h (4 Bft) 100,00 %
17.12.2017 15:03 0,6 C 3,9 C 95 % 1020,7 hPa 0,0 l/m 19,8 km/h (3 Bft) W 263 0 min 0,000 mm 0,0 UV-I 70 W/m -0,1 C -8,8 C 25,7 km/h (4 Bft) 100,00 %
17.12.2017 15:04 0,7 C 3,9 C 95 % 1020,7 hPa 0,0 l/m 16,0 km/h (3 Bft) S-SW 213 0 min 0,000 mm 0,0 UV-I 63 W/m -0,0 C -6,7 C 19,3 km/h (3 Bft) 100,00 %
17.12.2017 15:05 0,7 C 3,9 C 95 % 1020,7 hPa 0,0 l/m 14,8 km/h (3 Bft) W-SW 240 0 min 0,000 mm 0,0 UV-I 58 W/m -0,0 C -6,0 C 22,5 km/h (4 Bft) 94,44 %
17.12.2017 15:06 0,7 C 3,9 C 95 % 1020,7 hPa 0,0 l/m 15,8 km/h (3 Bft) W 275 0 min 0,000 mm 0,0 UV-I 57 W/m -0,0 C -6,6 C 22,5 km/h (4 Bft) 92,31 %
17.12.2017 15:07 0,7 C 3,9 C 95 % 1020,7 hPa 0,0 l/m 14,0 km/h (3 Bft) S-SW 198 0 min 0,000 mm 0,0 UV-I 52 W/m -0,0 C -5,5 C 17,7 km/h (3 Bft) 100,00 %
17.12.2017 15:08 0,7 C 3,9 C 95 % 1020,7 hPa 0,0 l/m 9,9 km/h (2 Bft) W-SW 246 0 min 0,000 mm 0,0 UV-I 47 W/m -0,0 C -2,6 C 14,5 km/h (3 Bft) 100,00 %
17.12.2017 15:09 0,8 C 3,9 C 95 % 1020,7 hPa 0,0 l/m 12,2 km/h (2 Bft) W 273 0 min 0,000 mm 0,0 UV-I 45 W/m 0,1 C -4,2 C 16,1 km/h (3 Bft) 83,33 %
17.12.2017 15:10 0,8 C 3,9 C 95 % 1020,7 hPa 0,0 l/m 14,7 km/h (3 Bft) W-SW 258 0 min 0,000 mm 0,0 UV-I 42 W/m 0,1 C -5,8 C 17,7 km/h (3 Bft) 100,00 %
17.12.2017 15:11 0,8 C 3,9 C 95 % 1020,7 hPa 0,0 l/m 10,6 km/h (2 Bft) W-SW 245 0 min 0,000 mm 0,0 UV-I 42 W/m 0,1 C -3,0 C 16,1 km/h (3 Bft) 96,15 %
17.12.2017 15:12 0,8 C 3,9 C 95 % 1020,7 hPa 0,0 l/m 12,4 km/h (3 Bft) W-SW 250 0 min 0,000 mm 0,0 UV-I 40 W/m 0,1 C -4,4 C 17,7 km/h (3 Bft) 100,00 %
17.12.2017 15:13 0,8 C 3,9 C 95 % 1020,7 hPa 0,0 l/m 11,6 km/h (2 Bft) W-SW 256 0 min 0,000 mm 0,0 UV-I 38 W/m 0,1 C -3,8 C 14,5 km/h (3 Bft) 96,15 %
17.12.2017 15:14 0,8 C 3,9 C 95 % 1020,7 hPa 0,0 l/m 11,1 km/h (2 Bft) W 260 0 min 0,000 mm 0,0 UV-I 34 W/m 0,1 C -3,4 C 14,5 km/h (3 Bft) 96,30 %
17.12.2017 15:15 0,8 C 3,9 C 95 % 1020,7 hPa 0,0 l/m 14,2 km/h (3 Bft) W-SW 240 0 min 0,000 mm 0,0 UV-I 32 W/m 0,1 C -5,5 C 17,7 km/h (3 Bft) 100,00 %
17.12.2017 15:16 0,8 C 3,9 C 95 % 1020,7 hPa 0,0 l/m 12,1 km/h (2 Bft) W 280 0 min 0,000 mm 0,0 UV-I 32 W/m 0,1 C -4,2 C 17,7 km/h (3 Bft) 91,67 %
17.12.2017 15:17 0,8 C 3,9 C 95 % 1020,7 hPa 0,0 l/m 14,9 km/h (3 Bft) W 259 0 min 0,000 mm 0,0 UV-I 26 W/m 0,1 C -6,0 C 20,9 km/h (4 Bft) 100,00 %
17.12.2017 15:18 0,8 C 3,9 C 95 % 1020,7 hPa 0,0 l/m 9,7 km/h (2 Bft) W-SW 248 0 min 0,000 mm 0,0 UV-I 24 W/m 0,1 C -2,3 C 12,9 km/h (3 Bft) 95,83 %
17.12.2017 15:19 0,8 C 3,9 C 95 % 1020,7 hPa 0,0 l/m 12,7 km/h (3 Bft) W-SW 253 0 min 0,000 mm 0,0 UV-I 23 W/m 0,1 C -4,6 C 19,3 km/h (3 Bft) 95,65 %
17.12.2017 15:20 0,8 C 3,9 C 95 % 1020,7 hPa 0,0 l/m 9,7 km/h (2 Bft) W 270 0 min 0,000 mm 0,0 UV-I 23 W/m 0,1 C -2,3 C 12,9 km/h (3 Bft) 95,83 %
17.12.2017 15:21 0,8 C 3,9 C 95 % 1020,7 hPa 0,0 l/m 12,9 km/h (3 Bft) W-SW 251 0 min 0,000 mm 0,0 UV-I 22 W/m 0,1 C -4,7 C 16,1 km/h (3 Bft) 93,75 %
17.12.2017 15:22 0,8 C 3,9 C 95 % 1020,7 hPa 0,0 l/m 11,3 km/h (2 Bft) W 259 0 min 0,000 mm 0,0 UV-I 19 W/m 0,1 C -3,6 C 14,5 km/h (3 Bft) 100,00 %
17.12.2017 15:23 0,8 C 3,9 C 95 % 1020,7 hPa 0,0 l/m 12,9 km/h (3 Bft) W-SW 248 0 min 0,000 mm 0,0 UV-I 18 W/m 0,1 C -4,7 C 16,1 km/h (3 Bft) 100,00 %
17.12.2017 15:24 0,8 C 3,9 C 94 % 1020,7 hPa 0,0 l/m 10,8 km/h (2 Bft) W-SW 240 0 min 0,000 mm 0,0 UV-I 18 W/m -0,1 C -3,2 C 16,1 km/h (3 Bft) 96,30 %
17.12.2017 15:25 0,8 C 3,9 C 94 % 1020,7 hPa 0,0 l/m 11,1 km/h (2 Bft) W-SW 243 0 min 0,000 mm 0,0 UV-I 18 W/m -0,1 C -3,4 C 16,1 km/h (3 Bft) 96,55 %
17.12.2017 15:26 0,9 C 3,9 C 95 % 1020,7 hPa 0,0 l/m 12,7 km/h (3 Bft) W-SW 242 0 min 0,000 mm 0,0 UV-I 18 W/m 0,2 C -4,4 C 16,1 km/h (3 Bft) 100,00 %
17.12.2017 15:27 0,9 C 3,9 C 94 % 1020,8 hPa 0,0 l/m 10,6 km/h (2 Bft) W-SW 250 0 min 0,000 mm 0,0 UV-I 18 W/m 0,0 C -2,9 C 14,5 km/h (3 Bft) 96,55 %
17.12.2017 15:28 0,9 C 3,9 C 94 % 1020,8 hPa 0,0 l/m 15,1 km/h (3 Bft) W-SW 255 0 min 0,000 mm 0,0 UV-I 16 W/m 0,0 C -5,9 C 19,3 km/h (3 Bft) 100,00 %
17.12.2017 15:29 0,9 C 3,9 C 94 % 1020,9 hPa 0,0 l/m 13,0 km/h (3 Bft) SW 223 0 min 0,000 mm 0,0 UV-I 16 W/m 0,0 C -4,6 C 17,7 km/h (3 Bft) 96,15 %
17.12.2017 15:30 0,9 C 3,9 C 94 % 1020,9 hPa 0,0 l/m 13,6 km/h (3 Bft) W 263 0 min 0,000 mm 0,0 UV-I 14 W/m 0,0 C -5,0 C 19,3 km/h (3 Bft) 95,83 %
17.12.2017 15:31 0,9 C 3,9 C 94 % 1020,9 hPa 0,0 l/m 11,3 km/h (2 Bft) W 270 0 min 0,000 mm 0,0 UV-I 14 W/m 0,0 C -3,5 C 14,5 km/h (3 Bft) 100,00 %
17.12.2017 15:32 0,9 C 3,9 C 94 % 1020,9 hPa 0,0 l/m 11,3 km/h (2 Bft) W 270 0 min 0,000 mm 0,0 UV-I 14 W/m 0,0 C -3,5 C 14,5 km/h (3 Bft) 100,00 %
17.12.2017 15:33 0,9 C 3,9 C 94 % 1021,0 hPa 0,0 l/m 9,7 km/h (2 Bft) W-SW 247 0 min 0,000 mm 0,0 UV-I 16 W/m 0,0 C -2,2 C 14,5 km/h (3 Bft) 100,00 %
17.12.2017 15:34 0,9 C 3,9 C 94 % 1021,0 hPa 0,0 l/m 12,9 km/h (3 Bft) W-SW 247 0 min 0,000 mm 0,0 UV-I 16 W/m 0,0 C -4,6 C 16,1 km/h (3 Bft) 95,65 %
17.12.2017 15:35 0,9 C 3,9 C 94 % 1021,0 hPa 0,0 l/m 16,1 km/h (3 Bft) W-SW 247 0 min 0,000 mm 0,0 UV-I 16 W/m 0,0 C -6,5 C 22,5 km/h (4 Bft) 100,00 %
17.12.2017 15:36 0,9 C 3,9 C 94 % 1021,0 hPa 0,2 l/m 11,3 km/h (2 Bft) W-SW 247 0 min 0,000 mm 0,0 UV-I 18 W/m 0,0 C -3,5 C 16,1 km/h (3 Bft) 100,00 %
17.12.2017 15:37 0,9 C 3,9 C 94 % 1021,0 hPa 0,0 l/m 12,9 km/h (3 Bft) W-SW 247 0 min 0,000 mm 0,0 UV-I 18 W/m 0,0 C -4,6 C 17,7 km/h (3 Bft) 100,00 %
17.12.2017 15:40 1,0 C 3,9 C 94 % 1021,0 hPa 0,0 l/m 10,2 km/h (2 Bft) W-NW 284 0 min 0,000 mm 0,0 UV-I 21 W/m 0,1 C -2,5 C 14,5 km/h (3 Bft) 100,00 %
17.12.2017 15:41 1,0 C 3,9 C 94 % 1021,1 hPa 0,0 l/m 13,0 km/h (3 Bft) W-SW 250 0 min 0,000 mm 0,0 UV-I 21 W/m 0,1 C -4,5 C 16,1 km/h (3 Bft) 100,00 %
17.12.2017 15:42 1,0 C 3,9 C 94 % 1021,1 hPa 0,0 l/m 11,7 km/h (2 Bft) W-SW 249 0 min 0,000 mm 0,0 UV-I 21 W/m 0,1 C -3,6 C 14,5 km/h (3 Bft) 100,00 %
17.12.2017 15:43 1,0 C 3,9 C 94 % 1021,1 hPa 0,0 l/m 8,8 km/h (2 Bft) W-SW 246 0 min 0,000 mm 0,0 UV-I 20 W/m 0,1 C -1,3 C 12,9 km/h (3 Bft) 100,00 %
17.12.2017 15:44 1,0 C 3,9 C 94 % 1021,1 hPa 0,0 l/m 10,9 km/h (2 Bft) SW 236 0 min 0,000 mm 0,0 UV-I 18 W/m 0,1 C -3,0 C 14,5 km/h (3 Bft) 100,00 %
17.12.2017 15:45 1,0 C 3,9 C 94 % 1021,1 hPa 0,0 l/m 15,2 km/h (3 Bft) W-SW 258 0 min 0,000 mm 0,0 UV-I 18 W/m 0,1 C -5,9 C 19,3 km/h (3 Bft) 100,00 %
17.12.2017 15:46 1,0 C 3,9 C 93 % 1021,1 hPa 0,0 l/m 12,8 km/h (3 Bft) W-SW 250 0 min 0,000 mm 0,0 UV-I 18 W/m -0,0 C -4,4 C 17,7 km/h (3 Bft) 100,00 %
17.12.2017 15:47 1,0 C 3,9 C 93 % 1021,1 hPa 0,0 l/m 13,0 km/h (3 Bft) W 267 0 min 0,000 mm 0,0 UV-I 16 W/m -0,0 C -4,5 C 16,1 km/h (3 Bft) 100,00 %
17.12.2017 15:48 1,0 C 3,9 C 93 % 1021,1 hPa 0,0 l/m 12,3 km/h (3 Bft) W-SW 256 0 min 0,000 mm 0,0 UV-I 16 W/m -0,0 C -4,1 C 20,9 km/h (4 Bft) 100,00 %
17.12.2017 15:49 1,0 C 3,9 C 93 % 1021,1 hPa 0,0 l/m 11,0 km/h (2 Bft) W-SW 242 0 min 0,000 mm 0,0 UV-I 16 W/m -0,0 C -3,1 C 17,7 km/h (3 Bft) 100,00 %
17.12.2017 15:50 1,0 C 3,9 C 93 % 1021,1 hPa 0,0 l/m 12,8 km/h (3 Bft) W 263 0 min 0,000 mm 0,0 UV-I 14 W/m -0,0 C -4,4 C 17,7 km/h (3 Bft) 100,00 %
17.12.2017 15:51 1,0 C 3,9 C 93 % 1021,1 hPa 0,0 l/m 15,7 km/h (3 Bft) W 259 0 min 0,000 mm 0,0 UV-I 14 W/m -0,0 C -6,2 C 20,9 km/h (4 Bft) 100,00 %
17.12.2017 15:52 1,0 C 3,9 C 93 % 1021,1 hPa 0,0 l/m 8,4 km/h (2 Bft) W-SW 252 0 min 0,000 mm 0,0 UV-I 14 W/m -0,0 C -1,0 C 11,3 km/h (2 Bft) 100,00 %
17.12.2017 15:53 1,0 C 3,9 C 93 % 1021,2 hPa 0,0 l/m 10,4 km/h (2 Bft) W 273 0 min 0,000 mm 0,0 UV-I 14 W/m -0,0 C -2,7 C 16,1 km/h (3 Bft) 100,00 %
17.12.2017 15:54 1,0 C 3,9 C 93 % 1021,2 hPa 0,0 l/m 16,8 km/h (3 Bft) W-SW 238 1 min 0,000 mm 0,0 UV-I 14 W/m -0,0 C -6,8 C 24,1 km/h (4 Bft) 100,00 %
17.12.2017 15:55 1,0 C 3,9 C 93 % 1021,2 hPa 0,0 l/m 11,7 km/h (2 Bft) W 265 1 min 0,000 mm 0,0 UV-I 13 W/m -0,0 C -3,6 C 19,3 km/h (3 Bft) 96,30 %
17.12.2017 15:56 1,0 C 3,9 C 93 % 1021,1 hPa 0,0 l/m 18,7 km/h (3 Bft) W 265 1 min 0,000 mm 0,0 UV-I 12 W/m -0,0 C -7,7 C 25,7 km/h (4 Bft) 100,00 %
17.12.2017 15:57 1,1 C 3,9 C 93 % 1021,1 hPa 0,0 l/m 14,7 km/h (3 Bft) W-SW 252 1 min 0,000 mm 0,0 UV-I 12 W/m 0,1 C -5,5 C 17,7 km/h (3 Bft) 100,00 %
17.12.2017 15:58 1,1 C 3,9 C 93 % 1021,2 hPa 0,0 l/m 14,2 km/h (3 Bft) W-SW 257 1 min 0,000 mm 0,0 UV-I 11 W/m 0,1 C -5,2 C 19,3 km/h (3 Bft) 100,00 %
17.12.2017 15:59 1,1 C 3,9 C 93 % 1021,1 hPa 0,0 l/m 15,4 km/h (3 Bft) W-SW 255 0 min 0,000 mm 0,0 UV-I 9 W/m 0,1 C -5,9 C 22,5 km/h (4 Bft) 100,00 %
17.12.2017 16:00 1,1 C 3,9 C 93 % 1021,1 hPa 0,0 l/m 11,9 km/h (2 Bft) W-SW 251 0 min 0,026 mm 0,0 UV-I 7 W/m 0,1 C -3,7 C 16,1 km/h (3 Bft) 100,00 %
17.12.2017 16:01 1,1 C 3,9 C 93 % 1021,2 hPa 0,0 l/m 14,5 km/h (3 Bft) W 268 0 min 0,000 mm 0,0 UV-I 7 W/m 0,1 C -5,4 C 17,7 km/h (3 Bft) 100,00 %
17.12.2017 16:02 1,1 C 3,9 C 93 % 1021,2 hPa 0,0 l/m 12,5 km/h (3 Bft) W-SW 257 0 min 0,000 mm 0,0 UV-I 7 W/m 0,1 C -4,1 C 19,3 km/h (3 Bft) 100,00 %
17.12.2017 16:03 1,1 C 3,9 C 93 % 1021,2 hPa 0,0 l/m 10,9 km/h (2 Bft) W-SW 256 0 min 0,000 mm 0,0 UV-I 5 W/m 0,1 C -2,9 C 14,5 km/h (3 Bft) 100,00 %
17.12.2017 16:04 1,1 C 3,9 C 93 % 1021,2 hPa 0,0 l/m 14,8 km/h (3 Bft) W-SW 252 0 min 0,000 mm 0,0 UV-I 5 W/m 0,1 C -5,5 C 20,9 km/h (4 Bft) 100,00 %
17.12.2017 16:05 1,1 C 3,9 C 93 % 1021,2 hPa 0,0 l/m 14,3 km/h (3 Bft) W-SW 257 0 min 0,000 mm 0,0 UV-I 5 W/m 0,1 C -5,2 C 17,7 km/h (3 Bft) 100,00 %
17.12.2017 16:06 1,1 C 3,9 C 93 % 1021,2 hPa 0,0 l/m 17,2 km/h (3 Bft) W 278 0 min 0,000 mm 0,0 UV-I 5 W/m 0,1 C -6,9 C 25,7 km/h (4 Bft) 100,00 %
17.12.2017 16:07 1,1 C 3,9 C 93 % 1021,2 hPa 0,0 l/m 13,9 km/h (3 Bft) W-SW 258 0 min 0,000 mm 0,0 UV-I 5 W/m 0,1 C -5,0 C 19,3 km/h (3 Bft) 100,00 %
17.12.2017 16:08 1,1 C 3,9 C 93 % 1021,3 hPa 0,0 l/m 15,2 km/h (3 Bft) W 265 0 min 0,000 mm 0,0 UV-I 5 W/m 0,1 C -5,8 C 19,3 km/h (3 Bft) 100,00 %
17.12.2017 16:09 1,1 C 3,9 C 93 % 1021,3 hPa 0,0 l/m 13,6 km/h (3 Bft) W 264 0 min 0,000 mm 0,0 UV-I 5 W/m 0,1 C -4,8 C 17,7 km/h (3 Bft) 95,65 %
17.12.2017 16:10 1,1 C 3,9 C 92 % 1021,3 hPa 0,0 l/m 13,6 km/h (3 Bft) W 273 0 min 0,000 mm 0,0 UV-I 5 W/m -0,1 C -4,8 C 16,1 km/h (3 Bft) 100,00 %
17.12.2017 16:11 1,1 C 3,9 C 92 % 1021,4 hPa 0,0 l/m 13,8 km/h (3 Bft) W-SW 245 0 min 0,000 mm 0,0 UV-I 5 W/m -0,1 C -4,9 C 17,7 km/h (3 Bft) 100,00 %
17.12.2017 16:12 1,1 C 3,9 C 93 % 1021,3 hPa 0,0 l/m 16,2 km/h (3 Bft) W 273 0 min 0,000 mm 0,0 UV-I 5 W/m 0,1 C -6,3 C 19,3 km/h (3 Bft) 100,00 %
17.12.2017 16:13 1,1 C 3,9 C 93 % 1021,3 hPa 0,0 l/m 14,6 km/h (3 Bft) W-SW 254 0 min 0,000 mm 0,0 UV-I 5 W/m 0,1 C -5,4 C 17,7 km/h (3 Bft) 96,88 %
17.12.2017 16:14 1,1 C 3,9 C 93 % 1021,4 hPa 0,0 l/m 15,9 km/h (3 Bft) W-SW 249 0 min 0,000 mm 0,0 UV-I 5 W/m 0,1 C -6,2 C 22,5 km/h (4 Bft) 100,00 %
17.12.2017 16:15 1,1 C 3,9 C 93 % 1021,4 hPa 0,0 l/m 17,5 km/h (3 Bft) W 263 0 min 0,000 mm 0,0 UV-I 5 W/m 0,1 C -7,0 C 20,9 km/h (4 Bft) 100,00 %
17.12.2017 16:16 1,1 C 3,9 C 93 % 1021,4 hPa 0,0 l/m 13,2 km/h (3 Bft) W 275 0 min 0,000 mm 0,0 UV-I 5 W/m 0,1 C -4,5 C 16,1 km/h (3 Bft) 100,00 %
17.12.2017 16:17 1,0 C 3,9 C 93 % 1021,4 hPa 0,0 l/m 14,4 km/h (3 Bft) W 260 0 min 0,000 mm 0,0 UV-I 5 W/m -0,0 C -5,4 C 22,5 km/h (4 Bft) 100,00 %
17.12.2017 16:18 1,0 C 3,9 C 93 % 1021,4 hPa 0,0 l/m 13,2 km/h (3 Bft) W-SW 252 0 min 0,000 mm 0,0 UV-I 5 W/m -0,0 C -4,7 C 16,1 km/h (3 Bft) 100,00 %
17.12.2017 16:19 1,0 C 3,9 C 93 % 1021,5 hPa 0,0 l/m 9,4 km/h (2 Bft) W-SW 238 0 min 0,000 mm 0,0 UV-I 5 W/m -0,0 C -1,9 C 17,7 km/h (3 Bft) 100,00 %
17.12.2017 16:20 1,0 C 3,9 C 93 % 1021,5 hPa 0,0 l/m 12,5 km/h (3 Bft) W 277 0 min 0,000 mm 0,0 UV-I 5 W/m -0,0 C -4,2 C 16,1 km/h (3 Bft) 100,00 %
17.12.2017 16:21 0,9 C 3,9 C 93 % 1021,5 hPa 0,0 l/m 9,6 km/h (2 Bft) W-SW 246 0 min 0,000 mm 0,0 UV-I 0 W/m -0,1 C -2,1 C 14,5 km/h (3 Bft) 100,00 %
17.12.2017 16:22 0,9 C 3,9 C 93 % 1021,5 hPa 0,0 l/m 12,6 km/h (3 Bft) W-SW 250 0 min 0,000 mm 0,0 UV-I 0 W/m -0,1 C -4,4 C 17,7 km/h (3 Bft) 100,00 %
17.12.2017 16:23 0,9 C 3,9 C 93 % 1021,5 hPa 0,0 l/m 13,3 km/h (3 Bft) W 263 0 min 0,000 mm 0,0 UV-I 0 W/m -0,1 C -4,8 C 17,7 km/h (3 Bft) 100,00 %
17.12.2017 16:24 0,9 C 3,9 C 93 % 1021,5 hPa 0,0 l/m 11,9 km/h (2 Bft) W-SW 257 0 min 0,000 mm 0,0 UV-I 0 W/m -0,1 C -3,9 C 22,5 km/h (4 Bft) 100,00 %
17.12.2017 16:25 0,9 C 3,9 C 93 % 1021,5 hPa 0,0 l/m 12,0 km/h (2 Bft) W 267 0 min 0,000 mm 0,0 UV-I 0 W/m -0,1 C -4,0 C 17,7 km/h (3 Bft) 100,00 %
17.12.2017 16:26 0,9 C 3,9 C 93 % 1021,6 hPa 0,0 l/m 10,5 km/h (2 Bft) W-SW 257 0 min 0,000 mm 0,0 UV-I 0 W/m -0,1 C -2,9 C 14,5 km/h (3 Bft) 100,00 %
17.12.2017 16:27 0,9 C 3,9 C 93 % 1021,5 hPa 0,0 l/m 10,9 km/h (2 Bft) W 265 0 min 0,000 mm 0,0 UV-I 0 W/m -0,1 C -3,2 C 14,5 km/h (3 Bft) 100,00 %
17.12.2017 16:28 0,8 C 3,9 C 93 % 1021,5 hPa 0,0 l/m 13,9 km/h (3 Bft) W-SW 258 0 min 0,000 mm 0,0 UV-I 0 W/m -0,2 C -5,3 C 17,7 km/h (3 Bft) 100,00 %
17.12.2017 16:29 0,8 C 3,9 C 93 % 1021,6 hPa 0,0 l/m 14,8 km/h (3 Bft) W 259 0 min 0,000 mm 0,0 UV-I 0 W/m -0,2 C -5,9 C 19,3 km/h (3 Bft) 100,00 %
17.12.2017 16:30 0,8 C 3,9 C 93 % 1021,6 hPa 0,0 l/m 13,7 km/h (3 Bft) W 277 0 min 0,000 mm 0,0 UV-I 0 W/m -0,2 C -5,2 C 16,1 km/h (3 Bft) 100,00 %
17.12.2017 16:31 0,8 C 3,9 C 93 % 1021,6 hPa 0,0 l/m 19,7 km/h (3 Bft) W 269 0 min 0,000 mm 0,0 UV-I 0 W/m -0,2 C -8,5 C 25,7 km/h (4 Bft) 100,00 %
17.12.2017 16:32 0,8 C 3,9 C 93 % 1021,6 hPa 0,0 l/m 11,3 km/h (2 Bft) W-SW 257 0 min 0,000 mm 0,0 UV-I 0 W/m -0,2 C -3,6 C 17,7 km/h (3 Bft) 100,00 %
17.12.2017 16:33 0,8 C 3,9 C 93 % 1021,7 hPa 0,0 l/m 15,3 km/h (3 Bft) W 269 0 min 0,000 mm 0,0 UV-I 0 W/m -0,2 C -6,2 C 24,1 km/h (4 Bft) 96,55 %
17.12.2017 16:34 0,8 C 3,9 C 93 % 1021,7 hPa 0,0 l/m 16,9 km/h (3 Bft) W 261 0 min 0,000 mm 0,0 UV-I 0 W/m -0,2 C -7,1 C 25,7 km/h (4 Bft) 95,83 %
17.12.2017 16:35 0,8 C 3,9 C 93 % 1021,7 hPa 0,0 l/m 20,5 km/h (4 Bft) W-SW 248 0 min 0,000 mm 0,0 UV-I 0 W/m -0,2 C -8,8 C 27,4 km/h (4 Bft) 100,00 %
17.12.2017 16:36 0,8 C 3,9 C 93 % 1021,7 hPa 0,0 l/m 15,9 km/h (3 Bft) W-NW 295 0 min 0,000 mm 0,0 UV-I 0 W/m -0,2 C -6,5 C 22,5 km/h (4 Bft) 100,00 %
17.12.2017 16:37 0,8 C 3,9 C 93 % 1021,7 hPa 0,0 l/m 15,0 km/h (3 Bft) W-NW 288 0 min 0,000 mm 0,0 UV-I 0 W/m -0,2 C -6,0 C 19,3 km/h (3 Bft) 100,00 %
17.12.2017 16:38 0,7 C 3,9 C 93 % 1021,7 hPa 0,0 l/m 11,7 km/h (2 Bft) W 261 0 min 0,000 mm 0,0 UV-I 0 W/m -0,3 C -4,0 C 16,1 km/h (3 Bft) 100,00 %
17.12.2017 16:39 0,7 C 3,9 C 93 % 1021,7 hPa 0,0 l/m 12,5 km/h (3 Bft) W-SW 255 0 min 0,000 mm 0,0 UV-I 0 W/m -0,3 C -4,5 C 16,1 km/h (3 Bft) 100,00 %
17.12.2017 16:40 0,7 C 3,9 C 94 % 1021,7 hPa 0,0 l/m 13,5 km/h (3 Bft) W 263 0 min 0,000 mm 0,0 UV-I 0 W/m -0,2 C -5,2 C 17,7 km/h (3 Bft) 100,00 %
17.12.2017 16:42 0,7 C 3,9 C 94 % 1021,7 hPa 0,0 l/m 15,9 km/h (3 Bft) W-SW 252 0 min 0,000 mm 0,0 UV-I 0 W/m -0,2 C -6,7 C 24,1 km/h (4 Bft) 100,00 %
17.12.2017 16:43 0,7 C 3,9 C 94 % 1021,7 hPa 0,0 l/m 10,0 km/h (2 Bft) W-SW 251 0 min 0,000 mm 0,0 UV-I 0 W/m -0,2 C -2,7 C 12,9 km/h (3 Bft) 100,00 %
17.12.2017 16:44 0,7 C 3,9 C 94 % 1021,7 hPa 0,0 l/m 11,2 km/h (2 Bft) W-SW 238 0 min 0,000 mm 0,0 UV-I 0 W/m -0,2 C -3,6 C 14,5 km/h (3 Bft) 100,00 %
17.12.2017 16:45 0,7 C 3,9 C 94 % 1021,7 hPa 0,0 l/m 8,3 km/h (2 Bft) W-SW 256 0 min 0,000 mm 0,0 UV-I 0 W/m -0,2 C -1,2 C 11,3 km/h (2 Bft) 100,00 %
17.12.2017 16:46 0,6 C 3,9 C 94 % 1021,7 hPa 0,0 l/m 12,3 km/h (3 Bft) W 259 0 min 0,000 mm 0,0 UV-I 0 W/m -0,3 C -4,5 C 17,7 km/h (3 Bft) 95,65 %
17.12.2017 16:47 0,6 C 3,9 C 94 % 1021,8 hPa 0,0 l/m 12,8 km/h (3 Bft) SW 236 0 min 0,000 mm 0,0 UV-I 0 W/m -0,3 C -4,9 C 14,5 km/h (3 Bft) 100,00 %
17.12.2017 16:48 0,6 C 3,9 C 94 % 1021,7 hPa 0,0 l/m 13,7 km/h (3 Bft) W 266 0 min 0,000 mm 0,0 UV-I 0 W/m -0,3 C -5,5 C 19,3 km/h (3 Bft) 100,00 %
17.12.2017 16:49 0,6 C 3,9 C 94 % 1021,7 hPa 0,0 l/m 14,6 km/h (3 Bft) W-SW 250 0 min 0,000 mm 0,0 UV-I 0 W/m -0,3 C -6,0 C 25,7 km/h (4 Bft) 100,00 %
17.12.2017 16:50 0,6 C 3,9 C 94 % 1021,8 hPa 0,0 l/m 10,6 km/h (2 Bft) W-SW 254 0 min 0,000 mm 0,0 UV-I 0 W/m -0,3 C -3,3 C 12,9 km/h (3 Bft) 100,00 %
17.12.2017 16:51 0,7 C 3,9 C 94 % 1021,8 hPa 0,0 l/m 13,6 km/h (3 Bft) W-SW 245 0 min 0,000 mm 0,0 UV-I 0 W/m -0,2 C -5,3 C 19,3 km/h (3 Bft) 100,00 %
17.12.2017 16:52 0,7 C 3,9 C 94 % 1021,8 hPa 0,0 l/m 11,4 km/h (2 Bft) W 279 0 min 0,000 mm 0,0 UV-I 0 W/m -0,2 C -3,8 C 14,5 km/h (3 Bft) 96,15 %
17.12.2017 16:53 0,7 C 3,9 C 94 % 1021,8 hPa 0,0 l/m 9,2 km/h (2 Bft) W 261 0 min 0,000 mm 0,0 UV-I 0 W/m -0,2 C -2,0 C 14,5 km/h (3 Bft) 100,00 %
17.12.2017 16:54 0,7 C 3,9 C 94 % 1021,8 hPa 0,0 l/m 12,0 km/h (2 Bft) W 265 0 min 0,000 mm 0,0 UV-I 0 W/m -0,2 C -4,2 C 14,5 km/h (3 Bft) 100,00 %
17.12.2017 16:55 0,7 C 3,9 C 94 % 1021,8 hPa 0,0 l/m 14,2 km/h (3 Bft) W-SW 248 0 min 0,000 mm 0,0 UV-I 0 W/m -0,2 C -5,7 C 20,9 km/h (4 Bft) 100,00 %
17.12.2017 16:56 0,7 C 3,9 C 94 % 1021,8 hPa 0,0 l/m 19,8 km/h (3 Bft) W 262 0 min 0,000 mm 0,0 UV-I 0 W/m -0,2 C -8,6 C 27,4 km/h (4 Bft) 100,00 %
17.12.2017 16:57 0,7 C 3,9 C 94 % 1021,8 hPa 0,0 l/m 18,1 km/h (3 Bft) SW 215 0 min 0,000 mm 0,0 UV-I 0 W/m -0,2 C -7,8 C 24,1 km/h (4 Bft) 100,00 %
17.12.2017 16:58 0,7 C 3,9 C 93 % 1021,8 hPa 0,0 l/m 18,6 km/h (3 Bft) W-SW 250 0 min 0,000 mm 0,0 UV-I 0 W/m -0,3 C -8,1 C 24,1 km/h (4 Bft) 100,00 %
17.12.2017 16:59 0,8 C 3,9 C 93 % 1021,8 hPa 0,0 l/m 15,6 km/h (3 Bft) W-SW 257 0 min 0,000 mm 0,0 UV-I 0 W/m -0,2 C -6,4 C 22,5 km/h (4 Bft) 100,00 %
17.12.2017 17:00 0,8 C 3,9 C 93 % 1021,8 hPa 0,0 l/m 10,9 km/h (2 Bft) W-SW 249 0 min 0,000 mm 0,0 UV-I 0 W/m -0,2 C -3,3 C 14,5 km/h (3 Bft) 100,00 %
17.12.2017 17:01 0,8 C 3,9 C 93 % 1021,8 hPa 0,0 l/m 15,4 km/h (3 Bft) W 271 0 min 0,000 mm 0,0 UV-I 0 W/m -0,2 C -6,2 C 20,9 km/h (4 Bft) 100,00 %
17.12.2017 17:02 0,8 C 3,9 C 93 % 1021,9 hPa 0,0 l/m 16,8 km/h (3 Bft) W-SW 238 0 min 0,000 mm 0,0 UV-I 0 W/m -0,2 C -7,0 C 24,1 km/h (4 Bft) 100,00 %
17.12.2017 17:03 0,8 C 3,9 C 93 % 1021,8 hPa 0,0 l/m 19,6 km/h (3 Bft) W 261 0 min 0,000 mm 0,0 UV-I 0 W/m -0,2 C -8,4 C 27,4 km/h (4 Bft) 100,00 %
17.12.2017 17:04 0,8 C 3,9 C 93 % 1021,8 hPa 0,0 l/m 14,6 km/h (3 Bft) W-SW 238 0 min 0,000 mm 0,0 UV-I 0 W/m -0,2 C -5,8 C 19,3 km/h (3 Bft) 100,00 %
17.12.2017 17:05 0,8 C 3,9 C 92 % 1021,9 hPa 0,0 l/m 17,8 km/h (3 Bft) W-NW 290 0 min 0,000 mm 0,0 UV-I 0 W/m -0,3 C -7,5 C 24,1 km/h (4 Bft) 100,00 %
17.12.2017 17:06 0,8 C 3,9 C 92 % 1021,9 hPa 0,0 l/m 15,1 km/h (3 Bft) W-SW 253 0 min 0,000 mm 0,0 UV-I 0 W/m -0,3 C -6,1 C 24,1 km/h (4 Bft) 100,00 %
17.12.2017 17:07 0,8 C 3,9 C 92 % 1021,9 hPa 0,0 l/m 16,5 km/h (3 Bft) W 264 0 min 0,000 mm 0,0 UV-I 0 W/m -0,3 C -6,9 C 20,9 km/h (4 Bft) 93,10 %
17.12.2017 17:08 0,8 C 3,9 C 92 % 1021,9 hPa 0,0 l/m 13,8 km/h (3 Bft) SW 224 0 min 0,000 mm 0,0 UV-I 0 W/m -0,3 C -5,3 C 20,9 km/h (4 Bft) 100,00 %
17.12.2017 17:09 0,8 C 3,9 C 92 % 1021,9 hPa 0,0 l/m 14,9 km/h (3 Bft) W 269 0 min 0,000 mm 0,0 UV-I 0 W/m -0,3 C -6,0 C 19,3 km/h (3 Bft) 100,00 %
17.12.2017 17:10 0,9 C 3,9 C 92 % 1021,9 hPa 0,0 l/m 18,7 km/h (3 Bft) W-SW 252 0 min 0,000 mm 0,0 UV-I 0 W/m -0,2 C -7,9 C 24,1 km/h (4 Bft) 96,88 %
17.12.2017 17:11 0,8 C 3,9 C 92 % 1022,0 hPa 0,0 l/m 15,6 km/h (3 Bft) W 262 0 min 0,000 mm 0,0 UV-I 0 W/m -0,3 C -6,4 C 19,3 km/h (3 Bft) 92,59 %
17.12.2017 17:12 0,8 C 3,9 C 92 % 1021,9 hPa 0,0 l/m 15,1 km/h (3 Bft) W-NW 292 0 min 0,000 mm 0,0 UV-I 0 W/m -0,3 C -6,1 C 19,3 km/h (3 Bft) 100,00 %
17.12.2017 17:13 0,8 C 3,9 C 92 % 1022,0 hPa 0,0 l/m 14,9 km/h (3 Bft) W 264 0 min 0,000 mm 0,0 UV-I 0 W/m -0,3 C -6,0 C 22,5 km/h (4 Bft) 91,67 %
17.12.2017 17:14 0,8 C 3,9 C 92 % 1022,0 hPa 0,0 l/m 15,2 km/h (3 Bft) W-SW 257 0 min 0,000 mm 0,0 UV-I 0 W/m -0,3 C -6,1 C 24,1 km/h (4 Bft) 100,00 %
17.12.2017 17:15 0,8 C 3,9 C 92 % 1021,9 hPa 0,0 l/m 20,2 km/h (4 Bft) W-SW 245 0 min 0,000 mm 0,0 UV-I 0 W/m -0,3 C -8,7 C 29,0 km/h (5 Bft) 95,24 %
17.12.2017 17:16 0,8 C 3,9 C 92 % 1021,9 hPa 0,0 l/m 15,7 km/h (3 Bft) W-SW 250 0 min 0,000 mm 0,0 UV-I 0 W/m -0,3 C -6,4 C 19,3 km/h (3 Bft) 92,86 %
17.12.2017 17:17 0,8 C 3,9 C 92 % 1021,9 hPa 0,0 l/m 15,7 km/h (3 Bft) W 259 0 min 0,000 mm 0,0 UV-I 0 W/m -0,3 C -6,4 C 24,1 km/h (4 Bft) 95,83 %
17.12.2017 17:18 0,8 C 3,9 C 92 % 1022,0 hPa 0,0 l/m 20,0 km/h (4 Bft) W-SW 237 0 min 0,000 mm 0,0 UV-I 0 W/m -0,3 C -8,6 C 25,7 km/h (4 Bft) 95,65 %
17.12.2017 17:19 0,8 C 3,9 C 92 % 1021,9 hPa 0,0 l/m 18,4 km/h (3 Bft) W-SW 256 0 min 0,000 mm 0,0 UV-I 0 W/m -0,3 C -7,8 C 24,1 km/h (4 Bft) 95,83 %
17.12.2017 17:20 0,8 C 3,9 C 91 % 1022,1 hPa 0,0 l/m 22,2 km/h (4 Bft) W 276 0 min 0,000 mm 0,0 UV-I 0 W/m -0,5 C -9,6 C 29,0 km/h (5 Bft) 93,10 %
17.12.2017 17:21 0,9 C 3,9 C 91 % 1022,0 hPa 0,0 l/m 18,9 km/h (3 Bft) W-SW 252 0 min 0,000 mm 0,0 UV-I 0 W/m -0,4 C -8,0 C 24,1 km/h (4 Bft) 95,83 %
17.12.2017 17:22 0,9 C 3,9 C 91 % 1022,0 hPa 0,0 l/m 17,9 km/h (3 Bft) W-SW 247 0 min 0,000 mm 0,0 UV-I 0 W/m -0,4 C -7,5 C 25,7 km/h (4 Bft) 92,86 %
17.12.2017 17:23 0,9 C 3,9 C 91 % 1022,0 hPa 0,0 l/m 17,2 km/h (3 Bft) W 267 0 min 0,000 mm 0,0 UV-I 0 W/m -0,4 C -7,1 C 22,5 km/h (4 Bft) 96,30 %
17.12.2017 17:24 0,9 C 3,9 C 91 % 1022,0 hPa 0,0 l/m 15,6 km/h (3 Bft) W-SW 246 0 min 0,000 mm 0,0 UV-I 0 W/m -0,4 C -6,2 C 19,3 km/h (3 Bft) 88,46 %
17.12.2017 17:25 0,9 C 3,9 C 91 % 1022,0 hPa 0,0 l/m 18,1 km/h (3 Bft) W 259 0 min 0,000 mm 0,0 UV-I 0 W/m -0,4 C -7,6 C 22,5 km/h (4 Bft) 96,15 %
17.12.2017 17:26 0,9 C 3,9 C 91 % 1022,0 hPa 0,0 l/m 19,0 km/h (3 Bft) W 261 0 min 0,000 mm 0,0 UV-I 0 W/m -0,4 C -8,0 C 24,1 km/h (4 Bft) 93,33 %
17.12.2017 17:27 0,9 C 3,9 C 91 % 1022,1 hPa 0,0 l/m 15,6 km/h (3 Bft) W-SW 244 0 min 0,000 mm 0,0 UV-I 0 W/m -0,4 C -6,2 C 19,3 km/h (3 Bft) 90,62 %
17.12.2017 17:28 0,9 C 3,9 C 91 % 1022,1 hPa 0,0 l/m 20,1 km/h (4 Bft) W 267 0 min 0,000 mm 0,0 UV-I 0 W/m -0,4 C -8,5 C 27,4 km/h (4 Bft) 100,00 %
17.12.2017 17:29 0,9 C 3,9 C 91 % 1022,1 hPa 0,0 l/m 15,0 km/h (3 Bft) W 268 0 min 0,000 mm 0,0 UV-I 0 W/m -0,4 C -5,9 C 22,5 km/h (4 Bft) 96,15 %
17.12.2017 17:30 0,9 C 3,9 C 91 % 1022,1 hPa 0,0 l/m 13,4 km/h (3 Bft) W 267 0 min 0,000 mm 0,0 UV-I 0 W/m -0,4 C -4,9 C 20,9 km/h (4 Bft) 91,67 %
17.12.2017 17:31 0,9 C 3,9 C 91 % 1022,2 hPa 0,0 l/m 17,6 km/h (3 Bft) W 269 0 min 0,000 mm 0,0 UV-I 0 W/m -0,4 C -7,3 C 20,9 km/h (4 Bft) 92,31 %
17.12.2017 17:32 0,9 C 3,9 C 91 % 1022,1 hPa 0,0 l/m 17,5 km/h (3 Bft) W 263 0 min 0,000 mm 0,0 UV-I 0 W/m -0,4 C -7,3 C 22,5 km/h (4 Bft) 100,00 %
17.12.2017 17:33 0,9 C 3,9 C 91 % 1022,3 hPa 0,0 l/m 14,2 km/h (3 Bft) W 281 0 min 0,000 mm 0,0 UV-I 0 W/m -0,4 C -5,4 C 19,3 km/h (3 Bft) 93,75 %
17.12.2017 17:34 0,9 C 3,9 C 91 % 1022,3 hPa 0,0 l/m 16,3 km/h (3 Bft) W 280 0 min 0,000 mm 0,0 UV-I 0 W/m -0,4 C -6,6 C 22,5 km/h (4 Bft) 100,00 %
17.12.2017 17:35 0,9 C 3,9 C 91 % 1022,3 hPa 0,0 l/m 22,1 km/h (4 Bft) W 261 0 min 0,000 mm 0,0 UV-I 0 W/m -0,4 C -9,4 C 29,0 km/h (5 Bft) 86,21 %
17.12.2017 17:36 0,9 C 3,9 C 91 % 1022,4 hPa 0,0 l/m 16,9 km/h (3 Bft) W-SW 254 0 min 0,000 mm 0,0 UV-I 0 W/m -0,4 C -6,9 C 24,1 km/h (4 Bft) 96,30 %
17.12.2017 17:37 1,0 C 3,9 C 91 % 1022,4 hPa 0,0 l/m 13,9 km/h (3 Bft) W 269 0 min 0,000 mm 0,0 UV-I 0 W/m -0,3 C -5,1 C 17,7 km/h (3 Bft) 93,33 %
17.12.2017 17:38 1,0 C 3,9 C 91 % 1022,4 hPa 0,0 l/m 14,6 km/h (3 Bft) W-SW 244 0 min 0,000 mm 0,0 UV-I 0 W/m -0,3 C -5,5 C 20,9 km/h (4 Bft) 96,15 %
17.12.2017 17:39 0,9 C 3,9 C 91 % 1022,4 hPa 0,0 l/m 14,4 km/h (3 Bft) W-SW 243 0 min 0,000 mm 0,0 UV-I 0 W/m -0,4 C -5,5 C 25,7 km/h (4 Bft) 93,75 %
17.12.2017 17:40 0,9 C 3,9 C 91 % 1022,4 hPa 0,0 l/m 19,4 km/h (3 Bft) W 265 0 min 0,000 mm 0,0 UV-I 0 W/m -0,4 C -8,2 C 22,5 km/h (4 Bft) 100,00 %
17.12.2017 17:41 0,9 C 3,9 C 91 % 1022,4 hPa 0,0 l/m 14,3 km/h (3 Bft) W 273 0 min 0,000 mm 0,0 UV-I 0 W/m -0,4 C -5,5 C 19,3 km/h (3 Bft) 96,30 %
17.12.2017 17:42 0,9 C 3,9 C 91 % 1022,4 hPa 0,0 l/m 19,0 km/h (3 Bft) W-SW 257 0 min 0,000 mm 0,0 UV-I 0 W/m -0,4 C -8,0 C 27,4 km/h (4 Bft) 93,10 %
17.12.2017 17:43 0,9 C 3,9 C 90 % 1022,4 hPa 0,0 l/m 19,6 km/h (3 Bft) W 262 0 min 0,000 mm 0,0 UV-I 0 W/m -0,6 C -8,3 C 25,7 km/h (4 Bft) 95,83 %
17.12.2017 17:44 1,0 C 3,9 C 90 % 1022,4 hPa 0,0 l/m 15,5 km/h (3 Bft) W-SW 246 0 min 0,000 mm 0,0 UV-I 0 W/m -0,5 C -6,1 C 19,3 km/h (3 Bft) 96,15 %
17.12.2017 17:45 0,9 C 3,9 C 91 % 1022,5 hPa 0,0 l/m 13,8 km/h (3 Bft) W 265 0 min 0,000 mm 0,0 UV-I 0 W/m -0,4 C -5,2 C 17,7 km/h (3 Bft) 91,67 %
17.12.2017 17:46 0,9 C 3,9 C 90 % 1022,5 hPa 0,0 l/m 16,5 km/h (3 Bft) W-SW 251 0 min 0,000 mm 0,0 UV-I 0 W/m -0,6 C -6,7 C 20,9 km/h (4 Bft) 96,15 %
17.12.2017 17:47 0,9 C 3,9 C 90 % 1022,5 hPa 0,0 l/m 15,9 km/h (3 Bft) W-SW 248 0 min 0,000 mm 0,0 UV-I 0 W/m -0,6 C -6,4 C 20,9 km/h (4 Bft) 96,67 %
17.12.2017 17:48 1,0 C 3,9 C 91 % 1022,5 hPa 0,0 l/m 16,6 km/h (3 Bft) W 263 0 min 0,000 mm 0,0 UV-I 0 W/m -0,3 C -6,7 C 20,9 km/h (4 Bft) 85,71 %
17.12.2017 17:49 0,9 C 3,9 C 91 % 1022,5 hPa 0,0 l/m 13,6 km/h (3 Bft) W-SW 239 0 min 0,000 mm 0,0 UV-I 0 W/m -0,4 C -5,0 C 24,1 km/h (4 Bft) 100,00 %
17.12.2017 17:50 0,9 C 3,9 C 91 % 1022,6 hPa 0,0 l/m 10,5 km/h (2 Bft) W-SW 239 0 min 0,000 mm 0,0 UV-I 0 W/m -0,4 C -2,9 C 16,1 km/h (3 Bft) 95,65 %
17.12.2017 17:51 0,9 C 3,9 C 91 % 1022,6 hPa 0,0 l/m 12,6 km/h (3 Bft) SW 215 0 min 0,000 mm 0,0 UV-I 0 W/m -0,4 C -4,4 C 17,7 km/h (3 Bft) 95,83 %
17.12.2017 17:52 0,9 C 3,9 C 91 % 1022,6 hPa 0,0 l/m 13,0 km/h (3 Bft) W-SW 248 0 min 0,000 mm 0,0 UV-I 0 W/m -0,4 C -4,6 C 16,1 km/h (3 Bft) 96,15 %
17.12.2017 17:53 0,9 C 3,9 C 91 % 1022,6 hPa 0,0 l/m 10,4 km/h (2 Bft) W-SW 254 0 min 0,000 mm 0,0 UV-I 0 W/m -0,4 C -2,8 C 14,5 km/h (3 Bft) 95,83 %
17.12.2017 17:54 0,9 C 3,9 C 91 % 1022,6 hPa 0,0 l/m 13,5 km/h (3 Bft) W 261 0 min 0,000 mm 0,0 UV-I 0 W/m -0,4 C -5,0 C 16,1 km/h (3 Bft) 95,65 %
17.12.2017 17:55 0,9 C 3,9 C 91 % 1022,6 hPa 0,0 l/m 10,5 km/h (2 Bft) W-SW 242 0 min 0,000 mm 0,0 UV-I 0 W/m -0,4 C -2,9 C 14,5 km/h (3 Bft) 95,83 %
17.12.2017 17:56 0,9 C 3,9 C 91 % 1022,5 hPa 0,0 l/m 10,9 km/h (2 Bft) W 272 0 min 0,000 mm 0,0 UV-I 0 W/m -0,4 C -3,2 C 19,3 km/h (3 Bft) 100,00 %
17.12.2017 17:57 0,9 C 3,9 C 91 % 1022,6 hPa 0,0 l/m 12,9 km/h (3 Bft) SW 232 0 min 0,000 mm 0,0 UV-I 0 W/m -0,4 C -4,6 C 17,7 km/h (3 Bft) 93,75 %
17.12.2017 17:58 0,9 C 3,9 C 91 % 1022,6 hPa 0,0 l/m 12,8 km/h (3 Bft) W 259 0 min 0,000 mm 0,0 UV-I 0 W/m -0,4 C -4,5 C 19,3 km/h (3 Bft) 100,00 %
17.12.2017 17:59 0,9 C 3,9 C 91 % 1022,6 hPa 0,0 l/m 12,1 km/h (2 Bft) W-SW 251 0 min 0,000 mm 0,0 UV-I 0 W/m -0,4 C -4,0 C 16,1 km/h (3 Bft) 92,86 %
17.12.2017 18:00 0,9 C 3,9 C 91 % 1022,6 hPa 0,0 l/m 10,7 km/h (2 Bft) W 268 0 min 0,000 mm 0,0 UV-I 0 W/m -0,4 C -3,0 C 14,5 km/h (3 Bft) 100,00 %
17.12.2017 18:01 0,9 C 3,9 C 91 % 1022,7 hPa 0,0 l/m 14,0 km/h (3 Bft) W 265 0 min 0,000 mm 0,0 UV-I 0 W/m -0,4 C -5,3 C 20,9 km/h (4 Bft) 95,65 %
17.12.2017 18:02 0,8 C 3,9 C 91 % 1022,7 hPa 0,0 l/m 12,5 km/h (3 Bft) W-SW 250 0 min 0,000 mm 0,0 UV-I 0 W/m -0,5 C -4,4 C 19,3 km/h (3 Bft) 96,30 %
17.12.2017 18:03 0,9 C 3,9 C 91 % 1022,7 hPa 0,0 l/m 14,1 km/h (3 Bft) W-SW 255 0 min 0,000 mm 0,0 UV-I 0 W/m -0,4 C -5,3 C 19,3 km/h (3 Bft) 100,00 %
17.12.2017 18:04 0,9 C 3,9 C 91 % 1022,7 hPa 0,0 l/m 13,3 km/h (3 Bft) W-SW 250 0 min 0,000 mm 0,0 UV-I 0 W/m -0,4 C -4,8 C 20,9 km/h (4 Bft) 95,83 %
17.12.2017 18:05 0,9 C 3,9 C 91 % 1022,7 hPa 0,0 l/m 13,2 km/h (3 Bft) W-SW 244 0 min 0,000 mm 0,0 UV-I 0 W/m -0,4 C -4,8 C 19,3 km/h (3 Bft) 100,00 %
17.12.2017 18:06 0,9 C 3,9 C 91 % 1022,7 hPa 0,0 l/m 14,8 km/h (3 Bft) W-SW 254 0 min 0,000 mm 0,0 UV-I 0 W/m -0,4 C -5,8 C 19,3 km/h (3 Bft) 95,83 %
17.12.2017 18:07 0,9 C 3,9 C 91 % 1022,7 hPa 0,0 l/m 15,4 km/h (3 Bft) W 260 0 min 0,000 mm 0,0 UV-I 0 W/m -0,4 C -6,1 C 19,3 km/h (3 Bft) 100,00 %
17.12.2017 18:08 0,9 C 3,9 C 91 % 1022,7 hPa 0,0 l/m 11,9 km/h (2 Bft) W-NW 288 0 min 0,000 mm 0,0 UV-I 0 W/m -0,4 C -3,9 C 16,1 km/h (3 Bft) 92,86 %
17.12.2017 18:09 0,9 C 3,9 C 91 % 1022,7 hPa 0,0 l/m 11,1 km/h (2 Bft) W-SW 244 0 min 0,000 mm 0,0 UV-I 0 W/m -0,4 C -3,3 C 16,1 km/h (3 Bft) 100,00 %
17.12.2017 18:10 0,9 C 3,9 C 91 % 1022,8 hPa 0,0 l/m 16,2 km/h (3 Bft) W-SW 254 0 min 0,000 mm 0,0 UV-I 0 W/m -0,4 C -6,6 C 22,5 km/h (4 Bft) 95,65 %
17.12.2017 18:11 0,9 C 3,9 C 91 % 1022,8 hPa 0,0 l/m 12,7 km/h (3 Bft) W 259 0 min 0,000 mm 0,0 UV-I 0 W/m -0,4 C -4,4 C 17,7 km/h (3 Bft) 100,00 %
17.12.2017 18:12 0,9 C 3,9 C 91 % 1022,8 hPa 0,0 l/m 14,1 km/h (3 Bft) W-SW 250 0 min 0,000 mm 0,0 UV-I 0 W/m -0,4 C -5,3 C 20,9 km/h (4 Bft) 95,65 %
17.12.2017 18:13 0,9 C 3,9 C 91 % 1022,8 hPa 0,0 l/m 19,5 km/h (3 Bft) W-SW 246 0 min 0,000 mm 0,0 UV-I 0 W/m -0,4 C -8,2 C 24,1 km/h (4 Bft) 100,00 %
17.12.2017 18:14 0,9 C 3,9 C 90 % 1022,8 hPa 0,0 l/m 15,2 km/h (3 Bft) W-SW 243 0 min 0,000 mm 0,0 UV-I 0 W/m -0,6 C -6,0 C 22,5 km/h (4 Bft) 96,15 %
17.12.2017 18:15 0,9 C 3,9 C 91 % 1022,8 hPa 0,0 l/m 15,1 km/h (3 Bft) W 276 0 min 0,000 mm 0,0 UV-I 0 W/m -0,4 C -5,9 C 17,7 km/h (3 Bft) 96,30 %
17.12.2017 18:16 0,9 C 3,9 C 90 % 1022,8 hPa 0,0 l/m 12,9 km/h (3 Bft) W-SW 249 0 min 0,000 mm 0,0 UV-I 0 W/m -0,6 C -4,6 C 17,7 km/h (3 Bft) 100,00 %
17.12.2017 18:17 0,9 C 3,9 C 90 % 1022,9 hPa 0,0 l/m 11,3 km/h (2 Bft) W 263 0 min 0,000 mm 0,0 UV-I 0 W/m -0,6 C -3,5 C 19,3 km/h (3 Bft) 100,00 %
17.12.2017 18:18 0,9 C 3,9 C 90 % 1022,9 hPa 0,0 l/m 15,1 km/h (3 Bft) W-SW 247 0 min 0,000 mm 0,0 UV-I 0 W/m -0,6 C -5,9 C 25,7 km/h (4 Bft) 100,00 %
17.12.2017 18:19 0,9 C 3,9 C 90 % 1022,9 hPa 0,0 l/m 12,7 km/h (3 Bft) SW 235 0 min 0,000 mm 0,0 UV-I 0 W/m -0,6 C -4,4 C 19,3 km/h (3 Bft) 92,86 %
17.12.2017 18:20 0,9 C 3,9 C 90 % 1022,9 hPa 0,0 l/m 14,2 km/h (3 Bft) W 259 0 min 0,000 mm 0,0 UV-I 0 W/m -0,6 C -5,4 C 19,3 km/h (3 Bft) 100,00 %
17.12.2017 18:21 0,9 C 3,9 C 90 % 1022,9 hPa 0,0 l/m 17,8 km/h (3 Bft) W-SW 243 0 min 0,000 mm 0,0 UV-I 0 W/m -0,6 C -7,4 C 20,9 km/h (4 Bft) 100,00 %
17.12.2017 18:22 0,9 C 3,9 C 90 % 1022,9 hPa 0,0 l/m 12,9 km/h (3 Bft) W-SW 244 0 min 0,000 mm 0,0 UV-I 0 W/m -0,6 C -4,6 C 17,7 km/h (3 Bft) 100,00 %
17.12.2017 18:23 0,9 C 3,9 C 90 % 1022,9 hPa 0,0 l/m 15,2 km/h (3 Bft) W-SW 257 0 min 0,000 mm 0,0 UV-I 0 W/m -0,6 C -6,0 C 20,9 km/h (4 Bft) 100,00 %
17.12.2017 18:24 0,9 C 3,9 C 90 % 1022,9 hPa 0,0 l/m 16,2 km/h (3 Bft) SW 235 0 min 0,000 mm 0,0 UV-I 0 W/m -0,6 C -6,6 C 24,1 km/h (4 Bft) 95,83 %
17.12.2017 18:25 0,9 C 3,9 C 90 % 1022,9 hPa 0,0 l/m 16,8 km/h (3 Bft) W-SW 255 0 min 0,000 mm 0,0 UV-I 0 W/m -0,6 C -6,9 C 22,5 km/h (4 Bft) 100,00 %
17.12.2017 18:26 0,9 C 3,9 C 90 % 1022,9 hPa 0,0 l/m 18,5 km/h (3 Bft) W-SW 257 0 min 0,000 mm 0,0 UV-I 0 W/m -0,6 C -7,8 C 27,4 km/h (4 Bft) 100,00 %
17.12.2017 18:27 0,9 C 3,9 C 90 % 1022,9 hPa 0,0 l/m 17,4 km/h (3 Bft) W-SW 246 0 min 0,000 mm 0,0 UV-I 0 W/m -0,6 C -7,2 C 20,9 km/h (4 Bft) 100,00 %
17.12.2017 18:28 0,9 C 3,9 C 90 % 1022,9 hPa 0,0 l/m 13,2 km/h (3 Bft) W 261 0 min 0,000 mm 0,0 UV-I 0 W/m -0,6 C -4,8 C 16,1 km/h (3 Bft) 100,00 %
17.12.2017 18:29 0,9 C 3,9 C 90 % 1022,9 hPa 0,0 l/m 19,8 km/h (3 Bft) W-SW 257 0 min 0,000 mm 0,0 UV-I 0 W/m -0,6 C -8,4 C 29,0 km/h (5 Bft) 100,00 %
17.12.2017 18:30 0,9 C 3,9 C 90 % 1022,9 hPa 0,0 l/m 21,8 km/h (4 Bft) W-SW 245 0 min 0,000 mm 0,0 UV-I 0 W/m -0,6 C -9,3 C 27,4 km/h (4 Bft) 100,00 %
17.12.2017 18:31 0,9 C 3,9 C 90 % 1023,0 hPa 0,0 l/m 15,9 km/h (3 Bft) W-SW 243 0 min 0,000 mm 0,0 UV-I 0 W/m -0,6 C -6,4 C 22,5 km/h (4 Bft) 100,00 %
17.12.2017 18:32 0,9 C 3,9 C 90 % 1022,9 hPa 0,0 l/m 11,6 km/h (2 Bft) W 264 0 min 0,000 mm 0,0 UV-I 0 W/m -0,6 C -3,7 C 16,1 km/h (3 Bft) 100,00 %
17.12.2017 18:33 0,9 C 3,9 C 90 % 1022,9 hPa 0,0 l/m 16,9 km/h (3 Bft) SW 228 0 min 0,000 mm 0,0 UV-I 0 W/m -0,6 C -6,9 C 27,4 km/h (4 Bft) 100,00 %
17.12.2017 18:34 0,9 C 3,9 C 90 % 1022,9 hPa 0,0 l/m 17,0 km/h (3 Bft) W-SW 248 0 min 0,000 mm 0,0 UV-I 0 W/m -0,6 C -7,0 C 20,9 km/h (4 Bft) 100,00 %
17.12.2017 18:35 0,9 C 3,9 C 90 % 1022,9 hPa 0,0 l/m 19,2 km/h (3 Bft) W-SW 245 0 min 0,000 mm 0,0 UV-I 0 W/m -0,6 C -8,1 C 29,0 km/h (5 Bft) 100,00 %
17.12.2017 18:36 0,9 C 3,9 C 90 % 1022,9 hPa 0,0 l/m 22,7 km/h (4 Bft) SW 223 0 min 0,000 mm 0,0 UV-I 0 W/m -0,6 C -9,6 C 29,0 km/h (5 Bft) 95,65 %
17.12.2017 18:37 0,9 C 3,9 C 90 % 1022,9 hPa 0,0 l/m 17,0 km/h (3 Bft) SW 230 0 min 0,000 mm 0,0 UV-I 0 W/m -0,6 C -7,0 C 20,9 km/h (4 Bft) 100,00 %
17.12.2017 18:38 0,9 C 3,9 C 90 % 1022,9 hPa 0,0 l/m 13,8 km/h (3 Bft) W 281 0 min 0,000 mm 0,0 UV-I 0 W/m -0,6 C -5,2 C 19,3 km/h (3 Bft) 100,00 %
17.12.2017 18:39 0,9 C 3,9 C 90 % 1023,0 hPa 0,0 l/m 13,8 km/h (3 Bft) W-SW 244 0 min 0,000 mm 0,0 UV-I 0 W/m -0,6 C -5,2 C 16,1 km/h (3 Bft) 100,00 %
17.12.2017 18:40 0,9 C 3,9 C 90 % 1023,0 hPa 0,0 l/m 14,7 km/h (3 Bft) SW 230 0 min 0,000 mm 0,0 UV-I 0 W/m -0,6 C -5,7 C 20,9 km/h (4 Bft) 100,00 %
17.12.2017 18:41 0,8 C 3,9 C 90 % 1023,0 hPa 0,0 l/m 16,4 km/h (3 Bft) W-NW 283 0 min 0,000 mm 0,0 UV-I 0 W/m -0,6 C -6,8 C 22,5 km/h (4 Bft) 100,00 %
17.12.2017 18:42 0,8 C 3,9 C 90 % 1023,0 hPa 0,0 l/m 14,0 km/h (3 Bft) W 259 0 min 0,000 mm 0,0 UV-I 0 W/m -0,6 C -5,4 C 20,9 km/h (4 Bft) 100,00 %
17.12.2017 18:43 0,8 C 3,9 C 90 % 1023,0 hPa 0,0 l/m 11,5 km/h (2 Bft) W 275 0 min 0,000 mm 0,0 UV-I 0 W/m -0,6 C -3,7 C 14,5 km/h (3 Bft) 100,00 %
17.12.2017 18:44 0,8 C 3,9 C 90 % 1023,0 hPa 0,0 l/m 13,7 km/h (3 Bft) W 266 0 min 0,000 mm 0,0 UV-I 0 W/m -0,6 C -5,2 C 20,9 km/h (4 Bft) 100,00 %
17.12.2017 18:45 0,8 C 3,9 C 90 % 1023,0 hPa 0,0 l/m 13,0 km/h (3 Bft) W-SW 237 0 min 0,000 mm 0,0 UV-I 0 W/m -0,6 C -4,8 C 17,7 km/h (3 Bft) 100,00 %
17.12.2017 18:46 0,8 C 3,9 C 90 % 1023,0 hPa 0,0 l/m 16,8 km/h (3 Bft) SW 221 0 min 0,000 mm 0,0 UV-I 0 W/m -0,6 C -7,0 C 20,9 km/h (4 Bft) 100,00 %
17.12.2017 18:47 0,8 C 3,9 C 90 % 1023,0 hPa 0,0 l/m 15,5 km/h (3 Bft) W 265 0 min 0,000 mm 0,0 UV-I 0 W/m -0,6 C -6,3 C 20,9 km/h (4 Bft) 100,00 %
17.12.2017 18:48 0,8 C 3,9 C 90 % 1023,0 hPa 0,0 l/m 14,6 km/h (3 Bft) W 269 0 min 0,000 mm 0,0 UV-I 0 W/m -0,6 C -5,8 C 19,3 km/h (3 Bft) 100,00 %
17.12.2017 18:49 0,8 C 3,9 C 90 % 1023,0 hPa 0,0 l/m 14,0 km/h (3 Bft) W-SW 246 0 min 0,000 mm 0,0 UV-I 0 W/m -0,6 C -5,4 C 19,3 km/h (3 Bft) 100,00 %
17.12.2017 18:50 0,8 C 3,9 C 90 % 1023,1 hPa 0,0 l/m 16,3 km/h (3 Bft) W-SW 240 0 min 0,000 mm 0,0 UV-I 0 W/m -0,6 C -6,8 C 20,9 km/h (4 Bft) 100,00 %
17.12.2017 18:51 0,8 C 3,9 C 90 % 1023,0 hPa 0,0 l/m 15,7 km/h (3 Bft) W 262 0 min 0,000 mm 0,0 UV-I 0 W/m -0,6 C -6,4 C 20,9 km/h (4 Bft) 100,00 %
17.12.2017 18:52 0,8 C 3,9 C 90 % 1023,0 hPa 0,0 l/m 12,9 km/h (3 Bft) SW 232 0 min 0,000 mm 0,0 UV-I 0 W/m -0,6 C -4,7 C 19,3 km/h (3 Bft) 100,00 %
17.12.2017 18:53 0,8 C 3,9 C 90 % 1023,0 hPa 0,0 l/m 15,8 km/h (3 Bft) S-SW 210 0 min 0,000 mm 0,0 UV-I 0 W/m -0,6 C -6,5 C 22,5 km/h (4 Bft) 100,00 %
17.12.2017 18:54 0,8 C 3,9 C 90 % 1023,1 hPa 0,0 l/m 12,0 km/h (2 Bft) W-SW 245 0 min 0,000 mm 0,0 UV-I 0 W/m -0,6 C -4,1 C 17,7 km/h (3 Bft) 100,00 %
17.12.2017 18:55 0,8 C 3,9 C 90 % 1023,0 hPa 0,0 l/m 14,5 km/h (3 Bft) W 263 0 min 0,000 mm 0,0 UV-I 0 W/m -0,6 C -5,7 C 22,5 km/h (4 Bft) 100,00 %
17.12.2017 18:56 0,8 C 3,9 C 90 % 1023,0 hPa 0,0 l/m 14,2 km/h (3 Bft) SW 225 0 min 0,000 mm 0,0 UV-I 0 W/m -0,6 C -5,5 C 24,1 km/h (4 Bft) 100,00 %
17.12.2017 18:57 0,8 C 3,9 C 90 % 1023,0 hPa 0,0 l/m 15,8 km/h (3 Bft) SW 235 0 min 0,000 mm 0,0 UV-I 0 W/m -0,6 C -6,5 C 22,5 km/h (4 Bft) 100,00 %
17.12.2017 18:58 0,8 C 3,9 C 90 % 1023,1 hPa 0,0 l/m 14,4 km/h (3 Bft) SW 226 0 min 0,000 mm 0,0 UV-I 0 W/m -0,6 C -5,7 C 22,5 km/h (4 Bft) 100,00 %
17.12.2017 18:59 0,8 C 3,9 C 90 % 1023,1 hPa 0,0 l/m 19,4 km/h (3 Bft) SW 231 0 min 0,000 mm 0,0 UV-I 0 W/m -0,6 C -8,3 C 24,1 km/h (4 Bft) 100,00 %
17.12.2017 19:00 0,8 C 3,9 C 90 % 1023,1 hPa 0,0 l/m 18,5 km/h (3 Bft) W-NW 291 0 min 0,000 mm 0,0 UV-I 0 W/m -0,6 C -7,9 C 25,7 km/h (4 Bft) 100,00 %
17.12.2017 19:01 0,8 C 3,9 C 90 % 1023,1 hPa 0,0 l/m 16,0 km/h (3 Bft) W-SW 253 0 min 0,000 mm 0,0 UV-I 0 W/m -0,6 C -6,6 C 22,5 km/h (4 Bft) 100,00 %
17.12.2017 19:03 0,8 C 3,9 C 90 % 1023,2 hPa 0,0 l/m 15,2 km/h (3 Bft) W 259 0 min 0,000 mm 0,0 UV-I 0 W/m -0,6 C -6,1 C 27,4 km/h (4 Bft) 100,00 %
17.12.2017 19:04 0,8 C 3,9 C 90 % 1023,2 hPa 0,0 l/m 20,6 km/h (4 Bft) W-SW 248 0 min 0,000 mm 0,0 UV-I 0 W/m -0,6 C -8,9 C 29,0 km/h (5 Bft) 100,00 %
17.12.2017 19:05 0,9 C 3,9 C 90 % 1023,1 hPa 0,0 l/m 15,7 km/h (3 Bft) SW 217 0 min 0,000 mm 0,0 UV-I 0 W/m -0,6 C -6,3 C 20,9 km/h (4 Bft) 100,00 %
17.12.2017 19:06 0,8 C 3,9 C 89 % 1023,2 hPa 0,0 l/m 10,8 km/h (2 Bft) W-SW 247 0 min 0,000 mm 0,0 UV-I 0 W/m -0,8 C -3,2 C 16,1 km/h (3 Bft) 100,00 %
17.12.2017 19:07 0,8 C 3,9 C 89 % 1023,2 hPa 0,0 l/m 15,2 km/h (3 Bft) W-SW 242 0 min 0,000 mm 0,0 UV-I 0 W/m -0,8 C -6,1 C 20,9 km/h (4 Bft) 100,00 %
17.12.2017 19:08 0,8 C 3,9 C 90 % 1023,2 hPa 0,0 l/m 13,7 km/h (3 Bft) SW 234 0 min 0,000 mm 0,0 UV-I 0 W/m -0,6 C -5,2 C 19,3 km/h (3 Bft) 100,00 %
17.12.2017 19:09 0,8 C 3,9 C 89 % 1023,2 hPa 0,0 l/m 11,9 km/h (2 Bft) W-SW 252 0 min 0,000 mm 0,0 UV-I 0 W/m -0,8 C -4,0 C 14,5 km/h (3 Bft) 100,00 %
17.12.2017 19:10 0,8 C 3,9 C 89 % 1023,2 hPa 0,0 l/m 15,2 km/h (3 Bft) W-SW 249 0 min 0,000 mm 0,0 UV-I 0 W/m -0,8 C -6,1 C 20,9 km/h (4 Bft) 100,00 %
17.12.2017 19:11 0,8 C 3,9 C 89 % 1023,2 hPa 0,0 l/m 15,0 km/h (3 Bft) SW 222 0 min 0,000 mm 0,0 UV-I 0 W/m -0,8 C -6,0 C 20,9 km/h (4 Bft) 100,00 %
17.12.2017 19:12 0,8 C 3,9 C 89 % 1023,2 hPa 0,0 l/m 18,1 km/h (3 Bft) SW 221 0 min 0,000 mm 0,0 UV-I 0 W/m -0,8 C -7,7 C 27,4 km/h (4 Bft) 100,00 %
17.12.2017 19:13 0,8 C 3,9 C 89 % 1023,2 hPa 0,0 l/m 15,8 km/h (3 Bft) W 259 0 min 0,000 mm 0,0 UV-I 0 W/m -0,8 C -6,5 C 20,9 km/h (4 Bft) 96,15 %
17.12.2017 19:14 0,8 C 3,9 C 89 % 1023,2 hPa 0,0 l/m 13,9 km/h (3 Bft) SW 231 0 min 0,000 mm 0,0 UV-I 0 W/m -0,8 C -5,3 C 20,9 km/h (4 Bft) 100,00 %
17.12.2017 19:15 0,8 C 3,9 C 89 % 1023,2 hPa 0,0 l/m 14,8 km/h (3 Bft) W-SW 247 0 min 0,000 mm 0,0 UV-I 0 W/m -0,8 C -5,9 C 22,5 km/h (4 Bft) 96,30 %
17.12.2017 19:16 0,8 C 3,9 C 89 % 1023,2 hPa 0,0 l/m 12,1 km/h (2 Bft) W-SW 237 0 min 0,000 mm 0,0 UV-I 0 W/m -0,8 C -4,2 C 20,9 km/h (4 Bft) 91,67 %
17.12.2017 19:17 0,8 C 3,9 C 89 % 1023,2 hPa 0,0 l/m 15,3 km/h (3 Bft) W-SW 255 0 min 0,000 mm 0,0 UV-I 0 W/m -0,8 C -6,2 C 20,9 km/h (4 Bft) 96,15 %
17.12.2017 19:18 0,8 C 3,9 C 89 % 1023,3 hPa 0,0 l/m 18,6 km/h (3 Bft) W 272 0 min 0,000 mm 0,0 UV-I 0 W/m -0,8 C -7,9 C 24,1 km/h (4 Bft) 100,00 %
17.12.2017 19:19 0,8 C 3,9 C 89 % 1023,2 hPa 0,0 l/m 12,7 km/h (3 Bft) W 259 0 min 0,000 mm 0,0 UV-I 0 W/m -0,8 C -4,6 C 17,7 km/h (3 Bft) 100,00 %
17.12.2017 19:20 0,8 C 3,9 C 89 % 1023,2 hPa 0,0 l/m 10,4 km/h (2 Bft) SW 223 0 min 0,000 mm 0,0 UV-I 0 W/m -0,8 C -2,9 C 14,5 km/h (3 Bft) 100,00 %
17.12.2017 19:21 0,8 C 3,9 C 89 % 1023,3 hPa 0,0 l/m 10,5 km/h (2 Bft) SW 227 0 min 0,000 mm 0,0 UV-I 0 W/m -0,8 C -3,0 C 14,5 km/h (3 Bft) 100,00 %
17.12.2017 19:22 0,8 C 3,9 C 89 % 1023,3 hPa 0,0 l/m 12,6 km/h (3 Bft) W 259 0 min 0,000 mm 0,0 UV-I 0 W/m -0,8 C -4,5 C 17,7 km/h (3 Bft) 95,83 %
17.12.2017 19:23 0,8 C 3,9 C 89 % 1023,3 hPa 0,0 l/m 14,7 km/h (3 Bft) W-SW 257 0 min 0,000 mm 0,0 UV-I 0 W/m -0,8 C -5,8 C 16,1 km/h (3 Bft) 96,88 %
17.12.2017 19:24 0,8 C 3,9 C 89 % 1023,4 hPa 0,0 l/m 15,4 km/h (3 Bft) W 272 0 min 0,000 mm 0,0 UV-I 0 W/m -0,8 C -6,2 C 19,3 km/h (3 Bft) 100,00 %
17.12.2017 19:25 0,8 C 3,9 C 89 % 1023,4 hPa 0,0 l/m 22,5 km/h (4 Bft) SW 235 0 min 0,000 mm 0,0 UV-I 0 W/m -0,8 C -9,7 C 27,4 km/h (4 Bft) 95,65 %
17.12.2017 19:26 0,8 C 3,9 C 89 % 1023,4 hPa 0,0 l/m 18,3 km/h (3 Bft) W-SW 242 0 min 0,000 mm 0,0 UV-I 0 W/m -0,8 C -7,8 C 24,1 km/h (4 Bft) 91,67 %
17.12.2017 19:27 0,8 C 3,9 C 88 % 1023,4 hPa 0,0 l/m 17,0 km/h (3 Bft) W-SW 256 0 min 0,000 mm 0,0 UV-I 0 W/m -1,0 C -7,1 C 20,9 km/h (4 Bft) 96,55 %
17.12.2017 19:28 0,9 C 3,9 C 88 % 1023,4 hPa 0,0 l/m 12,0 km/h (2 Bft) W-SW 254 0 min 0,000 mm 0,0 UV-I 0 W/m -0,9 C -4,0 C 16,1 km/h (3 Bft) 96,67 %
17.12.2017 19:29 0,9 C 3,9 C 88 % 1023,4 hPa 0,0 l/m 12,9 km/h (3 Bft) W-SW 254 0 min 0,000 mm 0,0 UV-I 0 W/m -0,9 C -4,6 C 20,9 km/h (4 Bft) 98,31 %
17.12.2017 19:30 0,9 C 3,9 C 88 % 1023,4 hPa 0,0 l/m 13,1 km/h (3 Bft) W-SW 252 0 min 0,000 mm 0,0 UV-I 0 W/m -0,9 C -4,7 C 16,1 km/h (3 Bft) 97,56 %
17.12.2017 19:31 0,9 C 3,9 C 88 % 1023,4 hPa 0,0 l/m 11,2 km/h (2 Bft) W-SW 252 0 min 0,000 mm 0,0 UV-I 0 W/m -0,9 C -3,4 C 16,1 km/h (3 Bft) 95,83 %
17.12.2017 19:32 0,8 C 3,9 C 88 % 1023,4 hPa 0,0 l/m 11,3 km/h (2 Bft) W 279 0 min 0,000 mm 0,0 UV-I 0 W/m -1,0 C -3,6 C 14,5 km/h (3 Bft) 100,00 %
17.12.2017 19:33 0,8 C 3,9 C 89 % 1023,5 hPa 0,0 l/m 13,6 km/h (3 Bft) W 271 0 min 0,000 mm 0,0 UV-I 0 W/m -0,8 C -5,2 C 20,9 km/h (4 Bft) 96,30 %
17.12.2017 19:34 0,8 C 3,9 C 89 % 1023,5 hPa 0,0 l/m 17,7 km/h (3 Bft) W-SW 250 0 min 0,000 mm 0,0 UV-I 0 W/m -0,8 C -7,5 C 25,7 km/h (4 Bft) 91,30 %
17.12.2017 19:35 0,8 C 3,9 C 89 % 1023,5 hPa 0,0 l/m 13,3 km/h (3 Bft) W-SW 252 0 min 0,000 mm 0,0 UV-I 0 W/m -0,8 C -5,0 C 17,7 km/h (3 Bft) 100,00 %
17.12.2017 19:36 0,8 C 3,9 C 89 % 1023,5 hPa 0,0 l/m 10,1 km/h (2 Bft) W-SW 239 0 min 0,000 mm 0,0 UV-I 0 W/m -0,8 C -2,6 C 16,1 km/h (3 Bft) 96,15 %
17.12.2017 19:37 0,8 C 3,9 C 89 % 1023,5 hPa 0,0 l/m 10,1 km/h (2 Bft) W 263 0 min 0,000 mm 0,0 UV-I 0 W/m -0,8 C -2,6 C 12,9 km/h (3 Bft) 100,00 %
17.12.2017 19:38 0,8 C 3,9 C 89 % 1023,5 hPa 0,0 l/m 10,1 km/h (2 Bft) SW 236 0 min 0,000 mm 0,0 UV-I 0 W/m -0,8 C -2,6 C 12,9 km/h (3 Bft) 92,31 %
17.12.2017 19:39 0,8 C 3,9 C 89 % 1023,5 hPa 0,0 l/m 11,5 km/h (2 Bft) W-SW 249 0 min 0,000 mm 0,0 UV-I 0 W/m -0,8 C -3,7 C 17,7 km/h (3 Bft) 98,24 %
17.12.2017 19:40 0,8 C 3,9 C 89 % 1023,5 hPa 0,0 l/m 19,8 km/h (3 Bft) W-SW 257 0 min 0,000 mm 0,0 UV-I 0 W/m -0,8 C -8,5 C 29,0 km/h (5 Bft) 97,73 %
17.12.2017 19:41 0,8 C 3,9 C 89 % 1023,4 hPa 0,0 l/m 12,5 km/h (3 Bft) W-SW 246 0 min 0,000 mm 0,0 UV-I 0 W/m -0,8 C -4,4 C 17,7 km/h (3 Bft) 95,83 %
17.12.2017 19:42 0,8 C 3,9 C 89 % 1023,5 hPa 0,0 l/m 13,9 km/h (3 Bft) W-SW 247 0 min 0,000 mm 0,0 UV-I 0 W/m -0,8 C -5,3 C 17,7 km/h (3 Bft) 100,00 %
17.12.2017 19:43 0,8 C 3,9 C 88 % 1023,6 hPa 0,0 l/m 17,8 km/h (3 Bft) W-SW 238 0 min 0,000 mm 0,0 UV-I 0 W/m -1,0 C -7,5 C 25,7 km/h (4 Bft) 93,10 %
17.12.2017 19:44 0,8 C 3,9 C 88 % 1023,5 hPa 0,0 l/m 20,5 km/h (4 Bft) W-SW 244 0 min 0,000 mm 0,0 UV-I 0 W/m -1,0 C -8,8 C 27,4 km/h (4 Bft) 100,00 %
17.12.2017 19:45 0,9 C 3,9 C 88 % 1023,5 hPa 0,0 l/m 18,2 km/h (3 Bft) W 263 0 min 0,000 mm 0,0 UV-I 0 W/m -0,9 C -7,6 C 24,1 km/h (4 Bft) 96,55 %
17.12.2017 19:46 0,9 C 3,9 C 88 % 1023,5 hPa 0,0 l/m 19,2 km/h (3 Bft) W 273 0 min 0,000 mm 0,0 UV-I 0 W/m -0,9 C -8,1 C 24,1 km/h (4 Bft) 100,00 %
17.12.2017 19:47 0,9 C 3,9 C 88 % 1023,6 hPa 0,0 l/m 21,6 km/h (4 Bft) SW 232 0 min 0,000 mm 0,0 UV-I 0 W/m -0,9 C -9,2 C 29,0 km/h (5 Bft) 96,15 %
17.12.2017 19:48 0,9 C 3,9 C 88 % 1023,6 hPa 0,0 l/m 16,1 km/h (3 Bft) W 267 0 min 0,000 mm 0,0 UV-I 0 W/m -0,9 C -6,5 C 25,7 km/h (4 Bft) 96,30 %
17.12.2017 19:49 0,9 C 3,9 C 88 % 1023,6 hPa 0,0 l/m 15,5 km/h (3 Bft) W 259 0 min 0,000 mm 0,0 UV-I 0 W/m -0,9 C -6,2 C 19,3 km/h (3 Bft) 96,15 %
17.12.2017 19:50 0,9 C 3,9 C 88 % 1023,6 hPa 0,0 l/m 15,5 km/h (3 Bft) W-SW 256 0 min 0,000 mm 0,0 UV-I 0 W/m -0,9 C -6,2 C 20,9 km/h (4 Bft) 93,33 %
17.12.2017 19:51 0,9 C 3,9 C 88 % 1023,6 hPa 0,0 l/m 15,0 km/h (3 Bft) W-SW 240 0 min 0,000 mm 0,0 UV-I 0 W/m -0,9 C -5,9 C 17,7 km/h (3 Bft) 96,30 %
17.12.2017 19:52 0,9 C 3,9 C 88 % 1023,6 hPa 0,0 l/m 16,0 km/h (3 Bft) SW 225 0 min 0,000 mm 0,0 UV-I 0 W/m -0,9 C -6,5 C 19,3 km/h (3 Bft) 96,55 %
17.12.2017 19:53 0,8 C 3,9 C 88 % 1023,6 hPa 0,0 l/m 14,2 km/h (3 Bft) W-SW 239 0 min 0,000 mm 0,0 UV-I 0 W/m -1,0 C -5,5 C 19,3 km/h (3 Bft) 100,00 %
17.12.2017 19:54 0,9 C 3,9 C 88 % 1023,6 hPa 0,0 l/m 17,2 km/h (3 Bft) W-SW 246 0 min 0,000 mm 0,0 UV-I 0 W/m -0,9 C -7,1 C 25,7 km/h (4 Bft) 96,15 %
17.12.2017 19:55 0,8 C 3,9 C 88 % 1023,6 hPa 0,0 l/m 20,1 km/h (4 Bft) W 266 0 min 0,000 mm 0,0 UV-I 0 W/m -1,0 C -8,6 C 27,4 km/h (4 Bft) 100,00 %
17.12.2017 19:56 0,8 C 3,9 C 88 % 1023,6 hPa 0,0 l/m 16,7 km/h (3 Bft) W-SW 238 0 min 0,000 mm 0,0 UV-I 0 W/m -1,0 C -7,0 C 29,0 km/h (5 Bft) 95,65 %
17.12.2017 19:57 0,8 C 3,9 C 88 % 1023,6 hPa 0,0 l/m 16,0 km/h (3 Bft) W-SW 254 0 min 0,000 mm 0,0 UV-I 0 W/m -1,0 C -6,6 C 24,1 km/h (4 Bft) 96,30 %
17.12.2017 19:58 0,8 C 3,9 C 88 % 1023,7 hPa 0,0 l/m 17,0 km/h (3 Bft) W 267 0 min 0,000 mm 0,0 UV-I 0 W/m -1,0 C -7,1 C 25,7 km/h (4 Bft) 100,00 %
17.12.2017 19:59 0,8 C 3,9 C 88 % 1023,7 hPa 0,0 l/m 18,5 km/h (3 Bft) W 273 0 min 0,000 mm 0,0 UV-I 0 W/m -1,0 C -7,9 C 25,7 km/h (4 Bft) 100,00 %
17.12.2017 20:00 0,8 C 3,9 C 88 % 1023,7 hPa 0,0 l/m 17,6 km/h (3 Bft) W 267 0 min 0,000 mm 0,0 UV-I 0 W/m -1,0 C -7,4 C 22,5 km/h (4 Bft) 92,31 %
17.12.2017 20:01 0,8 C 3,9 C 88 % 1023,7 hPa 0,0 l/m 19,6 km/h (3 Bft) W-SW 258 0 min 0,025 mm 0,0 UV-I 0 W/m -1,0 C -8,4 C 27,4 km/h (4 Bft) 100,00 %
17.12.2017 20:02 0,8 C 3,9 C 88 % 1023,7 hPa 0,0 l/m 16,9 km/h (3 Bft) W 259 0 min 0,000 mm 0,0 UV-I 0 W/m -1,0 C -7,1 C 20,9 km/h (4 Bft) 100,00 %
17.12.2017 20:03 0,8 C 3,9 C 88 % 1023,7 hPa 0,0 l/m 17,7 km/h (3 Bft) W-SW 241 0 min 0,000 mm 0,0 UV-I 0 W/m -1,0 C -7,5 C 24,1 km/h (4 Bft) 100,00 %
17.12.2017 20:04 0,8 C 3,9 C 88 % 1023,7 hPa 0,0 l/m 12,5 km/h (3 Bft) W 261 0 min 0,000 mm 0,0 UV-I 0 W/m -1,0 C -4,4 C 19,3 km/h (3 Bft) 100,00 %
17.12.2017 20:05 0,8 C 3,9 C 88 % 1023,7 hPa 0,0 l/m 10,5 km/h (2 Bft) W-SW 257 0 min 0,000 mm 0,0 UV-I 0 W/m -1,0 C -3,0 C 14,5 km/h (3 Bft) 100,00 %
17.12.2017 20:06 0,8 C 3,9 C 89 % 1023,7 hPa 0,0 l/m 18,1 km/h (3 Bft) W-SW 253 0 min 0,000 mm 0,0 UV-I 0 W/m -0,8 C -7,7 C 29,0 km/h (5 Bft) 96,88 %
17.12.2017 20:07 0,8 C 3,9 C 89 % 1023,7 hPa 0,0 l/m 16,7 km/h (3 Bft) W 266 0 min 0,000 mm 0,0 UV-I 0 W/m -0,8 C -7,0 C 32,2 km/h (5 Bft) 100,00 %
17.12.2017 20:08 0,8 C 3,9 C 89 % 1023,7 hPa 0,0 l/m 19,6 km/h (3 Bft) W-NW 290 0 min 0,000 mm 0,0 UV-I 0 W/m -0,8 C -8,4 C 27,4 km/h (4 Bft) 100,00 %
17.12.2017 20:09 0,8 C 3,9 C 89 % 1023,7 hPa 0,0 l/m 16,3 km/h (3 Bft) SW 232 0 min 0,000 mm 0,0 UV-I 0 W/m -0,8 C -6,8 C 20,9 km/h (4 Bft) 100,00 %
17.12.2017 20:10 0,8 C 3,9 C 89 % 1023,7 hPa 0,0 l/m 17,1 km/h (3 Bft) W 259 0 min 0,000 mm 0,0 UV-I 0 W/m -0,8 C -7,2 C 22,5 km/h (4 Bft) 100,00 %
17.12.2017 20:11 0,8 C 3,9 C 89 % 1023,7 hPa 0,0 l/m 16,9 km/h (3 Bft) W-SW 250 0 min 0,000 mm 0,0 UV-I 0 W/m -0,8 C -7,1 C 22,5 km/h (4 Bft) 100,00 %
17.12.2017 20:12 0,7 C 3,9 C 89 % 1023,7 hPa 0,0 l/m 20,1 km/h (4 Bft) W 259 0 min 0,000 mm 0,0 UV-I 0 W/m -0,9 C -8,8 C 27,4 km/h (4 Bft) 100,00 %
17.12.2017 20:13 0,8 C 3,9 C 89 % 1023,7 hPa 0,0 l/m 15,9 km/h (3 Bft) S-SW 209 0 min 0,000 mm 0,0 UV-I 0 W/m -0,8 C -6,5 C 25,7 km/h (4 Bft) 100,00 %
17.12.2017 20:14 0,7 C 3,9 C 89 % 1023,7 hPa 0,0 l/m 14,5 km/h (3 Bft) SW 220 0 min 0,000 mm 0,0 UV-I 0 W/m -0,9 C -5,8 C 19,3 km/h (3 Bft) 96,67 %
17.12.2017 20:15 0,7 C 3,9 C 89 % 1023,7 hPa 0,0 l/m 18,2 km/h (3 Bft) W-SW 250 0 min 0,000 mm 0,0 UV-I 0 W/m -0,9 C -7,9 C 25,7 km/h (4 Bft) 100,00 %
17.12.2017 20:16 0,7 C 3,9 C 89 % 1023,7 hPa 0,0 l/m 13,9 km/h (3 Bft) W 275 0 min 0,000 mm 0,0 UV-I 0 W/m -0,9 C -5,5 C 19,3 km/h (3 Bft) 100,00 %
17.12.2017 20:17 0,7 C 3,9 C 89 % 1023,7 hPa 0,0 l/m 14,6 km/h (3 Bft) W 276 0 min 0,000 mm 0,0 UV-I 0 W/m -0,9 C -5,9 C 19,3 km/h (3 Bft) 100,00 %
17.12.2017 20:18 0,7 C 3,9 C 89 % 1023,7 hPa 0,0 l/m 15,6 km/h (3 Bft) W 260 0 min 0,000 mm 0,0 UV-I 0 W/m -0,9 C -6,5 C 19,3 km/h (3 Bft) 100,00 %
17.12.2017 20:19 0,7 C 3,9 C 90 % 1023,7 hPa 0,0 l/m 15,0 km/h (3 Bft) W-SW 237 0 min 0,000 mm 0,0 UV-I 0 W/m -0,7 C -6,1 C 24,1 km/h (4 Bft) 100,00 %
17.12.2017 20:20 0,7 C 3,9 C 90 % 1023,7 hPa 0,0 l/m 16,4 km/h (3 Bft) W-SW 254 0 min 0,000 mm 0,0 UV-I 0 W/m -0,7 C -6,9 C 22,5 km/h (4 Bft) 100,00 %
17.12.2017 20:21 0,7 C 3,9 C 90 % 1023,7 hPa 0,0 l/m 12,6 km/h (3 Bft) W-SW 242 0 min 0,000 mm 0,0 UV-I 0 W/m -0,7 C -4,6 C 20,9 km/h (4 Bft) 100,00 %
17.12.2017 20:22 0,7 C 3,9 C 90 % 1023,7 hPa 0,0 l/m 14,6 km/h (3 Bft) W-SW 254 0 min 0,000 mm 0,0 UV-I 0 W/m -0,7 C -5,9 C 19,3 km/h (3 Bft) 100,00 %
17.12.2017 20:23 0,7 C 3,9 C 90 % 1023,8 hPa 0,0 l/m 15,8 km/h (3 Bft) W-SW 255 0 min 0,000 mm 0,0 UV-I 0 W/m -0,7 C -6,6 C 22,5 km/h (4 Bft) 93,33 %
17.12.2017 20:24 0,7 C 3,9 C 90 % 1023,7 hPa 0,0 l/m 19,6 km/h (3 Bft) S 185 0 min 0,000 mm 0,0 UV-I 0 W/m -0,7 C -8,5 C 29,0 km/h (5 Bft) 100,00 %
17.12.2017 20:25 0,7 C 3,9 C 90 % 1023,7 hPa 0,0 l/m 12,8 km/h (3 Bft) W-SW 240 0 min 0,000 mm 0,0 UV-I 0 W/m -0,7 C -4,7 C 20,9 km/h (4 Bft) 100,00 %
17.12.2017 20:26 0,7 C 3,9 C 90 % 1023,7 hPa 0,0 l/m 11,4 km/h (2 Bft) S 191 0 min 0,000 mm 0,0 UV-I 0 W/m -0,7 C -3,8 C 16,1 km/h (3 Bft) 100,00 %
17.12.2017 20:27 0,7 C 3,9 C 90 % 1023,7 hPa 0,0 l/m 16,2 km/h (3 Bft) SW 225 0 min 0,000 mm 0,0 UV-I 0 W/m -0,7 C -6,8 C 22,5 km/h (4 Bft) 100,00 %
17.12.2017 20:28 0,7 C 3,9 C 90 % 1023,7 hPa 0,0 l/m 15,9 km/h (3 Bft) SW 227 0 min 0,000 mm 0,0 UV-I 0 W/m -0,7 C -6,7 C 22,5 km/h (4 Bft) 100,00 %
17.12.2017 20:29 0,7 C 3,9 C 90 % 1023,8 hPa 0,0 l/m 14,2 km/h (3 Bft) W-SW 258 0 min 0,000 mm 0,0 UV-I 0 W/m -0,7 C -5,7 C 17,7 km/h (3 Bft) 100,00 %
17.12.2017 20:30 0,6 C 3,9 C 90 % 1023,8 hPa 0,0 l/m 12,5 km/h (3 Bft) W-SW 244 0 min 0,000 mm 0,0 UV-I 0 W/m -0,8 C -4,7 C 16,1 km/h (3 Bft) 100,00 %
17.12.2017 20:31 0,6 C 3,9 C 90 % 1023,8 hPa 0,0 l/m 10,7 km/h (2 Bft) W 264 0 min 0,000 mm 0,0 UV-I 0 W/m -0,8 C -3,3 C 14,5 km/h (3 Bft) 95,83 %
17.12.2017 20:32 0,6 C 3,9 C 90 % 1023,8 hPa 0,0 l/m 11,3 km/h (2 Bft) W-SW 247 0 min 0,000 mm 0,0 UV-I 0 W/m -0,8 C -3,8 C 17,7 km/h (3 Bft) 100,00 %
17.12.2017 20:33 0,6 C 3,9 C 90 % 1023,8 hPa 0,0 l/m 15,7 km/h (3 Bft) W-SW 253 0 min 0,000 mm 0,0 UV-I 0 W/m -0,8 C -6,7 C 19,3 km/h (3 Bft) 100,00 %
17.12.2017 20:34 0,6 C 3,9 C 90 % 1023,8 hPa 0,0 l/m 14,2 km/h (3 Bft) W 269 0 min 0,000 mm 0,0 UV-I 0 W/m -0,8 C -5,8 C 19,3 km/h (3 Bft) 100,00 %
17.12.2017 20:35 0,6 C 3,9 C 90 % 1023,8 hPa 0,0 l/m 9,5 km/h (2 Bft) W-SW 255 0 min 0,000 mm 0,0 UV-I 0 W/m -0,8 C -2,4 C 17,7 km/h (3 Bft) 100,00 %
17.12.2017 20:36 0,6 C 3,9 C 90 % 1023,8 hPa 0,0 l/m 14,7 km/h (3 Bft) W 259 0 min 0,000 mm 0,0 UV-I 0 W/m -0,8 C -6,1 C 19,3 km/h (3 Bft) 100,00 %
17.12.2017 20:37 0,6 C 3,9 C 90 % 1023,7 hPa 0,0 l/m 13,9 km/h (3 Bft) W 261 0 min 0,000 mm 0,0 UV-I 0 W/m -0,8 C -5,6 C 22,5 km/h (4 Bft) 100,00 %
17.12.2017 20:38 0,6 C 3,9 C 90 % 1023,8 hPa 0,0 l/m 17,4 km/h (3 Bft) W-SW 240 0 min 0,000 mm 0,0 UV-I 0 W/m -0,8 C -7,6 C 22,5 km/h (4 Bft) 100,00 %
17.12.2017 20:39 0,6 C 3,9 C 90 % 1023,8 hPa 0,0 l/m 14,1 km/h (3 Bft) W-SW 250 0 min 0,000 mm 0,0 UV-I 0 W/m -0,8 C -5,7 C 22,5 km/h (4 Bft) 100,00 %
17.12.2017 20:40 0,6 C 3,9 C 90 % 1023,8 hPa 0,0 l/m 14,9 km/h (3 Bft) SW 234 0 min 0,000 mm 0,0 UV-I 0 W/m -0,8 C -6,2 C 24,1 km/h (4 Bft) 100,00 %
17.12.2017 20:41 0,7 C 3,9 C 90 % 1023,8 hPa 0,0 l/m 20,2 km/h (4 Bft) S-SW 195 0 min 0,000 mm 0,0 UV-I 0 W/m -0,7 C -8,8 C 27,4 km/h (4 Bft) 84,62 %
17.12.2017 20:42 0,7 C 3,9 C 90 % 1023,8 hPa 0,0 l/m 16,8 km/h (3 Bft) SW 224 0 min 0,000 mm 0,0 UV-I 0 W/m -0,7 C -7,1 C 22,5 km/h (4 Bft) 96,30 %
17.12.2017 20:43 0,7 C 3,9 C 89 % 1023,9 hPa 0,0 l/m 16,2 km/h (3 Bft) SW 233 0 min 0,000 mm 0,0 UV-I 0 W/m -0,9 C -6,8 C 24,1 km/h (4 Bft) 100,00 %
17.12.2017 20:44 0,7 C 3,9 C 89 % 1023,8 hPa 0,0 l/m 21,8 km/h (4 Bft) W-SW 240 0 min 0,000 mm 0,0 UV-I 0 W/m -0,9 C -9,5 C 29,0 km/h (5 Bft) 100,00 %
17.12.2017 20:45 0,7 C 3,9 C 89 % 1023,8 hPa 0,0 l/m 14,4 km/h (3 Bft) W-SW 248 0 min 0,000 mm 0,0 UV-I 0 W/m -0,9 C -5,8 C 17,7 km/h (3 Bft) 100,00 %
17.12.2017 20:46 0,7 C 3,9 C 89 % 1023,8 hPa 0,0 l/m 14,1 km/h (3 Bft) W-SW 241 0 min 0,000 mm 0,0 UV-I 0 W/m -0,9 C -5,6 C 19,3 km/h (3 Bft) 100,00 %
17.12.2017 20:47 0,7 C 3,9 C 89 % 1023,8 hPa 0,0 l/m 15,2 km/h (3 Bft) W-SW 251 0 min 0,000 mm 0,0 UV-I 0 W/m -0,9 C -6,3 C 22,5 km/h (4 Bft) 91,67 %
17.12.2017 20:48 0,7 C 3,9 C 89 % 1023,8 hPa 0,0 l/m 19,3 km/h (3 Bft) W-SW 257 0 min 0,000 mm 0,0 UV-I 0 W/m -0,9 C -8,4 C 29,0 km/h (5 Bft) 100,00 %
17.12.2017 20:49 0,7 C 3,9 C 89 % 1023,9 hPa 0,0 l/m 16,5 km/h (3 Bft) W-SW 254 0 min 0,000 mm 0,0 UV-I 0 W/m -0,9 C -7,0 C 22,5 km/h (4 Bft) 100,00 %
17.12.2017 20:50 0,7 C 3,9 C 89 % 1023,8 hPa 0,0 l/m 18,9 km/h (3 Bft) W-SW 238 0 min 0,000 mm 0,0 UV-I 0 W/m -0,9 C -8,2 C 29,0 km/h (5 Bft) 100,00 %
17.12.2017 20:52 0,7 C 3,9 C 89 % 1023,8 hPa 0,0 l/m 13,9 km/h (3 Bft) W-SW 252 0 min 0,000 mm 0,0 UV-I 0 W/m -0,9 C -5,5 C 20,9 km/h (4 Bft) 100,00 %
17.12.2017 20:53 0,7 C 3,9 C 89 % 1023,8 hPa 0,0 l/m 17,0 km/h (3 Bft) W-SW 250 0 min 0,000 mm 0,0 UV-I 0 W/m -0,9 C -7,3 C 20,9 km/h (4 Bft) 100,00 %
17.12.2017 20:54 0,7 C 3,9 C 89 % 1023,8 hPa 0,0 l/m 14,4 km/h (3 Bft) W 272 0 min 0,000 mm 0,0 UV-I 0 W/m -0,9 C -5,8 C 17,7 km/h (3 Bft) 100,00 %
17.12.2017 20:55 0,7 C 3,9 C 89 % 1023,8 hPa 0,0 l/m 16,9 km/h (3 Bft) W 263 0 min 0,000 mm 0,0 UV-I 0 W/m -0,9 C -7,2 C 25,7 km/h (4 Bft) 100,00 %
17.12.2017 20:56 0,7 C 3,9 C 89 % 1023,8 hPa 0,0 l/m 12,6 km/h (3 Bft) W-SW 252 0 min 0,000 mm 0,0 UV-I 0 W/m -0,9 C -4,6 C 17,7 km/h (3 Bft) 100,00 %
17.12.2017 20:57 0,7 C 3,9 C 89 % 1023,8 hPa 0,0 l/m 14,7 km/h (3 Bft) W-SW 257 0 min 0,000 mm 0,0 UV-I 0 W/m -0,9 C -6,0 C 20,9 km/h (4 Bft) 100,00 %
17.12.2017 20:58 0,7 C 3,9 C 89 % 1023,8 hPa 0,0 l/m 19,2 km/h (3 Bft) W-SW 244 0 min 0,000 mm 0,0 UV-I 0 W/m -0,9 C -8,4 C 24,1 km/h (4 Bft) 100,00 %
17.12.2017 20:59 0,7 C 3,9 C 89 % 1023,8 hPa 0,0 l/m 13,2 km/h (3 Bft) W 263 0 min 0,000 mm 0,0 UV-I 0 W/m -0,9 C -5,0 C 17,7 km/h (3 Bft) 92,59 %
17.12.2017 21:00 0,7 C 3,9 C 89 % 1023,8 hPa 0,0 l/m 15,3 km/h (3 Bft) SW 230 0 min 0,025 mm 0,0 UV-I 0 W/m -0,9 C -6,3 C 25,7 km/h (4 Bft) 100,00 %
17.12.2017 21:01 0,7 C 3,9 C 89 % 1023,8 hPa 0,0 l/m 21,9 km/h (4 Bft) W-SW 245 0 min 0,000 mm 0,0 UV-I 0 W/m -0,9 C -9,6 C 27,4 km/h (4 Bft) 100,00 %
17.12.2017 21:02 0,7 C 3,9 C 89 % 1023,8 hPa 0,0 l/m 15,4 km/h (3 Bft) SW 219 0 min 0,000 mm 0,0 UV-I 0 W/m -0,9 C -6,4 C 22,5 km/h (4 Bft) 100,00 %
17.12.2017 21:03 0,7 C 3,9 C 89 % 1023,8 hPa 0,0 l/m 20,0 km/h (4 Bft) SW 234 0 min 0,000 mm 0,0 UV-I 0 W/m -0,9 C -8,7 C 27,4 km/h (4 Bft) 96,30 %
17.12.2017 21:04 0,7 C 3,9 C 89 % 1023,8 hPa 0,0 l/m 14,8 km/h (3 Bft) W 271 0 min 0,000 mm 0,0 UV-I 0 W/m -0,9 C -6,0 C 22,5 km/h (4 Bft) 98,32 %
17.12.2017 21:05 0,7 C 3,9 C 89 % 1023,8 hPa 0,0 l/m 18,3 km/h (3 Bft) W-NW 291 0 min 0,000 mm 0,0 UV-I 0 W/m -0,9 C -7,9 C 25,7 km/h (4 Bft) 97,56 %
17.12.2017 21:06 0,7 C 3,9 C 89 % 1023,8 hPa 0,0 l/m 16,2 km/h (3 Bft) W-NW 282 0 min 0,000 mm 0,0 UV-I 0 W/m -0,9 C -6,8 C 22,5 km/h (4 Bft) 100,00 %
17.12.2017 21:07 0,7 C 3,9 C 89 % 1023,8 hPa 0,0 l/m 17,4 km/h (3 Bft) W-SW 257 0 min 0,000 mm 0,0 UV-I 0 W/m -0,9 C -7,5 C 22,5 km/h (4 Bft) 91,67 %
17.12.2017 21:08 0,7 C 3,9 C 89 % 1023,8 hPa 0,0 l/m 14,9 km/h (3 Bft) W 266 0 min 0,000 mm 0,0 UV-I 0 W/m -0,9 C -6,1 C 19,3 km/h (3 Bft) 100,00 %
17.12.2017 21:09 0,7 C 3,9 C 89 % 1023,8 hPa 0,0 l/m 16,0 km/h (3 Bft) W-SW 254 0 min 0,000 mm 0,0 UV-I 0 W/m -0,9 C -6,7 C 20,9 km/h (4 Bft) 96,15 %
17.12.2017 21:10 0,7 C 3,9 C 89 % 1023,9 hPa 0,0 l/m 12,0 km/h (2 Bft) W-SW 238 0 min 0,000 mm 0,0 UV-I 0 W/m -0,9 C -4,2 C 17,7 km/h (3 Bft) 100,00 %
17.12.2017 21:11 0,7 C 3,9 C 89 % 1023,8 hPa 0,0 l/m 13,6 km/h (3 Bft) W-SW 251 0 min 0,000 mm 0,0 UV-I 0 W/m -0,9 C -5,3 C 20,9 km/h (4 Bft) 91,30 %
17.12.2017 21:12 0,7 C 3,9 C 88 % 1023,9 hPa 0,0 l/m 17,4 km/h (3 Bft) W-SW 248 0 min 0,000 mm 0,0 UV-I 0 W/m -1,1 C -7,5 C 22,5 km/h (4 Bft) 100,00 %
17.12.2017 21:13 0,7 C 3,9 C 88 % 1023,9 hPa 0,0 l/m 14,5 km/h (3 Bft) W-SW 252 0 min 0,000 mm 0,0 UV-I 0 W/m -1,1 C -5,8 C 19,3 km/h (3 Bft) 96,15 %
17.12.2017 21:14 0,7 C 3,9 C 88 % 1023,9 hPa 0,0 l/m 14,7 km/h (3 Bft) W-SW 249 0 min 0,000 mm 0,0 UV-I 0 W/m -1,1 C -6,0 C 20,9 km/h (4 Bft) 96,30 %
17.12.2017 21:15 0,7 C 3,9 C 88 % 1024,0 hPa 0,0 l/m 15,8 km/h (3 Bft) W-SW 240 0 min 0,000 mm 0,0 UV-I 0 W/m -1,1 C -6,6 C 22,5 km/h (4 Bft) 100,00 %
17.12.2017 21:16 0,7 C 3,9 C 89 % 1023,9 hPa 0,0 l/m 18,6 km/h (3 Bft) W-SW 239 0 min 0,000 mm 0,0 UV-I 0 W/m -0,9 C -8,1 C 24,1 km/h (4 Bft) 95,83 %
17.12.2017 21:17 0,7 C 3,9 C 88 % 1023,9 hPa 0,0 l/m 12,9 km/h (3 Bft) W-SW 256 0 min 0,000 mm 0,0 UV-I 0 W/m -1,1 C -4,8 C 17,7 km/h (3 Bft) 100,00 %
17.12.2017 21:18 0,7 C 3,9 C 88 % 1024,0 hPa 0,0 l/m 16,5 km/h (3 Bft) W-SW 252 0 min 0,000 mm 0,0 UV-I 0 W/m -1,1 C -7,0 C 20,9 km/h (4 Bft) 95,83 %
17.12.2017 21:19 0,7 C 3,9 C 88 % 1024,0 hPa 0,0 l/m 14,6 km/h (3 Bft) W 273 0 min 0,000 mm 0,0 UV-I 0 W/m -1,1 C -5,9 C 17,7 km/h (3 Bft) 100,00 %
17.12.2017 21:20 0,7 C 3,9 C 88 % 1024,0 hPa 0,0 l/m 13,6 km/h (3 Bft) W-SW 242 0 min 0,000 mm 0,0 UV-I 0 W/m -1,1 C -5,3 C 19,3 km/h (3 Bft) 96,43 %
17.12.2017 21:21 0,7 C 3,9 C 88 % 1024,0 hPa 0,0 l/m 13,0 km/h (3 Bft) W 266 0 min 0,000 mm 0,0 UV-I 0 W/m -1,1 C -4,9 C 19,3 km/h (3 Bft) 100,00 %
17.12.2017 21:22 0,7 C 3,9 C 88 % 1024,0 hPa 0,0 l/m 16,9 km/h (3 Bft) W 267 0 min 0,000 mm 0,0 UV-I 0 W/m -1,1 C -7,2 C 24,1 km/h (4 Bft) 96,43 %
17.12.2017 21:23 0,7 C 3,9 C 88 % 1024,0 hPa 0,0 l/m 16,9 km/h (3 Bft) W-SW 250 0 min 0,000 mm 0,0 UV-I 0 W/m -1,1 C -7,2 C 25,7 km/h (4 Bft) 100,00 %
17.12.2017 21:24 0,7 C 3,9 C 88 % 1024,0 hPa 0,0 l/m 12,6 km/h (3 Bft) SW 236 0 min 0,000 mm 0,0 UV-I 0 W/m -1,1 C -4,6 C 16,1 km/h (3 Bft) 95,65 %
17.12.2017 21:25 0,7 C 3,9 C 88 % 1024,0 hPa 0,0 l/m 21,3 km/h (4 Bft) W-SW 252 0 min 0,000 mm 0,0 UV-I 0 W/m -1,1 C -9,3 C 27,4 km/h (4 Bft) 100,00 %
17.12.2017 21:26 0,7 C 3,9 C 88 % 1024,0 hPa 0,0 l/m 17,6 km/h (3 Bft) W-SW 247 0 min 0,000 mm 0,0 UV-I 0 W/m -1,1 C -7,6 C 24,1 km/h (4 Bft) 100,00 %
17.12.2017 21:27 0,7 C 3,9 C 88 % 1024,0 hPa 0,0 l/m 16,6 km/h (3 Bft) W 264 0 min 0,000 mm 0,0 UV-I 0 W/m -1,1 C -7,0 C 20,9 km/h (4 Bft) 95,83 %
17.12.2017 21:28 0,7 C 3,9 C 88 % 1024,1 hPa 0,0 l/m 18,2 km/h (3 Bft) W-SW 247 0 min 0,000 mm 0,0 UV-I 0 W/m -1,1 C -7,9 C 25,7 km/h (4 Bft) 100,00 %
17.12.2017 21:29 0,7 C 3,9 C 88 % 1024,0 hPa 0,0 l/m 20,0 km/h (4 Bft) W-SW 255 0 min 0,000 mm 0,0 UV-I 0 W/m -1,1 C -8,7 C 25,7 km/h (4 Bft) 92,59 %
17.12.2017 21:30 0,7 C 3,9 C 88 % 1024,0 hPa 0,0 l/m 18,8 km/h (3 Bft) W 260 0 min 0,000 mm 0,0 UV-I 0 W/m -1,1 C -8,2 C 22,5 km/h (4 Bft) 100,00 %
17.12.2017 21:31 0,7 C 3,9 C 87 % 1024,1 hPa 0,0 l/m 18,3 km/h (3 Bft) W 271 0 min 0,000 mm 0,0 UV-I 0 W/m -1,2 C -7,9 C 25,7 km/h (4 Bft) 88,89 %
17.12.2017 21:32 0,7 C 3,9 C 88 % 1024,1 hPa 0,0 l/m 20,5 km/h (4 Bft) W-NW 282 0 min 0,000 mm 0,0 UV-I 0 W/m -1,1 C -9,0 C 27,4 km/h (4 Bft) 100,00 %
17.12.2017 21:33 0,7 C 3,9 C 88 % 1024,1 hPa 0,0 l/m 16,2 km/h (3 Bft) W 259 0 min 0,000 mm 0,0 UV-I 0 W/m -1,1 C -6,8 C 20,9 km/h (4 Bft) 92,59 %
17.12.2017 21:34 0,7 C 3,9 C 88 % 1024,1 hPa 0,0 l/m 17,5 km/h (3 Bft) W-NW 294 0 min 0,000 mm 0,0 UV-I 0 W/m -1,1 C -7,5 C 24,1 km/h (4 Bft) 100,00 %
17.12.2017 21:35 0,7 C 3,9 C 88 % 1024,1 hPa 0,0 l/m 21,5 km/h (4 Bft) SW 231 0 min 0,000 mm 0,0 UV-I 0 W/m -1,1 C -9,4 C 29,0 km/h (5 Bft) 90,62 %
17.12.2017 21:36 0,7 C 3,9 C 87 % 1024,1 hPa 0,0 l/m 20,5 km/h (4 Bft) SW 236 0 min 0,000 mm 0,0 UV-I 0 W/m -1,2 C -9,0 C 32,2 km/h (5 Bft) 82,61 %
17.12.2017 21:37 0,7 C 3,9 C 87 % 1024,0 hPa 0,0 l/m 16,1 km/h (3 Bft) W 259 0 min 0,000 mm 0,0 UV-I 0 W/m -1,2 C -6,8 C 19,3 km/h (3 Bft) 100,00 %
17.12.2017 21:38 0,7 C 3,9 C 88 % 1024,1 hPa 0,0 l/m 18,5 km/h (3 Bft) W 265 0 min 0,000 mm 0,0 UV-I 0 W/m -1,1 C -8,0 C 20,9 km/h (4 Bft) 91,67 %
17.12.2017 21:39 0,7 C 3,9 C 87 % 1024,1 hPa 0,0 l/m 20,8 km/h (4 Bft) W-SW 255 0 min 0,000 mm 0,0 UV-I 0 W/m -1,2 C -9,1 C 25,7 km/h (4 Bft) 96,15 %
17.12.2017 21:40 0,7 C 3,9 C 87 % 1024,0 hPa 0,0 l/m 15,0 km/h (3 Bft) SW 218 0 min 0,000 mm 0,0 UV-I 0 W/m -1,2 C -6,1 C 20,9 km/h (4 Bft) 86,67 %
17.12.2017 21:41 0,7 C 3,9 C 87 % 1024,0 hPa 0,0 l/m 21,5 km/h (4 Bft) SW 236 0 min 0,000 mm 0,0 UV-I 0 W/m -1,2 C -9,4 C 25,7 km/h (4 Bft) 96,15 %
17.12.2017 21:42 0,7 C 3,9 C 87 % 1024,0 hPa 0,0 l/m 20,6 km/h (4 Bft) SW 217 0 min 0,000 mm 0,0 UV-I 0 W/m -1,2 C -9,0 C 29,0 km/h (5 Bft) 91,67 %
17.12.2017 21:43 0,7 C 3,9 C 87 % 1024,0 hPa 0,0 l/m 21,9 km/h (4 Bft) W-SW 256 0 min 0,000 mm 0,0 UV-I 0 W/m -1,2 C -9,6 C 29,0 km/h (5 Bft) 100,00 %
17.12.2017 21:44 0,7 C 3,9 C 87 % 1024,0 hPa 0,0 l/m 17,3 km/h (3 Bft) SW 219 0 min 0,000 mm 0,0 UV-I 0 W/m -1,2 C -7,4 C 22,5 km/h (4 Bft) 91,30 %
17.12.2017 21:45 0,7 C 3,9 C 87 % 1024,0 hPa 0,0 l/m 19,2 km/h (3 Bft) W-SW 257 0 min 0,000 mm 0,0 UV-I 0 W/m -1,2 C -8,4 C 29,0 km/h (5 Bft) 95,83 %
17.12.2017 21:46 0,7 C 3,9 C 87 % 1024,0 hPa 0,0 l/m 22,4 km/h (4 Bft) W-SW 252 0 min 0,000 mm 0,0 UV-I 0 W/m -1,2 C -9,8 C 33,8 km/h (5 Bft) 96,55 %
17.12.2017 21:47 0,7 C 3,9 C 87 % 1024,0 hPa 0,0 l/m 16,7 km/h (3 Bft) W-SW 250 0 min 0,000 mm 0,0 UV-I 0 W/m -1,2 C -7,1 C 27,4 km/h (4 Bft) 93,33 %
17.12.2017 21:48 0,7 C 3,9 C 87 % 1024,0 hPa 0,0 l/m 14,9 km/h (3 Bft) W-SW 238 0 min 0,000 mm 0,0 UV-I 0 W/m -1,2 C -6,1 C 27,4 km/h (4 Bft) 96,55 %
17.12.2017 21:49 0,7 C 3,9 C 87 % 1024,0 hPa 0,0 l/m 21,9 km/h (4 Bft) W 261 0 min 0,000 mm 0,0 UV-I 0 W/m -1,2 C -9,6 C 32,2 km/h (5 Bft) 91,67 %
17.12.2017 21:50 0,7 C 3,9 C 87 % 1024,0 hPa 0,0 l/m 23,3 km/h (4 Bft) SW 226 0 min 0,000 mm 0,0 UV-I 0 W/m -1,2 C -10,1 C 35,4 km/h (5 Bft) 96,15 %
17.12.2017 21:51 0,7 C 3,9 C 87 % 1024,0 hPa 0,0 l/m 18,4 km/h (3 Bft) SW 235 0 min 0,000 mm 0,0 UV-I 0 W/m -1,2 C -8,0 C 25,7 km/h (4 Bft) 91,67 %
17.12.2017 21:52 0,7 C 3,9 C 87 % 1024,1 hPa 0,0 l/m 24,4 km/h (4 Bft) SW 227 0 min 0,000 mm 0,0 UV-I 0 W/m -1,2 C -10,5 C 32,2 km/h (5 Bft) 96,15 %
17.12.2017 21:53 0,8 C 3,9 C 87 % 1024,1 hPa 0,0 l/m 16,2 km/h (3 Bft) SW 232 0 min 0,000 mm 0,0 UV-I 0 W/m -1,1 C -6,7 C 24,1 km/h (4 Bft) 95,83 %
17.12.2017 21:54 0,7 C 3,9 C 87 % 1024,1 hPa 0,0 l/m 18,0 km/h (3 Bft) W-SW 257 0 min 0,000 mm 0,0 UV-I 0 W/m -1,2 C -7,8 C 24,1 km/h (4 Bft) 91,30 %
17.12.2017 21:55 0,7 C 3,9 C 87 % 1024,1 hPa 0,0 l/m 13,5 km/h (3 Bft) W 259 0 min 0,000 mm 0,0 UV-I 0 W/m -1,2 C -5,2 C 24,1 km/h (4 Bft) 91,67 %
17.12.2017 21:56 0,7 C 3,9 C 87 % 1024,2 hPa 0,0 l/m 22,7 km/h (4 Bft) W-SW 242 0 min 0,000 mm 0,0 UV-I 0 W/m -1,2 C -9,9 C 29,0 km/h (5 Bft) 91,30 %
17.12.2017 21:57 0,7 C 3,9 C 87 % 1024,1 hPa 0,0 l/m 15,6 km/h (3 Bft) W 260 0 min 0,000 mm 0,0 UV-I 0 W/m -1,2 C -6,5 C 22,5 km/h (4 Bft) 91,67 %
17.12.2017 21:58 0,7 C 3,9 C 87 % 1024,1 hPa 0,0 l/m 15,7 km/h (3 Bft) W 262 0 min 0,000 mm 0,0 UV-I 0 W/m -1,2 C -6,5 C 19,3 km/h (3 Bft) 96,55 %
17.12.2017 21:59 0,7 C 3,9 C 87 % 1024,2 hPa 0,0 l/m 18,9 km/h (3 Bft) W 271 0 min 0,000 mm 0,0 UV-I 0 W/m -1,2 C -8,2 C 32,2 km/h (5 Bft) 92,31 %
17.12.2017 22:00 0,8 C 3,9 C 87 % 1024,1 hPa 0,0 l/m 19,1 km/h (3 Bft) W-SW 257 0 min 0,000 mm 0,0 UV-I 0 W/m -1,1 C -8,2 C 25,7 km/h (4 Bft) 96,30 %
17.12.2017 22:01 0,7 C 3,9 C 87 % 1024,1 hPa 0,0 l/m 19,4 km/h (3 Bft) W 259 0 min 0,026 mm 0,0 UV-I 0 W/m -1,2 C -8,4 C 24,1 km/h (4 Bft) 94,12 %
17.12.2017 22:02 0,7 C 3,9 C 87 % 1024,1 hPa 0,0 l/m 18,4 km/h (3 Bft) W-NW 282 0 min 0,000 mm 0,0 UV-I 0 W/m -1,2 C -8,0 C 24,1 km/h (4 Bft) 96,67 %
17.12.2017 22:03 0,7 C 3,9 C 87 % 1024,2 hPa 0,0 l/m 19,9 km/h (4 Bft) W-SW 257 0 min 0,000 mm 0,0 UV-I 0 W/m -1,2 C -8,7 C 27,4 km/h (4 Bft) 95,65 %
17.12.2017 22:04 0,8 C 3,9 C 87 % 1024,2 hPa 0,0 l/m 16,7 km/h (3 Bft) W-NW 284 0 min 0,000 mm 0,0 UV-I 0 W/m -1,1 C -7,0 C 22,5 km/h (4 Bft) 91,67 %
17.12.2017 22:05 0,8 C 3,9 C 87 % 1024,2 hPa 0,0 l/m 16,8 km/h (3 Bft) W 259 0 min 0,000 mm 0,0 UV-I 0 W/m -1,1 C -7,0 C 24,1 km/h (4 Bft) 96,30 %
17.12.2017 22:06 0,7 C 3,9 C 87 % 1024,2 hPa 0,0 l/m 18,4 km/h (3 Bft) W 263 0 min 0,000 mm 0,0 UV-I 0 W/m -1,2 C -8,0 C 22,5 km/h (4 Bft) 96,15 %
17.12.2017 22:07 0,7 C 3,9 C 87 % 1024,2 hPa 0,0 l/m 16,9 km/h (3 Bft) W 260 0 min 0,000 mm 0,0 UV-I 0 W/m -1,2 C -7,2 C 20,9 km/h (4 Bft) 93,10 %
17.12.2017 22:08 0,7 C 3,9 C 87 % 1024,2 hPa 0,0 l/m 18,8 km/h (3 Bft) W 266 0 min 0,000 mm 0,0 UV-I 0 W/m -1,2 C -8,2 C 24,1 km/h (4 Bft) 100,00 %
17.12.2017 22:09 0,7 C 3,9 C 87 % 1024,2 hPa 0,0 l/m 13,2 km/h (3 Bft) W-SW 250 0 min 0,000 mm 0,0 UV-I 0 W/m -1,2 C -5,0 C 19,3 km/h (3 Bft) 100,00 %
17.12.2017 22:10 0,7 C 3,9 C 87 % 1024,2 hPa 0,0 l/m 20,0 km/h (4 Bft) W-SW 244 0 min 0,000 mm 0,0 UV-I 0 W/m -1,2 C -8,7 C 27,4 km/h (4 Bft) 96,55 %
17.12.2017 22:11 0,7 C 3,9 C 87 % 1024,2 hPa 0,0 l/m 17,5 km/h (3 Bft) W-SW 254 0 min 0,000 mm 0,0 UV-I 0 W/m -1,2 C -7,5 C 22,5 km/h (4 Bft) 100,00 %
17.12.2017 22:12 0,7 C 3,9 C 87 % 1024,2 hPa 0,0 l/m 20,9 km/h (4 Bft) W 259 0 min 0,000 mm 0,0 UV-I 0 W/m -1,2 C -9,1 C 30,6 km/h (5 Bft) 95,65 %
17.12.2017 22:13 0,7 C 3,9 C 87 % 1024,2 hPa 0,0 l/m 17,8 km/h (3 Bft) W-SW 257 0 min 0,000 mm 0,0 UV-I 0 W/m -1,2 C -7,7 C 25,7 km/h (4 Bft) 96,30 %
17.12.2017 22:14 0,7 C 3,9 C 87 % 1024,3 hPa 0,0 l/m 14,4 km/h (3 Bft) W-SW 244 0 min 0,000 mm 0,0 UV-I 0 W/m -1,2 C -5,8 C 20,9 km/h (4 Bft) 95,65 %
17.12.2017 22:15 0,7 C 3,9 C 87 % 1024,2 hPa 0,0 l/m 15,7 km/h (3 Bft) NW 323 0 min 0,000 mm 0,0 UV-I 0 W/m -1,2 C -6,5 C 20,9 km/h (4 Bft) 100,00 %
17.12.2017 22:16 0,7 C 3,9 C 88 % 1024,2 hPa 0,0 l/m 15,4 km/h (3 Bft) W 263 0 min 0,000 mm 0,0 UV-I 0 W/m -1,1 C -6,4 C 22,5 km/h (4 Bft) 100,00 %
17.12.2017 22:17 0,7 C 3,9 C 88 % 1024,3 hPa 0,0 l/m 19,4 km/h (3 Bft) W-SW 253 0 min 0,000 mm 0,0 UV-I 0 W/m -1,1 C -8,4 C 22,5 km/h (4 Bft) 100,00 %
17.12.2017 22:18 0,7 C 3,9 C 87 % 1024,3 hPa 0,0 l/m 13,8 km/h (3 Bft) W-SW 249 0 min 0,000 mm 0,0 UV-I 0 W/m -1,2 C -5,4 C 19,3 km/h (3 Bft) 94,12 %
17.12.2017 22:19 0,7 C 3,9 C 87 % 1024,2 hPa 0,0 l/m 17,2 km/h (3 Bft) W-SW 249 0 min 0,000 mm 0,0 UV-I 0 W/m -1,2 C -7,4 C 27,4 km/h (4 Bft) 100,00 %
17.12.2017 22:20 0,7 C 3,9 C 88 % 1024,3 hPa 0,0 l/m 18,2 km/h (3 Bft) W-SW 249 0 min 0,000 mm 0,0 UV-I 0 W/m -1,1 C -7,9 C 22,5 km/h (4 Bft) 100,00 %
17.12.2017 22:21 0,7 C 3,9 C 87 % 1024,3 hPa 0,0 l/m 15,6 km/h (3 Bft) W 264 0 min 0,000 mm 0,0 UV-I 0 W/m -1,2 C -6,5 C 19,3 km/h (3 Bft) 100,00 %
17.12.2017 22:22 0,7 C 3,9 C 88 % 1024,3 hPa 0,0 l/m 17,5 km/h (3 Bft) W-SW 248 0 min 0,000 mm 0,0 UV-I 0 W/m -1,1 C -7,5 C 22,5 km/h (4 Bft) 100,00 %
17.12.2017 22:23 0,7 C 3,9 C 87 % 1024,3 hPa 0,0 l/m 15,4 km/h (3 Bft) W 279 0 min 0,000 mm 0,0 UV-I 0 W/m -1,2 C -6,4 C 24,1 km/h (4 Bft) 100,00 %
17.12.2017 22:24 0,7 C 3,9 C 88 % 1024,3 hPa 0,0 l/m 13,5 km/h (3 Bft) S-SW 213 0 min 0,000 mm 0,0 UV-I 0 W/m -1,1 C -5,2 C 17,7 km/h (3 Bft) 100,00 %
17.12.2017 22:25 0,7 C 3,9 C 88 % 1024,4 hPa 0,0 l/m 14,2 km/h (3 Bft) W 259 0 min 0,000 mm 0,0 UV-I 0 W/m -1,1 C -5,7 C 19,3 km/h (3 Bft) 100,00 %
17.12.2017 22:26 0,7 C 3,9 C 87 % 1024,3 hPa 0,0 l/m 15,2 km/h (3 Bft) W-SW 256 0 min 0,000 mm 0,0 UV-I 0 W/m -1,2 C -6,3 C 19,3 km/h (3 Bft) 100,00 %
17.12.2017 22:27 0,7 C 3,9 C 88 % 1024,3 hPa 0,0 l/m 13,1 km/h (3 Bft) W-SW 252 0 min 0,000 mm 0,0 UV-I 0 W/m -1,1 C -4,9 C 16,1 km/h (3 Bft) 100,00 %
17.12.2017 22:28 0,7 C 3,9 C 88 % 1024,4 hPa 0,0 l/m 15,7 km/h (3 Bft) W-SW 256 0 min 0,000 mm 0,0 UV-I 0 W/m -1,1 C -6,5 C 19,3 km/h (3 Bft) 100,00 %
17.12.2017 22:29 0,7 C 3,9 C 88 % 1024,4 hPa 0,0 l/m 12,8 km/h (3 Bft) W 259 0 min 0,000 mm 0,0 UV-I 0 W/m -1,1 C -4,7 C 20,9 km/h (4 Bft) 100,00 %
17.12.2017 22:30 0,7 C 3,9 C 87 % 1024,4 hPa 0,0 l/m 15,0 km/h (3 Bft) W-SW 250 0 min 0,000 mm 0,0 UV-I 0 W/m -1,2 C -6,1 C 20,9 km/h (4 Bft) 100,00 %
17.12.2017 22:31 0,7 C 3,9 C 88 % 1024,4 hPa 0,0 l/m 18,1 km/h (3 Bft) W 271 0 min 0,000 mm 0,0 UV-I 0 W/m -1,1 C -7,8 C 22,5 km/h (4 Bft) 96,55 %
17.12.2017 22:32 0,7 C 3,9 C 88 % 1024,4 hPa 0,0 l/m 13,9 km/h (3 Bft) W 259 0 min 0,000 mm 0,0 UV-I 0 W/m -1,1 C -5,5 C 22,5 km/h (4 Bft) 100,00 %
17.12.2017 22:33 0,7 C 3,9 C 88 % 1024,3 hPa 0,0 l/m 13,8 km/h (3 Bft) W 265 0 min 0,000 mm 0,0 UV-I 0 W/m -1,1 C -5,4 C 20,9 km/h (4 Bft) 100,00 %
17.12.2017 22:34 0,7 C 3,9 C 88 % 1024,3 hPa 0,0 l/m 15,0 km/h (3 Bft) W 278 0 min 0,000 mm 0,0 UV-I 0 W/m -1,1 C -6,1 C 19,3 km/h (3 Bft) 100,00 %
17.12.2017 22:35 0,7 C 3,9 C 88 % 1024,3 hPa 0,0 l/m 12,9 km/h (3 Bft) W 267 0 min 0,000 mm 0,0 UV-I 0 W/m -1,1 C -4,8 C 19,3 km/h (3 Bft) 100,00 %
17.12.2017 22:36 0,7 C 3,9 C 88 % 1024,4 hPa 0,0 l/m 17,1 km/h (3 Bft) W-SW 254 0 min 0,000 mm 0,0 UV-I 0 W/m -1,1 C -7,3 C 25,7 km/h (4 Bft) 100,00 %
17.12.2017 22:37 0,7 C 3,9 C 88 % 1024,4 hPa 0,0 l/m 15,8 km/h (3 Bft) W-SW 250 0 min 0,000 mm 0,0 UV-I 0 W/m -1,1 C -6,6 C 24,1 km/h (4 Bft) 100,00 %
17.12.2017 22:38 0,7 C 3,9 C 88 % 1024,4 hPa 0,0 l/m 17,5 km/h (3 Bft) W-SW 253 0 min 0,000 mm 0,0 UV-I 0 W/m -1,1 C -7,5 C 22,5 km/h (4 Bft) 100,00 %
17.12.2017 22:39 0,7 C 3,9 C 88 % 1024,4 hPa 0,0 l/m 15,7 km/h (3 Bft) SW 218 0 min 0,000 mm 0,0 UV-I 0 W/m -1,1 C -6,5 C 19,3 km/h (3 Bft) 100,00 %
17.12.2017 22:40 0,7 C 3,9 C 88 % 1024,4 hPa 0,0 l/m 18,6 km/h (3 Bft) SW 228 0 min 0,000 mm 0,0 UV-I 0 W/m -1,1 C -8,1 C 22,5 km/h (4 Bft) 100,00 %
17.12.2017 22:41 0,7 C 3,9 C 88 % 1024,3 hPa 0,0 l/m 17,9 km/h (3 Bft) W 261 0 min 0,000 mm 0,0 UV-I 0 W/m -1,1 C -7,7 C 25,7 km/h (4 Bft) 100,00 %
17.12.2017 22:42 0,7 C 3,9 C 88 % 1024,3 hPa 0,0 l/m 19,2 km/h (3 Bft) W-SW 256 0 min 0,000 mm 0,0 UV-I 0 W/m -1,1 C -8,4 C 22,5 km/h (4 Bft) 97,97 %
17.12.2017 22:43 0,7 C 3,9 C 88 % 1024,4 hPa 0,0 l/m 19,8 km/h (3 Bft) W-SW 237 0 min 0,000 mm 0,0 UV-I 0 W/m -1,1 C -8,6 C 25,7 km/h (4 Bft) 100,00 %
17.12.2017 22:44 0,7 C 3,9 C 88 % 1024,4 hPa 0,0 l/m 13,8 km/h (3 Bft) W-SW 244 0 min 0,000 mm 0,0 UV-I 0 W/m -1,1 C -5,4 C 19,3 km/h (3 Bft) 100,00 %
17.12.2017 22:45 0,7 C 3,9 C 88 % 1024,4 hPa 0,0 l/m 16,4 km/h (3 Bft) W 274 0 min 0,000 mm 0,0 UV-I 0 W/m -1,1 C -6,9 C 22,5 km/h (4 Bft) 96,97 %
17.12.2017 22:46 0,7 C 3,9 C 88 % 1024,4 hPa 0,0 l/m 17,6 km/h (3 Bft) W-NW 286 0 min 0,000 mm 0,0 UV-I 0 W/m -1,1 C -7,6 C 22,5 km/h (4 Bft) 96,55 %
17.12.2017 22:47 0,7 C 3,9 C 88 % 1024,5 hPa 0,0 l/m 18,4 km/h (3 Bft) W 261 0 min 0,000 mm 0,0 UV-I 0 W/m -1,1 C -8,0 C 29,0 km/h (5 Bft) 100,00 %
17.12.2017 22:48 0,7 C 3,9 C 88 % 1024,5 hPa 0,0 l/m 17,5 km/h (3 Bft) W 266 0 min 0,000 mm 0,0 UV-I 0 W/m -1,1 C -7,5 C 24,1 km/h (4 Bft) 96,15 %
17.12.2017 22:49 0,7 C 3,9 C 87 % 1024,5 hPa 0,0 l/m 15,5 km/h (3 Bft) W-SW 244 0 min 0,000 mm 0,0 UV-I 0 W/m -1,2 C -6,4 C 22,5 km/h (4 Bft) 100,00 %
17.12.2017 22:50 0,7 C 3,9 C 87 % 1024,5 hPa 0,0 l/m 15,9 km/h (3 Bft) W-SW 253 0 min 0,000 mm 0,0 UV-I 0 W/m -1,2 C -6,7 C 24,1 km/h (4 Bft) 100,00 %
17.12.2017 22:51 0,7 C 3,9 C 88 % 1024,5 hPa 0,0 l/m 12,1 km/h (2 Bft) W-SW 258 0 min 0,000 mm 0,0 UV-I 0 W/m -1,1 C -4,3 C 14,5 km/h (3 Bft) 100,00 %
17.12.2017 22:52 0,7 C 3,9 C 87 % 1024,5 hPa 0,0 l/m 10,1 km/h (2 Bft) W 264 0 min 0,000 mm 0,0 UV-I 0 W/m -1,2 C -2,8 C 16,1 km/h (3 Bft) 100,00 %
17.12.2017 22:53 0,7 C 3,9 C 87 % 1024,5 hPa 0,0 l/m 17,3 km/h (3 Bft) W-SW 244 0 min 0,000 mm 0,0 UV-I 0 W/m -1,2 C -7,4 C 30,6 km/h (5 Bft) 96,15 %
17.12.2017 22:54 0,7 C 3,9 C 87 % 1024,5 hPa 0,0 l/m 22,9 km/h (4 Bft) W-SW 242 0 min 0,000 mm 0,0 UV-I 0 W/m -1,2 C -10,0 C 32,2 km/h (5 Bft) 100,00 %
17.12.2017 22:55 0,7 C 3,9 C 87 % 1024,5 hPa 0,0 l/m 18,9 km/h (3 Bft) W-SW 251 0 min 0,000 mm 0,0 UV-I 0 W/m -1,2 C -8,2 C 24,1 km/h (4 Bft) 100,00 %
17.12.2017 22:56 0,7 C 3,9 C 87 % 1024,6 hPa 0,0 l/m 18,1 km/h (3 Bft) W-NW 286 0 min 0,000 mm 0,0 UV-I 0 W/m -1,2 C -7,8 C 20,9 km/h (4 Bft) 100,00 %
17.12.2017 22:57 0,7 C 3,9 C 87 % 1024,6 hPa 0,0 l/m 16,7 km/h (3 Bft) W-SW 257 0 min 0,000 mm 0,0 UV-I 0 W/m -1,2 C -7,1 C 22,5 km/h (4 Bft) 100,00 %
17.12.2017 22:58 0,7 C 3,9 C 87 % 1024,5 hPa 0,0 l/m 18,9 km/h (3 Bft) W 271 0 min 0,000 mm 0,0 UV-I 0 W/m -1,2 C -8,2 C 27,4 km/h (4 Bft) 100,00 %
17.12.2017 22:59 0,7 C 3,9 C 88 % 1024,4 hPa 0,0 l/m 16,9 km/h (3 Bft) W 259 0 min 0,000 mm 0,0 UV-I 0 W/m -1,1 C -7,2 C 22,5 km/h (4 Bft) 100,00 %
17.12.2017 23:00 0,6 C 3,9 C 88 % 1024,5 hPa 0,0 l/m 12,0 km/h (2 Bft) SW 225 0 min 0,000 mm 0,0 UV-I 0 W/m -1,2 C -4,3 C 17,7 km/h (3 Bft) 100,00 %
17.12.2017 23:01 0,6 C 3,9 C 88 % 1024,5 hPa 0,0 l/m 13,0 km/h (3 Bft) W 264 0 min 0,025 mm 0,0 UV-I 0 W/m -1,2 C -5,0 C 22,5 km/h (4 Bft) 100,00 %
17.12.2017 23:02 0,6 C 3,9 C 88 % 1024,4 hPa 0,0 l/m 18,2 km/h (3 Bft) SW 236 0 min 0,000 mm 0,0 UV-I 0 W/m -1,2 C -8,0 C 24,1 km/h (4 Bft) 100,00 %
17.12.2017 23:03 0,6 C 3,9 C 88 % 1024,4 hPa 0,0 l/m 21,4 km/h (4 Bft) W-SW 246 0 min 0,000 mm 0,0 UV-I 0 W/m -1,2 C -9,5 C 25,7 km/h (4 Bft) 100,00 %
17.12.2017 23:04 0,6 C 3,9 C 88 % 1024,5 hPa 0,0 l/m 21,3 km/h (4 Bft) W 259 0 min 0,000 mm 0,0 UV-I 0 W/m -1,2 C -9,4 C 24,1 km/h (4 Bft) 100,00 %
17.12.2017 23:05 0,5 C 3,9 C 88 % 1024,5 hPa 0,0 l/m 20,5 km/h (4 Bft) SW 233 0 min 0,000 mm 0,0 UV-I 0 W/m -1,3 C -9,2 C 25,7 km/h (4 Bft) 100,00 %
17.12.2017 23:06 0,5 C 3,9 C 88 % 1024,5 hPa 0,0 l/m 19,1 km/h (3 Bft) SW 229 0 min 0,000 mm 0,0 UV-I 0 W/m -1,3 C -8,6 C 29,0 km/h (5 Bft) 100,00 %
17.12.2017 23:07 0,5 C 3,9 C 89 % 1024,6 hPa 0,0 l/m 19,0 km/h (3 Bft) W-SW 239 0 min 0,000 mm 0,0 UV-I 0 W/m -1,1 C -8,5 C 27,4 km/h (4 Bft) 100,00 %
17.12.2017 23:08 0,5 C 3,9 C 89 % 1024,5 hPa 0,0 l/m 17,4 km/h (3 Bft) W-SW 252 0 min 0,000 mm 0,0 UV-I 0 W/m -1,1 C -7,7 C 24,1 km/h (4 Bft) 100,00 %
17.12.2017 23:09 0,4 C 3,9 C 89 % 1024,6 hPa 0,0 l/m 16,0 km/h (3 Bft) W 269 0 min 0,000 mm 0,0 UV-I 0 W/m -1,2 C -7,1 C 22,5 km/h (4 Bft) 100,00 %
17.12.2017 23:10 0,4 C 3,9 C 89 % 1024,5 hPa 0,0 l/m 16,0 km/h (3 Bft) W-SW 249 0 min 0,000 mm 0,0 UV-I 0 W/m -1,2 C -7,1 C 24,1 km/h (4 Bft) 100,00 %
17.12.2017 23:11 0,4 C 3,9 C 89 % 1024,5 hPa 0,0 l/m 20,0 km/h (4 Bft) W-SW 248 0 min 0,000 mm 0,0 UV-I 0 W/m -1,2 C -9,1 C 24,1 km/h (4 Bft) 100,00 %
17.12.2017 23:12 0,4 C 3,9 C 89 % 1024,7 hPa 0,0 l/m 16,1 km/h (3 Bft) W 279 0 min 0,000 mm 0,0 UV-I 0 W/m -1,2 C -7,1 C 25,7 km/h (4 Bft) 100,00 %
17.12.2017 23:13 0,4 C 3,9 C 89 % 1024,5 hPa 0,0 l/m 15,9 km/h (3 Bft) W-SW 246 0 min 0,000 mm 0,0 UV-I 0 W/m -1,2 C -7,0 C 29,0 km/h (5 Bft) 96,67 %
17.12.2017 23:14 0,4 C 3,9 C 89 % 1024,6 hPa 0,0 l/m 18,9 km/h (3 Bft) W-SW 254 0 min 0,000 mm 0,0 UV-I 0 W/m -1,2 C -8,6 C 24,1 km/h (4 Bft) 100,00 %
17.12.2017 23:15 0,4 C 3,9 C 89 % 1024,6 hPa 0,0 l/m 20,1 km/h (4 Bft) S-SW 197 0 min 0,000 mm 0,0 UV-I 0 W/m -1,2 C -9,2 C 25,7 km/h (4 Bft) 100,00 %
17.12.2017 23:16 0,4 C 3,9 C 89 % 1024,5 hPa 0,0 l/m 20,0 km/h (4 Bft) W-SW 240 0 min 0,000 mm 0,0 UV-I 0 W/m -1,2 C -9,1 C 27,4 km/h (4 Bft) 100,00 %
17.12.2017 23:17 0,4 C 3,9 C 89 % 1024,6 hPa 0,0 l/m 16,0 km/h (3 Bft) W 264 0 min 0,000 mm 0,0 UV-I 0 W/m -1,2 C -7,1 C 20,9 km/h (4 Bft) 100,00 %
17.12.2017 23:18 0,4 C 3,9 C 88 % 1024,6 hPa 0,0 l/m 13,1 km/h (3 Bft) W 265 0 min 0,000 mm 0,0 UV-I 0 W/m -1,3 C -5,3 C 17,7 km/h (3 Bft) 100,00 %
17.12.2017 23:19 0,4 C 3,9 C 88 % 1024,6 hPa 0,0 l/m 14,8 km/h (3 Bft) W-SW 245 0 min 0,000 mm 0,0 UV-I 0 W/m -1,3 C -6,4 C 20,9 km/h (4 Bft) 100,00 %
17.12.2017 23:20 0,4 C 3,9 C 88 % 1024,6 hPa 0,0 l/m 17,7 km/h (3 Bft) W 263 0 min 0,000 mm 0,0 UV-I 0 W/m -1,3 C -8,0 C 24,1 km/h (4 Bft) 100,00 %
17.12.2017 23:21 0,4 C 3,9 C 88 % 1024,6 hPa 0,0 l/m 12,7 km/h (3 Bft) SW 215 0 min 0,000 mm 0,0 UV-I 0 W/m -1,3 C -5,0 C 20,9 km/h (4 Bft) 100,00 %
17.12.2017 23:22 0,4 C 3,9 C 88 % 1024,7 hPa 0,0 l/m 12,4 km/h (3 Bft) W-SW 246 0 min 0,000 mm 0,0 UV-I 0 W/m -1,3 C -4,8 C 16,1 km/h (3 Bft) 100,00 %
17.12.2017 23:23 0,4 C 3,9 C 88 % 1024,7 hPa 0,0 l/m 13,8 km/h (3 Bft) W-SW 252 0 min 0,000 mm 0,0 UV-I 0 W/m -1,3 C -5,8 C 17,7 km/h (3 Bft) 100,00 %
17.12.2017 23:24 0,4 C 3,9 C 88 % 1024,7 hPa 0,0 l/m 17,4 km/h (3 Bft) W 274 0 min 0,000 mm 0,0 UV-I 0 W/m -1,3 C -7,8 C 22,5 km/h (4 Bft) 100,00 %
17.12.2017 23:25 0,4 C 3,9 C 88 % 1024,7 hPa 0,0 l/m 14,7 km/h (3 Bft) SW 217 0 min 0,000 mm 0,0 UV-I 0 W/m -1,3 C -6,3 C 20,9 km/h (4 Bft) 100,00 %
17.12.2017 23:26 0,4 C 3,9 C 88 % 1024,7 hPa 0,0 l/m 19,5 km/h (3 Bft) W-SW 250 0 min 0,000 mm 0,0 UV-I 0 W/m -1,3 C -8,9 C 24,1 km/h (4 Bft) 100,00 %
17.12.2017 23:27 0,5 C 3,9 C 88 % 1024,7 hPa 0,0 l/m 12,9 km/h (3 Bft) SW 234 0 min 0,000 mm 0,0 UV-I 0 W/m -1,3 C -5,0 C 16,1 km/h (3 Bft) 98,12 %
17.12.2017 23:28 0,5 C 3,9 C 88 % 1024,7 hPa 0,0 l/m 11,7 km/h (2 Bft) W 270 0 min 0,000 mm 0,0 UV-I 0 W/m -1,3 C -4,2 C 17,7 km/h (3 Bft) 100,00 %
17.12.2017 23:29 0,5 C 3,9 C 88 % 1024,7 hPa 0,0 l/m 13,4 km/h (3 Bft) SW 235 0 min 0,000 mm 0,0 UV-I 0 W/m -1,3 C -5,4 C 17,7 km/h (3 Bft) 100,00 %
17.12.2017 23:30 0,5 C 3,9 C 88 % 1024,7 hPa 0,0 l/m 15,7 km/h (3 Bft) SW 216 0 min 0,000 mm 0,0 UV-I 0 W/m -1,3 C -6,8 C 24,1 km/h (4 Bft) 100,00 %
17.12.2017 23:31 0,5 C 3,9 C 88 % 1024,6 hPa 0,0 l/m 19,5 km/h (3 Bft) W-SW 252 0 min 0,000 mm 0,0 UV-I 0 W/m -1,3 C -8,8 C 25,7 km/h (4 Bft) 100,00 %
17.12.2017 23:32 0,6 C 3,9 C 87 % 1024,6 hPa 0,0 l/m 12,6 km/h (3 Bft) SW 227 0 min 0,000 mm 0,0 UV-I 0 W/m -1,3 C -4,7 C 19,3 km/h (3 Bft) 100,00 %
17.12.2017 23:33 0,6 C 3,9 C 87 % 1024,6 hPa 0,0 l/m 13,5 km/h (3 Bft) W-SW 245 0 min 0,000 mm 0,0 UV-I 0 W/m -1,3 C -5,3 C 22,5 km/h (4 Bft) 96,55 %
17.12.2017 23:34 0,6 C 3,9 C 87 % 1024,6 hPa 0,0 l/m 16,4 km/h (3 Bft) W-SW 252 0 min 0,000 mm 0,0 UV-I 0 W/m -1,3 C -7,1 C 22,5 km/h (4 Bft) 100,00 %
17.12.2017 23:35 0,6 C 3,9 C 87 % 1024,6 hPa 0,0 l/m 13,4 km/h (3 Bft) W 259 0 min 0,000 mm 0,0 UV-I 0 W/m -1,3 C -5,3 C 19,3 km/h (3 Bft) 100,00 %
17.12.2017 23:36 0,6 C 3,9 C 87 % 1024,7 hPa 0,0 l/m 15,2 km/h (3 Bft) W 269 0 min 0,000 mm 0,0 UV-I 0 W/m -1,3 C -6,4 C 20,9 km/h (4 Bft) 96,30 %
17.12.2017 23:37 0,6 C 3,9 C 87 % 1024,7 hPa 0,0 l/m 11,6 km/h (2 Bft) W-SW 248 0 min 0,000 mm 0,0 UV-I 0 W/m -1,3 C -4,0 C 17,7 km/h (3 Bft) 100,00 %
17.12.2017 23:38 0,6 C 3,9 C 87 % 1024,7 hPa 0,0 l/m 14,3 km/h (3 Bft) SW 224 0 min 0,000 mm 0,0 UV-I 0 W/m -1,3 C -5,8 C 22,5 km/h (4 Bft) 94,44 %
17.12.2017 23:39 0,6 C 3,9 C 87 % 1024,7 hPa 0,0 l/m 16,9 km/h (3 Bft) W-SW 248 0 min 0,000 mm 0,0 UV-I 0 W/m -1,3 C -7,3 C 22,5 km/h (4 Bft) 100,00 %
17.12.2017 23:40 0,6 C 3,9 C 87 % 1024,7 hPa 0,0 l/m 17,3 km/h (3 Bft) W-SW 257 0 min 0,000 mm 0,0 UV-I 0 W/m -1,3 C -7,5 C 22,5 km/h (4 Bft) 95,65 %
17.12.2017 23:41 0,6 C 3,9 C 87 % 1024,6 hPa 0,0 l/m 14,4 km/h (3 Bft) W 280 0 min 0,000 mm 0,0 UV-I 0 W/m -1,3 C -5,9 C 17,7 km/h (3 Bft) 91,67 %
17.12.2017 23:42 0,6 C 3,9 C 87 % 1024,7 hPa 0,0 l/m 13,1 km/h (3 Bft) W-SW 248 0 min 0,000 mm 0,0 UV-I 0 W/m -1,3 C -5,1 C 17,7 km/h (3 Bft) 92,86 %
17.12.2017 23:43 0,6 C 3,9 C 87 % 1024,7 hPa 0,0 l/m 18,7 km/h (3 Bft) SW 219 0 min 0,000 mm 0,0 UV-I 0 W/m -1,3 C -8,2 C 30,6 km/h (5 Bft) 100,00 %
17.12.2017 23:44 0,6 C 3,9 C 87 % 1024,7 hPa 0,0 l/m 16,9 km/h (3 Bft) W-SW 239 0 min 0,000 mm 0,0 UV-I 0 W/m -1,3 C -7,3 C 22,5 km/h (4 Bft) 96,55 %
17.12.2017 23:45 0,6 C 3,9 C 87 % 1024,7 hPa 0,0 l/m 16,8 km/h (3 Bft) W-SW 241 0 min 0,000 mm 0,0 UV-I 0 W/m -1,3 C -7,3 C 25,7 km/h (4 Bft) 93,33 %
17.12.2017 23:46 0,6 C 3,9 C 87 % 1024,7 hPa 0,0 l/m 19,6 km/h (3 Bft) W 261 0 min 0,000 mm 0,0 UV-I 0 W/m -1,3 C -8,7 C 27,4 km/h (4 Bft) 100,00 %
17.12.2017 23:47 0,6 C 3,9 C 87 % 1024,7 hPa 0,0 l/m 18,7 km/h (3 Bft) W-SW 247 0 min 0,000 mm 0,0 UV-I 0 W/m -1,3 C -8,2 C 30,6 km/h (5 Bft) 92,31 %
17.12.2017 23:48 0,6 C 3,9 C 87 % 1024,7 hPa 0,0 l/m 19,5 km/h (3 Bft) W 263 0 min 0,000 mm 0,0 UV-I 0 W/m -1,3 C -8,6 C 25,7 km/h (4 Bft) 100,00 %
17.12.2017 23:49 0,6 C 3,9 C 87 % 1024,7 hPa 0,0 l/m 20,7 km/h (4 Bft) W 272 0 min 0,000 mm 0,0 UV-I 0 W/m -1,3 C -9,2 C 27,4 km/h (4 Bft) 95,65 %
17.12.2017 23:50 0,6 C 3,9 C 86 % 1024,7 hPa 0,0 l/m 19,9 km/h (4 Bft) W 259 0 min 0,000 mm 0,0 UV-I 0 W/m -1,5 C -8,8 C 35,4 km/h (5 Bft) 100,00 %
17.12.2017 23:52 0,6 C 3,9 C 87 % 1024,7 hPa 0,0 l/m 14,6 km/h (3 Bft) W-NW 290 0 min 0,000 mm 0,0 UV-I 0 W/m -1,3 C -6,0 C 20,9 km/h (4 Bft) 94,34 %
17.12.2017 23:53 0,6 C 3,9 C 87 % 1024,7 hPa 0,0 l/m 13,9 km/h (3 Bft) W-SW 239 0 min 0,000 mm 0,0 UV-I 0 W/m -1,3 C -5,6 C 22,5 km/h (4 Bft) 100,00 %
17.12.2017 23:54 0,6 C 3,9 C 87 % 1024,7 hPa 0,0 l/m 13,7 km/h (3 Bft) W-SW 246 0 min 0,000 mm 0,0 UV-I 0 W/m -1,3 C -5,5 C 22,5 km/h (4 Bft) 96,67 %
17.12.2017 23:55 0,6 C 3,9 C 87 % 1024,8 hPa 0,0 l/m 15,9 km/h (3 Bft) W-SW 246 0 min 0,000 mm 0,0 UV-I 0 W/m -1,3 C -6,8 C 19,3 km/h (3 Bft) 98,09 %
17.12.2017 23:56 0,6 C 3,9 C 87 % 1024,8 hPa 0,0 l/m 14,5 km/h (3 Bft) SW 229 0 min 0,000 mm 0,0 UV-I 0 W/m -1,3 C -6,0 C 17,7 km/h (3 Bft) 95,45 %
17.12.2017 23:57 0,5 C 3,9 C 87 % 1024,7 hPa 0,0 l/m 12,7 km/h (3 Bft) W-SW 239 0 min 0,000 mm 0,0 UV-I 0 W/m -1,4 C -4,9 C 17,7 km/h (3 Bft) 100,00 %
17.12.2017 23:58 0,5 C 3,9 C 88 % 1024,8 hPa 0,0 l/m 18,5 km/h (3 Bft) W-SW 257 0 min 0,000 mm 0,0 UV-I 0 W/m -1,3 C -8,3 C 25,7 km/h (4 Bft) 94,44 %
17.12.2017 23:59 0,5 C 3,9 C 88 % 1024,7 hPa 0,0 l/m 16,4 km/h (3 Bft) W-SW 242 0 min 0,000 mm 0,0 UV-I 0 W/m -1,3 C -7,2 C 20,9 km/h (4 Bft) 100,00 %
_ Min-Zeit 05:47 00:00 23:50 00:00 - 00:44 - - - - - - 23:50 21:52 00:44 14:03
Minimum _ 0,3 C 3,9 C 86 % 1016,7 hPa - 4,8 km/h (1 Bft) - - - - - - -1,5 C -10,5 C 6,4 km/h (2 Bft) 13,04 %
_ Max-Zeit 12:32 00:00 00:38 23:55 11:26 21:52 - - 14:08 12:00 00:00 12:03 12:15 11:32 21:50 00:02
Maximum _ 1,8 C 3,9 C 96 % 1024,8 hPa 0,2 l/m 24,4 km/h
SW (4 Bft)
- - 2 min 0,051 mm 0,0 UV-I 200 W/m 0,5 C 1,2 C 35,4 km/h
W-SW (5 Bft)
100,00 %
Durchschnitt _ 0,8 C 3,9 C 93 % 1020,4 hPa #1,2 l/m 12,1 km/h (2 Bft) W-SW - #13 min. #0,330 mm 0,0 UV-I 64 W/m -0,3 C -3,9 C 17,1 km/h (3 Bft) 97,22 %